<?xml version='1.0' encoding='UTF-8'?><gpx version="1.1" creator="JPX - https://github.com/jenetics/jpx" xmlns="http://www.topografix.com/GPX/1/1"><trk><trkseg><trkpt lat="44.542326693984435" lon="2.772608022135987"><ele>518.6</ele><time>2026-03-26T13:34:08.999Z</time></trkpt><trkpt lat="44.54241367719126" lon="2.772733001809546"><ele>523.2</ele><time>2026-03-26T13:34:10.999Z</time></trkpt><trkpt lat="44.54248362566865" lon="2.772788054666589"><ele>527.8000000000001</ele><time>2026-03-26T13:34:11.999Z</time></trkpt><trkpt lat="44.54255863049553" lon="2.772843900904991"><ele>532.4</ele><time>2026-03-26T13:34:12.999Z</time></trkpt><trkpt lat="44.542628256201816" lon="2.7728929132426265"><ele>537.0</ele><time>2026-03-26T13:34:13.999Z</time></trkpt><trkpt lat="44.54271135977431" lon="2.772953323168498"><ele>537.0</ele><time>2026-03-26T13:34:14.999Z</time></trkpt><trkpt lat="44.54280196827803" lon="2.7730212129582017"><ele>537.0</ele><time>2026-03-26T13:34:15.999Z</time></trkpt><trkpt lat="44.542897245328454" lon="2.773099401072349"><ele>537.0</ele><time>2026-03-26T13:34:16.999Z</time></trkpt><trkpt lat="44.542983451611526" lon="2.773166885582087"><ele>537.0</ele><time>2026-03-26T13:34:17.999Z</time></trkpt><trkpt lat="44.54308097754752" lon="2.773247534781593"><ele>537.0</ele><time>2026-03-26T13:34:18.999Z</time></trkpt><trkpt lat="44.5431757009423" lon="2.773333738752058"><ele>538.25</ele><time>2026-03-26T13:34:19.999Z</time></trkpt><trkpt lat="44.54327994753535" lon="2.773430188150635"><ele>539.5</ele><time>2026-03-26T13:34:20.999Z</time></trkpt><trkpt lat="44.5433841420236" lon="2.773529965552849"><ele>540.75</ele><time>2026-03-26T13:34:21.999Z</time></trkpt><trkpt lat="44.54348931168366" lon="2.773643230052012"><ele>542.0</ele><time>2026-03-26T13:34:22.999Z</time></trkpt><trkpt lat="44.543584047496935" lon="2.773765366059123"><ele>542.0</ele><time>2026-03-26T13:34:23.999Z</time></trkpt><trkpt lat="44.54366697467819" lon="2.773905195659169"><ele>542.0</ele><time>2026-03-26T13:34:24.999Z</time></trkpt><trkpt lat="44.543728375619686" lon="2.7740562661553905"><ele>542.0</ele><time>2026-03-26T13:34:25.999Z</time></trkpt><trkpt lat="44.543740350629754" lon="2.7742190741200363"><ele>542.0</ele><time>2026-03-26T13:34:26.999Z</time></trkpt><trkpt lat="44.543725624784855" lon="2.7743742704975753"><ele>544.25</ele><time>2026-03-26T13:34:27.999Z</time></trkpt><trkpt lat="44.543682501869746" lon="2.7745505875194705"><ele>546.5</ele><time>2026-03-26T13:34:28.999Z</time></trkpt><trkpt lat="44.54361799498753" lon="2.774713410974394"><ele>548.75</ele><time>2026-03-26T13:34:29.999Z</time></trkpt><trkpt lat="44.54354880154489" lon="2.7748904780621046"><ele>551.0</ele><time>2026-03-26T13:34:30.998Z</time></trkpt><trkpt lat="44.543480778636834" lon="2.7750709980952233"><ele>549.3333333333333</ele><time>2026-03-26T13:34:31.998Z</time></trkpt><trkpt lat="44.54341716603596" lon="2.7752618770432296"><ele>547.6666666666666</ele><time>2026-03-26T13:34:32.998Z</time></trkpt><trkpt lat="44.54335783913743" lon="2.775472873363978"><ele>546.0</ele><time>2026-03-26T13:34:33.998Z</time></trkpt><trkpt lat="44.54329722421279" lon="2.775688737157005"><ele>546.0</ele><time>2026-03-26T13:34:34.998Z</time></trkpt><trkpt lat="44.54324498013045" lon="2.7758954655538313"><ele>546.0</ele><time>2026-03-26T13:34:35.998Z</time></trkpt><trkpt lat="44.543208921327775" lon="2.776089138320449"><ele>546.0</ele><time>2026-03-26T13:34:37Z</time></trkpt><trkpt lat="44.543206467355894" lon="2.776282111299277"><ele>546.0</ele><time>2026-03-26T13:34:38Z</time></trkpt><trkpt lat="44.54323932957967" lon="2.776468822355016"><ele>547.0</ele><time>2026-03-26T13:34:39Z</time></trkpt><trkpt lat="44.543299587118725" lon="2.7766542960414236"><ele>548.0</ele><time>2026-03-26T13:34:40Z</time></trkpt><trkpt lat="44.543376397936996" lon="2.776836829253559"><ele>549.0</ele><time>2026-03-26T13:34:41Z</time></trkpt><trkpt lat="44.54346145697334" lon="2.777027368629129"><ele>550.3333333333334</ele><time>2026-03-26T13:34:42Z</time></trkpt><trkpt lat="44.54355102090648" lon="2.777218692776955"><ele>551.6666666666667</ele><time>2026-03-26T13:34:43Z</time></trkpt><trkpt lat="44.54365204842425" lon="2.7774062136461986"><ele>553.0</ele><time>2026-03-26T13:34:44Z</time></trkpt><trkpt lat="44.543766661241335" lon="2.7775769342958117"><ele>555.3333333333334</ele><time>2026-03-26T13:34:45Z</time></trkpt><trkpt lat="44.54389170293765" lon="2.777726127384111"><ele>557.6666666666666</ele><time>2026-03-26T13:34:46Z</time></trkpt><trkpt lat="44.54402760352995" lon="2.7778575711725533"><ele>560.0</ele><time>2026-03-26T13:34:47Z</time></trkpt><trkpt lat="44.54416840082556" lon="2.7779783491392345"><ele>560.0</ele><time>2026-03-26T13:34:48Z</time></trkpt><trkpt lat="44.54431622536621" lon="2.778085227479535"><ele>560.0</ele><time>2026-03-26T13:34:49Z</time></trkpt><trkpt lat="44.54446806391708" lon="2.778172730810649"><ele>560.0</ele><time>2026-03-26T13:34:50Z</time></trkpt><trkpt lat="44.54462025471141" lon="2.7782290270656484"><ele>562.6666666666666</ele><time>2026-03-26T13:34:51Z</time></trkpt><trkpt lat="44.54477776466843" lon="2.7782472763353314"><ele>565.3333333333334</ele><time>2026-03-26T13:34:52Z</time></trkpt><trkpt lat="44.5449394674773" lon="2.7782259597427483"><ele>568.0</ele><time>2026-03-26T13:34:53Z</time></trkpt><trkpt lat="44.54509675822552" lon="2.77817925458637"><ele>568.0</ele><time>2026-03-26T13:34:54Z</time></trkpt><trkpt lat="44.54525714847658" lon="2.7781291026627923"><ele>568.0</ele><time>2026-03-26T13:34:55Z</time></trkpt><trkpt lat="44.54541444132654" lon="2.778078045072923"><ele>568.0</ele><time>2026-03-26T13:34:56Z</time></trkpt><trkpt lat="44.545575883113656" lon="2.7780249194266338"><ele>570.3333333333334</ele><time>2026-03-26T13:34:57Z</time></trkpt><trkpt lat="44.545735419262655" lon="2.777977110781716"><ele>572.6666666666666</ele><time>2026-03-26T13:34:58Z</time></trkpt><trkpt lat="44.54588853235282" lon="2.777933035136448"><ele>575.0</ele><time>2026-03-26T13:34:59Z</time></trkpt><trkpt lat="44.54603318232412" lon="2.777887187123057"><ele>575.0</ele><time>2026-03-26T13:35:00Z</time></trkpt><trkpt lat="44.54616629858877" lon="2.7778380687727267"><ele>575.0</ele><time>2026-03-26T13:35:01Z</time></trkpt><trkpt lat="44.54629416970459" lon="2.777780288670462"><ele>575.0</ele><time>2026-03-26T13:35:02Z</time></trkpt><trkpt lat="44.5464104554053" lon="2.777702378185642"><ele>575.0</ele><time>2026-03-26T13:35:03Z</time></trkpt><trkpt lat="44.5465248192459" lon="2.7776028052440167"><ele>576.0</ele><time>2026-03-26T13:35:04Z</time></trkpt><trkpt lat="44.54663487047461" lon="2.777480819842496"><ele>577.0</ele><time>2026-03-26T13:35:05Z</time></trkpt><trkpt lat="44.546739684988395" lon="2.7773363917149947"><ele>578.0</ele><time>2026-03-26T13:35:06Z</time></trkpt><trkpt lat="44.546839782147316" lon="2.7771776262948493"><ele>579.0</ele><time>2026-03-26T13:35:07Z</time></trkpt><trkpt lat="44.54694850064889" lon="2.7770150419547113"><ele>582.3333333333334</ele><time>2026-03-26T13:35:08Z</time></trkpt><trkpt lat="44.547062376771684" lon="2.776848734942059"><ele>585.6666666666667</ele><time>2026-03-26T13:35:09Z</time></trkpt><trkpt lat="44.54717755051844" lon="2.776679340868714"><ele>589.0</ele><time>2026-03-26T13:35:10Z</time></trkpt><trkpt lat="44.547292738532654" lon="2.7765080482476283"><ele>589.0</ele><time>2026-03-26T13:35:11Z</time></trkpt><trkpt lat="44.54740947774733" lon="2.776332206960678"><ele>589.0</ele><time>2026-03-26T13:35:12Z</time></trkpt><trkpt lat="44.54752472252582" lon="2.7761611007441465"><ele>589.0</ele><time>2026-03-26T13:35:13Z</time></trkpt><trkpt lat="44.547624728576544" lon="2.7760230477188346"><ele>589.0</ele><time>2026-03-26T13:35:14Z</time></trkpt><trkpt lat="44.547726452510936" lon="2.775916118186223"><ele>589.0</ele><time>2026-03-26T13:35:15Z</time></trkpt><trkpt lat="44.54784159557205" lon="2.7758475866893257"><ele>589.0</ele><time>2026-03-26T13:35:16Z</time></trkpt><trkpt lat="44.547967192897545" lon="2.775834655762411"><ele>589.0</ele><time>2026-03-26T13:35:17Z</time></trkpt><trkpt lat="44.5480946125419" lon="2.7758596379880585"><ele>589.0</ele><time>2026-03-26T13:35:18Z</time></trkpt><trkpt lat="44.54821959916057" lon="2.7759302516539823"><ele>589.0</ele><time>2026-03-26T13:35:19Z</time></trkpt><trkpt lat="44.54832923226365" lon="2.7760485528351584"><ele>589.0</ele><time>2026-03-26T13:35:19.999Z</time></trkpt><trkpt lat="44.54841578952085" lon="2.7762047724560515"><ele>589.0</ele><time>2026-03-26T13:35:20.999Z</time></trkpt><trkpt lat="44.54847777830987" lon="2.776391755047486"><ele>591.3333333333334</ele><time>2026-03-26T13:35:21.999Z</time></trkpt><trkpt lat="44.548505688257414" lon="2.7765986087539853"><ele>593.6666666666666</ele><time>2026-03-26T13:35:22.999Z</time></trkpt><trkpt lat="44.54852391643293" lon="2.7768136784457673"><ele>596.0</ele><time>2026-03-26T13:35:23.999Z</time></trkpt><trkpt lat="44.54854658552565" lon="2.7770305055792157"><ele>598.25</ele><time>2026-03-26T13:35:24.999Z</time></trkpt><trkpt lat="44.548576170177036" lon="2.777242419979938"><ele>600.5</ele><time>2026-03-26T13:35:25.999Z</time></trkpt><trkpt lat="44.548604255750725" lon="2.7774215449888504"><ele>602.75</ele><time>2026-03-26T13:35:26.999Z</time></trkpt><trkpt lat="44.548650590257125" lon="2.7775776573690334"><ele>605.0</ele><time>2026-03-26T13:35:27.999Z</time></trkpt><trkpt lat="44.54871833652146" lon="2.777725586349203"><ele>608.0</ele><time>2026-03-26T13:35:28.999Z</time></trkpt><trkpt lat="44.548828440387084" lon="2.777787747776918"><ele>611.0</ele><time>2026-03-26T13:35:29.999Z</time></trkpt><trkpt lat="44.548946879951416" lon="2.777810226868359"><ele>614.0</ele><time>2026-03-26T13:35:30.999Z</time></trkpt><trkpt lat="44.549060451185134" lon="2.777783091579957"><ele>617.0</ele><time>2026-03-26T13:35:31.999Z</time></trkpt><trkpt lat="44.549163742582586" lon="2.777699801040387"><ele>615.0</ele><time>2026-03-26T13:35:32.999Z</time></trkpt><trkpt lat="44.549241819374956" lon="2.777577384813251"><ele>613.0</ele><time>2026-03-26T13:35:33.999Z</time></trkpt><trkpt lat="44.54929762822844" lon="2.777416588004348"><ele>611.0</ele><time>2026-03-26T13:35:34.999Z</time></trkpt><trkpt lat="44.549343635688835" lon="2.7772345986438656"><ele>609.0</ele><time>2026-03-26T13:35:35.999Z</time></trkpt><trkpt lat="44.54939418750681" lon="2.7770434947353584"><ele>606.3333333333334</ele><time>2026-03-26T13:35:36.999Z</time></trkpt><trkpt lat="44.54945640929483" lon="2.776847579492139"><ele>603.6666666666667</ele><time>2026-03-26T13:35:37.999Z</time></trkpt><trkpt lat="44.54953006890092" lon="2.7766379098260265"><ele>601.0</ele><time>2026-03-26T13:35:38.999Z</time></trkpt><trkpt lat="44.549600508546256" lon="2.776415752158568"><ele>603.25</ele><time>2026-03-26T13:35:39.999Z</time></trkpt><trkpt lat="44.54966267433329" lon="2.7762233777394822"><ele>605.5</ele><time>2026-03-26T13:35:40.999Z</time></trkpt><trkpt lat="44.54972400891697" lon="2.776063634817678"><ele>607.75</ele><time>2026-03-26T13:35:41.999Z</time></trkpt><trkpt lat="44.54979562977526" lon="2.7759411372567757"><ele>610.0</ele><time>2026-03-26T13:35:42.999Z</time></trkpt><trkpt lat="44.54988929636547" lon="2.7758509418686415"><ele>610.0</ele><time>2026-03-26T13:35:43.999Z</time></trkpt><trkpt lat="44.55000312921265" lon="2.7758333834298416"><ele>610.0</ele><time>2026-03-26T13:35:44.999Z</time></trkpt><trkpt lat="44.550113944108176" lon="2.7758750951815587"><ele>610.0</ele><time>2026-03-26T13:35:45.999Z</time></trkpt><trkpt lat="44.55020204930992" lon="2.775980043040607"><ele>610.0</ele><time>2026-03-26T13:35:46.999Z</time></trkpt><trkpt lat="44.55027158867483" lon="2.776119388351328"><ele>612.25</ele><time>2026-03-26T13:35:47.999Z</time></trkpt><trkpt lat="44.55031917733933" lon="2.776288233600292"><ele>614.5</ele><time>2026-03-26T13:35:48.999Z</time></trkpt><trkpt lat="44.5503625279316" lon="2.7764683595614397"><ele>616.75</ele><time>2026-03-26T13:35:49.999Z</time></trkpt><trkpt lat="44.550419018543124" lon="2.776653561025078"><ele>619.0</ele><time>2026-03-26T13:35:50.999Z</time></trkpt><trkpt lat="44.550497353464124" lon="2.7768337995249777"><ele>623.25</ele><time>2026-03-26T13:35:51.999Z</time></trkpt><trkpt lat="44.55059756101882" lon="2.776990786772916"><ele>627.5</ele><time>2026-03-26T13:35:52.999Z</time></trkpt><trkpt lat="44.550704774873815" lon="2.777119205445342"><ele>631.75</ele><time>2026-03-26T13:35:53.999Z</time></trkpt><trkpt lat="44.550804723346175" lon="2.777220516554146"><ele>636.0</ele><time>2026-03-26T13:35:54.999Z</time></trkpt><trkpt lat="44.550906872648426" lon="2.7773135402177176"><ele>636.0</ele><time>2026-03-26T13:35:55.999Z</time></trkpt><trkpt lat="44.5510162677079" lon="2.777414370817749"><ele>636.0</ele><time>2026-03-26T13:35:56.999Z</time></trkpt><trkpt lat="44.551123952064465" lon="2.7775200285986554"><ele>636.0</ele><time>2026-03-26T13:35:57.999Z</time></trkpt><trkpt lat="44.55123028313741" lon="2.777627368821563"><ele>636.0</ele><time>2026-03-26T13:35:58.999Z</time></trkpt><trkpt lat="44.55133270079582" lon="2.7777351406112443"><ele>639.4</ele><time>2026-03-26T13:35:59.999Z</time></trkpt><trkpt lat="44.55143157797213" lon="2.7778305761934248"><ele>642.8</ele><time>2026-03-26T13:36:00.999Z</time></trkpt><trkpt lat="44.55152347006492" lon="2.7779178783450513"><ele>646.1999999999999</ele><time>2026-03-26T13:36:01.999Z</time></trkpt><trkpt lat="44.55160132145072" lon="2.7779901181369806"><ele>649.6</ele><time>2026-03-26T13:36:02.999Z</time></trkpt><trkpt lat="44.55167755367513" lon="2.7780552246990617"><ele>653.0</ele><time>2026-03-26T13:36:03.999Z</time></trkpt><trkpt lat="44.55173535549981" lon="2.778109857562237"><ele>653.0</ele><time>2026-03-26T13:36:04.999Z</time></trkpt><trkpt lat="44.55178872859977" lon="2.778159383939232"><ele>653.0</ele><time>2026-03-26T13:36:05.999Z</time></trkpt><trkpt lat="44.5518738920191" lon="2.778242454288192"><ele>653.0</ele><time>2026-03-26T13:36:07.999Z</time></trkpt><trkpt lat="44.551940370563" lon="2.778252354461269"><ele>653.0</ele><time>2026-03-26T13:36:54Z</time></trkpt><trkpt lat="44.55201213197522" lon="2.7782734394504454"><ele>653.0</ele><time>2026-03-26T13:36:55Z</time></trkpt><trkpt lat="44.55209794239662" lon="2.7782917137179886"><ele>653.0</ele><time>2026-03-26T13:36:56Z</time></trkpt><trkpt lat="44.552189295867194" lon="2.778305448388427"><ele>651.4</ele><time>2026-03-26T13:36:57Z</time></trkpt><trkpt lat="44.552276878395766" lon="2.7783370520779997"><ele>649.8</ele><time>2026-03-26T13:36:58Z</time></trkpt><trkpt lat="44.55236072938516" lon="2.778365749636483"><ele>648.2</ele><time>2026-03-26T13:36:59Z</time></trkpt><trkpt lat="44.55245754553913" lon="2.778383573549821"><ele>646.6</ele><time>2026-03-26T13:37:00Z</time></trkpt><trkpt lat="44.552556321274054" lon="2.7784001609963256"><ele>645.0</ele><time>2026-03-26T13:37:01Z</time></trkpt><trkpt lat="44.552664410022516" lon="2.7784245260463334"><ele>645.0</ele><time>2026-03-26T13:37:02Z</time></trkpt><trkpt lat="44.55277198942071" lon="2.7784516367880454"><ele>645.0</ele><time>2026-03-26T13:37:03Z</time></trkpt><trkpt lat="44.55288642912474" lon="2.7784843789627405"><ele>645.0</ele><time>2026-03-26T13:37:04Z</time></trkpt><trkpt lat="44.55300510484004" lon="2.7785187520874848"><ele>645.0</ele><time>2026-03-26T13:37:05Z</time></trkpt><trkpt lat="44.55312595632658" lon="2.778562673410335"><ele>653.0</ele><time>2026-03-26T13:37:06Z</time></trkpt><trkpt lat="44.55324316429255" lon="2.7786145969834064"><ele>661.0</ele><time>2026-03-26T13:37:07Z</time></trkpt><trkpt lat="44.553348549550904" lon="2.7786703406625626"><ele>669.0</ele><time>2026-03-26T13:37:08Z</time></trkpt><trkpt lat="44.553460372395946" lon="2.7787407098425456"><ele>677.0</ele><time>2026-03-26T13:37:09Z</time></trkpt><trkpt lat="44.55357543995967" lon="2.778811464135659"><ele>677.0</ele><time>2026-03-26T13:37:10Z</time></trkpt><trkpt lat="44.55369611890503" lon="2.778894633572775"><ele>677.0</ele><time>2026-03-26T13:37:11Z</time></trkpt><trkpt lat="44.5538167408468" lon="2.778993417151777"><ele>677.0</ele><time>2026-03-26T13:37:12Z</time></trkpt><trkpt lat="44.55393155657228" lon="2.779099702606734"><ele>677.0</ele><time>2026-03-26T13:37:13Z</time></trkpt><trkpt lat="44.55404433218435" lon="2.7792153247615374"><ele>679.25</ele><time>2026-03-26T13:37:14Z</time></trkpt><trkpt lat="44.554158667291276" lon="2.7793353270171206"><ele>681.5</ele><time>2026-03-26T13:37:15Z</time></trkpt><trkpt lat="44.55427633595686" lon="2.7794645353893292"><ele>683.75</ele><time>2026-03-26T13:37:16Z</time></trkpt><trkpt lat="44.55439329762551" lon="2.779595924213271"><ele>686.0</ele><time>2026-03-26T13:37:17Z</time></trkpt><trkpt lat="44.554511854695555" lon="2.779726861362021"><ele>682.5</ele><time>2026-03-26T13:37:18Z</time></trkpt><trkpt lat="44.55462527747573" lon="2.7798451162792026"><ele>679.0</ele><time>2026-03-26T13:37:19Z</time></trkpt><trkpt lat="44.55472381566047" lon="2.7799347934572034"><ele>675.5</ele><time>2026-03-26T13:37:19.999Z</time></trkpt><trkpt lat="44.55481597779403" lon="2.7800013637198133"><ele>672.0</ele><time>2026-03-26T13:37:20.999Z</time></trkpt><trkpt lat="44.55490868544461" lon="2.7800480419973437"><ele>672.0</ele><time>2026-03-26T13:37:21.999Z</time></trkpt><trkpt lat="44.55500429429513" lon="2.78007897963829"><ele>672.0</ele><time>2026-03-26T13:37:22.999Z</time></trkpt><trkpt lat="44.55508901142472" lon="2.7801007359729777"><ele>672.0</ele><time>2026-03-26T13:37:23.999Z</time></trkpt><trkpt lat="44.555169192463666" lon="2.7801067425325425"><ele>672.0</ele><time>2026-03-26T13:37:24.999Z</time></trkpt><trkpt lat="44.55525404515229" lon="2.780113832861379"><ele>672.0</ele><time>2026-03-26T13:37:25.999Z</time></trkpt><trkpt lat="44.55534904329589" lon="2.7801246264625097"><ele>672.0</ele><time>2026-03-26T13:37:26.999Z</time></trkpt><trkpt lat="44.5554504563324" lon="2.780139990664794"><ele>671.4000000000001</ele><time>2026-03-26T13:37:27.999Z</time></trkpt><trkpt lat="44.555546662018386" lon="2.7801537179829543"><ele>670.8000000000001</ele><time>2026-03-26T13:37:28.999Z</time></trkpt><trkpt lat="44.555652875326224" lon="2.7801678468363695"><ele>670.2</ele><time>2026-03-26T13:37:29.999Z</time></trkpt><trkpt lat="44.55577166254158" lon="2.780187916300799"><ele>669.6</ele><time>2026-03-26T13:37:30.999Z</time></trkpt><trkpt lat="44.55589166740995" lon="2.7802067313363663"><ele>669.0</ele><time>2026-03-26T13:37:31.999Z</time></trkpt><trkpt lat="44.55601168005284" lon="2.7802244456275687"><ele>672.5</ele><time>2026-03-26T13:37:32.999Z</time></trkpt><trkpt lat="44.55612907323862" lon="2.780240323918337"><ele>676.0</ele><time>2026-03-26T13:37:33.999Z</time></trkpt><trkpt lat="44.556245806490686" lon="2.780254299689379"><ele>679.5</ele><time>2026-03-26T13:37:34.999Z</time></trkpt><trkpt lat="44.55636113049335" lon="2.780276177937721"><ele>683.0</ele><time>2026-03-26T13:37:35.999Z</time></trkpt><trkpt lat="44.55647451854916" lon="2.7803001448009215"><ele>683.0</ele><time>2026-03-26T13:37:36.999Z</time></trkpt><trkpt lat="44.55658854588056" lon="2.7803147272394155"><ele>683.0</ele><time>2026-03-26T13:37:37.999Z</time></trkpt><trkpt lat="44.55671165679058" lon="2.7803339601147252"><ele>683.0</ele><time>2026-03-26T13:37:38.999Z</time></trkpt><trkpt lat="44.5568458266992" lon="2.7803518103320055"><ele>683.0</ele><time>2026-03-26T13:37:39.999Z</time></trkpt><trkpt lat="44.55696845019494" lon="2.7803794171113903"><ele>682.8</ele><time>2026-03-26T13:37:40.999Z</time></trkpt><trkpt lat="44.55707000348338" lon="2.780420699026293"><ele>682.5999999999999</ele><time>2026-03-26T13:37:41.999Z</time></trkpt><trkpt lat="44.557171366090685" lon="2.780484062737734"><ele>682.4000000000001</ele><time>2026-03-26T13:37:42.999Z</time></trkpt><trkpt lat="44.55726614791085" lon="2.780570237714639"><ele>682.2</ele><time>2026-03-26T13:37:43.999Z</time></trkpt><trkpt lat="44.557353033262906" lon="2.7806789978192383"><ele>682.0</ele><time>2026-03-26T13:37:44.999Z</time></trkpt><trkpt lat="44.55743279698241" lon="2.7808121895670603"><ele>682.0</ele><time>2026-03-26T13:37:45.999Z</time></trkpt><trkpt lat="44.557498020319876" lon="2.7809692714899255"><ele>682.0</ele><time>2026-03-26T13:37:46.999Z</time></trkpt><trkpt lat="44.55754103436283" lon="2.7811394955220927"><ele>682.0</ele><time>2026-03-26T13:37:47.999Z</time></trkpt><trkpt lat="44.557562716212196" lon="2.781316662967025"><ele>682.0</ele><time>2026-03-26T13:37:48.999Z</time></trkpt><trkpt lat="44.557561694747584" lon="2.781501220356302"><ele>683.75</ele><time>2026-03-26T13:37:49.999Z</time></trkpt><trkpt lat="44.55753860919069" lon="2.7816833121829245"><ele>685.5</ele><time>2026-03-26T13:37:50.999Z</time></trkpt><trkpt lat="44.55749180705356" lon="2.7818589645052416"><ele>687.25</ele><time>2026-03-26T13:37:51.999Z</time></trkpt><trkpt lat="44.55742337424765" lon="2.782023571038762"><ele>689.0</ele><time>2026-03-26T13:37:52.999Z</time></trkpt><trkpt lat="44.557348866457325" lon="2.782172068375657"><ele>689.75</ele><time>2026-03-26T13:37:53.999Z</time></trkpt><trkpt lat="44.55726715913975" lon="2.7823087654886147"><ele>690.5</ele><time>2026-03-26T13:37:54.999Z</time></trkpt><trkpt lat="44.55718903645959" lon="2.7824476138192167"><ele>691.25</ele><time>2026-03-26T13:37:55.999Z</time></trkpt><trkpt lat="44.55711060779941" lon="2.782586294532104"><ele>692.0</ele><time>2026-03-26T13:37:56.999Z</time></trkpt><trkpt lat="44.557039470739426" lon="2.782731754159987"><ele>694.75</ele><time>2026-03-26T13:37:57.999Z</time></trkpt><trkpt lat="44.556979942764414" lon="2.782879124880122"><ele>697.5</ele><time>2026-03-26T13:37:58.999Z</time></trkpt><trkpt lat="44.556934475373964" lon="2.7830329052641885"><ele>700.25</ele><time>2026-03-26T13:37:59.999Z</time></trkpt><trkpt lat="44.556901838365064" lon="2.7831812770415114"><ele>703.0</ele><time>2026-03-26T13:38:00.999Z</time></trkpt><trkpt lat="44.556885781396616" lon="2.7833464673012482"><ele>703.0</ele><time>2026-03-26T13:38:01.999Z</time></trkpt><trkpt lat="44.55689143309405" lon="2.7835046690785137"><ele>703.0</ele><time>2026-03-26T13:38:02.999Z</time></trkpt><trkpt lat="44.55691073360729" lon="2.7836552951220437"><ele>703.0</ele><time>2026-03-26T13:38:03.999Z</time></trkpt><trkpt lat="44.55694120070379" lon="2.783800607407319"><ele>703.0</ele><time>2026-03-26T13:38:04.999Z</time></trkpt><trkpt lat="44.556979905109834" lon="2.783937257065161"><ele>703.0</ele><time>2026-03-26T13:38:05.999Z</time></trkpt><trkpt lat="44.557034232266616" lon="2.7840616527648643"><ele>703.0</ele><time>2026-03-26T13:38:06.999Z</time></trkpt><trkpt lat="44.557098882073184" lon="2.7841939134949674"><ele>703.0</ele><time>2026-03-26T13:38:07.999Z</time></trkpt><trkpt lat="44.55716635680984" lon="2.784340745404623"><ele>703.0</ele><time>2026-03-26T13:38:08.999Z</time></trkpt><trkpt lat="44.5572392669923" lon="2.7844940184625235"><ele>703.0</ele><time>2026-03-26T13:38:09.999Z</time></trkpt><trkpt lat="44.55731175138305" lon="2.7846530556061264"><ele>704.5</ele><time>2026-03-26T13:38:10.999Z</time></trkpt><trkpt lat="44.55739143661966" lon="2.784815070179074"><ele>706.0</ele><time>2026-03-26T13:38:11.999Z</time></trkpt><trkpt lat="44.557473163351716" lon="2.7849865715580706"><ele>707.5</ele><time>2026-03-26T13:38:12.999Z</time></trkpt><trkpt lat="44.55755535817383" lon="2.785158428942631"><ele>709.0</ele><time>2026-03-26T13:38:13.999Z</time></trkpt><trkpt lat="44.55764037984228" lon="2.7853369675368196"><ele>709.3333333333334</ele><time>2026-03-26T13:38:14.999Z</time></trkpt><trkpt lat="44.557730510637995" lon="2.785530618950198"><ele>709.6666666666666</ele><time>2026-03-26T13:38:15.999Z</time></trkpt><trkpt lat="44.55781742285326" lon="2.7857109890995804"><ele>710.0</ele><time>2026-03-26T13:38:16.999Z</time></trkpt><trkpt lat="44.55789631170406" lon="2.7858715753625063"><ele>710.0</ele><time>2026-03-26T13:38:17.999Z</time></trkpt><trkpt lat="44.557966992665484" lon="2.786009474597496"><ele>710.0</ele><time>2026-03-26T13:38:18.999Z</time></trkpt><trkpt lat="44.55803077466819" lon="2.786122003706695"><ele>710.0</ele><time>2026-03-26T13:38:19.999Z</time></trkpt><trkpt lat="44.55809194234175" lon="2.7862119737894586"><ele>710.0</ele><time>2026-03-26T13:38:20.999Z</time></trkpt><trkpt lat="44.55815603748336" lon="2.78629269613235"><ele>710.0</ele><time>2026-03-26T13:38:21.999Z</time></trkpt><trkpt lat="44.558228707684655" lon="2.7863671759500637"><ele>712.0</ele><time>2026-03-26T13:38:22.999Z</time></trkpt><trkpt lat="44.55831136202955" lon="2.786435886785382"><ele>714.0</ele><time>2026-03-26T13:38:23.999Z</time></trkpt><trkpt lat="44.55840095208219" lon="2.78650626242402"><ele>716.0</ele><time>2026-03-26T13:38:24.999Z</time></trkpt><trkpt lat="44.558481629021465" lon="2.78656744772952"><ele>718.0</ele><time>2026-03-26T13:38:25.999Z</time></trkpt><trkpt lat="44.558553967795824" lon="2.786611267272863"><ele>720.0</ele><time>2026-03-26T13:38:26.999Z</time></trkpt><trkpt lat="44.55861965498599" lon="2.786641218203653"><ele>722.0</ele><time>2026-03-26T13:38:27.999Z</time></trkpt><trkpt lat="44.558704958954735" lon="2.7866677064725454"><ele>722.0</ele><time>2026-03-26T13:38:28.999Z</time></trkpt><trkpt lat="44.55876931918705" lon="2.786694658875584"><ele>722.0</ele><time>2026-03-26T13:38:29.999Z</time></trkpt><trkpt lat="44.55885405587612" lon="2.78672327150827"><ele>722.0</ele><time>2026-03-26T13:38:30.999Z</time></trkpt><trkpt lat="44.55894756309903" lon="2.786739055187669"><ele>722.0</ele><time>2026-03-26T13:38:31.999Z</time></trkpt><trkpt lat="44.55902990497255" lon="2.7867369459775695"><ele>722.0</ele><time>2026-03-26T13:38:32.999Z</time></trkpt><trkpt lat="44.55909267459695" lon="2.7867214627894246"><ele>722.0</ele><time>2026-03-26T13:38:33.999Z</time></trkpt><trkpt lat="44.55915477073741" lon="2.7867525065768737"><ele>722.0</ele><time>2026-03-26T13:38:35.999Z</time></trkpt><trkpt lat="44.559056598308885" lon="2.7865509187316153"><ele>722.0</ele><time>2026-03-26T13:38:39.998Z</time></trkpt><trkpt lat="44.55892884687605" lon="2.7865493547245026"><ele>722.0</ele><time>2026-03-26T13:38:41.998Z</time></trkpt><trkpt lat="44.55885898608453" lon="2.786540433524421"><ele>722.0</ele><time>2026-03-26T13:38:43.998Z</time></trkpt><trkpt lat="44.55887237651131" lon="2.78644408019893"><ele>722.0</ele><time>2026-03-26T13:38:46.998Z</time></trkpt><trkpt lat="44.55894556568425" lon="2.7864117143403484"><ele>722.0</ele><time>2026-03-26T13:38:49Z</time></trkpt><trkpt lat="44.55901522809202" lon="2.786402604747883"><ele>722.0</ele><time>2026-03-26T13:38:50Z</time></trkpt><trkpt lat="44.55910377376469" lon="2.786384980130548"><ele>722.0</ele><time>2026-03-26T13:38:51Z</time></trkpt><trkpt lat="44.55921888605951" lon="2.786744524199132"><ele>722.0</ele><time>2026-03-26T13:38:52Z</time></trkpt><trkpt lat="44.55933242120648" lon="2.7867295247374444"><ele>722.0</ele><time>2026-03-26T13:38:54Z</time></trkpt><trkpt lat="44.55944181867398" lon="2.7867130906432274"><ele>722.0</ele><time>2026-03-26T13:38:56Z</time></trkpt><trkpt lat="44.55957753577741" lon="2.7866882912894355"><ele>722.0</ele><time>2026-03-26T13:38:58Z</time></trkpt><trkpt lat="44.55964656026962" lon="2.786675458617238"><ele>722.0</ele><time>2026-03-26T13:38:59Z</time></trkpt><trkpt lat="44.55975727132205" lon="2.7866534922531607"><ele>722.0</ele><time>2026-03-26T13:39:01Z</time></trkpt><trkpt lat="44.559873984011496" lon="2.786630335079107"><ele>721.0</ele><time>2026-03-26T13:39:03Z</time></trkpt><trkpt lat="44.559941328267435" lon="2.786616973181931"><ele>720.0</ele><time>2026-03-26T13:39:04Z</time></trkpt><trkpt lat="44.56002764896661" lon="2.786599846142101"><ele>719.0</ele><time>2026-03-26T13:39:06Z</time></trkpt><trkpt lat="44.56010317792087" lon="2.7861983652164173"><ele>719.0</ele><time>2026-03-26T13:39:08Z</time></trkpt><trkpt lat="44.560188446589244" lon="2.78619463134512"><ele>719.0</ele><time>2026-03-26T13:39:10Z</time></trkpt><trkpt lat="44.560257625544274" lon="2.786165221748213"><ele>719.0</ele><time>2026-03-26T13:39:11Z</time></trkpt><trkpt lat="44.560357107202144" lon="2.7861111544457575"><ele>719.0</ele><time>2026-03-26T13:39:13Z</time></trkpt><trkpt lat="44.560437842780104" lon="2.78606343656885"><ele>719.0</ele><time>2026-03-26T13:39:16Z</time></trkpt><trkpt lat="44.56052765288333" lon="2.786024565638261"><ele>719.0</ele><time>2026-03-26T13:39:17Z</time></trkpt><trkpt lat="44.5606095619435" lon="2.7859563866906796"><ele>718.4000000000001</ele><time>2026-03-26T13:39:19Z</time></trkpt><trkpt lat="44.56066959726397" lon="2.785908180270963"><ele>717.8</ele><time>2026-03-26T13:39:21Z</time></trkpt><trkpt lat="44.56075028958212" lon="2.7858598082009607"><ele>717.2</ele><time>2026-03-26T13:39:22.999Z</time></trkpt><trkpt lat="44.560846456504585" lon="2.785810262492156"><ele>716.5999999999999</ele><time>2026-03-26T13:39:24.999Z</time></trkpt><trkpt lat="44.56093941032535" lon="2.785765052970471"><ele>716.0</ele><time>2026-03-26T13:39:26.999Z</time></trkpt><trkpt lat="44.56104334888232" lon="2.785698051542283"><ele>716.0</ele><time>2026-03-26T13:39:28.999Z</time></trkpt><trkpt lat="44.56110545020759" lon="2.7856711891103805"><ele>716.0</ele><time>2026-03-26T13:39:29.999Z</time></trkpt><trkpt lat="44.561203635123505" lon="2.7856379215468428"><ele>716.0</ele><time>2026-03-26T13:39:31.999Z</time></trkpt><trkpt lat="44.56132170691975" lon="2.785578344064996"><ele>716.0</ele><time>2026-03-26T13:39:33.999Z</time></trkpt><trkpt lat="44.56139316005539" lon="2.7855478699955234"><ele>716.0</ele><time>2026-03-26T13:39:34.999Z</time></trkpt><trkpt lat="44.56145732793053" lon="2.7854995147502355"><ele>716.0</ele><time>2026-03-26T13:39:36.999Z</time></trkpt><trkpt lat="44.56152184124362" lon="2.7854566870515978"><ele>716.6666666666666</ele><time>2026-03-26T13:39:37.999Z</time></trkpt><trkpt lat="44.56160512026743" lon="2.7854175243708084"><ele>717.3333333333333</ele><time>2026-03-26T13:39:39.999Z</time></trkpt><trkpt lat="44.56167707432846" lon="2.7853790676261294"><ele>718.0</ele><time>2026-03-26T13:39:41.999Z</time></trkpt><trkpt lat="44.56176057269455" lon="2.785327094444872"><ele>718.6666666666666</ele><time>2026-03-26T13:39:43.999Z</time></trkpt><trkpt lat="44.561814394340885" lon="2.7852715766325478"><ele>719.3333333333334</ele><time>2026-03-26T13:39:45.999Z</time></trkpt><trkpt lat="44.56187474729894" lon="2.7852182967368138"><ele>720.0</ele><time>2026-03-26T13:39:47.999Z</time></trkpt><trkpt lat="44.56193692251961" lon="2.785167071457577"><ele>716.0</ele><time>2026-03-26T13:39:49.999Z</time></trkpt><trkpt lat="44.56200841022054" lon="2.785085736868839"><ele>712.0</ele><time>2026-03-26T13:39:52.999Z</time></trkpt><trkpt lat="44.562368686459926" lon="2.7848228105606685"><ele>712.0</ele><time>2026-03-26T13:39:53.999Z</time></trkpt><trkpt lat="44.562442804160064" lon="2.7847411617162106"><ele>712.0</ele><time>2026-03-26T13:39:55.999Z</time></trkpt><trkpt lat="44.562512733059805" lon="2.7847023578851116"><ele>712.0</ele><time>2026-03-26T13:39:57.999Z</time></trkpt><trkpt lat="44.56257937523812" lon="2.7847032179447084"><ele>712.0</ele><time>2026-03-26T13:39:59.999Z</time></trkpt><trkpt lat="44.56265494225954" lon="2.7847496665693314"><ele>712.0</ele><time>2026-03-26T13:40:02.999Z</time></trkpt><trkpt lat="44.56274315390492" lon="2.784792696244916"><ele>712.0</ele><time>2026-03-26T13:40:04.999Z</time></trkpt><trkpt lat="44.562854440872535" lon="2.784821352808071"><ele>711.0</ele><time>2026-03-26T13:40:06.999Z</time></trkpt><trkpt lat="44.562921247079856" lon="2.7848332548234427"><ele>710.0</ele><time>2026-03-26T13:40:07.999Z</time></trkpt><trkpt lat="44.562987954790266" lon="2.784853413716141"><ele>709.0</ele><time>2026-03-26T13:40:08.999Z</time></trkpt><trkpt lat="44.56307707685916" lon="2.7848706814039326"><ele>708.0</ele><time>2026-03-26T13:40:09.999Z</time></trkpt><trkpt lat="44.56315330709631" lon="2.7848757218709483"><ele>707.0</ele><time>2026-03-26T13:40:10.999Z</time></trkpt><trkpt lat="44.56322395059387" lon="2.784877484369838"><ele>706.0</ele><time>2026-03-26T13:40:11.999Z</time></trkpt><trkpt lat="44.563324851659075" lon="2.7848508933753005"><ele>706.0</ele><time>2026-03-26T13:40:15.999Z</time></trkpt><trkpt lat="44.5634165781578" lon="2.7848356948403503"><ele>706.0</ele><time>2026-03-26T13:40:17.999Z</time></trkpt><trkpt lat="44.563525424885974" lon="2.784857980559672"><ele>706.0</ele><time>2026-03-26T13:40:20.999Z</time></trkpt><trkpt lat="44.56360917752328" lon="2.7848805281496722"><ele>706.0</ele><time>2026-03-26T13:40:22.999Z</time></trkpt><trkpt lat="44.56368170524566" lon="2.7848542324361403"><ele>706.0</ele><time>2026-03-26T13:40:25.999Z</time></trkpt><trkpt lat="44.5636395085965" lon="2.784787122212482"><ele>706.0</ele><time>2026-03-26T13:40:29.999Z</time></trkpt><trkpt lat="44.56357492427447" lon="2.7847786692596377"><ele>706.0</ele><time>2026-03-26T13:40:30.999Z</time></trkpt><trkpt lat="44.56349257435477" lon="2.78474308409301"><ele>706.0</ele><time>2026-03-26T13:40:33.999Z</time></trkpt><trkpt lat="44.563422478487276" lon="2.784713075166178"><ele>706.0</ele><time>2026-03-26T13:40:37.999Z</time></trkpt><trkpt lat="44.56334111664256" lon="2.78468555332262"><ele>706.0</ele><time>2026-03-26T13:40:40.999Z</time></trkpt><trkpt lat="44.56329417221689" lon="2.784576749480204"><ele>706.0</ele><time>2026-03-26T13:40:43.998Z</time></trkpt><trkpt lat="44.56324710540709" lon="2.784515855574404"><ele>706.0</ele><time>2026-03-26T13:40:45.998Z</time></trkpt><trkpt lat="44.563194237215086" lon="2.7844484182810088"><ele>706.0</ele><time>2026-03-26T13:40:48.998Z</time></trkpt><trkpt lat="44.563140090709595" lon="2.7843890749004765"><ele>706.0</ele><time>2026-03-26T13:40:54Z</time></trkpt><trkpt lat="44.563042107289334" lon="2.784357495250539"><ele>706.0</ele><time>2026-03-26T13:40:58Z</time></trkpt><trkpt lat="44.56295754803238" lon="2.7843053149565136"><ele>706.0</ele><time>2026-03-26T13:41:01Z</time></trkpt><trkpt lat="44.562913680760914" lon="2.784221794931503"><ele>706.0</ele><time>2026-03-26T13:41:06Z</time></trkpt><trkpt lat="44.56285930759987" lon="2.7841488804740258"><ele>706.0</ele><time>2026-03-26T13:41:08Z</time></trkpt><trkpt lat="44.562812708445556" lon="2.7840676506808553"><ele>705.0</ele><time>2026-03-26T13:41:11Z</time></trkpt><trkpt lat="44.562735185680616" lon="2.7840423199863995"><ele>704.0</ele><time>2026-03-26T13:41:14Z</time></trkpt><trkpt lat="44.56266589158573" lon="2.784040478977213"><ele>703.0</ele><time>2026-03-26T13:41:16Z</time></trkpt><trkpt lat="44.56259336698938" lon="2.7840304001563085"><ele>702.0</ele><time>2026-03-26T13:41:17Z</time></trkpt><trkpt lat="44.56251642938381" lon="2.783999148668212"><ele>701.0</ele><time>2026-03-26T13:41:18Z</time></trkpt><trkpt lat="44.5624502404221" lon="2.78395158481871"><ele>700.0</ele><time>2026-03-26T13:41:19Z</time></trkpt><trkpt lat="44.56238609763505" lon="2.783909297829586"><ele>699.0</ele><time>2026-03-26T13:41:20Z</time></trkpt><trkpt lat="44.56229849857476" lon="2.783868974811509"><ele>699.0</ele><time>2026-03-26T13:41:21Z</time></trkpt><trkpt lat="44.562200918049854" lon="2.783853689851649"><ele>699.0</ele><time>2026-03-26T13:41:22Z</time></trkpt><trkpt lat="44.562125632306945" lon="2.783835982253341"><ele>699.0</ele><time>2026-03-26T13:41:23Z</time></trkpt><trkpt lat="44.56203712466698" lon="2.7838272596006157"><ele>699.0</ele><time>2026-03-26T13:41:24Z</time></trkpt><trkpt lat="44.56193832989787" lon="2.7837985456582803"><ele>699.0</ele><time>2026-03-26T13:41:25Z</time></trkpt><trkpt lat="44.56184832473702" lon="2.7837840854258187"><ele>698.2</ele><time>2026-03-26T13:41:26Z</time></trkpt><trkpt lat="44.5617757984993" lon="2.7837656375890703"><ele>697.4000000000001</ele><time>2026-03-26T13:41:26.999Z</time></trkpt><trkpt lat="44.56168327427875" lon="2.783750776194555"><ele>696.6</ele><time>2026-03-26T13:41:27.999Z</time></trkpt><trkpt lat="44.56161674511663" lon="2.7837631402465344"><ele>695.8</ele><time>2026-03-26T13:41:28.999Z</time></trkpt><trkpt lat="44.561498590587654" lon="2.783769363782605"><ele>695.0</ele><time>2026-03-26T13:41:30.999Z</time></trkpt><trkpt lat="44.5613720962812" lon="2.7837668566880494"><ele>695.0</ele><time>2026-03-26T13:41:32.999Z</time></trkpt><trkpt lat="44.5612972473968" lon="2.783794471888069"><ele>695.0</ele><time>2026-03-26T13:41:33.999Z</time></trkpt><trkpt lat="44.5611697711863" lon="2.7838290305090734"><ele>695.0</ele><time>2026-03-26T13:41:35.999Z</time></trkpt><trkpt lat="44.56110344830607" lon="2.783834209183918"><ele>695.0</ele><time>2026-03-26T13:41:36.999Z</time></trkpt><trkpt lat="44.561034682541624" lon="2.7838218206827126"><ele>695.0</ele><time>2026-03-26T13:41:37.999Z</time></trkpt><trkpt lat="44.56096877070248" lon="2.783809555083216"><ele>695.0</ele><time>2026-03-26T13:41:38.999Z</time></trkpt><trkpt lat="44.56090201282034" lon="2.783809005400034"><ele>694.6666666666666</ele><time>2026-03-26T13:41:39.999Z</time></trkpt><trkpt lat="44.56083806719382" lon="2.7837985627280597"><ele>694.3333333333333</ele><time>2026-03-26T13:41:40.999Z</time></trkpt><trkpt lat="44.56072710108336" lon="2.7837058805813535"><ele>694.0</ele><time>2026-03-26T13:41:42.999Z</time></trkpt><trkpt lat="44.56067276199777" lon="2.783656501432948"><ele>693.6666666666666</ele><time>2026-03-26T13:41:43.999Z</time></trkpt><trkpt lat="44.560616621061705" lon="2.783599194507711"><ele>693.3333333333334</ele><time>2026-03-26T13:41:44.999Z</time></trkpt><trkpt lat="44.56056219651426" lon="2.7835425267218277"><ele>693.0</ele><time>2026-03-26T13:41:45.999Z</time></trkpt><trkpt lat="44.56050550025375" lon="2.783481298395142"><ele>693.8333333333334</ele><time>2026-03-26T13:41:46.999Z</time></trkpt><trkpt lat="44.560443233034405" lon="2.783426395478145"><ele>694.6666666666666</ele><time>2026-03-26T13:41:47.999Z</time></trkpt><trkpt lat="44.56039381586757" lon="2.7833662286773215"><ele>695.5</ele><time>2026-03-26T13:41:48.999Z</time></trkpt><trkpt lat="44.56035338388823" lon="2.783290752723091"><ele>696.3333333333333</ele><time>2026-03-26T13:41:49.999Z</time></trkpt><trkpt lat="44.56030626141783" lon="2.783173273805244"><ele>697.1666666666666</ele><time>2026-03-26T13:41:51.999Z</time></trkpt><trkpt lat="44.56029522220304" lon="2.783028567663897"><ele>698.0</ele><time>2026-03-26T13:41:53.999Z</time></trkpt><trkpt lat="44.56028711430752" lon="2.7829017337098305"><ele>699.3333333333333</ele><time>2026-03-26T13:41:56.999Z</time></trkpt><trkpt lat="44.56022743475732" lon="2.782537011955305"><ele>700.6666666666666</ele><time>2026-03-26T13:41:58.999Z</time></trkpt><trkpt lat="44.560324972334165" lon="2.7824316319518076"><ele>702.0</ele><time>2026-03-26T13:42:00.999Z</time></trkpt><trkpt lat="44.56039127275238" lon="2.7824119597404575"><ele>705.4000000000001</ele><time>2026-03-26T13:42:03.999Z</time></trkpt><trkpt lat="44.56048645671491" lon="2.7823595303059645"><ele>708.8000000000001</ele><time>2026-03-26T13:42:11.999Z</time></trkpt><trkpt lat="44.560577603924614" lon="2.782254452750187"><ele>712.2</ele><time>2026-03-26T13:42:13.999Z</time></trkpt><trkpt lat="44.560621490064186" lon="2.7821883046626934"><ele>715.6</ele><time>2026-03-26T13:42:14.999Z</time></trkpt><trkpt lat="44.560705034616916" lon="2.7820924627311916"><ele>719.0</ele><time>2026-03-26T13:42:16.999Z</time></trkpt><trkpt lat="44.560808751811415" lon="2.781995453244101"><ele>719.0</ele><time>2026-03-26T13:42:18.999Z</time></trkpt><trkpt lat="44.560887965817535" lon="2.781857466714229"><ele>719.0</ele><time>2026-03-26T13:42:20.999Z</time></trkpt><trkpt lat="44.56094254322262" lon="2.7818036789471163"><ele>719.0</ele><time>2026-03-26T13:42:21.999Z</time></trkpt><trkpt lat="44.561008331310305" lon="2.781738851017455"><ele>719.0</ele><time>2026-03-26T13:42:22.999Z</time></trkpt><trkpt lat="44.5610605084133" lon="2.7816613361126916"><ele>719.0</ele><time>2026-03-26T13:42:23.999Z</time></trkpt><trkpt lat="44.56110534877344" lon="2.7815761030167416"><ele>719.0</ele><time>2026-03-26T13:42:24.999Z</time></trkpt><trkpt lat="44.56117718256175" lon="2.7814705150253785"><ele>721.0</ele><time>2026-03-26T13:42:25.999Z</time></trkpt><trkpt lat="44.56125801922825" lon="2.7813814522772087"><ele>723.0</ele><time>2026-03-26T13:42:26.999Z</time></trkpt><trkpt lat="44.56133676360603" lon="2.7812748107641556"><ele>725.0</ele><time>2026-03-26T13:42:27.999Z</time></trkpt><trkpt lat="44.56141525752242" lon="2.7811826900272636"><ele>727.0</ele><time>2026-03-26T13:42:28.999Z</time></trkpt><trkpt lat="44.56148776268082" lon="2.7811020853150126"><ele>729.0</ele><time>2026-03-26T13:42:29.999Z</time></trkpt><trkpt lat="44.56154728639456" lon="2.7810263486359843"><ele>729.0</ele><time>2026-03-26T13:42:30.999Z</time></trkpt><trkpt lat="44.56168435132914" lon="2.7808630317692855"><ele>729.0</ele><time>2026-03-26T13:42:32.999Z</time></trkpt><trkpt lat="44.56174116845504" lon="2.78077780652387"><ele>729.0</ele><time>2026-03-26T13:42:33.999Z</time></trkpt><trkpt lat="44.56180649648385" lon="2.7807004512380793"><ele>729.0</ele><time>2026-03-26T13:42:34.999Z</time></trkpt><trkpt lat="44.56189227509724" lon="2.78061352533554"><ele>729.0</ele><time>2026-03-26T13:42:35.999Z</time></trkpt><trkpt lat="44.56197112646144" lon="2.780536340622456"><ele>729.0</ele><time>2026-03-26T13:42:36.999Z</time></trkpt><trkpt lat="44.562037649603084" lon="2.7804633760334747"><ele>729.0</ele><time>2026-03-26T13:42:37.999Z</time></trkpt><trkpt lat="44.56210139427876" lon="2.7803775435972398"><ele>729.0</ele><time>2026-03-26T13:42:38.999Z</time></trkpt><trkpt lat="44.5621566288385" lon="2.780299045619378"><ele>729.0</ele><time>2026-03-26T13:42:39.999Z</time></trkpt><trkpt lat="44.5621993172884" lon="2.780214934031397"><ele>729.0</ele><time>2026-03-26T13:42:40.999Z</time></trkpt><trkpt lat="44.562239817078165" lon="2.7801424051764876"><ele>730.2857142857143</ele><time>2026-03-26T13:42:41.999Z</time></trkpt><trkpt lat="44.56227699086194" lon="2.7800695655916194"><ele>731.5714285714286</ele><time>2026-03-26T13:42:42.999Z</time></trkpt><trkpt lat="44.56232738741742" lon="2.779963467917276"><ele>732.8571428571429</ele><time>2026-03-26T13:42:43.999Z</time></trkpt><trkpt lat="44.562368610237655" lon="2.779860830669768"><ele>734.1428571428571</ele><time>2026-03-26T13:42:44.999Z</time></trkpt><trkpt lat="44.56240457813556" lon="2.7797726379097334"><ele>735.4285714285713</ele><time>2026-03-26T13:42:45.999Z</time></trkpt><trkpt lat="44.56244084462293" lon="2.779696057335417"><ele>736.7142857142857</ele><time>2026-03-26T13:42:46.999Z</time></trkpt><trkpt lat="44.56248766342171" lon="2.7796350964610133"><ele>738.0</ele><time>2026-03-26T13:42:47.999Z</time></trkpt><trkpt lat="44.5625348665768" lon="2.779573516378872"><ele>738.0</ele><time>2026-03-26T13:42:48.999Z</time></trkpt><trkpt lat="44.56260800279535" lon="2.7794925778672495"><ele>738.0</ele><time>2026-03-26T13:42:50.998Z</time></trkpt><trkpt lat="44.562675654607546" lon="2.7793985443010847"><ele>738.0</ele><time>2026-03-26T13:42:52.998Z</time></trkpt><trkpt lat="44.56278006644002" lon="2.7792914653024865"><ele>738.0</ele><time>2026-03-26T13:42:54.998Z</time></trkpt><trkpt lat="44.562894447855854" lon="2.779219509089043"><ele>738.0</ele><time>2026-03-26T13:42:56.998Z</time></trkpt><trkpt lat="44.56296350344178" lon="2.7791677315796197"><ele>739.4</ele><time>2026-03-26T13:42:57.998Z</time></trkpt><trkpt lat="44.56305992960552" lon="2.7790471418677694"><ele>740.8</ele><time>2026-03-26T13:43:00Z</time></trkpt><trkpt lat="44.563095423380425" lon="2.778960092856622"><ele>742.2</ele><time>2026-03-26T13:43:01Z</time></trkpt><trkpt lat="44.56316856124284" lon="2.7788770327139365"><ele>743.6</ele><time>2026-03-26T13:43:02Z</time></trkpt><trkpt lat="44.563288746037585" lon="2.778778717544429"><ele>745.0</ele><time>2026-03-26T13:43:04Z</time></trkpt><trkpt lat="44.563392060536266" lon="2.778696330308082"><ele>745.0</ele><time>2026-03-26T13:43:06Z</time></trkpt><trkpt lat="44.56345627344417" lon="2.778670830077674"><ele>745.0</ele><time>2026-03-26T13:43:07Z</time></trkpt><trkpt lat="44.563538905054116" lon="2.778643483571173"><ele>745.0</ele><time>2026-03-26T13:43:08Z</time></trkpt><trkpt lat="44.56362545181743" lon="2.7786123821040274"><ele>745.0</ele><time>2026-03-26T13:43:09Z</time></trkpt><trkpt lat="44.56371072515218" lon="2.7785839753155033"><ele>745.0</ele><time>2026-03-26T13:43:10Z</time></trkpt><trkpt lat="44.563796954148735" lon="2.778556363539251"><ele>745.0</ele><time>2026-03-26T13:43:11Z</time></trkpt><trkpt lat="44.56386906834853" lon="2.778537543475317"><ele>745.2</ele><time>2026-03-26T13:43:12Z</time></trkpt><trkpt lat="44.56394127053419" lon="2.7785279927083955"><ele>745.4</ele><time>2026-03-26T13:43:13Z</time></trkpt><trkpt lat="44.56400520030413" lon="2.7785287438942157"><ele>745.5999999999999</ele><time>2026-03-26T13:43:14Z</time></trkpt><trkpt lat="44.56413046905785" lon="2.7785064875960295"><ele>745.8</ele><time>2026-03-26T13:43:16Z</time></trkpt><trkpt lat="44.56419667427451" lon="2.778482426336132"><ele>746.0</ele><time>2026-03-26T13:43:17Z</time></trkpt><trkpt lat="44.56432889526897" lon="2.778454849784715"><ele>746.4</ele><time>2026-03-26T13:43:19Z</time></trkpt><trkpt lat="44.56443666032026" lon="2.7784131305458883"><ele>746.8</ele><time>2026-03-26T13:43:21Z</time></trkpt><trkpt lat="44.564519373738854" lon="2.7783960475455136"><ele>747.1999999999999</ele><time>2026-03-26T13:43:22Z</time></trkpt><trkpt lat="44.56460431151697" lon="2.778377874198657"><ele>747.5999999999999</ele><time>2026-03-26T13:43:23Z</time></trkpt><trkpt lat="44.56469620862812" lon="2.778361608181863"><ele>748.0</ele><time>2026-03-26T13:43:24Z</time></trkpt><trkpt lat="44.56479288834314" lon="2.778385237907201"><ele>749.4</ele><time>2026-03-26T13:43:25Z</time></trkpt><trkpt lat="44.56487078243843" lon="2.7784445564794136"><ele>750.8</ele><time>2026-03-26T13:43:26Z</time></trkpt><trkpt lat="44.56493660712306" lon="2.778538691341656"><ele>752.2</ele><time>2026-03-26T13:43:26.999Z</time></trkpt><trkpt lat="44.56500613645073" lon="2.778663397110652"><ele>753.6</ele><time>2026-03-26T13:43:27.999Z</time></trkpt><trkpt lat="44.56507425070129" lon="2.7787920374694552"><ele>755.0</ele><time>2026-03-26T13:43:28.999Z</time></trkpt><trkpt lat="44.5651471401881" lon="2.778910497938807"><ele>755.0</ele><time>2026-03-26T13:43:29.999Z</time></trkpt><trkpt lat="44.565220732439585" lon="2.778992166731893"><ele>755.0</ele><time>2026-03-26T13:43:30.999Z</time></trkpt><trkpt lat="44.56530264527411" lon="2.7790713446021837"><ele>755.0</ele><time>2026-03-26T13:43:31.999Z</time></trkpt><trkpt lat="44.565395946846806" lon="2.7791184435530556"><ele>755.0</ele><time>2026-03-26T13:43:32.999Z</time></trkpt><trkpt lat="44.56547429909158" lon="2.7791320188077377"><ele>755.0</ele><time>2026-03-26T13:43:33.999Z</time></trkpt><trkpt lat="44.565574330705914" lon="2.779070551742002"><ele>757.0</ele><time>2026-03-26T13:43:35.999Z</time></trkpt><trkpt lat="44.56560676501299" lon="2.7789820404074908"><ele>759.0</ele><time>2026-03-26T13:43:36.999Z</time></trkpt><trkpt lat="44.565623780977084" lon="2.778863388566733"><ele>761.0</ele><time>2026-03-26T13:43:37.999Z</time></trkpt><trkpt lat="44.5656436782143" lon="2.7787247762259666"><ele>763.0</ele><time>2026-03-26T13:43:38.999Z</time></trkpt><trkpt lat="44.56567978096897" lon="2.7785686690586444"><ele>765.0</ele><time>2026-03-26T13:43:39.999Z</time></trkpt><trkpt lat="44.56573636458431" lon="2.7784081641392846"><ele>765.0</ele><time>2026-03-26T13:43:40.999Z</time></trkpt><trkpt lat="44.56579140234826" lon="2.778257314009463"><ele>765.0</ele><time>2026-03-26T13:43:41.999Z</time></trkpt><trkpt lat="44.56584731912024" lon="2.7781164071719333"><ele>765.0</ele><time>2026-03-26T13:43:42.999Z</time></trkpt><trkpt lat="44.565890371560855" lon="2.7779955721230807"><ele>765.0</ele><time>2026-03-26T13:43:43.999Z</time></trkpt><trkpt lat="44.565927935933814" lon="2.7778823982860064"><ele>765.0</ele><time>2026-03-26T13:43:44.999Z</time></trkpt><trkpt lat="44.56595853246543" lon="2.777778599541632"><ele>764.5</ele><time>2026-03-26T13:43:45.999Z</time></trkpt><trkpt lat="44.5659835254039" lon="2.777666488780517"><ele>764.0</ele><time>2026-03-26T13:43:46.999Z</time></trkpt><trkpt lat="44.56600318565879" lon="2.7775395821996955"><ele>763.5</ele><time>2026-03-26T13:43:47.999Z</time></trkpt><trkpt lat="44.566066360837674" lon="2.777254942381196"><ele>763.0</ele><time>2026-03-26T13:43:49.999Z</time></trkpt><trkpt lat="44.56612390169214" lon="2.777114939410134"><ele>763.25</ele><time>2026-03-26T13:43:50.999Z</time></trkpt><trkpt lat="44.56621047391388" lon="2.7769977367701255"><ele>763.5</ele><time>2026-03-26T13:43:51.999Z</time></trkpt><trkpt lat="44.566324088009154" lon="2.776904873798015"><ele>763.75</ele><time>2026-03-26T13:43:52.999Z</time></trkpt><trkpt lat="44.566452257710196" lon="2.776805407869655"><ele>764.0</ele><time>2026-03-26T13:43:53.999Z</time></trkpt><trkpt lat="44.56657954966706" lon="2.7766910761169386"><ele>764.0</ele><time>2026-03-26T13:43:54.999Z</time></trkpt><trkpt lat="44.56669108668075" lon="2.7765630579923855"><ele>764.0</ele><time>2026-03-26T13:43:55.999Z</time></trkpt><trkpt lat="44.56678685562684" lon="2.7764226687137765"><ele>764.0</ele><time>2026-03-26T13:43:56.999Z</time></trkpt><trkpt lat="44.566872645146944" lon="2.77626368095802"><ele>764.0</ele><time>2026-03-26T13:43:57.999Z</time></trkpt><trkpt lat="44.566947838016844" lon="2.7760836486038705"><ele>764.0</ele><time>2026-03-26T13:43:58.999Z</time></trkpt><trkpt lat="44.56701897808529" lon="2.775882291588674"><ele>764.0</ele><time>2026-03-26T13:43:59.999Z</time></trkpt><trkpt lat="44.56708302889652" lon="2.77566127524989"><ele>764.0</ele><time>2026-03-26T13:44:00.999Z</time></trkpt><trkpt lat="44.56714770364964" lon="2.7754474624154097"><ele>764.0</ele><time>2026-03-26T13:44:01.999Z</time></trkpt><trkpt lat="44.56720363764256" lon="2.7752349967342584"><ele>764.0</ele><time>2026-03-26T13:44:02.999Z</time></trkpt><trkpt lat="44.56723969009282" lon="2.7750302373437283"><ele>764.0</ele><time>2026-03-26T13:44:03.999Z</time></trkpt><trkpt lat="44.5672610157486" lon="2.7748161065437387"><ele>763.6666666666666</ele><time>2026-03-26T13:44:04.999Z</time></trkpt><trkpt lat="44.56726347277121" lon="2.7745936373467144"><ele>763.3333333333334</ele><time>2026-03-26T13:44:05.999Z</time></trkpt><trkpt lat="44.56725347983854" lon="2.774360376497206"><ele>763.0</ele><time>2026-03-26T13:44:06.999Z</time></trkpt><trkpt lat="44.56723328838604" lon="2.7741115772612317"><ele>762.3333333333334</ele><time>2026-03-26T13:44:07.999Z</time></trkpt><trkpt lat="44.56719897737558" lon="2.7738656967007933"><ele>761.6666666666666</ele><time>2026-03-26T13:44:08.999Z</time></trkpt><trkpt lat="44.5671494830146" lon="2.7736292862967242"><ele>761.0</ele><time>2026-03-26T13:44:09.999Z</time></trkpt><trkpt lat="44.567087834317455" lon="2.7733990691583967"><ele>763.0</ele><time>2026-03-26T13:44:10.999Z</time></trkpt><trkpt lat="44.56701466822125" lon="2.7731844677848505"><ele>765.0</ele><time>2026-03-26T13:44:11.999Z</time></trkpt><trkpt lat="44.566940074095" lon="2.7729944357642946"><ele>767.0</ele><time>2026-03-26T13:44:12.999Z</time></trkpt><trkpt lat="44.5668525171995" lon="2.7728249193110432"><ele>765.6666666666666</ele><time>2026-03-26T13:44:13.999Z</time></trkpt><trkpt lat="44.566745730819264" lon="2.7726788637702766"><ele>764.3333333333334</ele><time>2026-03-26T13:44:14.999Z</time></trkpt><trkpt lat="44.56662664787851" lon="2.7725397960901126"><ele>763.0</ele><time>2026-03-26T13:44:15.999Z</time></trkpt><trkpt lat="44.56649336947058" lon="2.77241982076014"><ele>763.0</ele><time>2026-03-26T13:44:16.999Z</time></trkpt><trkpt lat="44.56635577178592" lon="2.772309188738291"><ele>763.0</ele><time>2026-03-26T13:44:17.999Z</time></trkpt><trkpt lat="44.56621514583097" lon="2.7722117635379284"><ele>763.0</ele><time>2026-03-26T13:44:18.999Z</time></trkpt><trkpt lat="44.56608337639218" lon="2.772123489943958"><ele>763.75</ele><time>2026-03-26T13:44:19.999Z</time></trkpt><trkpt lat="44.565963441329295" lon="2.7720603876305314"><ele>764.5</ele><time>2026-03-26T13:44:20.999Z</time></trkpt><trkpt lat="44.56585474776652" lon="2.772007101976641"><ele>765.25</ele><time>2026-03-26T13:44:21.999Z</time></trkpt><trkpt lat="44.56576776407117" lon="2.7719262491635077"><ele>766.0</ele><time>2026-03-26T13:44:22.999Z</time></trkpt><trkpt lat="44.56569630751668" lon="2.7718045768086834"><ele>764.25</ele><time>2026-03-26T13:44:23.999Z</time></trkpt><trkpt lat="44.565627627468054" lon="2.771649607887399"><ele>762.5</ele><time>2026-03-26T13:44:24.999Z</time></trkpt><trkpt lat="44.565554533470724" lon="2.7714813064896977"><ele>760.75</ele><time>2026-03-26T13:44:25.999Z</time></trkpt><trkpt lat="44.56548124437627" lon="2.7712997250117475"><ele>759.0</ele><time>2026-03-26T13:44:26.999Z</time></trkpt><trkpt lat="44.565428411991235" lon="2.7711063556219"><ele>756.6666666666666</ele><time>2026-03-26T13:44:27.999Z</time></trkpt><trkpt lat="44.56539856689703" lon="2.7709090686270286"><ele>754.3333333333333</ele><time>2026-03-26T13:44:28.999Z</time></trkpt><trkpt lat="44.5653829267941" lon="2.7706950642822523"><ele>752.0</ele><time>2026-03-26T13:44:29.999Z</time></trkpt><trkpt lat="44.56536667077261" lon="2.7704755464080084"><ele>752.3333333333333</ele><time>2026-03-26T13:44:30.999Z</time></trkpt><trkpt lat="44.565349131583126" lon="2.7702515563670076"><ele>752.6666666666666</ele><time>2026-03-26T13:44:31.999Z</time></trkpt><trkpt lat="44.565328369438014" lon="2.7700327489054253"><ele>753.0</ele><time>2026-03-26T13:44:32.999Z</time></trkpt><trkpt lat="44.56530262216543" lon="2.769843094732512"><ele>753.0</ele><time>2026-03-26T13:44:33.999Z</time></trkpt><trkpt lat="44.56528384138429" lon="2.7696636073459073"><ele>753.0</ele><time>2026-03-26T13:44:34.999Z</time></trkpt><trkpt lat="44.565270821827276" lon="2.769494620764395"><ele>753.0</ele><time>2026-03-26T13:44:35.999Z</time></trkpt><trkpt lat="44.56525826199877" lon="2.7693285564953913"><ele>753.0</ele><time>2026-03-26T13:44:36.999Z</time></trkpt><trkpt lat="44.56524138474971" lon="2.7691849514223104"><ele>753.5999999999999</ele><time>2026-03-26T13:44:37.999Z</time></trkpt><trkpt lat="44.56520161915061" lon="2.769057715812929"><ele>754.1999999999999</ele><time>2026-03-26T13:44:38.999Z</time></trkpt><trkpt lat="44.56513361630728" lon="2.768938856340317"><ele>754.8</ele><time>2026-03-26T13:44:39.999Z</time></trkpt><trkpt lat="44.56504380568073" lon="2.76883522280184"><ele>755.4</ele><time>2026-03-26T13:44:40.999Z</time></trkpt><trkpt lat="44.564945040910864" lon="2.7687485489180705"><ele>756.0</ele><time>2026-03-26T13:44:41.999Z</time></trkpt><trkpt lat="44.56484546599877" lon="2.7686635879650043"><ele>756.0</ele><time>2026-03-26T13:44:42.999Z</time></trkpt><trkpt lat="44.564752836081915" lon="2.7685754321385825"><ele>756.0</ele><time>2026-03-26T13:44:43.999Z</time></trkpt><trkpt lat="44.56466432763829" lon="2.768484547959317"><ele>756.0</ele><time>2026-03-26T13:44:44.999Z</time></trkpt><trkpt lat="44.56457979848984" lon="2.768394253077051"><ele>756.0</ele><time>2026-03-26T13:44:45.999Z</time></trkpt><trkpt lat="44.56449345990765" lon="2.768311345098892"><ele>756.0</ele><time>2026-03-26T13:44:46.999Z</time></trkpt><trkpt lat="44.56441216299159" lon="2.7682354034645784"><ele>754.8333333333334</ele><time>2026-03-26T13:44:47.999Z</time></trkpt><trkpt lat="44.56434849451008" lon="2.768153382917573"><ele>753.6666666666666</ele><time>2026-03-26T13:44:48.999Z</time></trkpt><trkpt lat="44.56429220289979" lon="2.7680676514894436"><ele>752.5</ele><time>2026-03-26T13:44:49.999Z</time></trkpt><trkpt lat="44.56424919461756" lon="2.7679762132627896"><ele>751.3333333333333</ele><time>2026-03-26T13:44:50.999Z</time></trkpt><trkpt lat="44.56422388649792" lon="2.767871759672752"><ele>750.1666666666666</ele><time>2026-03-26T13:44:51.999Z</time></trkpt><trkpt lat="44.56420813244115" lon="2.767744652688814"><ele>749.0</ele><time>2026-03-26T13:44:52.998Z</time></trkpt><trkpt lat="44.564203298969" lon="2.767630932319676"><ele>749.0</ele><time>2026-03-26T13:44:53.998Z</time></trkpt><trkpt lat="44.56419210248325" lon="2.767529111042331"><ele>749.0</ele><time>2026-03-26T13:44:54.998Z</time></trkpt><trkpt lat="44.564176033049385" lon="2.7674165226820198"><ele>749.0</ele><time>2026-03-26T13:44:55.998Z</time></trkpt><trkpt lat="44.56415409294949" lon="2.767297231322904"><ele>749.0</ele><time>2026-03-26T13:44:56.998Z</time></trkpt><trkpt lat="44.5641075618138" lon="2.7671552866973848"><ele>749.0</ele><time>2026-03-26T13:44:57.998Z</time></trkpt><trkpt lat="44.564051538286385" lon="2.767032436030932"><ele>749.0</ele><time>2026-03-26T13:44:58.998Z</time></trkpt><trkpt lat="44.563988937816994" lon="2.7669313446643424"><ele>749.0</ele><time>2026-03-26T13:44:59.998Z</time></trkpt><trkpt lat="44.56391453735661" lon="2.7668543579852045"><ele>749.0</ele><time>2026-03-26T13:45:00.998Z</time></trkpt><trkpt lat="44.56379879491125" lon="2.766804879472415"><ele>749.0</ele><time>2026-03-26T13:45:01.998Z</time></trkpt><trkpt lat="44.563673854976166" lon="2.7667606611781173"><ele>749.0</ele><time>2026-03-26T13:45:02.998Z</time></trkpt><trkpt lat="44.56354481408347" lon="2.7667311674703816"><ele>746.5</ele><time>2026-03-26T13:45:03.998Z</time></trkpt><trkpt lat="44.56340396542522" lon="2.766719012694405"><ele>744.0</ele><time>2026-03-26T13:45:05Z</time></trkpt><trkpt lat="44.56326969179414" lon="2.7666933671975116"><ele>741.5</ele><time>2026-03-26T13:45:06Z</time></trkpt><trkpt lat="44.563134886089045" lon="2.7666682511614984"><ele>739.0</ele><time>2026-03-26T13:45:07Z</time></trkpt><trkpt lat="44.56300748016548" lon="2.7666521227616654"><ele>739.0</ele><time>2026-03-26T13:45:08Z</time></trkpt><trkpt lat="44.56287986268681" lon="2.7666412610757805"><ele>739.0</ele><time>2026-03-26T13:45:09Z</time></trkpt><trkpt lat="44.56275925915636" lon="2.7666169047724005"><ele>739.0</ele><time>2026-03-26T13:45:10Z</time></trkpt><trkpt lat="44.56266027182321" lon="2.7665769893648147"><ele>739.0</ele><time>2026-03-26T13:45:11Z</time></trkpt><trkpt lat="44.562557072651316" lon="2.766504791748877"><ele>735.5</ele><time>2026-03-26T13:45:12Z</time></trkpt><trkpt lat="44.562449933976" lon="2.766416748482916"><ele>732.0</ele><time>2026-03-26T13:45:13Z</time></trkpt><trkpt lat="44.56234979928519" lon="2.766293029880205"><ele>728.5</ele><time>2026-03-26T13:45:14Z</time></trkpt><trkpt lat="44.56224931442197" lon="2.7661781692590086"><ele>725.0</ele><time>2026-03-26T13:45:15Z</time></trkpt><trkpt lat="44.56215650806061" lon="2.7660652338829608"><ele>726.5</ele><time>2026-03-26T13:45:16Z</time></trkpt><trkpt lat="44.56207696661782" lon="2.765953005708568"><ele>728.0</ele><time>2026-03-26T13:45:17Z</time></trkpt><trkpt lat="44.56200011815977" lon="2.7658198131030813"><ele>729.5</ele><time>2026-03-26T13:45:18Z</time></trkpt><trkpt lat="44.56193599711524" lon="2.7656739435001976"><ele>731.0</ele><time>2026-03-26T13:45:19Z</time></trkpt><trkpt lat="44.56187834275977" lon="2.7655332257247673"><ele>727.5</ele><time>2026-03-26T13:45:20Z</time></trkpt><trkpt lat="44.561823533227894" lon="2.765390693531882"><ele>724.0</ele><time>2026-03-26T13:45:21Z</time></trkpt><trkpt lat="44.56177503113519" lon="2.7652540315090066"><ele>720.5</ele><time>2026-03-26T13:45:22Z</time></trkpt><trkpt lat="44.561735879770325" lon="2.765109733668343"><ele>717.0</ele><time>2026-03-26T13:45:23Z</time></trkpt><trkpt lat="44.56169966029982" lon="2.764946899002698"><ele>717.0</ele><time>2026-03-26T13:45:24Z</time></trkpt><trkpt lat="44.56167353838661" lon="2.7647681021627726"><ele>717.0</ele><time>2026-03-26T13:45:25Z</time></trkpt><trkpt lat="44.56165241069489" lon="2.7645854094344453"><ele>717.0</ele><time>2026-03-26T13:45:26Z</time></trkpt><trkpt lat="44.5616416068344" lon="2.7644102853902828"><ele>717.0</ele><time>2026-03-26T13:45:27Z</time></trkpt><trkpt lat="44.561637145047875" lon="2.7642658574543457"><ele>715.6</ele><time>2026-03-26T13:45:28Z</time></trkpt><trkpt lat="44.56164498159508" lon="2.7641372944957254"><ele>714.2</ele><time>2026-03-26T13:45:29Z</time></trkpt><trkpt lat="44.561674738117425" lon="2.7640104471813616"><ele>712.8</ele><time>2026-03-26T13:45:30Z</time></trkpt><trkpt lat="44.56172835133736" lon="2.7638979467987244"><ele>711.4</ele><time>2026-03-26T13:45:31Z</time></trkpt><trkpt lat="44.56179692390917" lon="2.763813251039633"><ele>710.0</ele><time>2026-03-26T13:45:32Z</time></trkpt><trkpt lat="44.56188844288915" lon="2.7637519370701895"><ele>710.0</ele><time>2026-03-26T13:45:33Z</time></trkpt><trkpt lat="44.56199284403914" lon="2.7637025386102203"><ele>710.0</ele><time>2026-03-26T13:45:34Z</time></trkpt><trkpt lat="44.562101924417526" lon="2.763635182660826"><ele>710.0</ele><time>2026-03-26T13:45:34.999Z</time></trkpt><trkpt lat="44.56219858054705" lon="2.763572352391165"><ele>710.0</ele><time>2026-03-26T13:45:35.999Z</time></trkpt><trkpt lat="44.562278612201446" lon="2.7635036881903066"><ele>710.0</ele><time>2026-03-26T13:45:36.999Z</time></trkpt><trkpt lat="44.56234262952473" lon="2.763451940134169"><ele>710.3333333333333</ele><time>2026-03-26T13:45:37.999Z</time></trkpt><trkpt lat="44.562387905131224" lon="2.7633722693657408"><ele>710.6666666666666</ele><time>2026-03-26T13:45:38.999Z</time></trkpt><trkpt lat="44.56242018071483" lon="2.7632801173876245"><ele>711.0</ele><time>2026-03-26T13:45:39.999Z</time></trkpt><trkpt lat="44.56241427918407" lon="2.7631790621426116"><ele>711.3333333333334</ele><time>2026-03-26T13:45:40.999Z</time></trkpt><trkpt lat="44.562381058622634" lon="2.763078961735085"><ele>711.6666666666667</ele><time>2026-03-26T13:45:41.999Z</time></trkpt><trkpt lat="44.562326213438965" lon="2.762988555122625"><ele>712.0</ele><time>2026-03-26T13:45:42.999Z</time></trkpt><trkpt lat="44.56226160891891" lon="2.762899416255355"><ele>712.0</ele><time>2026-03-26T13:45:43.999Z</time></trkpt><trkpt lat="44.56220159711641" lon="2.762819574217448"><ele>712.0</ele><time>2026-03-26T13:45:44.999Z</time></trkpt><trkpt lat="44.56215182580267" lon="2.7627395846731106"><ele>712.0</ele><time>2026-03-26T13:45:45.999Z</time></trkpt><trkpt lat="44.56209083705548" lon="2.7626540924877463"><ele>712.0</ele><time>2026-03-26T13:45:46.999Z</time></trkpt><trkpt lat="44.56201965931077" lon="2.762570212965215"><ele>712.0</ele><time>2026-03-26T13:45:47.999Z</time></trkpt><trkpt lat="44.56195924792895" lon="2.7624927871433327"><ele>712.0</ele><time>2026-03-26T13:45:48.999Z</time></trkpt><trkpt lat="44.56187665877412" lon="2.7624146868806214"><ele>708.25</ele><time>2026-03-26T13:45:49.999Z</time></trkpt><trkpt lat="44.561746931309386" lon="2.7623587696751923"><ele>704.5</ele><time>2026-03-26T13:45:50.999Z</time></trkpt><trkpt lat="44.56164290496815" lon="2.7622887224694144"><ele>700.75</ele><time>2026-03-26T13:45:51.999Z</time></trkpt><trkpt lat="44.561543088790444" lon="2.762246800959275"><ele>697.0</ele><time>2026-03-26T13:45:52.999Z</time></trkpt><trkpt lat="44.56145255198268" lon="2.7621759632044576"><ele>697.0</ele><time>2026-03-26T13:45:53.999Z</time></trkpt><trkpt lat="44.56136676381542" lon="2.762091487187894"><ele>697.0</ele><time>2026-03-26T13:45:54.999Z</time></trkpt><trkpt lat="44.561285823060466" lon="2.761992654059425"><ele>697.0</ele><time>2026-03-26T13:45:55.999Z</time></trkpt><trkpt lat="44.56119049155677" lon="2.7619000040687838"><ele>697.0</ele><time>2026-03-26T13:45:56.999Z</time></trkpt><trkpt lat="44.56108641876061" lon="2.761805587544554"><ele>694.5</ele><time>2026-03-26T13:45:57.999Z</time></trkpt><trkpt lat="44.5609796514142" lon="2.761728475809005"><ele>692.0</ele><time>2026-03-26T13:45:58.999Z</time></trkpt><trkpt lat="44.56087824758723" lon="2.761657099557363"><ele>689.5</ele><time>2026-03-26T13:45:59.999Z</time></trkpt><trkpt lat="44.56077784145123" lon="2.7615866335070756"><ele>687.0</ele><time>2026-03-26T13:46:00.999Z</time></trkpt><trkpt lat="44.560679810688484" lon="2.761503167018474"><ele>687.0</ele><time>2026-03-26T13:46:01.999Z</time></trkpt><trkpt lat="44.56059176253957" lon="2.7614037066626476"><ele>687.0</ele><time>2026-03-26T13:46:02.999Z</time></trkpt><trkpt lat="44.56051271332832" lon="2.7612969523415902"><ele>687.0</ele><time>2026-03-26T13:46:03.999Z</time></trkpt><trkpt lat="44.560454294554916" lon="2.7611711335753775"><ele>687.0</ele><time>2026-03-26T13:46:04.999Z</time></trkpt><trkpt lat="44.56041284369842" lon="2.7610234005445253"><ele>687.0</ele><time>2026-03-26T13:46:05.999Z</time></trkpt><trkpt lat="44.56038305710137" lon="2.7608642643480925"><ele>682.75</ele><time>2026-03-26T13:46:06.999Z</time></trkpt><trkpt lat="44.560356984728074" lon="2.760683016518605"><ele>678.5</ele><time>2026-03-26T13:46:07.999Z</time></trkpt><trkpt lat="44.56033247503495" lon="2.7604917162242293"><ele>674.25</ele><time>2026-03-26T13:46:08.999Z</time></trkpt><trkpt lat="44.56030414964786" lon="2.7602924501782726"><ele>670.0</ele><time>2026-03-26T13:46:09.999Z</time></trkpt><trkpt lat="44.560279273109565" lon="2.760108843952399"><ele>669.75</ele><time>2026-03-26T13:46:10.999Z</time></trkpt><trkpt lat="44.56025730758976" lon="2.759926370842226"><ele>669.5</ele><time>2026-03-26T13:46:11.999Z</time></trkpt><trkpt lat="44.5602413743955" lon="2.7597510329047794"><ele>669.25</ele><time>2026-03-26T13:46:12.999Z</time></trkpt><trkpt lat="44.56022412543997" lon="2.7595790157243125"><ele>669.0</ele><time>2026-03-26T13:46:13.999Z</time></trkpt><trkpt lat="44.560206554361656" lon="2.75940849602123"><ele>668.1666666666666</ele><time>2026-03-26T13:46:14.999Z</time></trkpt><trkpt lat="44.56018991378028" lon="2.759255698389481"><ele>667.3333333333334</ele><time>2026-03-26T13:46:15.999Z</time></trkpt><trkpt lat="44.56017698695004" lon="2.7591364917733383"><ele>666.5</ele><time>2026-03-26T13:46:16.999Z</time></trkpt><trkpt lat="44.560172290701985" lon="2.759036364362351"><ele>665.6666666666667</ele><time>2026-03-26T13:46:17.999Z</time></trkpt><trkpt lat="44.560191910115805" lon="2.7589329824696525"><ele>664.8333333333334</ele><time>2026-03-26T13:46:18.999Z</time></trkpt><trkpt lat="44.560242414015235" lon="2.7588635733032936"><ele>664.0</ele><time>2026-03-26T13:46:19.999Z</time></trkpt><trkpt lat="44.5603135059893" lon="2.758832007709079"><ele>666.0</ele><time>2026-03-26T13:46:20.999Z</time></trkpt><trkpt lat="44.56038282343378" lon="2.758834376285573"><ele>668.0</ele><time>2026-03-26T13:46:21.999Z</time></trkpt><trkpt lat="44.56044760005709" lon="2.7588377116319207"><ele>670.0</ele><time>2026-03-26T13:46:22.999Z</time></trkpt><trkpt lat="44.56051572294525" lon="2.758823172726896"><ele>672.0</ele><time>2026-03-26T13:46:23.999Z</time></trkpt><trkpt lat="44.560603962338575" lon="2.75869579349114"><ele>674.0</ele><time>2026-03-26T13:46:25.999Z</time></trkpt><trkpt lat="44.56060890533183" lon="2.7585930867451696"><ele>676.0</ele><time>2026-03-26T13:46:26.999Z</time></trkpt><trkpt lat="44.5605621084659" lon="2.758472564516126"><ele>676.0</ele><time>2026-03-26T13:46:27.999Z</time></trkpt><trkpt lat="44.560517672126444" lon="2.758349762917518"><ele>676.0</ele><time>2026-03-26T13:46:28.999Z</time></trkpt><trkpt lat="44.56045482940041" lon="2.7582078797694476"><ele>676.0</ele><time>2026-03-26T13:46:29.999Z</time></trkpt><trkpt lat="44.56041439353002" lon="2.7580686949605786"><ele>676.0</ele><time>2026-03-26T13:46:30.999Z</time></trkpt><trkpt lat="44.56037424242301" lon="2.757936898178832"><ele>676.0</ele><time>2026-03-26T13:46:31.999Z</time></trkpt><trkpt lat="44.5603209692136" lon="2.757826706212343"><ele>672.0</ele><time>2026-03-26T13:46:32.999Z</time></trkpt><trkpt lat="44.56025480062114" lon="2.757702483113634"><ele>668.0</ele><time>2026-03-26T13:46:33.999Z</time></trkpt><trkpt lat="44.560184199592676" lon="2.757580712405119"><ele>664.0</ele><time>2026-03-26T13:46:34.999Z</time></trkpt><trkpt lat="44.56008254846917" lon="2.757468596195422"><ele>660.0</ele><time>2026-03-26T13:46:35.999Z</time></trkpt><trkpt lat="44.55998578552875" lon="2.757382483800651"><ele>659.6</ele><time>2026-03-26T13:46:36.999Z</time></trkpt><trkpt lat="44.55988218459453" lon="2.757319589352586"><ele>659.2</ele><time>2026-03-26T13:46:37.999Z</time></trkpt><trkpt lat="44.559773845497126" lon="2.7572648521904886"><ele>658.8</ele><time>2026-03-26T13:46:38.999Z</time></trkpt><trkpt lat="44.55967295712664" lon="2.757226121341319"><ele>658.4</ele><time>2026-03-26T13:46:39.999Z</time></trkpt><trkpt lat="44.55958148503334" lon="2.7571870515193084"><ele>658.0</ele><time>2026-03-26T13:46:40.999Z</time></trkpt><trkpt lat="44.55949513170853" lon="2.75715391094907"><ele>655.2</ele><time>2026-03-26T13:46:41.999Z</time></trkpt><trkpt lat="44.55940932461645" lon="2.7571048261414948"><ele>652.4</ele><time>2026-03-26T13:46:42.999Z</time></trkpt><trkpt lat="44.559349981660205" lon="2.757010027801416"><ele>649.6</ele><time>2026-03-26T13:46:43.999Z</time></trkpt><trkpt lat="44.55928091210535" lon="2.7568997791581507"><ele>646.8000000000001</ele><time>2026-03-26T13:46:44.999Z</time></trkpt><trkpt lat="44.55920777047092" lon="2.756750111260288"><ele>644.0</ele><time>2026-03-26T13:46:45.999Z</time></trkpt><trkpt lat="44.559135033070824" lon="2.7565956258322797"><ele>644.0</ele><time>2026-03-26T13:46:46.999Z</time></trkpt><trkpt lat="44.559061544043736" lon="2.7564353620100657"><ele>644.0</ele><time>2026-03-26T13:46:47.999Z</time></trkpt><trkpt lat="44.55899930220869" lon="2.7562892252588225"><ele>644.0</ele><time>2026-03-26T13:46:48.999Z</time></trkpt><trkpt lat="44.55892399092913" lon="2.756152837184872"><ele>644.0</ele><time>2026-03-26T13:46:49.999Z</time></trkpt><trkpt lat="44.558845703171286" lon="2.756027191257084"><ele>644.5</ele><time>2026-03-26T13:46:50.999Z</time></trkpt><trkpt lat="44.558766241201425" lon="2.755898878352369"><ele>645.0</ele><time>2026-03-26T13:46:51.999Z</time></trkpt><trkpt lat="44.558690562751096" lon="2.755774290048899"><ele>645.5</ele><time>2026-03-26T13:46:52.999Z</time></trkpt><trkpt lat="44.558615859848445" lon="2.755651659875671"><ele>646.0</ele><time>2026-03-26T13:46:53.999Z</time></trkpt><trkpt lat="44.55853994681864" lon="2.755529995547911"><ele>641.75</ele><time>2026-03-26T13:46:54.999Z</time></trkpt><trkpt lat="44.55846095721097" lon="2.7554080320313807"><ele>637.5</ele><time>2026-03-26T13:46:55.999Z</time></trkpt><trkpt lat="44.558384298321364" lon="2.755278558709562"><ele>633.25</ele><time>2026-03-26T13:46:56.999Z</time></trkpt><trkpt lat="44.558311166047844" lon="2.755147082997465"><ele>629.0</ele><time>2026-03-26T13:46:57.999Z</time></trkpt><trkpt lat="44.55824111251111" lon="2.755009301639577"><ele>629.0</ele><time>2026-03-26T13:46:58.998Z</time></trkpt><trkpt lat="44.55816969158401" lon="2.7548735219008167"><ele>629.0</ele><time>2026-03-26T13:46:59.998Z</time></trkpt><trkpt lat="44.55809766991948" lon="2.754739064732771"><ele>629.0</ele><time>2026-03-26T13:47:00.998Z</time></trkpt><trkpt lat="44.5580260452022" lon="2.7546033151348657"><ele>629.0</ele><time>2026-03-26T13:47:01.998Z</time></trkpt><trkpt lat="44.55795560433488" lon="2.754466122261023"><ele>628.5</ele><time>2026-03-26T13:47:02.998Z</time></trkpt><trkpt lat="44.55789229724079" lon="2.754329312268343"><ele>628.0</ele><time>2026-03-26T13:47:03.998Z</time></trkpt><trkpt lat="44.557825760272365" lon="2.7541936153518365"><ele>627.5</ele><time>2026-03-26T13:47:04.998Z</time></trkpt><trkpt lat="44.55776011110055" lon="2.7540561758095685"><ele>627.0</ele><time>2026-03-26T13:47:05.998Z</time></trkpt><trkpt lat="44.557698632266465" lon="2.7539197213716617"><ele>624.0</ele><time>2026-03-26T13:47:06.998Z</time></trkpt><trkpt lat="44.55763403438185" lon="2.753791256800232"><ele>621.0</ele><time>2026-03-26T13:47:07.998Z</time></trkpt><trkpt lat="44.557576473945424" lon="2.7536776616629814"><ele>618.0</ele><time>2026-03-26T13:47:08.998Z</time></trkpt><trkpt lat="44.55752782150772" lon="2.7535747958532673"><ele>615.0</ele><time>2026-03-26T13:47:09.998Z</time></trkpt><trkpt lat="44.55748441402996" lon="2.7534771294131595"><ele>612.0</ele><time>2026-03-26T13:47:11Z</time></trkpt><trkpt lat="44.557463825338274" lon="2.7533682845247016"><ele>611.8000000000001</ele><time>2026-03-26T13:47:12Z</time></trkpt><trkpt lat="44.557462927841094" lon="2.7532575789333436"><ele>611.6</ele><time>2026-03-26T13:47:13Z</time></trkpt><trkpt lat="44.55747472836643" lon="2.753144517924071"><ele>611.4000000000001</ele><time>2026-03-26T13:47:14Z</time></trkpt><trkpt lat="44.55749847283162" lon="2.753023362903297"><ele>611.2</ele><time>2026-03-26T13:47:15Z</time></trkpt><trkpt lat="44.55753761974147" lon="2.752899481087861"><ele>611.0</ele><time>2026-03-26T13:47:16Z</time></trkpt><trkpt lat="44.55758690823166" lon="2.7527667202680854"><ele>609.75</ele><time>2026-03-26T13:47:17Z</time></trkpt><trkpt lat="44.5576352289922" lon="2.7526243095758525"><ele>608.5</ele><time>2026-03-26T13:47:18Z</time></trkpt><trkpt lat="44.557685956533554" lon="2.7524721463908315"><ele>607.25</ele><time>2026-03-26T13:47:19Z</time></trkpt><trkpt lat="44.55774208104763" lon="2.752326600903402"><ele>606.0</ele><time>2026-03-26T13:47:20Z</time></trkpt><trkpt lat="44.55780153067784" lon="2.7521901738603547"><ele>606.0</ele><time>2026-03-26T13:47:21Z</time></trkpt><trkpt lat="44.5578554274706" lon="2.7520560103898952"><ele>606.0</ele><time>2026-03-26T13:47:22Z</time></trkpt><trkpt lat="44.557905581645834" lon="2.7519225775106033"><ele>606.0</ele><time>2026-03-26T13:47:23Z</time></trkpt><trkpt lat="44.557943940292446" lon="2.7517811037645266"><ele>606.0</ele><time>2026-03-26T13:47:24Z</time></trkpt><trkpt lat="44.557969589695745" lon="2.7516248138935313"><ele>606.0</ele><time>2026-03-26T13:47:25Z</time></trkpt><trkpt lat="44.557982579619306" lon="2.751468877073521"><ele>604.5</ele><time>2026-03-26T13:47:26Z</time></trkpt><trkpt lat="44.557992133104904" lon="2.7513110598598733"><ele>603.0</ele><time>2026-03-26T13:47:27Z</time></trkpt><trkpt lat="44.5579929995111" lon="2.7511544054242774"><ele>601.5</ele><time>2026-03-26T13:47:28Z</time></trkpt><trkpt lat="44.55797990260146" lon="2.7509909238157557"><ele>600.0</ele><time>2026-03-26T13:47:29Z</time></trkpt><trkpt lat="44.55795876899206" lon="2.750821739035777"><ele>598.0</ele><time>2026-03-26T13:47:30Z</time></trkpt><trkpt lat="44.55793371572293" lon="2.750648375889231"><ele>596.0</ele><time>2026-03-26T13:47:31Z</time></trkpt><trkpt lat="44.55790655104726" lon="2.7504676167332445"><ele>594.0</ele><time>2026-03-26T13:47:32Z</time></trkpt><trkpt lat="44.55787920481795" lon="2.7502841825012747"><ele>592.0</ele><time>2026-03-26T13:47:33Z</time></trkpt><trkpt lat="44.55784636019826" lon="2.750100134756874"><ele>591.0</ele><time>2026-03-26T13:47:34Z</time></trkpt><trkpt lat="44.55780002394588" lon="2.7499160396222986"><ele>590.0</ele><time>2026-03-26T13:47:35Z</time></trkpt><trkpt lat="44.55773847200188" lon="2.7497329164690343"><ele>589.0</ele><time>2026-03-26T13:47:36Z</time></trkpt><trkpt lat="44.55767400876747" lon="2.749557667769138"><ele>588.0</ele><time>2026-03-26T13:47:37Z</time></trkpt><trkpt lat="44.55760747450191" lon="2.749388091885305"><ele>587.0</ele><time>2026-03-26T13:47:38Z</time></trkpt><trkpt lat="44.55754119800346" lon="2.749216822863104"><ele>586.0</ele><time>2026-03-26T13:47:39Z</time></trkpt><trkpt lat="44.55748051100478" lon="2.7490448498380737"><ele>585.0</ele><time>2026-03-26T13:47:40Z</time></trkpt><trkpt lat="44.55742297299498" lon="2.7488745304970985"><ele>584.0</ele><time>2026-03-26T13:47:41Z</time></trkpt><trkpt lat="44.557362695141414" lon="2.748704170227099"><ele>581.5</ele><time>2026-03-26T13:47:42Z</time></trkpt><trkpt lat="44.55730922982275" lon="2.7485331173230136"><ele>579.0</ele><time>2026-03-26T13:47:43Z</time></trkpt><trkpt lat="44.557255508673585" lon="2.74836236579496"><ele>576.5</ele><time>2026-03-26T13:47:44Z</time></trkpt><trkpt lat="44.55720408209734" lon="2.7481994473369955"><ele>574.0</ele><time>2026-03-26T13:47:45Z</time></trkpt><trkpt lat="44.55714402141304" lon="2.748046676417869"><ele>574.0</ele><time>2026-03-26T13:47:46Z</time></trkpt><trkpt lat="44.55707789756395" lon="2.747908675250525"><ele>574.0</ele><time>2026-03-26T13:47:47Z</time></trkpt><trkpt lat="44.5570173512837" lon="2.7477929205884823"><ele>574.0</ele><time>2026-03-26T13:47:48Z</time></trkpt><trkpt lat="44.55694745642492" lon="2.7476827609002745"><ele>574.0</ele><time>2026-03-26T13:47:48.999Z</time></trkpt><trkpt lat="44.556860937154376" lon="2.7475921388622706"><ele>574.0</ele><time>2026-03-26T13:47:49.999Z</time></trkpt><trkpt lat="44.55675869197432" lon="2.747526252401649"><ele>572.5</ele><time>2026-03-26T13:47:50.999Z</time></trkpt><trkpt lat="44.556644987467045" lon="2.7474672514568317"><ele>571.0</ele><time>2026-03-26T13:47:51.999Z</time></trkpt><trkpt lat="44.55653298755212" lon="2.747411023611708"><ele>569.5</ele><time>2026-03-26T13:47:52.999Z</time></trkpt><trkpt lat="44.556419895936045" lon="2.7473508489589253"><ele>568.0</ele><time>2026-03-26T13:47:53.999Z</time></trkpt><trkpt lat="44.55630711119956" lon="2.7472910317081745"><ele>564.5</ele><time>2026-03-26T13:47:54.999Z</time></trkpt><trkpt lat="44.55619176034869" lon="2.7472482714292425"><ele>561.0</ele><time>2026-03-26T13:47:55.999Z</time></trkpt><trkpt lat="44.55607378630281" lon="2.7472260733338074"><ele>557.5</ele><time>2026-03-26T13:47:56.999Z</time></trkpt><trkpt lat="44.555948586125545" lon="2.747225538258263"><ele>554.0</ele><time>2026-03-26T13:47:57.999Z</time></trkpt><trkpt lat="44.555818325231364" lon="2.747249899764426"><ele>554.0</ele><time>2026-03-26T13:47:58.999Z</time></trkpt><trkpt lat="44.555693860694134" lon="2.7473018864039314"><ele>554.0</ele><time>2026-03-26T13:47:59.999Z</time></trkpt><trkpt lat="44.555579275566735" lon="2.7473700283473317"><ele>554.0</ele><time>2026-03-26T13:48:00.999Z</time></trkpt><trkpt lat="44.55547193540219" lon="2.747452306520528"><ele>554.0</ele><time>2026-03-26T13:48:01.999Z</time></trkpt><trkpt lat="44.55537449565072" lon="2.7475486655217636"><ele>552.4</ele><time>2026-03-26T13:48:02.999Z</time></trkpt><trkpt lat="44.55528192090502" lon="2.747654318361428"><ele>550.8</ele><time>2026-03-26T13:48:03.999Z</time></trkpt><trkpt lat="44.55519756063948" lon="2.7477646231995725"><ele>549.2</ele><time>2026-03-26T13:48:04.999Z</time></trkpt><trkpt lat="44.55513015003987" lon="2.747861145900019"><ele>547.6</ele><time>2026-03-26T13:48:05.999Z</time></trkpt><trkpt lat="44.55507443712335" lon="2.7479486424053294"><ele>546.0</ele><time>2026-03-26T13:48:06.999Z</time></trkpt><trkpt lat="44.55501800708056" lon="2.7480159929560877"><ele>546.0</ele><time>2026-03-26T13:48:07.999Z</time></trkpt><trkpt lat="44.55495695630861" lon="2.748048531010377"><ele>546.0</ele><time>2026-03-26T13:48:08.999Z</time></trkpt><trkpt lat="44.55488362650874" lon="2.7480517747644626"><ele>546.0</ele><time>2026-03-26T13:48:09.999Z</time></trkpt><trkpt lat="44.55480411331873" lon="2.7480075401229036"><ele>546.0</ele><time>2026-03-26T13:48:10.999Z</time></trkpt><trkpt lat="44.554718101227174" lon="2.747928422763915"><ele>546.0</ele><time>2026-03-26T13:48:11.999Z</time></trkpt><trkpt lat="44.55463897854171" lon="2.7478196450526813"><ele>546.0</ele><time>2026-03-26T13:48:12.999Z</time></trkpt><trkpt lat="44.554547688579525" lon="2.7477005644668115"><ele>541.5</ele><time>2026-03-26T13:48:13.999Z</time></trkpt><trkpt lat="44.554453522130814" lon="2.747573803617431"><ele>537.0</ele><time>2026-03-26T13:48:14.999Z</time></trkpt><trkpt lat="44.55436392288299" lon="2.7474558835551104"><ele>532.5</ele><time>2026-03-26T13:48:15.999Z</time></trkpt><trkpt lat="44.55427642043275" lon="2.7473375195065937"><ele>528.0</ele><time>2026-03-26T13:48:16.999Z</time></trkpt><trkpt lat="44.55419250381313" lon="2.7472334965222474"><ele>528.0</ele><time>2026-03-26T13:48:17.999Z</time></trkpt><trkpt lat="44.554119652500844" lon="2.7471177137020235"><ele>528.0</ele><time>2026-03-26T13:48:18.999Z</time></trkpt><trkpt lat="44.55405303245103" lon="2.7469913053971773"><ele>528.0</ele><time>2026-03-26T13:48:19.999Z</time></trkpt><trkpt lat="44.55398978080149" lon="2.746842127614637"><ele>528.0</ele><time>2026-03-26T13:48:20.999Z</time></trkpt><trkpt lat="44.55392565923305" lon="2.74668511152216"><ele>527.75</ele><time>2026-03-26T13:48:21.999Z</time></trkpt><trkpt lat="44.55385241987038" lon="2.746546071368082"><ele>527.5</ele><time>2026-03-26T13:48:22.999Z</time></trkpt><trkpt lat="44.55375393254554" lon="2.7464119339452213"><ele>527.25</ele><time>2026-03-26T13:48:23.999Z</time></trkpt><trkpt lat="44.5536540676484" lon="2.7462950588850314"><ele>527.0</ele><time>2026-03-26T13:48:24.999Z</time></trkpt><trkpt lat="44.553551140986755" lon="2.7461876534750873"><ele>524.75</ele><time>2026-03-26T13:48:25.999Z</time></trkpt><trkpt lat="44.553454991879924" lon="2.7460617552894417"><ele>522.5</ele><time>2026-03-26T13:48:26.999Z</time></trkpt><trkpt lat="44.55338292440154" lon="2.7459327341649713"><ele>520.25</ele><time>2026-03-26T13:48:27.999Z</time></trkpt><trkpt lat="44.553327132013955" lon="2.7457865400474297"><ele>518.0</ele><time>2026-03-26T13:48:28.999Z</time></trkpt><trkpt lat="44.553277876534615" lon="2.7456347667823464"><ele>518.0</ele><time>2026-03-26T13:48:29.999Z</time></trkpt><trkpt lat="44.55323831667626" lon="2.7454771297933562"><ele>518.0</ele><time>2026-03-26T13:48:30.999Z</time></trkpt><trkpt lat="44.553185763330056" lon="2.7453166748349385"><ele>518.0</ele><time>2026-03-26T13:48:31.999Z</time></trkpt><trkpt lat="44.553138500120326" lon="2.745160398889523"><ele>518.0</ele><time>2026-03-26T13:48:32.999Z</time></trkpt><trkpt lat="44.55310340164507" lon="2.745013441614504"><ele>517.1999999999999</ele><time>2026-03-26T13:48:33.999Z</time></trkpt><trkpt lat="44.55307462983474" lon="2.744875696151621"><ele>516.4</ele><time>2026-03-26T13:48:34.999Z</time></trkpt><trkpt lat="44.55305190260319" lon="2.744745819879486"><ele>515.5999999999999</ele><time>2026-03-26T13:48:35.999Z</time></trkpt><trkpt lat="44.55303599185213" lon="2.7446127281127293"><ele>514.8</ele><time>2026-03-26T13:48:36.999Z</time></trkpt><trkpt lat="44.55302374566027" lon="2.744474562841025"><ele>514.0</ele><time>2026-03-26T13:48:37.999Z</time></trkpt><trkpt lat="44.553013674351064" lon="2.7443237505969704"><ele>513.1666666666667</ele><time>2026-03-26T13:48:38.999Z</time></trkpt><trkpt lat="44.55300776078349" lon="2.744165084961482"><ele>512.3333333333334</ele><time>2026-03-26T13:48:39.999Z</time></trkpt><trkpt lat="44.55299338280169" lon="2.744011731771215"><ele>511.5</ele><time>2026-03-26T13:48:40.999Z</time></trkpt><trkpt lat="44.55297936826105" lon="2.743896191286813"><ele>510.66666666666663</ele><time>2026-03-26T13:48:41.999Z</time></trkpt><trkpt lat="44.552968762244966" lon="2.7437998631780927"><ele>509.8333333333333</ele><time>2026-03-26T13:48:42.999Z</time></trkpt><trkpt lat="44.55296407245958" lon="2.7436989512504253"><ele>509.0</ele><time>2026-03-26T13:48:44.999Z</time></trkpt><trkpt lat="44.55305954334613" lon="2.7436584072940975"><ele>508.99999999999994</ele><time>2026-03-26T13:48:47.999Z</time></trkpt><trkpt lat="44.5531131748299" lon="2.743724844183282"><ele>509.0</ele><time>2026-03-26T13:48:48.999Z</time></trkpt><trkpt lat="44.55315370989847" lon="2.7438364387326506"><ele>509.0</ele><time>2026-03-26T13:48:49.999Z</time></trkpt><trkpt lat="44.5531874075009" lon="2.743954272493828"><ele>509.0</ele><time>2026-03-26T13:48:50.999Z</time></trkpt><trkpt lat="44.55322146981998" lon="2.744075579123231"><ele>508.99999999999994</ele><time>2026-03-26T13:48:51.999Z</time></trkpt><trkpt lat="44.5532602258372" lon="2.7441852354218312"><ele>509.0</ele><time>2026-03-26T13:48:52.999Z</time></trkpt><trkpt lat="44.55330686927014" lon="2.744289438460337"><ele>509.8333333333333</ele><time>2026-03-26T13:48:53.999Z</time></trkpt><trkpt lat="44.553363008825464" lon="2.7443826230089243"><ele>510.66666666666663</ele><time>2026-03-26T13:48:54.999Z</time></trkpt><trkpt lat="44.55342455749434" lon="2.744463418202572"><ele>511.5</ele><time>2026-03-26T13:48:55.999Z</time></trkpt><trkpt lat="44.55348832300683" lon="2.744525839260284"><ele>512.3333333333334</ele><time>2026-03-26T13:48:56.999Z</time></trkpt><trkpt lat="44.553561646855414" lon="2.7445623705224462"><ele>513.1666666666667</ele><time>2026-03-26T13:48:57.999Z</time></trkpt><trkpt lat="44.55363427663849" lon="2.744572714460898"><ele>514.0</ele><time>2026-03-26T13:48:58.999Z</time></trkpt><trkpt lat="44.55370821557013" lon="2.744553184801676"><ele>514.0</ele><time>2026-03-26T13:48:59.999Z</time></trkpt><trkpt lat="44.55378659753818" lon="2.7445054054682396"><ele>514.0</ele><time>2026-03-26T13:49:00.999Z</time></trkpt><trkpt lat="44.55386645367783" lon="2.7444297919263265"><ele>514.0</ele><time>2026-03-26T13:49:01.999Z</time></trkpt><trkpt lat="44.553958313238425" lon="2.744356653157581"><ele>514.0</ele><time>2026-03-26T13:49:02.999Z</time></trkpt><trkpt lat="44.554050788482535" lon="2.744300413025874"><ele>514.0</ele><time>2026-03-26T13:49:03.999Z</time></trkpt><trkpt lat="44.55413450351877" lon="2.744257951298761"><ele>512.5</ele><time>2026-03-26T13:49:04.999Z</time></trkpt><trkpt lat="44.55421001064891" lon="2.7442051813665613"><ele>511.0</ele><time>2026-03-26T13:49:05.999Z</time></trkpt><trkpt lat="44.55427467945555" lon="2.744126265942081"><ele>509.5</ele><time>2026-03-26T13:49:06.999Z</time></trkpt><trkpt lat="44.55433626238649" lon="2.7440383905681696"><ele>508.0</ele><time>2026-03-26T13:49:07.999Z</time></trkpt><trkpt lat="44.554395616683315" lon="2.7439220511978224"><ele>506.50000000000006</ele><time>2026-03-26T13:49:08.999Z</time></trkpt><trkpt lat="44.55441966227768" lon="2.7438080998955194"><ele>505.0</ele><time>2026-03-26T13:49:09.999Z</time></trkpt><trkpt lat="44.554446105368186" lon="2.7437067053108257"><ele>505.0</ele><time>2026-03-26T13:49:10.999Z</time></trkpt><trkpt lat="44.55448131722267" lon="2.7436074209825274"><ele>505.0</ele><time>2026-03-26T13:49:11.999Z</time></trkpt><trkpt lat="44.55451404998494" lon="2.743486022630232"><ele>505.0</ele><time>2026-03-26T13:49:12.998Z</time></trkpt><trkpt lat="44.55454132586036" lon="2.7433512872905457"><ele>505.0</ele><time>2026-03-26T13:49:13.998Z</time></trkpt><trkpt lat="44.55456972557887" lon="2.7432123403443467"><ele>505.0</ele><time>2026-03-26T13:49:14.998Z</time></trkpt><trkpt lat="44.55459501448906" lon="2.7430821489644597"><ele>505.8</ele><time>2026-03-26T13:49:16Z</time></trkpt><trkpt lat="44.554608842765134" lon="2.7429575162254243"><ele>506.6</ele><time>2026-03-26T13:49:17Z</time></trkpt><trkpt lat="44.55462155228722" lon="2.7428301615295196"><ele>507.4</ele><time>2026-03-26T13:49:18Z</time></trkpt><trkpt lat="44.554629911082415" lon="2.742704931982625"><ele>508.2</ele><time>2026-03-26T13:49:19Z</time></trkpt><trkpt lat="44.554641453868776" lon="2.7425828228668077"><ele>509.0</ele><time>2026-03-26T13:49:20Z</time></trkpt><trkpt lat="44.55465613905466" lon="2.74245707460244"><ele>506.99999999999994</ele><time>2026-03-26T13:49:21Z</time></trkpt><trkpt lat="44.554677721498614" lon="2.7423342435394384"><ele>505.0</ele><time>2026-03-26T13:49:22Z</time></trkpt><trkpt lat="44.55469822392984" lon="2.7422082916842876"><ele>503.0</ele><time>2026-03-26T13:49:23Z</time></trkpt><trkpt lat="44.55471266851403" lon="2.742079681784091"><ele>501.0</ele><time>2026-03-26T13:49:24Z</time></trkpt><trkpt lat="44.55472599995318" lon="2.741955146814004"><ele>498.99999999999994</ele><time>2026-03-26T13:49:25Z</time></trkpt><trkpt lat="44.554733542022866" lon="2.7418456317392956"><ele>497.0</ele><time>2026-03-26T13:49:26Z</time></trkpt><trkpt lat="44.55474346258098" lon="2.7417512693310497"><ele>494.7142857142857</ele><time>2026-03-26T13:49:27Z</time></trkpt><trkpt lat="44.55477231521207" lon="2.7416443898170306"><ele>492.42857142857144</ele><time>2026-03-26T13:49:29Z</time></trkpt><trkpt lat="44.55483336385787" lon="2.741605918715109"><ele>490.1428571428571</ele><time>2026-03-26T13:49:31Z</time></trkpt><trkpt lat="44.5549038657222" lon="2.74160322047488"><ele>487.85714285714283</ele><time>2026-03-26T13:49:34Z</time></trkpt><trkpt lat="44.554970999897655" lon="2.741603306277835"><ele>485.57142857142856</ele><time>2026-03-26T13:49:36Z</time></trkpt><trkpt lat="44.55505533538764" lon="2.741650585691771"><ele>483.2857142857142</ele><time>2026-03-26T13:49:39Z</time></trkpt><trkpt lat="44.55500063881496" lon="2.741586715230767"><ele>480.99999999999994</ele><time>2026-03-26T13:49:46Z</time></trkpt><trkpt lat="44.55486936932776" lon="2.7415955912002175"><ele>480.99999999999994</ele><time>2026-03-26T13:49:48Z</time></trkpt><trkpt lat="44.55478216261604" lon="2.741605352657462"><ele>481.0</ele><time>2026-03-26T13:49:50Z</time></trkpt><trkpt lat="44.55471735053363" lon="2.741538462518399"><ele>480.99999999999994</ele><time>2026-03-26T13:49:57.999Z</time></trkpt><trkpt lat="44.554688867861636" lon="2.741450148199109"><ele>480.99999999999994</ele><time>2026-03-26T13:50:09.999Z</time></trkpt><trkpt lat="44.55470173559349" lon="2.741362473584806"><ele>481.0</ele><time>2026-03-26T13:50:13.999Z</time></trkpt><trkpt lat="44.554740486929035" lon="2.741275765825334"><ele>480.99999999999994</ele><time>2026-03-26T13:50:19.999Z</time></trkpt><trkpt lat="44.554708143340264" lon="2.741188958297596"><ele>480.99999999999994</ele><time>2026-03-26T13:50:24.999Z</time></trkpt><trkpt lat="44.554670567183976" lon="2.741061423678475"><ele>478.71428571428567</ele><time>2026-03-26T13:50:37.999Z</time></trkpt><trkpt lat="44.55465461891002" lon="2.740958158793544"><ele>476.42857142857144</ele><time>2026-03-26T13:50:46.999Z</time></trkpt><trkpt lat="44.55467656098411" lon="2.7408706658255317"><ele>474.1428571428571</ele><time>2026-03-26T13:50:49.999Z</time></trkpt><trkpt lat="44.55468006415715" lon="2.7407653342513463"><ele>471.85714285714283</ele><time>2026-03-26T13:50:53.999Z</time></trkpt><trkpt lat="44.55464890447059" lon="2.740668469485087"><ele>469.57142857142856</ele><time>2026-03-26T13:50:58.999Z</time></trkpt><trkpt lat="44.55463250947555" lon="2.7405787971780686"><ele>467.2857142857143</ele><time>2026-03-26T13:51:03.999Z</time></trkpt><trkpt lat="44.55456907151169" lon="2.740582037099432"><ele>465.0</ele><time>2026-03-26T13:51:13.999Z</time></trkpt><trkpt lat="44.55454532353089" lon="2.740485851461316"><ele>465.0</ele><time>2026-03-26T13:51:25Z</time></trkpt><trkpt lat="44.55459849479212" lon="2.740435252745831"><ele>465.0</ele><time>2026-03-26T13:51:34Z</time></trkpt><trkpt lat="44.554578105935455" lon="2.7403324347718896"><ele>465.0</ele><time>2026-03-26T13:51:36Z</time></trkpt><trkpt lat="44.55449267459411" lon="2.7402896583187095"><ele>465.0</ele><time>2026-03-26T13:51:47Z</time></trkpt><trkpt lat="44.55448412259434" lon="2.7401967125120588"><ele>465.0</ele><time>2026-03-26T13:51:52Z</time></trkpt><trkpt lat="44.55446279726798" lon="2.740106418586084"><ele>465.0</ele><time>2026-03-26T13:51:54.999Z</time></trkpt><trkpt lat="44.55445801135193" lon="2.7400174863077775"><ele>465.0</ele><time>2026-03-26T13:51:57.999Z</time></trkpt><trkpt lat="44.55446154236184" lon="2.7399267071150994"><ele>462.57142857142856</ele><time>2026-03-26T13:52:02.999Z</time></trkpt><trkpt lat="44.554424364546925" lon="2.739842777028852"><ele>460.14285714285717</ele><time>2026-03-26T13:52:09.999Z</time></trkpt><trkpt lat="44.55451201528004" lon="2.7397836963597553"><ele>457.7142857142857</ele><time>2026-03-26T13:52:26.999Z</time></trkpt><trkpt lat="44.55455179718682" lon="2.7397140398794733"><ele>455.2857142857143</ele><time>2026-03-26T13:52:46.999Z</time></trkpt><trkpt lat="44.55453312814517" lon="2.7396252972714734"><ele>452.8571428571429</ele><time>2026-03-26T13:52:57.999Z</time></trkpt><trkpt lat="44.55451324319039" lon="2.7397375213852833"><ele>450.42857142857144</ele><time>2026-03-26T13:53:05.999Z</time></trkpt><trkpt lat="44.55457140770954" lon="2.7397880443672467"><ele>448.0</ele><time>2026-03-26T13:53:22.998Z</time></trkpt><trkpt lat="44.5545025960634" lon="2.739763044171759"><ele>448.00000000000006</ele><time>2026-03-26T13:53:33Z</time></trkpt><trkpt lat="44.55453915140474" lon="2.7398467205123276"><ele>448.0</ele><time>2026-03-26T13:53:41Z</time></trkpt><trkpt lat="44.55446888936468" lon="2.739747258216066"><ele>448.0</ele><time>2026-03-26T13:53:56Z</time></trkpt><trkpt lat="44.554413048923784" lon="2.7398073186219025"><ele>448.0</ele><time>2026-03-26T13:54:10.999Z</time></trkpt><trkpt lat="44.554451962211914" lon="2.7397200352850586"><ele>448.00000000000006</ele><time>2026-03-26T13:55:33Z</time></trkpt><trkpt lat="44.554498700087144" lon="2.7396364161724542"><ele>448.0</ele><time>2026-03-26T13:55:41Z</time></trkpt><trkpt lat="44.55445135864609" lon="2.739700955503166"><ele>448.0</ele><time>2026-03-26T13:56:16.999Z</time></trkpt><trkpt lat="44.554410942683006" lon="2.739771432018562"><ele>448.0</ele><time>2026-03-26T13:56:29.999Z</time></trkpt><trkpt lat="44.554469350996676" lon="2.739667708823948"><ele>448.0</ele><time>2026-03-26T13:57:19.999Z</time></trkpt><trkpt lat="44.55452583981214" lon="2.739609248204918"><ele>448.0</ele><time>2026-03-26T13:57:22.999Z</time></trkpt><trkpt lat="44.55456625831121" lon="2.739533396643497"><ele>448.0</ele><time>2026-03-26T13:57:25.998Z</time></trkpt><trkpt lat="44.554592108472676" lon="2.739441867766659"><ele>448.0</ele><time>2026-03-26T13:57:31.998Z</time></trkpt><trkpt lat="44.55459822539394" lon="2.739336607301023"><ele>448.0</ele><time>2026-03-26T13:57:36.998Z</time></trkpt><trkpt lat="44.55461366183067" lon="2.7392338946398476"><ele>446.42857142857144</ele><time>2026-03-26T13:57:41Z</time></trkpt><trkpt lat="44.5546227463642" lon="2.7391456393634623"><ele>444.8571428571429</ele><time>2026-03-26T13:57:45Z</time></trkpt><trkpt lat="44.554628879182395" lon="2.739047248003307"><ele>443.2857142857143</ele><time>2026-03-26T13:57:49Z</time></trkpt><trkpt lat="44.55461834190774" lon="2.7389493224236436"><ele>441.7142857142857</ele><time>2026-03-26T13:57:55Z</time></trkpt><trkpt lat="44.55463771554681" lon="2.7388420350759555"><ele>440.14285714285717</ele><time>2026-03-26T13:58:06.999Z</time></trkpt><trkpt lat="44.55464013749089" lon="2.738748438355591"><ele>438.57142857142856</ele><time>2026-03-26T13:58:11.999Z</time></trkpt><trkpt lat="44.55466321878877" lon="2.738628231590884"><ele>437.0</ele><time>2026-03-26T13:58:15.999Z</time></trkpt><trkpt lat="44.55468886289016" lon="2.7385461530153163"><ele>433.99999999999994</ele><time>2026-03-26T13:58:17.999Z</time></trkpt><trkpt lat="44.55471448566335" lon="2.738447272672426"><ele>431.0</ele><time>2026-03-26T13:58:19.999Z</time></trkpt><trkpt lat="44.55473466129746" lon="2.738348387029498"><ele>428.0</ele><time>2026-03-26T13:58:22.999Z</time></trkpt><trkpt lat="44.554765687763094" lon="2.7382560174135455"><ele>425.0</ele><time>2026-03-26T13:58:24.999Z</time></trkpt><trkpt lat="44.554787667875466" lon="2.738139970588228"><ele>421.99999999999994</ele><time>2026-03-26T13:58:26.999Z</time></trkpt><trkpt lat="44.554793222358825" lon="2.7380410726035285"><ele>419.0</ele><time>2026-03-26T13:58:28.999Z</time></trkpt><trkpt lat="44.55479425308047" lon="2.73790762332548"><ele>418.99999999999994</ele><time>2026-03-26T13:58:30.999Z</time></trkpt><trkpt lat="44.554801844050374" lon="2.737775067091815"><ele>419.0</ele><time>2026-03-26T13:58:32.999Z</time></trkpt><trkpt lat="44.554836509828164" lon="2.7376836350179117"><ele>419.0</ele><time>2026-03-26T13:58:33.999Z</time></trkpt><trkpt lat="44.554844456199746" lon="2.73751933602435"><ele>419.0</ele><time>2026-03-26T13:58:35.999Z</time></trkpt><trkpt lat="44.55486590648306" lon="2.7374174293685662"><ele>418.99999999999994</ele><time>2026-03-26T13:58:37.999Z</time></trkpt><trkpt lat="44.554897386461356" lon="2.737308015978594"><ele>419.0</ele><time>2026-03-26T13:58:40.999Z</time></trkpt><trkpt lat="44.55490722953115" lon="2.737185823042572"><ele>415.66666666666663</ele><time>2026-03-26T13:58:44.999Z</time></trkpt><trkpt lat="44.554939002330514" lon="2.737078514473054"><ele>412.3333333333333</ele><time>2026-03-26T13:58:46.999Z</time></trkpt><trkpt lat="44.55496230376758" lon="2.7369712966085284"><ele>409.0</ele><time>2026-03-26T13:58:49.999Z</time></trkpt><trkpt lat="44.55492881148706" lon="2.7368732051806743"><ele>405.66666666666663</ele><time>2026-03-26T13:58:52.999Z</time></trkpt><trkpt lat="44.554853490131535" lon="2.736839575676617"><ele>402.3333333333333</ele><time>2026-03-26T13:58:54.999Z</time></trkpt><trkpt lat="44.55476967092056" lon="2.736775597186939"><ele>399.0</ele><time>2026-03-26T13:58:56.999Z</time></trkpt><trkpt lat="44.554665645640654" lon="2.736711178972395"><ele>397.6666666666667</ele><time>2026-03-26T13:58:58.999Z</time></trkpt><trkpt lat="44.554598303661436" lon="2.7366438912523496"><ele>396.33333333333337</ele><time>2026-03-26T13:59:00.999Z</time></trkpt><trkpt lat="44.55451266985488" lon="2.7366123431136744"><ele>395.0</ele><time>2026-03-26T13:59:03.999Z</time></trkpt><trkpt lat="44.554441664277064" lon="2.736550847491752"><ele>393.6666666666667</ele><time>2026-03-26T13:59:05.999Z</time></trkpt><trkpt lat="44.55437953629372" lon="2.7364097102830356"><ele>392.33333333333337</ele><time>2026-03-26T13:59:07.999Z</time></trkpt><trkpt lat="44.5543532329361" lon="2.7363265424553225"><ele>391.0</ele><time>2026-03-26T13:59:08.999Z</time></trkpt><trkpt lat="44.55431575812596" lon="2.7362244477737914"><ele>391.20000000000005</ele><time>2026-03-26T13:59:09.999Z</time></trkpt><trkpt lat="44.55430367771933" lon="2.7361134029531717"><ele>391.40000000000003</ele><time>2026-03-26T13:59:10.999Z</time></trkpt><trkpt lat="44.55428191265045" lon="2.7359334844878855"><ele>391.6</ele><time>2026-03-26T13:59:12.999Z</time></trkpt><trkpt lat="44.55425750653667" lon="2.73581834156306"><ele>391.8</ele><time>2026-03-26T13:59:13.999Z</time></trkpt><trkpt lat="44.55422949272491" lon="2.7356634874310877"><ele>392.0</ele><time>2026-03-26T13:59:15.999Z</time></trkpt><trkpt lat="44.55415767707534" lon="2.7355095667635814"><ele>392.0</ele><time>2026-03-26T13:59:17.999Z</time></trkpt><trkpt lat="44.55407656574825" lon="2.735403255482131"><ele>392.0</ele><time>2026-03-26T13:59:19.999Z</time></trkpt><trkpt lat="44.554001876636704" lon="2.7353589719243585"><ele>392.0</ele><time>2026-03-26T13:59:21.999Z</time></trkpt><trkpt lat="44.553930483683324" lon="2.7353259026717396"><ele>392.0</ele><time>2026-03-26T13:59:22.999Z</time></trkpt><trkpt lat="44.55383244718354" lon="2.735327185550815"><ele>392.0</ele><time>2026-03-26T13:59:24.999Z</time></trkpt><trkpt lat="44.553719697881554" lon="2.735293719771671"><ele>391.99999999999994</ele><time>2026-03-26T13:59:32.998Z</time></trkpt><trkpt lat="44.55363940884387" lon="2.735218959405729"><ele>392.0</ele><time>2026-03-26T13:59:34.998Z</time></trkpt><trkpt lat="44.5537026009699" lon="2.735281985857204"><ele>392.0</ele><time>2026-03-26T13:59:42.998Z</time></trkpt><trkpt lat="44.553791250128064" lon="2.7353253479480806"><ele>392.0</ele><time>2026-03-26T13:59:45Z</time></trkpt><trkpt lat="44.55387242791964" lon="2.7353278789960207"><ele>391.99999999999994</ele><time>2026-03-26T13:59:48Z</time></trkpt><trkpt lat="44.5538453872156" lon="2.735210187212307"><ele>392.0</ele><time>2026-03-26T13:59:51Z</time></trkpt><trkpt lat="44.55377535005861" lon="2.7350922849259303"><ele>393.66666666666663</ele><time>2026-03-26T13:59:53Z</time></trkpt><trkpt lat="44.553750512203436" lon="2.734979501070914"><ele>395.3333333333333</ele><time>2026-03-26T13:59:55Z</time></trkpt><trkpt lat="44.55369999670311" lon="2.734857934426377"><ele>397.0</ele><time>2026-03-26T13:59:57Z</time></trkpt><trkpt lat="44.553680655019875" lon="2.7347534760477465"><ele>398.66666666666663</ele><time>2026-03-26T13:59:59Z</time></trkpt><trkpt lat="44.55371179075937" lon="2.7346033106163774"><ele>400.3333333333333</ele><time>2026-03-26T14:00:01Z</time></trkpt><trkpt lat="44.55373472001253" lon="2.734520751884865"><ele>402.0</ele><time>2026-03-26T14:00:02Z</time></trkpt><trkpt lat="44.553747171381545" lon="2.7343529696262303"><ele>403.20000000000005</ele><time>2026-03-26T14:00:04Z</time></trkpt><trkpt lat="44.55373539584886" lon="2.7341847464056523"><ele>404.4</ele><time>2026-03-26T14:00:06Z</time></trkpt><trkpt lat="44.553732671833195" lon="2.7340314142797575"><ele>405.6</ele><time>2026-03-26T14:00:08Z</time></trkpt><trkpt lat="44.55368505131951" lon="2.7339063318155383"><ele>406.79999999999995</ele><time>2026-03-26T14:00:09.999Z</time></trkpt><trkpt lat="44.553615729965486" lon="2.7337789148704585"><ele>408.0</ele><time>2026-03-26T14:00:11.999Z</time></trkpt><trkpt lat="44.55358691998553" lon="2.7336334608836568"><ele>402.59999999999997</ele><time>2026-03-26T14:00:13.999Z</time></trkpt><trkpt lat="44.553618912615434" lon="2.733486112674805"><ele>397.2</ele><time>2026-03-26T14:00:15.999Z</time></trkpt><trkpt lat="44.55358342727609" lon="2.733327535316942"><ele>391.8</ele><time>2026-03-26T14:00:17.999Z</time></trkpt><trkpt lat="44.55353960151256" lon="2.7332410778244225"><ele>386.4</ele><time>2026-03-26T14:00:18.999Z</time></trkpt><trkpt lat="44.55346397910148" lon="2.73310438530199"><ele>381.0</ele><time>2026-03-26T14:00:20.999Z</time></trkpt><trkpt lat="44.55339985214923" lon="2.732987964019899"><ele>381.0</ele><time>2026-03-26T14:00:22.999Z</time></trkpt><trkpt lat="44.55342348761103" lon="2.732878728225777"><ele>381.0</ele><time>2026-03-26T14:00:24.999Z</time></trkpt><trkpt lat="44.55349026011508" lon="2.732754104920878"><ele>381.0</ele><time>2026-03-26T14:00:26.999Z</time></trkpt><trkpt lat="44.55352207657746" lon="2.7326602775200963"><ele>381.0</ele><time>2026-03-26T14:00:27.999Z</time></trkpt><trkpt lat="44.55354624483197" lon="2.732564369273082"><ele>381.0</ele><time>2026-03-26T14:00:28.999Z</time></trkpt><trkpt lat="44.55356771858081" lon="2.732464732021727"><ele>381.0</ele><time>2026-03-26T14:00:29.999Z</time></trkpt><trkpt lat="44.55357754025571" lon="2.7323643182769373"><ele>382.0</ele><time>2026-03-26T14:00:30.999Z</time></trkpt><trkpt lat="44.553578242277354" lon="2.7322219909241716"><ele>383.0</ele><time>2026-03-26T14:00:32.999Z</time></trkpt><trkpt lat="44.55359327319832" lon="2.732123001429096"><ele>384.0</ele><time>2026-03-26T14:00:34.999Z</time></trkpt><trkpt lat="44.553603217084046" lon="2.7320066875768476"><ele>385.0</ele><time>2026-03-26T14:00:36.999Z</time></trkpt><trkpt lat="44.55353094849142" lon="2.7319612709406487"><ele>386.0</ele><time>2026-03-26T14:00:38.999Z</time></trkpt><trkpt lat="44.553434291106925" lon="2.7320472261821656"><ele>385.99999999999994</ele><time>2026-03-26T14:00:40.999Z</time></trkpt><trkpt lat="44.553373972242596" lon="2.7320886206123123"><ele>386.0</ele><time>2026-03-26T14:00:41.999Z</time></trkpt><trkpt lat="44.553307133957155" lon="2.7321905154667925"><ele>386.0</ele><time>2026-03-26T14:00:43.999Z</time></trkpt><trkpt lat="44.55324983355949" lon="2.732290407916788"><ele>386.0</ele><time>2026-03-26T14:00:45.999Z</time></trkpt><trkpt lat="44.55318158970875" lon="2.7324044628923287"><ele>385.99999999999994</ele><time>2026-03-26T14:00:47.999Z</time></trkpt><trkpt lat="44.55309558134233" lon="2.7324103883530992"><ele>386.0</ele><time>2026-03-26T14:00:49.999Z</time></trkpt><trkpt lat="44.55303396498525" lon="2.7323482141745994"><ele>386.0</ele><time>2026-03-26T14:00:51.999Z</time></trkpt><trkpt lat="44.55301397463883" lon="2.732231413148853"><ele>386.0</ele><time>2026-03-26T14:00:53.999Z</time></trkpt><trkpt lat="44.552953135333254" lon="2.7321251733753122"><ele>386.0</ele><time>2026-03-26T14:00:55.999Z</time></trkpt><trkpt lat="44.55291755059213" lon="2.7319630116585167"><ele>386.0</ele><time>2026-03-26T14:00:57.999Z</time></trkpt><trkpt lat="44.552899351364154" lon="2.7318223837111755"><ele>386.0</ele><time>2026-03-26T14:00:59.999Z</time></trkpt><trkpt lat="44.552918952881726" lon="2.731673205260003"><ele>387.8333333333333</ele><time>2026-03-26T14:01:01.999Z</time></trkpt><trkpt lat="44.55293994957169" lon="2.7315163748894222"><ele>389.66666666666663</ele><time>2026-03-26T14:01:03.999Z</time></trkpt><trkpt lat="44.55296757183291" lon="2.731415281791345"><ele>391.5</ele><time>2026-03-26T14:01:05.999Z</time></trkpt><trkpt lat="44.553007757009205" lon="2.7313421683100514"><ele>393.33333333333337</ele><time>2026-03-26T14:01:18.999Z</time></trkpt><trkpt lat="44.55306575383888" lon="2.731280656831974"><ele>395.1666666666667</ele><time>2026-03-26T14:01:22.999Z</time></trkpt><trkpt lat="44.553113715886695" lon="2.731206588413802"><ele>397.0</ele><time>2026-03-26T14:01:24.999Z</time></trkpt><trkpt lat="44.55313175914364" lon="2.7311181553788257"><ele>398.6666666666667</ele><time>2026-03-26T14:01:26.999Z</time></trkpt><trkpt lat="44.55310993049299" lon="2.731029834012072"><ele>400.33333333333337</ele><time>2026-03-26T14:01:27.999Z</time></trkpt><trkpt lat="44.55308303512797" lon="2.7309255195396047"><ele>402.0</ele><time>2026-03-26T14:01:28.999Z</time></trkpt><trkpt lat="44.553054291120844" lon="2.730815750679106"><ele>403.66666666666663</ele><time>2026-03-26T14:01:29.999Z</time></trkpt><trkpt lat="44.553010583745014" lon="2.730723327904539"><ele>405.3333333333333</ele><time>2026-03-26T14:01:30.999Z</time></trkpt><trkpt lat="44.55294929647104" lon="2.730627417257675"><ele>407.0</ele><time>2026-03-26T14:01:31.999Z</time></trkpt><trkpt lat="44.552890767930016" lon="2.7305360225443644"><ele>404.8571428571429</ele><time>2026-03-26T14:01:32.999Z</time></trkpt><trkpt lat="44.552842514280854" lon="2.7304414406043693"><ele>402.7142857142857</ele><time>2026-03-26T14:01:33.999Z</time></trkpt><trkpt lat="44.552789431442356" lon="2.730353576612752"><ele>400.57142857142856</ele><time>2026-03-26T14:01:34.999Z</time></trkpt><trkpt lat="44.55273486248434" lon="2.730280914223573"><ele>398.42857142857144</ele><time>2026-03-26T14:01:35.999Z</time></trkpt><trkpt lat="44.55268393678722" lon="2.7302069654937204"><ele>396.2857142857143</ele><time>2026-03-26T14:01:36.998Z</time></trkpt><trkpt lat="44.55263389425413" lon="2.730143566883026"><ele>394.14285714285717</ele><time>2026-03-26T14:01:37.998Z</time></trkpt><trkpt lat="44.55258087330464" lon="2.7300847500138348"><ele>392.0</ele><time>2026-03-26T14:01:38.998Z</time></trkpt><trkpt lat="44.55252393186783" lon="2.730018452208586"><ele>392.0</ele><time>2026-03-26T14:01:39.998Z</time></trkpt><trkpt lat="44.552461080812115" lon="2.72994135478726"><ele>392.0</ele><time>2026-03-26T14:01:40.998Z</time></trkpt><trkpt lat="44.552392472255214" lon="2.729886837445327"><ele>392.0</ele><time>2026-03-26T14:01:41.998Z</time></trkpt><trkpt lat="44.552317618495316" lon="2.729847342927316"><ele>392.0</ele><time>2026-03-26T14:01:42.998Z</time></trkpt><trkpt lat="44.552258596467425" lon="2.729802372358137"><ele>392.0</ele><time>2026-03-26T14:01:43.998Z</time></trkpt><trkpt lat="44.55216752816436" lon="2.729642541396965"><ele>391.99999999999994</ele><time>2026-03-26T14:01:45.998Z</time></trkpt><trkpt lat="44.55213516208162" lon="2.7295373953130104"><ele>392.0</ele><time>2026-03-26T14:01:46.998Z</time></trkpt><trkpt lat="44.55211083315694" lon="2.7294281129755604"><ele>392.0</ele><time>2026-03-26T14:01:47.998Z</time></trkpt><trkpt lat="44.55208753224464" lon="2.729318283063503"><ele>392.0</ele><time>2026-03-26T14:01:48.998Z</time></trkpt><trkpt lat="44.55204640580254" lon="2.7292260757716775"><ele>391.99999999999994</ele><time>2026-03-26T14:01:50Z</time></trkpt><trkpt lat="44.55200057456203" lon="2.7291380817223794"><ele>392.0</ele><time>2026-03-26T14:01:51Z</time></trkpt><trkpt lat="44.551965580554025" lon="2.7290411411352604"><ele>390.66666666666663</ele><time>2026-03-26T14:01:52Z</time></trkpt><trkpt lat="44.55194629195004" lon="2.7289501984255358"><ele>389.3333333333333</ele><time>2026-03-26T14:01:53Z</time></trkpt><trkpt lat="44.551947282787495" lon="2.7288567324516135"><ele>388.0</ele><time>2026-03-26T14:01:54Z</time></trkpt><trkpt lat="44.55195571285721" lon="2.728767325400389"><ele>386.66666666666663</ele><time>2026-03-26T14:01:55Z</time></trkpt><trkpt lat="44.55197655009982" lon="2.728597694039151"><ele>385.3333333333333</ele><time>2026-03-26T14:01:57Z</time></trkpt><trkpt lat="44.55200914619892" lon="2.7285129841681135"><ele>384.0</ele><time>2026-03-26T14:01:58Z</time></trkpt><trkpt lat="44.552042373960866" lon="2.7284286870267134"><ele>389.4285714285714</ele><time>2026-03-26T14:01:59Z</time></trkpt><trkpt lat="44.552075258541066" lon="2.728329307520431"><ele>394.85714285714283</ele><time>2026-03-26T14:02:00Z</time></trkpt><trkpt lat="44.55210278034003" lon="2.7282328511615206"><ele>400.2857142857143</ele><time>2026-03-26T14:02:01Z</time></trkpt><trkpt lat="44.55213708680691" lon="2.7281551773791857"><ele>405.71428571428567</ele><time>2026-03-26T14:02:02Z</time></trkpt><trkpt lat="44.55217289648107" lon="2.728077469091879"><ele>411.14285714285717</ele><time>2026-03-26T14:02:03Z</time></trkpt><trkpt lat="44.552216714594316" lon="2.728009835502912"><ele>416.57142857142856</ele><time>2026-03-26T14:02:04Z</time></trkpt><trkpt lat="44.55226303042033" lon="2.7279358727223526"><ele>422.0</ele><time>2026-03-26T14:02:05Z</time></trkpt><trkpt lat="44.552309725810886" lon="2.727855582571328"><ele>421.99999999999994</ele><time>2026-03-26T14:02:06Z</time></trkpt><trkpt lat="44.5523528323704" lon="2.7277852182126674"><ele>422.0</ele><time>2026-03-26T14:02:07Z</time></trkpt><trkpt lat="44.5524056143444" lon="2.7277199636297977"><ele>422.0</ele><time>2026-03-26T14:02:08Z</time></trkpt><trkpt lat="44.55245575103162" lon="2.727644992633743"><ele>422.0</ele><time>2026-03-26T14:02:09Z</time></trkpt><trkpt lat="44.55250831371644" lon="2.727550747853692"><ele>421.99999999999994</ele><time>2026-03-26T14:02:10Z</time></trkpt><trkpt lat="44.55255926595075" lon="2.7274498809569785"><ele>422.0</ele><time>2026-03-26T14:02:11Z</time></trkpt><trkpt lat="44.55259547545024" lon="2.727353085784922"><ele>421.49999999999994</ele><time>2026-03-26T14:02:12Z</time></trkpt><trkpt lat="44.552622561541824" lon="2.7272653539704903"><ele>421.0</ele><time>2026-03-26T14:02:13Z</time></trkpt><trkpt lat="44.55265114662061" lon="2.7271829708487534"><ele>420.5</ele><time>2026-03-26T14:02:14Z</time></trkpt><trkpt lat="44.55273461305536" lon="2.7270578394005143"><ele>420.0</ele><time>2026-03-26T14:02:15.999Z</time></trkpt><trkpt lat="44.55280251587374" lon="2.726987652195629"><ele>419.49999999999994</ele><time>2026-03-26T14:02:16.999Z</time></trkpt><trkpt lat="44.552862575312346" lon="2.7269364182571763"><ele>419.0</ele><time>2026-03-26T14:02:17.999Z</time></trkpt><trkpt lat="44.552920261438686" lon="2.7268857579230485"><ele>419.66666666666663</ele><time>2026-03-26T14:02:18.999Z</time></trkpt><trkpt lat="44.55297818852199" lon="2.7268232090009152"><ele>420.3333333333333</ele><time>2026-03-26T14:02:19.999Z</time></trkpt><trkpt lat="44.55302540753075" lon="2.726684633226914"><ele>421.0</ele><time>2026-03-26T14:02:21.999Z</time></trkpt><trkpt lat="44.5530249532011" lon="2.726589298338298"><ele>421.66666666666663</ele><time>2026-03-26T14:02:22.999Z</time></trkpt><trkpt lat="44.552975426984645" lon="2.726509423368635"><ele>422.3333333333333</ele><time>2026-03-26T14:02:24.999Z</time></trkpt><trkpt lat="44.552860924680665" lon="2.7264702840872825"><ele>423.0</ele><time>2026-03-26T14:02:26.999Z</time></trkpt><trkpt lat="44.55277436393113" lon="2.7264329001638052"><ele>423.0</ele><time>2026-03-26T14:02:27.999Z</time></trkpt><trkpt lat="44.55268529480952" lon="2.726391390252775"><ele>423.0</ele><time>2026-03-26T14:02:28.999Z</time></trkpt><trkpt lat="44.552596037466145" lon="2.726341035554939"><ele>423.0</ele><time>2026-03-26T14:02:29.999Z</time></trkpt><trkpt lat="44.552512765887414" lon="2.726291981947412"><ele>423.0</ele><time>2026-03-26T14:02:30.999Z</time></trkpt><trkpt lat="44.55242510886091" lon="2.7262631507369863"><ele>423.0</ele><time>2026-03-26T14:02:31.999Z</time></trkpt><trkpt lat="44.55234033512527" lon="2.7262418726092554"><ele>423.0</ele><time>2026-03-26T14:02:32.999Z</time></trkpt><trkpt lat="44.55224841388956" lon="2.7262116526022293"><ele>423.0</ele><time>2026-03-26T14:02:33.999Z</time></trkpt><trkpt lat="44.5521584974713" lon="2.7261675213241396"><ele>423.0</ele><time>2026-03-26T14:02:34.999Z</time></trkpt><trkpt lat="44.55208312230497" lon="2.726120370953608"><ele>423.0</ele><time>2026-03-26T14:02:35.999Z</time></trkpt><trkpt lat="44.55203018040148" lon="2.72605608304002"><ele>423.0</ele><time>2026-03-26T14:02:36.999Z</time></trkpt><trkpt lat="44.551971303613676" lon="2.725979826719306"><ele>423.0</ele><time>2026-03-26T14:02:37.999Z</time></trkpt><trkpt lat="44.551904020277874" lon="2.7259032004384363"><ele>427.4</ele><time>2026-03-26T14:02:38.999Z</time></trkpt><trkpt lat="44.55181917527035" lon="2.725832898672261"><ele>431.79999999999995</ele><time>2026-03-26T14:02:39.999Z</time></trkpt><trkpt lat="44.551742628029245" lon="2.7257447144561624"><ele>436.2</ele><time>2026-03-26T14:02:40.999Z</time></trkpt><trkpt lat="44.55168329929047" lon="2.725665486981463"><ele>440.6</ele><time>2026-03-26T14:02:41.999Z</time></trkpt><trkpt lat="44.55162778683215" lon="2.725610358733726"><ele>445.0</ele><time>2026-03-26T14:02:42.999Z</time></trkpt><trkpt lat="44.5515679604605" lon="2.725459799810082"><ele>445.0</ele><time>2026-03-26T14:02:44.999Z</time></trkpt><trkpt lat="44.55154923679062" lon="2.725360144754293"><ele>445.0</ele><time>2026-03-26T14:02:45.999Z</time></trkpt><trkpt lat="44.551540876900496" lon="2.7252507001371535"><ele>445.0</ele><time>2026-03-26T14:02:46.999Z</time></trkpt><trkpt lat="44.55153620104899" lon="2.725145069380901"><ele>445.0</ele><time>2026-03-26T14:02:47.999Z</time></trkpt><trkpt lat="44.551535582307146" lon="2.7250542735297953"><ele>445.0</ele><time>2026-03-26T14:02:48.999Z</time></trkpt><trkpt lat="44.5515380724054" lon="2.7249593039276263"><ele>445.0</ele><time>2026-03-26T14:02:50.999Z</time></trkpt><trkpt lat="44.551521153482526" lon="2.724865548365327"><ele>445.0</ele><time>2026-03-26T14:04:07Z</time></trkpt><trkpt lat="44.55154338611292" lon="2.724735670135148"><ele>445.50000000000006</ele><time>2026-03-26T14:04:09Z</time></trkpt><trkpt lat="44.5515672817255" lon="2.7246517078695422"><ele>446.0</ele><time>2026-03-26T14:04:10Z</time></trkpt><trkpt lat="44.55158556609908" lon="2.724548572588186"><ele>446.5</ele><time>2026-03-26T14:04:11Z</time></trkpt><trkpt lat="44.55159691621496" lon="2.724438405633112"><ele>447.0</ele><time>2026-03-26T14:04:12Z</time></trkpt><trkpt lat="44.5516106784245" lon="2.724320573149133"><ele>447.50000000000006</ele><time>2026-03-26T14:04:13Z</time></trkpt><trkpt lat="44.55162719953164" lon="2.72420616248676"><ele>448.0</ele><time>2026-03-26T14:04:14Z</time></trkpt><trkpt lat="44.551642455889066" lon="2.724089027584079"><ele>448.00000000000006</ele><time>2026-03-26T14:04:15Z</time></trkpt><trkpt lat="44.551657601753995" lon="2.723980704711693"><ele>448.0</ele><time>2026-03-26T14:04:16Z</time></trkpt><trkpt lat="44.551673435141836" lon="2.72386830040192"><ele>448.0</ele><time>2026-03-26T14:04:17Z</time></trkpt><trkpt lat="44.55168963118543" lon="2.7237537255123625"><ele>448.0</ele><time>2026-03-26T14:04:18Z</time></trkpt><trkpt lat="44.55170408445709" lon="2.723639109927658"><ele>448.00000000000006</ele><time>2026-03-26T14:04:19Z</time></trkpt><trkpt lat="44.55171188025172" lon="2.723518839101546"><ele>448.0</ele><time>2026-03-26T14:04:19.999Z</time></trkpt><trkpt lat="44.55171375125228" lon="2.723393183050347"><ele>447.7142857142857</ele><time>2026-03-26T14:04:20.999Z</time></trkpt><trkpt lat="44.55171384908318" lon="2.723275596062799"><ele>447.42857142857144</ele><time>2026-03-26T14:04:21.999Z</time></trkpt><trkpt lat="44.551714414995715" lon="2.72316645464586"><ele>447.1428571428571</ele><time>2026-03-26T14:04:22.999Z</time></trkpt><trkpt lat="44.55171805191974" lon="2.723067327430994"><ele>446.8571428571429</ele><time>2026-03-26T14:04:23.999Z</time></trkpt><trkpt lat="44.55172584210484" lon="2.722969687387996"><ele>446.57142857142856</ele><time>2026-03-26T14:04:24.999Z</time></trkpt><trkpt lat="44.55173716279369" lon="2.7228772290281693"><ele>446.2857142857143</ele><time>2026-03-26T14:04:25.999Z</time></trkpt><trkpt lat="44.551743060970146" lon="2.7227890848438316"><ele>446.0</ele><time>2026-03-26T14:04:26.999Z</time></trkpt><trkpt lat="44.551738272873216" lon="2.7226575942827695"><ele>446.49999999999994</ele><time>2026-03-26T14:04:28.999Z</time></trkpt><trkpt lat="44.5517513814941" lon="2.7225704177930106"><ele>447.0</ele><time>2026-03-26T14:04:30.999Z</time></trkpt><trkpt lat="44.55180168931647" lon="2.7224847108560932"><ele>447.5</ele><time>2026-03-26T14:04:32.999Z</time></trkpt><trkpt lat="44.55188528605944" lon="2.7223816501081544"><ele>448.0</ele><time>2026-03-26T14:04:34.999Z</time></trkpt><trkpt lat="44.55191933894711" lon="2.7223061224207643"><ele>448.49999999999994</ele><time>2026-03-26T14:04:35.999Z</time></trkpt><trkpt lat="44.551996018982045" lon="2.7221629731347794"><ele>449.0</ele><time>2026-03-26T14:04:37.999Z</time></trkpt><trkpt lat="44.55204131024269" lon="2.722080451705197"><ele>449.0</ele><time>2026-03-26T14:04:38.999Z</time></trkpt><trkpt lat="44.55208713938068" lon="2.7220153676472965"><ele>448.99999999999994</ele><time>2026-03-26T14:04:39.999Z</time></trkpt><trkpt lat="44.55213841313691" lon="2.721950521446474"><ele>449.0</ele><time>2026-03-26T14:04:40.999Z</time></trkpt><trkpt lat="44.552190186732496" lon="2.7218763221259112"><ele>449.0</ele><time>2026-03-26T14:04:41.999Z</time></trkpt><trkpt lat="44.552244965481265" lon="2.7218194984240274"><ele>448.99999999999994</ele><time>2026-03-26T14:04:42.999Z</time></trkpt><trkpt lat="44.552297718486585" lon="2.721758044742049"><ele>449.0</ele><time>2026-03-26T14:04:43.999Z</time></trkpt><trkpt lat="44.5523582000901" lon="2.721688948968562"><ele>449.0</ele><time>2026-03-26T14:04:44.999Z</time></trkpt><trkpt lat="44.55242215424787" lon="2.721618802929403"><ele>447.3333333333333</ele><time>2026-03-26T14:04:45.999Z</time></trkpt><trkpt lat="44.552480050626755" lon="2.7215539253116314"><ele>445.66666666666663</ele><time>2026-03-26T14:04:46.999Z</time></trkpt><trkpt lat="44.552559403752696" lon="2.721442182601715"><ele>444.0</ele><time>2026-03-26T14:04:48.999Z</time></trkpt><trkpt lat="44.55266642701465" lon="2.7213898476775973"><ele>442.33333333333337</ele><time>2026-03-26T14:04:50.999Z</time></trkpt><trkpt lat="44.55273736838699" lon="2.7213520625206904"><ele>440.6666666666667</ele><time>2026-03-26T14:04:51.999Z</time></trkpt><trkpt lat="44.55279510828497" lon="2.721291800492768"><ele>439.0</ele><time>2026-03-26T14:04:52.999Z</time></trkpt><trkpt lat="44.552842203322214" lon="2.7212166196532723"><ele>439.7142857142857</ele><time>2026-03-26T14:04:53.999Z</time></trkpt><trkpt lat="44.55288669119263" lon="2.721143294452347"><ele>440.42857142857144</ele><time>2026-03-26T14:04:54.999Z</time></trkpt><trkpt lat="44.5529282637272" lon="2.721075936648562"><ele>441.1428571428571</ele><time>2026-03-26T14:04:55.999Z</time></trkpt><trkpt lat="44.55296995964313" lon="2.721006438989343"><ele>441.8571428571429</ele><time>2026-03-26T14:04:56.999Z</time></trkpt><trkpt lat="44.553018040549404" lon="2.720935011713638"><ele>442.5714285714286</ele><time>2026-03-26T14:04:57.999Z</time></trkpt><trkpt lat="44.55307551735514" lon="2.7208560112940545"><ele>443.2857142857143</ele><time>2026-03-26T14:04:58.999Z</time></trkpt><trkpt lat="44.5531237408709" lon="2.720775345402973"><ele>444.0</ele><time>2026-03-26T14:04:59.999Z</time></trkpt><trkpt lat="44.55317358196404" lon="2.720684792408038"><ele>442.0</ele><time>2026-03-26T14:05:00.999Z</time></trkpt><trkpt lat="44.553232150997886" lon="2.720611016279674"><ele>440.0</ele><time>2026-03-26T14:05:01.999Z</time></trkpt><trkpt lat="44.553285463609" lon="2.7205305132605146"><ele>438.0</ele><time>2026-03-26T14:05:02.999Z</time></trkpt><trkpt lat="44.55333941950239" lon="2.720455406525985"><ele>436.0</ele><time>2026-03-26T14:05:03.999Z</time></trkpt><trkpt lat="44.553394235273906" lon="2.7203727116107443"><ele>434.0</ele><time>2026-03-26T14:05:04.999Z</time></trkpt><trkpt lat="44.553444607243655" lon="2.7202940457047387"><ele>432.0</ele><time>2026-03-26T14:05:05.999Z</time></trkpt><trkpt lat="44.553495522502864" lon="2.7202137685464627"><ele>430.6666666666667</ele><time>2026-03-26T14:05:06.999Z</time></trkpt><trkpt lat="44.55355001281537" lon="2.720128948990673"><ele>429.33333333333337</ele><time>2026-03-26T14:05:07.999Z</time></trkpt><trkpt lat="44.55360526373454" lon="2.720049943330089"><ele>428.0</ele><time>2026-03-26T14:05:08.999Z</time></trkpt><trkpt lat="44.55366797713001" lon="2.7199941572322803"><ele>426.6666666666667</ele><time>2026-03-26T14:05:09.999Z</time></trkpt><trkpt lat="44.553731101665775" lon="2.719936298556882"><ele>425.33333333333337</ele><time>2026-03-26T14:05:10.999Z</time></trkpt><trkpt lat="44.553790926519845" lon="2.7198625711391835"><ele>424.0</ele><time>2026-03-26T14:05:11.999Z</time></trkpt><trkpt lat="44.553837982636374" lon="2.719760212994846"><ele>424.00000000000006</ele><time>2026-03-26T14:05:12.999Z</time></trkpt><trkpt lat="44.55386634958313" lon="2.7196500807688238"><ele>424.0</ele><time>2026-03-26T14:05:13.999Z</time></trkpt><trkpt lat="44.553863073171506" lon="2.719534086586349"><ele>424.0</ele><time>2026-03-26T14:05:14.999Z</time></trkpt><trkpt lat="44.55383399488056" lon="2.7194082018599106"><ele>424.0</ele><time>2026-03-26T14:05:15.999Z</time></trkpt><trkpt lat="44.55379404568883" lon="2.719306930733138"><ele>424.00000000000006</ele><time>2026-03-26T14:05:16.999Z</time></trkpt><trkpt lat="44.55375048746872" lon="2.719194855591308"><ele>424.0</ele><time>2026-03-26T14:05:17.999Z</time></trkpt><trkpt lat="44.553714215240554" lon="2.7190726665898928"><ele>425.0</ele><time>2026-03-26T14:05:18.999Z</time></trkpt><trkpt lat="44.553703752119304" lon="2.7189419613488686"><ele>426.0</ele><time>2026-03-26T14:05:19.999Z</time></trkpt><trkpt lat="44.55372534747954" lon="2.7188126270618436"><ele>427.0</ele><time>2026-03-26T14:05:20.999Z</time></trkpt><trkpt lat="44.55374463315143" lon="2.718696401581479"><ele>428.0</ele><time>2026-03-26T14:05:21.999Z</time></trkpt><trkpt lat="44.553743896950635" lon="2.7185783400417773"><ele>429.0</ele><time>2026-03-26T14:05:22.999Z</time></trkpt><trkpt lat="44.55371750625637" lon="2.718430154188496"><ele>428.0</ele><time>2026-03-26T14:05:23.999Z</time></trkpt><trkpt lat="44.55367599487862" lon="2.7182707045457293"><ele>427.0</ele><time>2026-03-26T14:05:24.999Z</time></trkpt><trkpt lat="44.553648191499924" lon="2.7181231134478927"><ele>426.0</ele><time>2026-03-26T14:05:25.999Z</time></trkpt><trkpt lat="44.553629728240395" lon="2.71799791419404"><ele>425.0</ele><time>2026-03-26T14:05:26.999Z</time></trkpt><trkpt lat="44.55362215901472" lon="2.717895296872185"><ele>424.0</ele><time>2026-03-26T14:05:27.999Z</time></trkpt><trkpt lat="44.5536271732565" lon="2.717763132696492"><ele>423.6666666666667</ele><time>2026-03-26T14:05:29.999Z</time></trkpt><trkpt lat="44.553657630131276" lon="2.7176597524510635"><ele>423.33333333333337</ele><time>2026-03-26T14:05:31.999Z</time></trkpt><trkpt lat="44.553695419382095" lon="2.7175850263419936"><ele>423.0</ele><time>2026-03-26T14:05:32.999Z</time></trkpt><trkpt lat="44.55374907839324" lon="2.717502797147621"><ele>422.66666666666663</ele><time>2026-03-26T14:05:33.999Z</time></trkpt><trkpt lat="44.55382561169045" lon="2.7173408275443793"><ele>422.3333333333333</ele><time>2026-03-26T14:05:35.999Z</time></trkpt><trkpt lat="44.55382612069822" lon="2.717241794960213"><ele>422.0</ele><time>2026-03-26T14:05:36.999Z</time></trkpt><trkpt lat="44.55379767598321" lon="2.717143986067396"><ele>422.0</ele><time>2026-03-26T14:05:37.999Z</time></trkpt><trkpt lat="44.55373570297194" lon="2.7170296449089766"><ele>422.0</ele><time>2026-03-26T14:05:38.999Z</time></trkpt><trkpt lat="44.55364731060643" lon="2.7169171248664297"><ele>422.0</ele><time>2026-03-26T14:05:39.999Z</time></trkpt><trkpt lat="44.5535574187672" lon="2.716790888829325"><ele>422.0</ele><time>2026-03-26T14:05:40.999Z</time></trkpt><trkpt lat="44.5534661120646" lon="2.7166423437071843"><ele>420.0</ele><time>2026-03-26T14:05:41.999Z</time></trkpt><trkpt lat="44.55337146025306" lon="2.7164868371191027"><ele>418.0</ele><time>2026-03-26T14:05:42.999Z</time></trkpt><trkpt lat="44.553276668643626" lon="2.7163255822581047"><ele>416.0</ele><time>2026-03-26T14:05:43.999Z</time></trkpt><trkpt lat="44.55318892794561" lon="2.7161516752734096"><ele>414.0</ele><time>2026-03-26T14:05:44.999Z</time></trkpt><trkpt lat="44.55310734035339" lon="2.7159702002279484"><ele>413.75</ele><time>2026-03-26T14:05:45.999Z</time></trkpt><trkpt lat="44.55303085103964" lon="2.7157916600938914"><ele>413.5</ele><time>2026-03-26T14:05:46.999Z</time></trkpt><trkpt lat="44.552958495551614" lon="2.7156228987752544"><ele>413.25</ele><time>2026-03-26T14:05:47.998Z</time></trkpt><trkpt lat="44.55288749374391" lon="2.7154589154634965"><ele>413.0</ele><time>2026-03-26T14:05:48.998Z</time></trkpt><trkpt lat="44.552814294766605" lon="2.715306994462773"><ele>410.25</ele><time>2026-03-26T14:05:49.998Z</time></trkpt><trkpt lat="44.55273182029121" lon="2.7151672733715904"><ele>407.5</ele><time>2026-03-26T14:05:50.998Z</time></trkpt><trkpt lat="44.5526394425" lon="2.715042352571641"><ele>404.75</ele><time>2026-03-26T14:05:51.998Z</time></trkpt><trkpt lat="44.55252737609147" lon="2.7149162722347997"><ele>402.0</ele><time>2026-03-26T14:05:52.998Z</time></trkpt><trkpt lat="44.55239829417761" lon="2.714785252044151"><ele>402.0</ele><time>2026-03-26T14:05:53.998Z</time></trkpt><trkpt lat="44.55227353949861" lon="2.714632680207075"><ele>402.0</ele><time>2026-03-26T14:05:54.998Z</time></trkpt><trkpt lat="44.5521659685802" lon="2.7144674443437737"><ele>402.0</ele><time>2026-03-26T14:05:55.998Z</time></trkpt><trkpt lat="44.5520703320257" lon="2.7142968445618134"><ele>400.0</ele><time>2026-03-26T14:05:56.998Z</time></trkpt><trkpt lat="44.55198138325024" lon="2.714119278707544"><ele>398.0</ele><time>2026-03-26T14:05:57.998Z</time></trkpt><trkpt lat="44.55188624889183" lon="2.7139465657768675"><ele>396.0</ele><time>2026-03-26T14:05:58.998Z</time></trkpt><trkpt lat="44.55176622279856" lon="2.713776356429216"><ele>396.0</ele><time>2026-03-26T14:05:59.998Z</time></trkpt><trkpt lat="44.55162541793732" lon="2.7136122220208545"><ele>396.0</ele><time>2026-03-26T14:06:01Z</time></trkpt><trkpt lat="44.55148164800499" lon="2.7134410347018925"><ele>396.0</ele><time>2026-03-26T14:06:02Z</time></trkpt><trkpt lat="44.55133813212785" lon="2.713262265276233"><ele>394.33333333333337</ele><time>2026-03-26T14:06:02.999Z</time></trkpt><trkpt lat="44.55119507968745" lon="2.7130740046655593"><ele>392.6666666666667</ele><time>2026-03-26T14:06:03.999Z</time></trkpt><trkpt lat="44.55105774735403" lon="2.7128846444986268"><ele>391.0</ele><time>2026-03-26T14:06:05Z</time></trkpt><trkpt lat="44.55092541671781" lon="2.7127041838360535"><ele>384.0</ele><time>2026-03-26T14:06:05.999Z</time></trkpt><trkpt lat="44.55079635822566" lon="2.7125289668799133"><ele>377.0</ele><time>2026-03-26T14:06:06.999Z</time></trkpt><trkpt lat="44.550677151290486" lon="2.7123601534308834"><ele>370.0</ele><time>2026-03-26T14:06:08Z</time></trkpt><trkpt lat="44.55056477343755" lon="2.7121941442447977"><ele>370.0</ele><time>2026-03-26T14:06:08.999Z</time></trkpt><trkpt lat="44.550462624674765" lon="2.712039913217919"><ele>370.0</ele><time>2026-03-26T14:06:10Z</time></trkpt><trkpt lat="44.550370093339424" lon="2.7118979882186554"><ele>370.0</ele><time>2026-03-26T14:06:11Z</time></trkpt><trkpt lat="44.55028433801636" lon="2.711746004909097"><ele>370.0</ele><time>2026-03-26T14:06:11.999Z</time></trkpt><trkpt lat="44.55019933100528" lon="2.7115937407312662"><ele>367.25</ele><time>2026-03-26T14:06:13Z</time></trkpt><trkpt lat="44.55010044919591" lon="2.7114458468165035"><ele>364.5</ele><time>2026-03-26T14:06:14Z</time></trkpt><trkpt lat="44.54999297915166" lon="2.711296115508284"><ele>361.75</ele><time>2026-03-26T14:06:15Z</time></trkpt><trkpt lat="44.54988317322027" lon="2.7111570542429195"><ele>359.0</ele><time>2026-03-26T14:06:15.999Z</time></trkpt><trkpt lat="44.54977875309369" lon="2.711040476119735"><ele>357.79999999999995</ele><time>2026-03-26T14:06:16.999Z</time></trkpt><trkpt lat="44.54969710252093" lon="2.7109622370958975"><ele>356.59999999999997</ele><time>2026-03-26T14:06:17.999Z</time></trkpt><trkpt lat="44.549632479254086" lon="2.7109076571697353"><ele>355.4</ele><time>2026-03-26T14:06:18.999Z</time></trkpt><trkpt lat="44.549541340448876" lon="2.710789055394501"><ele>354.2</ele><time>2026-03-26T14:06:20.999Z</time></trkpt><trkpt lat="44.54953422771155" lon="2.7106466028406047"><ele>353.0</ele><time>2026-03-26T14:06:22.999Z</time></trkpt><trkpt lat="44.54958132216437" lon="2.7105760653851427"><ele>353.0</ele><time>2026-03-26T14:06:24.999Z</time></trkpt><trkpt lat="44.54971882071322" lon="2.7105901278248097"><ele>353.0</ele><time>2026-03-26T14:06:26.999Z</time></trkpt><trkpt lat="44.54979980450465" lon="2.710669810819135"><ele>353.0</ele><time>2026-03-26T14:06:27.999Z</time></trkpt><trkpt lat="44.54986731782961" lon="2.710774070457667"><ele>353.0</ele><time>2026-03-26T14:06:28.999Z</time></trkpt><trkpt lat="44.54993233834811" lon="2.7108883171247573"><ele>353.0</ele><time>2026-03-26T14:06:29.999Z</time></trkpt><trkpt lat="44.55001063460794" lon="2.711001613330906"><ele>354.0</ele><time>2026-03-26T14:06:30.999Z</time></trkpt><trkpt lat="44.5501104541976" lon="2.7110925995002364"><ele>355.0</ele><time>2026-03-26T14:06:31.999Z</time></trkpt><trkpt lat="44.55020906701235" lon="2.7111422559897496"><ele>356.0</ele><time>2026-03-26T14:06:32.999Z</time></trkpt><trkpt lat="44.55030510244968" lon="2.7111671601197678"><ele>357.0</ele><time>2026-03-26T14:06:33.999Z</time></trkpt><trkpt lat="44.55039828197929" lon="2.711174794211065"><ele>358.0</ele><time>2026-03-26T14:06:34.999Z</time></trkpt><trkpt lat="44.550499292380344" lon="2.711152406508278"><ele>358.0</ele><time>2026-03-26T14:06:35.999Z</time></trkpt><trkpt lat="44.550590296767595" lon="2.711114065586244"><ele>358.0</ele><time>2026-03-26T14:06:36.999Z</time></trkpt><trkpt lat="44.550672308599395" lon="2.7110664933286825"><ele>358.0</ele><time>2026-03-26T14:06:37.999Z</time></trkpt><trkpt lat="44.55073246458218" lon="2.7110022270450957"><ele>358.0</ele><time>2026-03-26T14:06:38.999Z</time></trkpt><trkpt lat="44.550762681522905" lon="2.7109192628184453"><ele>358.0</ele><time>2026-03-26T14:06:39.999Z</time></trkpt><trkpt lat="44.55076293056397" lon="2.7108145941118886"><ele>358.0</ele><time>2026-03-26T14:06:40.999Z</time></trkpt><trkpt lat="44.55073124855441" lon="2.710703692717066"><ele>357.59999999999997</ele><time>2026-03-26T14:06:41.999Z</time></trkpt><trkpt lat="44.550672830546276" lon="2.7106008742209173"><ele>357.2</ele><time>2026-03-26T14:06:42.999Z</time></trkpt><trkpt lat="44.550599807537566" lon="2.7105058489661946"><ele>356.8</ele><time>2026-03-26T14:06:43.999Z</time></trkpt><trkpt lat="44.55050397102557" lon="2.7104261955466837"><ele>356.4</ele><time>2026-03-26T14:06:44.999Z</time></trkpt><trkpt lat="44.550402833892775" lon="2.7103596897886604"><ele>356.0</ele><time>2026-03-26T14:06:45.999Z</time></trkpt><trkpt lat="44.55032701586386" lon="2.7102858216669987"><ele>355.6666666666667</ele><time>2026-03-26T14:06:46.999Z</time></trkpt><trkpt lat="44.55028967617514" lon="2.7101744113564976"><ele>355.33333333333337</ele><time>2026-03-26T14:06:47.999Z</time></trkpt><trkpt lat="44.55031011666898" lon="2.7100525035377014"><ele>355.0</ele><time>2026-03-26T14:06:48.999Z</time></trkpt><trkpt lat="44.55037498565689" lon="2.7099695724958575"><ele>354.6666666666667</ele><time>2026-03-26T14:06:49.999Z</time></trkpt><trkpt lat="44.550455181235534" lon="2.709958454894587"><ele>354.3333333333333</ele><time>2026-03-26T14:06:50.999Z</time></trkpt><trkpt lat="44.550540231179156" lon="2.7099888375373937"><ele>354.0</ele><time>2026-03-26T14:06:51.999Z</time></trkpt><trkpt lat="44.550633770028476" lon="2.710019382730006"><ele>354.4</ele><time>2026-03-26T14:06:52.999Z</time></trkpt><trkpt lat="44.55073850236346" lon="2.710061447597234"><ele>354.79999999999995</ele><time>2026-03-26T14:06:53.999Z</time></trkpt><trkpt lat="44.55083189461279" lon="2.71015116704705"><ele>355.20000000000005</ele><time>2026-03-26T14:06:54.999Z</time></trkpt><trkpt lat="44.55091005999271" lon="2.7102797361617608"><ele>355.6</ele><time>2026-03-26T14:06:55.999Z</time></trkpt><trkpt lat="44.55096316784555" lon="2.7104043881570843"><ele>356.0</ele><time>2026-03-26T14:06:56.999Z</time></trkpt><trkpt lat="44.55100943200377" lon="2.710501433965458"><ele>356.0</ele><time>2026-03-26T14:06:57.999Z</time></trkpt><trkpt lat="44.551052427291005" lon="2.7105747146901904"><ele>356.0</ele><time>2026-03-26T14:06:58.999Z</time></trkpt><trkpt lat="44.55116246481787" lon="2.7105850794338227"><ele>356.0</ele><time>2026-03-26T14:07:00.999Z</time></trkpt><trkpt lat="44.55120425399102" lon="2.7105043300620886"><ele>356.0</ele><time>2026-03-26T14:07:01.999Z</time></trkpt><trkpt lat="44.5512031494038" lon="2.7103870577000952"><ele>356.0</ele><time>2026-03-26T14:07:02.999Z</time></trkpt><trkpt lat="44.55116407503587" lon="2.710286857591454"><ele>356.0</ele><time>2026-03-26T14:07:03.999Z</time></trkpt><trkpt lat="44.55110357411839" lon="2.7101726238745165"><ele>357.20000000000005</ele><time>2026-03-26T14:07:04.999Z</time></trkpt><trkpt lat="44.55104139889467" lon="2.7100447618613224"><ele>358.40000000000003</ele><time>2026-03-26T14:07:05.999Z</time></trkpt><trkpt lat="44.551004317036785" lon="2.7099069797405435"><ele>359.6</ele><time>2026-03-26T14:07:06.999Z</time></trkpt><trkpt lat="44.55101643785727" lon="2.7097746540817353"><ele>360.8</ele><time>2026-03-26T14:07:07.999Z</time></trkpt><trkpt lat="44.55106818638364" lon="2.7096480493736457"><ele>362.0</ele><time>2026-03-26T14:07:08.999Z</time></trkpt><trkpt lat="44.55114346440338" lon="2.709542927601273"><ele>366.5</ele><time>2026-03-26T14:07:09.999Z</time></trkpt><trkpt lat="44.55122837562976" lon="2.709444647049484"><ele>371.0</ele><time>2026-03-26T14:07:10.999Z</time></trkpt><trkpt lat="44.55132322143429" lon="2.7093448226922274"><ele>375.5</ele><time>2026-03-26T14:07:11.999Z</time></trkpt><trkpt lat="44.5514231414838" lon="2.709237446038771"><ele>380.0</ele><time>2026-03-26T14:07:12.999Z</time></trkpt><trkpt lat="44.551527304278636" lon="2.7091157133469315"><ele>380.0</ele><time>2026-03-26T14:07:13.999Z</time></trkpt><trkpt lat="44.55163502596553" lon="2.708987076490108"><ele>380.0</ele><time>2026-03-26T14:07:14.999Z</time></trkpt><trkpt lat="44.55173828424754" lon="2.708865731246348"><ele>380.0</ele><time>2026-03-26T14:07:15.999Z</time></trkpt><trkpt lat="44.55184830072015" lon="2.7087390670237412"><ele>380.0</ele><time>2026-03-26T14:07:16.999Z</time></trkpt><trkpt lat="44.551960962350755" lon="2.708607274974393"><ele>382.25</ele><time>2026-03-26T14:07:17.999Z</time></trkpt><trkpt lat="44.552067570624075" lon="2.7084783570952795"><ele>384.5</ele><time>2026-03-26T14:07:18.999Z</time></trkpt><trkpt lat="44.55216061593858" lon="2.708366853659914"><ele>386.75</ele><time>2026-03-26T14:07:19.999Z</time></trkpt><trkpt lat="44.55225083784433" lon="2.7082630210034964"><ele>389.0</ele><time>2026-03-26T14:07:20.999Z</time></trkpt><trkpt lat="44.55234212937303" lon="2.7081660015886495"><ele>388.99999999999994</ele><time>2026-03-26T14:07:21.999Z</time></trkpt><trkpt lat="44.5524273865017" lon="2.7080892076409406"><ele>389.0</ele><time>2026-03-26T14:07:22.999Z</time></trkpt><trkpt lat="44.55250003392507" lon="2.7080166338564293"><ele>389.0</ele><time>2026-03-26T14:07:23.999Z</time></trkpt><trkpt lat="44.552554467514035" lon="2.707926010795031"><ele>389.0</ele><time>2026-03-26T14:07:24.999Z</time></trkpt><trkpt lat="44.55257776638408" lon="2.707817483753798"><ele>388.99999999999994</ele><time>2026-03-26T14:07:25.999Z</time></trkpt><trkpt lat="44.55255346253991" lon="2.7077174039375134"><ele>389.0</ele><time>2026-03-26T14:07:26.999Z</time></trkpt><trkpt lat="44.55248605647751" lon="2.7076465760241257"><ele>388.75</ele><time>2026-03-26T14:07:27.999Z</time></trkpt><trkpt lat="44.552391097423985" lon="2.7076025696940382"><ele>388.5</ele><time>2026-03-26T14:07:28.999Z</time></trkpt><trkpt lat="44.55228351508113" lon="2.7075756479772464"><ele>388.25</ele><time>2026-03-26T14:07:29.999Z</time></trkpt><trkpt lat="44.552162406171476" lon="2.7075509681315952"><ele>388.0</ele><time>2026-03-26T14:07:30.999Z</time></trkpt><trkpt lat="44.55203268223692" lon="2.7075139048646206"><ele>388.0</ele><time>2026-03-26T14:07:31.999Z</time></trkpt><trkpt lat="44.55189644670744" lon="2.707460586572763"><ele>388.0</ele><time>2026-03-26T14:07:32.999Z</time></trkpt><trkpt lat="44.551777362623305" lon="2.7073967569055286"><ele>388.0</ele><time>2026-03-26T14:07:33.999Z</time></trkpt><trkpt lat="44.551671954680614" lon="2.7073260944085624"><ele>388.0</ele><time>2026-03-26T14:07:34.999Z</time></trkpt><trkpt lat="44.551577571083165" lon="2.7072292569555985"><ele>388.0</ele><time>2026-03-26T14:07:35.999Z</time></trkpt><trkpt lat="44.55148530204584" lon="2.7071034772257634"><ele>388.0</ele><time>2026-03-26T14:07:36.999Z</time></trkpt><trkpt lat="44.55141199882932" lon="2.7069900522806805"><ele>388.0</ele><time>2026-03-26T14:07:37.999Z</time></trkpt><trkpt lat="44.551347743406275" lon="2.7068824501090214"><ele>388.0</ele><time>2026-03-26T14:07:38.999Z</time></trkpt><trkpt lat="44.55128531028656" lon="2.706782895859011"><ele>388.0</ele><time>2026-03-26T14:07:39.999Z</time></trkpt><trkpt lat="44.551221429652685" lon="2.7066814238212547"><ele>388.0</ele><time>2026-03-26T14:07:40.999Z</time></trkpt><trkpt lat="44.55116375820512" lon="2.7065706773209977"><ele>388.0</ele><time>2026-03-26T14:07:41.999Z</time></trkpt><trkpt lat="44.55112409008494" lon="2.7064333454870493"><ele>388.0</ele><time>2026-03-26T14:07:42.999Z</time></trkpt><trkpt lat="44.55111056826525" lon="2.706275114606641"><ele>388.0</ele><time>2026-03-26T14:07:43.999Z</time></trkpt><trkpt lat="44.55111679490055" lon="2.706106764669463"><ele>388.0</ele><time>2026-03-26T14:07:44.999Z</time></trkpt><trkpt lat="44.55113828063766" lon="2.705928858951279"><ele>388.0</ele><time>2026-03-26T14:07:45.999Z</time></trkpt><trkpt lat="44.55117874631509" lon="2.705752745639356"><ele>388.0</ele><time>2026-03-26T14:07:46.998Z</time></trkpt><trkpt lat="44.55124354094616" lon="2.7055861189125943"><ele>388.0</ele><time>2026-03-26T14:07:47.998Z</time></trkpt><trkpt lat="44.55132697674693" lon="2.7054249418043543"><ele>388.0</ele><time>2026-03-26T14:07:48.998Z</time></trkpt><trkpt lat="44.55141638013478" lon="2.7052666401205414"><ele>392.5</ele><time>2026-03-26T14:07:49.998Z</time></trkpt><trkpt lat="44.551502727792375" lon="2.7051048572496765"><ele>397.0</ele><time>2026-03-26T14:07:50.998Z</time></trkpt><trkpt lat="44.5515815205969" lon="2.7049479309823155"><ele>401.5</ele><time>2026-03-26T14:07:51.998Z</time></trkpt><trkpt lat="44.55163544831696" lon="2.704800303730612"><ele>406.0</ele><time>2026-03-26T14:07:52.998Z</time></trkpt><trkpt lat="44.55165481073198" lon="2.7046419727386857"><ele>406.0</ele><time>2026-03-26T14:07:53.998Z</time></trkpt><trkpt lat="44.55163591258362" lon="2.704481762194468"><ele>406.0</ele><time>2026-03-26T14:07:54.998Z</time></trkpt><trkpt lat="44.55159257702155" lon="2.7043239566109984"><ele>406.0</ele><time>2026-03-26T14:07:55.998Z</time></trkpt><trkpt lat="44.55152950385773" lon="2.704163338850962"><ele>406.0</ele><time>2026-03-26T14:07:56.998Z</time></trkpt><trkpt lat="44.55147252638867" lon="2.7039916385845038"><ele>407.0</ele><time>2026-03-26T14:07:57.998Z</time></trkpt><trkpt lat="44.55145403165054" lon="2.7038127457053314"><ele>408.0</ele><time>2026-03-26T14:07:58.998Z</time></trkpt><trkpt lat="44.551469088115354" lon="2.703632502005477"><ele>409.0</ele><time>2026-03-26T14:07:59.998Z</time></trkpt><trkpt lat="44.55150722052483" lon="2.70345146510398"><ele>410.0</ele><time>2026-03-26T14:08:00.998Z</time></trkpt><trkpt lat="44.55155160464666" lon="2.703264355689344"><ele>411.0</ele><time>2026-03-26T14:08:01.998Z</time></trkpt><trkpt lat="44.551583959507354" lon="2.7030691519040815"><ele>412.0</ele><time>2026-03-26T14:08:02.998Z</time></trkpt><trkpt lat="44.551597387368055" lon="2.702876843441283"><ele>413.0</ele><time>2026-03-26T14:08:03.998Z</time></trkpt><trkpt lat="44.551582077069575" lon="2.702694587731296"><ele>414.0</ele><time>2026-03-26T14:08:04.998Z</time></trkpt><trkpt lat="44.55153378181159" lon="2.70252259501584"><ele>415.25</ele><time>2026-03-26T14:08:05.998Z</time></trkpt><trkpt lat="44.551458801765044" lon="2.7023580906619866"><ele>416.5</ele><time>2026-03-26T14:08:06.999Z</time></trkpt><trkpt lat="44.551374910143046" lon="2.7021981987040973"><ele>417.75</ele><time>2026-03-26T14:08:07.999Z</time></trkpt><trkpt lat="44.55129439481797" lon="2.7020329925205444"><ele>419.0</ele><time>2026-03-26T14:08:08.999Z</time></trkpt><trkpt lat="44.551212364928176" lon="2.7018701273774974"><ele>418.0</ele><time>2026-03-26T14:08:09.999Z</time></trkpt><trkpt lat="44.551126776511936" lon="2.7017114964525026"><ele>417.0</ele><time>2026-03-26T14:08:10.999Z</time></trkpt><trkpt lat="44.55104112454557" lon="2.7015491387354515"><ele>416.0</ele><time>2026-03-26T14:08:11.999Z</time></trkpt><trkpt lat="44.550961097664036" lon="2.701389139876205"><ele>415.0</ele><time>2026-03-26T14:08:12.999Z</time></trkpt><trkpt lat="44.55089657832167" lon="2.701228629758078"><ele>418.5</ele><time>2026-03-26T14:08:13.999Z</time></trkpt><trkpt lat="44.55084191000184" lon="2.7010783654872212"><ele>422.0</ele><time>2026-03-26T14:08:14.999Z</time></trkpt><trkpt lat="44.55080440035175" lon="2.7009331823637814"><ele>425.5</ele><time>2026-03-26T14:08:15.999Z</time></trkpt><trkpt lat="44.55077214194293" lon="2.7007831401235847"><ele>429.0</ele><time>2026-03-26T14:08:16.999Z</time></trkpt><trkpt lat="44.550712553257526" lon="2.700650537121195"><ele>429.0</ele><time>2026-03-26T14:08:17.999Z</time></trkpt><trkpt lat="44.55062551283969" lon="2.70053505683758"><ele>429.0</ele><time>2026-03-26T14:08:18.999Z</time></trkpt><trkpt lat="44.55051807098868" lon="2.7004467056975656"><ele>429.0</ele><time>2026-03-26T14:08:19.999Z</time></trkpt><trkpt lat="44.55040668888676" lon="2.7003520414413007"><ele>429.0</ele><time>2026-03-26T14:08:20.999Z</time></trkpt><trkpt lat="44.55031671858903" lon="2.7002461820007633"><ele>428.1666666666667</ele><time>2026-03-26T14:08:21.999Z</time></trkpt><trkpt lat="44.550241100009934" lon="2.7001469703012084"><ele>427.33333333333337</ele><time>2026-03-26T14:08:22.999Z</time></trkpt><trkpt lat="44.55017645372075" lon="2.7000553833174816"><ele>426.5</ele><time>2026-03-26T14:08:23.999Z</time></trkpt><trkpt lat="44.550133650290874" lon="2.6999548262664623"><ele>425.6666666666667</ele><time>2026-03-26T14:08:24.999Z</time></trkpt><trkpt lat="44.55010374948437" lon="2.6998646893804445"><ele>424.83333333333337</ele><time>2026-03-26T14:08:25.999Z</time></trkpt><trkpt lat="44.55013262820588" lon="2.699781658620621"><ele>424.0</ele><time>2026-03-26T14:08:27.999Z</time></trkpt><trkpt lat="44.55019518045888" lon="2.6997283839526642"><ele>424.0</ele><time>2026-03-26T14:08:30.999Z</time></trkpt><trkpt lat="44.55024808787845" lon="2.6997914268288365"><ele>424.0</ele><time>2026-03-26T14:08:36.999Z</time></trkpt><trkpt lat="44.55030447283343" lon="2.6998681824862016"><ele>424.0</ele><time>2026-03-26T14:08:38.999Z</time></trkpt><trkpt lat="44.55036197669678" lon="2.6999102277048137"><ele>424.0</ele><time>2026-03-26T14:08:41.999Z</time></trkpt><trkpt lat="44.55044911395844" lon="2.699955935167197"><ele>424.0</ele><time>2026-03-26T14:08:49.999Z</time></trkpt><trkpt lat="44.550483488485824" lon="2.700037033295563"><ele>424.0</ele><time>2026-03-26T14:08:51.999Z</time></trkpt><trkpt lat="44.55052475696976" lon="2.7001099382465332"><ele>424.0</ele><time>2026-03-26T14:08:53.999Z</time></trkpt><trkpt lat="44.550543853871865" lon="2.7001961043838025"><ele>424.00000000000006</ele><time>2026-03-26T14:08:56.999Z</time></trkpt><trkpt lat="44.55056161286629" lon="2.7001111304125938"><ele>424.0</ele><time>2026-03-26T14:09:02.999Z</time></trkpt><trkpt lat="44.55047484976874" lon="2.699989440985319"><ele>424.0</ele><time>2026-03-26T14:09:04.999Z</time></trkpt><trkpt lat="44.55043266286292" lon="2.6999142821255395"><ele>424.0</ele><time>2026-03-26T14:09:06.999Z</time></trkpt><trkpt lat="44.55036925831248" lon="2.6998819300499646"><ele>424.00000000000006</ele><time>2026-03-26T14:09:08.999Z</time></trkpt><trkpt lat="44.550301250808836" lon="2.699861696981043"><ele>424.0</ele><time>2026-03-26T14:09:10.999Z</time></trkpt><trkpt lat="44.55022766478841" lon="2.699758676738534"><ele>424.00000000000006</ele><time>2026-03-26T14:09:12.999Z</time></trkpt><trkpt lat="44.550167437332064" lon="2.699664060949169"><ele>424.0</ele><time>2026-03-26T14:09:14.999Z</time></trkpt><trkpt lat="44.550136955377305" lon="2.69952427044284"><ele>424.0</ele><time>2026-03-26T14:09:16.999Z</time></trkpt><trkpt lat="44.550115246570506" lon="2.69943789445185"><ele>424.0</ele><time>2026-03-26T14:09:17.999Z</time></trkpt><trkpt lat="44.55009922503535" lon="2.699333061332829"><ele>424.00000000000006</ele><time>2026-03-26T14:09:19.999Z</time></trkpt><trkpt lat="44.550191283005745" lon="2.6993341151831407"><ele>424.0</ele><time>2026-03-26T14:09:22.999Z</time></trkpt><trkpt lat="44.55027956099438" lon="2.6994123815267597"><ele>424.0</ele><time>2026-03-26T14:09:28.999Z</time></trkpt><trkpt lat="44.55037036358872" lon="2.699499460994097"><ele>424.0</ele><time>2026-03-26T14:09:30.999Z</time></trkpt><trkpt lat="44.55047071551698" lon="2.6995947627944816"><ele>424.0</ele><time>2026-03-26T14:09:32.999Z</time></trkpt><trkpt lat="44.55058653579084" lon="2.6996944043297075"><ele>424.0</ele><time>2026-03-26T14:09:34.999Z</time></trkpt><trkpt lat="44.550657571925086" lon="2.6997738324335474"><ele>428.2</ele><time>2026-03-26T14:09:35.999Z</time></trkpt><trkpt lat="44.55072568725256" lon="2.6998574660382304"><ele>432.4</ele><time>2026-03-26T14:09:36.999Z</time></trkpt><trkpt lat="44.55081641765551" lon="2.699930229170948"><ele>436.6</ele><time>2026-03-26T14:09:37.999Z</time></trkpt><trkpt lat="44.550908294462914" lon="2.6999864107335476"><ele>440.8</ele><time>2026-03-26T14:09:38.999Z</time></trkpt><trkpt lat="44.551012480429165" lon="2.7000148604062773"><ele>445.0</ele><time>2026-03-26T14:09:39.999Z</time></trkpt><trkpt lat="44.55111990950224" lon="2.7000463965328896"><ele>445.0</ele><time>2026-03-26T14:09:40.999Z</time></trkpt><trkpt lat="44.551198975941595" lon="2.7001161937135043"><ele>445.0</ele><time>2026-03-26T14:09:41.999Z</time></trkpt><trkpt lat="44.55125364203294" lon="2.700220169228888"><ele>445.0</ele><time>2026-03-26T14:09:42.999Z</time></trkpt><trkpt lat="44.55128379781361" lon="2.7003633821937627"><ele>445.0</ele><time>2026-03-26T14:09:43.999Z</time></trkpt><trkpt lat="44.55130215200123" lon="2.7005161207400032"><ele>445.0</ele><time>2026-03-26T14:09:44.999Z</time></trkpt><trkpt lat="44.5513385575751" lon="2.70067078138357"><ele>444.4</ele><time>2026-03-26T14:09:45.999Z</time></trkpt><trkpt lat="44.55139766296004" lon="2.7008190202703313"><ele>443.8</ele><time>2026-03-26T14:09:46.999Z</time></trkpt><trkpt lat="44.55146544469399" lon="2.7009376829079135"><ele>443.20000000000005</ele><time>2026-03-26T14:09:47.999Z</time></trkpt><trkpt lat="44.55154567076477" lon="2.7010340680663485"><ele>442.6</ele><time>2026-03-26T14:09:48.999Z</time></trkpt><trkpt lat="44.5516402559243" lon="2.7011113056472085"><ele>442.0</ele><time>2026-03-26T14:09:49.999Z</time></trkpt><trkpt lat="44.55175073622618" lon="2.701168617998728"><ele>442.0</ele><time>2026-03-26T14:09:50.999Z</time></trkpt><trkpt lat="44.55186529922892" lon="2.701214172944692"><ele>442.00000000000006</ele><time>2026-03-26T14:09:51.999Z</time></trkpt><trkpt lat="44.551968449184415" lon="2.7012411347875633"><ele>442.00000000000006</ele><time>2026-03-26T14:09:52.999Z</time></trkpt><trkpt lat="44.552064218399295" lon="2.7012321877551475"><ele>442.0</ele><time>2026-03-26T14:09:53.998Z</time></trkpt><trkpt lat="44.55215493319434" lon="2.701163422258896"><ele>442.0</ele><time>2026-03-26T14:09:54.998Z</time></trkpt><trkpt lat="44.5522467790895" lon="2.7010538111955875"><ele>448.25</ele><time>2026-03-26T14:09:55.998Z</time></trkpt><trkpt lat="44.55233966228989" lon="2.700937914476209"><ele>454.5</ele><time>2026-03-26T14:09:56.998Z</time></trkpt><trkpt lat="44.552448339329004" lon="2.7008450668764237"><ele>460.75</ele><time>2026-03-26T14:09:57.998Z</time></trkpt><trkpt lat="44.552571861072316" lon="2.7008000157484497"><ele>467.0</ele><time>2026-03-26T14:09:58.998Z</time></trkpt><trkpt lat="44.55269772455041" lon="2.7007630001776524"><ele>467.0</ele><time>2026-03-26T14:09:59.998Z</time></trkpt><trkpt lat="44.55281282192524" lon="2.7007381495377896"><ele>467.0</ele><time>2026-03-26T14:10:00.998Z</time></trkpt><trkpt lat="44.55292675147453" lon="2.700738839678877"><ele>467.0</ele><time>2026-03-26T14:10:01.998Z</time></trkpt><trkpt lat="44.553039443757356" lon="2.70077557784567"><ele>467.0</ele><time>2026-03-26T14:10:02.998Z</time></trkpt><trkpt lat="44.55314932920362" lon="2.700854238101144"><ele>467.75</ele><time>2026-03-26T14:10:03.998Z</time></trkpt><trkpt lat="44.55325144188632" lon="2.700957301771202"><ele>468.5</ele><time>2026-03-26T14:10:04.998Z</time></trkpt><trkpt lat="44.55335591924704" lon="2.7010675515162794"><ele>469.25</ele><time>2026-03-26T14:10:05.998Z</time></trkpt><trkpt lat="44.55346548946335" lon="2.701182363232061"><ele>470.0</ele><time>2026-03-26T14:10:06.998Z</time></trkpt><trkpt lat="44.553573417440376" lon="2.701302544057085"><ele>470.0</ele><time>2026-03-26T14:10:07.998Z</time></trkpt><trkpt lat="44.55368206656674" lon="2.701429482823328"><ele>470.0</ele><time>2026-03-26T14:10:08.998Z</time></trkpt><trkpt lat="44.553787460700015" lon="2.7015589056999736"><ele>470.0</ele><time>2026-03-26T14:10:09.998Z</time></trkpt><trkpt lat="44.55388224922738" lon="2.7016744604106178"><ele>470.0</ele><time>2026-03-26T14:10:10.998Z</time></trkpt><trkpt lat="44.5539726608309" lon="2.7017762478564626"><ele>470.8</ele><time>2026-03-26T14:10:11.998Z</time></trkpt><trkpt lat="44.55406161850136" lon="2.7018584687046716"><ele>471.6</ele><time>2026-03-26T14:10:12.999Z</time></trkpt><trkpt lat="44.55415206566271" lon="2.7019381186013134"><ele>472.4</ele><time>2026-03-26T14:10:13.999Z</time></trkpt><trkpt lat="44.554246109532656" lon="2.702007657934119"><ele>473.2</ele><time>2026-03-26T14:10:14.999Z</time></trkpt><trkpt lat="44.554337747210006" lon="2.7020517725915894"><ele>474.0</ele><time>2026-03-26T14:10:15.999Z</time></trkpt><trkpt lat="44.55442689414551" lon="2.7020684577696716"><ele>474.0</ele><time>2026-03-26T14:10:16.999Z</time></trkpt><trkpt lat="44.554519560356404" lon="2.702064108453809"><ele>474.0</ele><time>2026-03-26T14:10:17.999Z</time></trkpt><trkpt lat="44.55460958783223" lon="2.7020583772153426"><ele>474.0</ele><time>2026-03-26T14:10:18.999Z</time></trkpt><trkpt lat="44.554699036357164" lon="2.7020667748756417"><ele>474.0</ele><time>2026-03-26T14:10:19.999Z</time></trkpt><trkpt lat="44.55478543215202" lon="2.7021056190426287"><ele>474.0</ele><time>2026-03-26T14:10:20.999Z</time></trkpt><trkpt lat="44.554869407765516" lon="2.7021709803837037"><ele>474.75</ele><time>2026-03-26T14:10:21.999Z</time></trkpt><trkpt lat="44.554956531185915" lon="2.702260588602649"><ele>475.5</ele><time>2026-03-26T14:10:22.999Z</time></trkpt><trkpt lat="44.555034535575736" lon="2.7023724656009414"><ele>476.25</ele><time>2026-03-26T14:10:23.999Z</time></trkpt><trkpt lat="44.5551259594946" lon="2.702470973803808"><ele>477.0</ele><time>2026-03-26T14:10:24.999Z</time></trkpt><trkpt lat="44.555225482709844" lon="2.702561700342561"><ele>477.0</ele><time>2026-03-26T14:10:25.999Z</time></trkpt><trkpt lat="44.55531836095311" lon="2.702673485147327"><ele>477.00000000000006</ele><time>2026-03-26T14:10:26.999Z</time></trkpt><trkpt lat="44.55541361773219" lon="2.702781183674733"><ele>477.00000000000006</ele><time>2026-03-26T14:10:27.999Z</time></trkpt><trkpt lat="44.55551018138336" lon="2.70288071416451"><ele>477.0</ele><time>2026-03-26T14:10:28.999Z</time></trkpt><trkpt lat="44.55557566117705" lon="2.7029551132112393"><ele>477.0</ele><time>2026-03-26T14:10:29.999Z</time></trkpt><trkpt lat="44.5556435448511" lon="2.702937373274628"><ele>477.40000000000003</ele><time>2026-03-26T14:10:30.999Z</time></trkpt><trkpt lat="44.5557606368474" lon="2.7028763007356043"><ele>477.80000000000007</ele><time>2026-03-26T14:10:32.999Z</time></trkpt><trkpt lat="44.55576968671541" lon="2.7027242594251306"><ele>478.2</ele><time>2026-03-26T14:10:33.999Z</time></trkpt><trkpt lat="44.55576999641234" lon="2.7025964543628596"><ele>478.6</ele><time>2026-03-26T14:10:34.999Z</time></trkpt><trkpt lat="44.555771817179966" lon="2.7024511259781456"><ele>479.0</ele><time>2026-03-26T14:10:35.999Z</time></trkpt><trkpt lat="44.55579576495537" lon="2.702295975294555"><ele>479.75</ele><time>2026-03-26T14:10:36.999Z</time></trkpt><trkpt lat="44.55585068245149" lon="2.702153358571365"><ele>480.5</ele><time>2026-03-26T14:10:37.999Z</time></trkpt><trkpt lat="44.55592391245322" lon="2.7020237839928356"><ele>481.25</ele><time>2026-03-26T14:10:38.999Z</time></trkpt><trkpt lat="44.55600349206955" lon="2.7018851531406547"><ele>482.0</ele><time>2026-03-26T14:10:39.999Z</time></trkpt><trkpt lat="44.55607682598949" lon="2.701734137400081"><ele>483.0</ele><time>2026-03-26T14:10:40.999Z</time></trkpt><trkpt lat="44.55615539785771" lon="2.701581818323896"><ele>484.0</ele><time>2026-03-26T14:10:41.999Z</time></trkpt><trkpt lat="44.55623769649042" lon="2.701429809713503"><ele>485.0</ele><time>2026-03-26T14:10:42.999Z</time></trkpt><trkpt lat="44.556320774328434" lon="2.701288447815114"><ele>486.0</ele><time>2026-03-26T14:10:43.999Z</time></trkpt><trkpt lat="44.55641590149182" lon="2.7011845699538686"><ele>487.6</ele><time>2026-03-26T14:10:44.999Z</time></trkpt><trkpt lat="44.5565047837955" lon="2.701117254665368"><ele>489.20000000000005</ele><time>2026-03-26T14:10:45.999Z</time></trkpt><trkpt lat="44.55656933717983" lon="2.7010754188463624"><ele>490.79999999999995</ele><time>2026-03-26T14:10:46.999Z</time></trkpt><trkpt lat="44.55662916191932" lon="2.7010412598255855"><ele>492.4</ele><time>2026-03-26T14:10:48.999Z</time></trkpt><trkpt lat="44.556519539599044" lon="2.700836797178499"><ele>494.0</ele><time>2026-03-26T14:10:51.999Z</time></trkpt><trkpt lat="44.55645681706042" lon="2.700781060547079"><ele>494.3333333333333</ele><time>2026-03-26T14:10:52.999Z</time></trkpt><trkpt lat="44.55639858353293" lon="2.700709661814376"><ele>494.66666666666663</ele><time>2026-03-26T14:10:53.999Z</time></trkpt><trkpt lat="44.556352745991276" lon="2.7006237603856555"><ele>495.0</ele><time>2026-03-26T14:10:54.999Z</time></trkpt><trkpt lat="44.55633715345683" lon="2.700510420814117"><ele>495.33333333333337</ele><time>2026-03-26T14:10:55.999Z</time></trkpt><trkpt lat="44.55632171036399" lon="2.7003913472453425"><ele>495.6666666666667</ele><time>2026-03-26T14:10:56.999Z</time></trkpt><trkpt lat="44.556291284793694" lon="2.700257759530725"><ele>496.0</ele><time>2026-03-26T14:10:57.999Z</time></trkpt><trkpt lat="44.55628327108868" lon="2.700105946229612"><ele>497.25</ele><time>2026-03-26T14:10:58.999Z</time></trkpt><trkpt lat="44.55626602490151" lon="2.699953080523521"><ele>498.5</ele><time>2026-03-26T14:10:59.999Z</time></trkpt><trkpt lat="44.55624982375467" lon="2.6997866954315826"><ele>499.75</ele><time>2026-03-26T14:11:00.999Z</time></trkpt><trkpt lat="44.55623654758824" lon="2.699607399131649"><ele>501.0</ele><time>2026-03-26T14:11:01.999Z</time></trkpt><trkpt lat="44.55622724714265" lon="2.699430734886898"><ele>501.25</ele><time>2026-03-26T14:11:02.999Z</time></trkpt><trkpt lat="44.55622076674847" lon="2.69923932394166"><ele>501.5</ele><time>2026-03-26T14:11:03.999Z</time></trkpt><trkpt lat="44.55621437274466" lon="2.6990385846590557"><ele>501.75</ele><time>2026-03-26T14:11:04.999Z</time></trkpt><trkpt lat="44.55620342335067" lon="2.6988604119931288"><ele>502.0</ele><time>2026-03-26T14:11:05.999Z</time></trkpt><trkpt lat="44.556191068604505" lon="2.6987078633793344"><ele>502.20000000000005</ele><time>2026-03-26T14:11:06.999Z</time></trkpt><trkpt lat="44.556179025141546" lon="2.6985732583279876"><ele>502.40000000000003</ele><time>2026-03-26T14:11:07.999Z</time></trkpt><trkpt lat="44.55616903240748" lon="2.6984514738363794"><ele>502.59999999999997</ele><time>2026-03-26T14:11:08.999Z</time></trkpt><trkpt lat="44.55616049534996" lon="2.6983357521465146"><ele>502.79999999999995</ele><time>2026-03-26T14:11:09.999Z</time></trkpt><trkpt lat="44.55615797129046" lon="2.6982020706359733"><ele>503.0</ele><time>2026-03-26T14:11:10.999Z</time></trkpt><trkpt lat="44.556156812801284" lon="2.6980496926512205"><ele>503.0</ele><time>2026-03-26T14:11:11.999Z</time></trkpt><trkpt lat="44.556143668099615" lon="2.697879023285761"><ele>503.0</ele><time>2026-03-26T14:11:12.999Z</time></trkpt><trkpt lat="44.556141074148385" lon="2.6976935300153655"><ele>503.0</ele><time>2026-03-26T14:11:13.999Z</time></trkpt><trkpt lat="44.5560789340568" lon="2.6975244519638495"><ele>503.0</ele><time>2026-03-26T14:11:14.999Z</time></trkpt><trkpt lat="44.556022908404486" lon="2.697342335085889"><ele>503.0</ele><time>2026-03-26T14:11:15.999Z</time></trkpt><trkpt lat="44.55596658372524" lon="2.6971550911430757"><ele>503.0</ele><time>2026-03-26T14:11:16.999Z</time></trkpt><trkpt lat="44.55594025857954" lon="2.6969501953243173"><ele>503.0</ele><time>2026-03-26T14:11:17.999Z</time></trkpt><trkpt lat="44.55592012263149" lon="2.696740294482823"><ele>503.0</ele><time>2026-03-26T14:11:18.999Z</time></trkpt><trkpt lat="44.55588756308819" lon="2.696534454445985"><ele>503.0</ele><time>2026-03-26T14:11:19.999Z</time></trkpt><trkpt lat="44.55587652262264" lon="2.6963398105335736"><ele>503.0</ele><time>2026-03-26T14:11:20.999Z</time></trkpt><trkpt lat="44.555835228271754" lon="2.6961532147755003"><ele>503.0</ele><time>2026-03-26T14:11:21.999Z</time></trkpt><trkpt lat="44.55577616749505" lon="2.6959633534059897"><ele>503.0</ele><time>2026-03-26T14:11:22.999Z</time></trkpt><trkpt lat="44.55569235515246" lon="2.695782697255193"><ele>503.0</ele><time>2026-03-26T14:11:23.999Z</time></trkpt><trkpt lat="44.555616965713604" lon="2.695592908281311"><ele>503.0</ele><time>2026-03-26T14:11:24.999Z</time></trkpt><trkpt lat="44.55554047414451" lon="2.695405576561396"><ele>503.0</ele><time>2026-03-26T14:11:25.999Z</time></trkpt><trkpt lat="44.555469201544035" lon="2.695224322170524"><ele>503.0</ele><time>2026-03-26T14:11:26.999Z</time></trkpt><trkpt lat="44.55539151416951" lon="2.6950562543242502"><ele>503.0</ele><time>2026-03-26T14:11:27.999Z</time></trkpt><trkpt lat="44.55530540847216" lon="2.694899733814408"><ele>503.0</ele><time>2026-03-26T14:11:28.999Z</time></trkpt><trkpt lat="44.55521962227671" lon="2.694752300252785"><ele>503.0</ele><time>2026-03-26T14:11:29.999Z</time></trkpt><trkpt lat="44.555146788163725" lon="2.6946221712881857"><ele>504.75</ele><time>2026-03-26T14:11:30.999Z</time></trkpt><trkpt lat="44.55507374742007" lon="2.6944893646082035"><ele>506.5</ele><time>2026-03-26T14:11:31.999Z</time></trkpt><trkpt lat="44.55499901864517" lon="2.6943458223157943"><ele>508.25</ele><time>2026-03-26T14:11:32.999Z</time></trkpt><trkpt lat="44.55492644371353" lon="2.6942088987002264"><ele>510.0</ele><time>2026-03-26T14:11:33.999Z</time></trkpt><trkpt lat="44.55486624397326" lon="2.6940853960459608"><ele>510.0</ele><time>2026-03-26T14:11:34.999Z</time></trkpt><trkpt lat="44.55481251028345" lon="2.693971440002576"><ele>510.0</ele><time>2026-03-26T14:11:35.999Z</time></trkpt><trkpt lat="44.55475709980081" lon="2.6938592745536813"><ele>510.0</ele><time>2026-03-26T14:11:36.999Z</time></trkpt><trkpt lat="44.554704067940854" lon="2.693758735820366"><ele>510.0</ele><time>2026-03-26T14:11:37.999Z</time></trkpt><trkpt lat="44.55465627958119" lon="2.6936653213475394"><ele>510.0</ele><time>2026-03-26T14:11:38.999Z</time></trkpt><trkpt lat="44.554613594093986" lon="2.693577919263277"><ele>510.0</ele><time>2026-03-26T14:11:39.999Z</time></trkpt><trkpt lat="44.55457622404071" lon="2.6934954584363706"><ele>509.8333333333333</ele><time>2026-03-26T14:11:40.999Z</time></trkpt><trkpt lat="44.55454239754742" lon="2.6934175353966867"><ele>509.66666666666663</ele><time>2026-03-26T14:11:41.999Z</time></trkpt><trkpt lat="44.554512274789836" lon="2.693338492068156"><ele>509.5</ele><time>2026-03-26T14:11:42.999Z</time></trkpt><trkpt lat="44.554469847968626" lon="2.6931777238360297"><ele>509.3333333333333</ele><time>2026-03-26T14:11:44.999Z</time></trkpt><trkpt lat="44.55444462993478" lon="2.69308933366064"><ele>509.16666666666663</ele><time>2026-03-26T14:11:45.999Z</time></trkpt><trkpt lat="44.55440557803859" lon="2.693000297835107"><ele>509.0</ele><time>2026-03-26T14:11:46.999Z</time></trkpt><trkpt lat="44.55435630355538" lon="2.692898806985391"><ele>508.99999999999994</ele><time>2026-03-26T14:11:47.999Z</time></trkpt><trkpt lat="44.554311753399446" lon="2.692804992837895"><ele>509.0</ele><time>2026-03-26T14:11:48.999Z</time></trkpt><trkpt lat="44.55426142470925" lon="2.692712382527144"><ele>509.0</ele><time>2026-03-26T14:11:49.999Z</time></trkpt><trkpt lat="44.554224621417184" lon="2.692613806523394"><ele>509.0</ele><time>2026-03-26T14:11:50.999Z</time></trkpt><trkpt lat="44.55420028747021" lon="2.6924928538869515"><ele>508.99999999999994</ele><time>2026-03-26T14:11:51.999Z</time></trkpt><trkpt lat="44.554183558248084" lon="2.692360854547027"><ele>509.0</ele><time>2026-03-26T14:11:52.999Z</time></trkpt><trkpt lat="44.55415921304248" lon="2.6922135712095296"><ele>509.0</ele><time>2026-03-26T14:11:53.999Z</time></trkpt><trkpt lat="44.554139704076626" lon="2.6920513793084795"><ele>509.0</ele><time>2026-03-26T14:11:54.999Z</time></trkpt><trkpt lat="44.55411297566264" lon="2.6918957377625397"><ele>509.0</ele><time>2026-03-26T14:11:55.999Z</time></trkpt><trkpt lat="44.554084666566744" lon="2.6917515418298006"><ele>509.0</ele><time>2026-03-26T14:11:56.999Z</time></trkpt><trkpt lat="44.55404737690167" lon="2.691597736168974"><ele>507.0</ele><time>2026-03-26T14:11:57.999Z</time></trkpt><trkpt lat="44.55400530576857" lon="2.6914530698125674"><ele>505.0</ele><time>2026-03-26T14:11:58.999Z</time></trkpt><trkpt lat="44.55396329558574" lon="2.6913028226790767"><ele>503.0</ele><time>2026-03-26T14:11:59.999Z</time></trkpt><trkpt lat="44.553939464402085" lon="2.6911428796641"><ele>501.0</ele><time>2026-03-26T14:12:00.999Z</time></trkpt><trkpt lat="44.55391955376874" lon="2.690967925791963"><ele>500.0</ele><time>2026-03-26T14:12:01.998Z</time></trkpt><trkpt lat="44.55391080269756" lon="2.6907878265058693"><ele>499.0</ele><time>2026-03-26T14:12:02.998Z</time></trkpt><trkpt lat="44.55390733101924" lon="2.6906038379759165"><ele>498.0</ele><time>2026-03-26T14:12:03.998Z</time></trkpt><trkpt lat="44.553907027735335" lon="2.6904284705235857"><ele>497.0</ele><time>2026-03-26T14:12:04.998Z</time></trkpt><trkpt lat="44.55390574571906" lon="2.6902622538129344"><ele>496.40000000000003</ele><time>2026-03-26T14:12:05.998Z</time></trkpt><trkpt lat="44.55390814818514" lon="2.6901096065100534"><ele>495.80000000000007</ele><time>2026-03-26T14:12:06.998Z</time></trkpt><trkpt lat="44.553909241136715" lon="2.689960625909791"><ele>495.2</ele><time>2026-03-26T14:12:07.998Z</time></trkpt><trkpt lat="44.55391547590314" lon="2.6898151625295603"><ele>494.6</ele><time>2026-03-26T14:12:08.998Z</time></trkpt><trkpt lat="44.55391709558398" lon="2.689658603373544"><ele>494.0</ele><time>2026-03-26T14:12:09.998Z</time></trkpt><trkpt lat="44.55391331462184" lon="2.6895156019233055"><ele>492.79999999999995</ele><time>2026-03-26T14:12:10.998Z</time></trkpt><trkpt lat="44.55390783271543" lon="2.6893727760202397"><ele>491.59999999999997</ele><time>2026-03-26T14:12:11.998Z</time></trkpt><trkpt lat="44.55390539218496" lon="2.6892355413691518"><ele>490.4</ele><time>2026-03-26T14:12:12.998Z</time></trkpt><trkpt lat="44.55390001575363" lon="2.689104106344525"><ele>489.2</ele><time>2026-03-26T14:12:13.998Z</time></trkpt><trkpt lat="44.55389058330126" lon="2.688972448873017"><ele>488.0</ele><time>2026-03-26T14:12:14.998Z</time></trkpt><trkpt lat="44.55389032246047" lon="2.688830443975007"><ele>488.0</ele><time>2026-03-26T14:12:15.998Z</time></trkpt><trkpt lat="44.55387279375824" lon="2.688678247590765"><ele>488.0</ele><time>2026-03-26T14:12:16.998Z</time></trkpt><trkpt lat="44.55385083450072" lon="2.6885155993416694"><ele>488.0</ele><time>2026-03-26T14:12:17.999Z</time></trkpt><trkpt lat="44.55382771668816" lon="2.6883467002655146"><ele>488.0</ele><time>2026-03-26T14:12:19Z</time></trkpt><trkpt lat="44.55380512462976" lon="2.688193535799382"><ele>487.0</ele><time>2026-03-26T14:12:19.999Z</time></trkpt><trkpt lat="44.55376820174555" lon="2.688059028036447"><ele>485.99999999999994</ele><time>2026-03-26T14:12:20.999Z</time></trkpt><trkpt lat="44.55374927634034" lon="2.6879270799226016"><ele>484.99999999999994</ele><time>2026-03-26T14:12:22Z</time></trkpt><trkpt lat="44.553718864032064" lon="2.6878062473842057"><ele>484.0</ele><time>2026-03-26T14:12:22.999Z</time></trkpt><trkpt lat="44.553690195126954" lon="2.6876962009672343"><ele>483.0</ele><time>2026-03-26T14:12:23.999Z</time></trkpt><trkpt lat="44.55367220096959" lon="2.687574295146007"><ele>481.75</ele><time>2026-03-26T14:12:25Z</time></trkpt><trkpt lat="44.55363938148764" lon="2.68744254911304"><ele>480.5</ele><time>2026-03-26T14:12:25.999Z</time></trkpt><trkpt lat="44.55362444703074" lon="2.6872948372287064"><ele>479.25</ele><time>2026-03-26T14:12:26.999Z</time></trkpt><trkpt lat="44.55360127486756" lon="2.687114594612921"><ele>478.0</ele><time>2026-03-26T14:12:28Z</time></trkpt><trkpt lat="44.553589679236794" lon="2.6869418215088214"><ele>477.25</ele><time>2026-03-26T14:12:28.999Z</time></trkpt><trkpt lat="44.55359493995957" lon="2.6867813323774237"><ele>476.5</ele><time>2026-03-26T14:12:30Z</time></trkpt><trkpt lat="44.55360227454078" lon="2.6866216508029526"><ele>475.75</ele><time>2026-03-26T14:12:31Z</time></trkpt><trkpt lat="44.55360717637195" lon="2.6864553334567858"><ele>475.0</ele><time>2026-03-26T14:12:32Z</time></trkpt><trkpt lat="44.553624229494766" lon="2.6862792599244805"><ele>475.0</ele><time>2026-03-26T14:12:32.999Z</time></trkpt><trkpt lat="44.553620426619936" lon="2.686102039774647"><ele>475.0</ele><time>2026-03-26T14:12:33.999Z</time></trkpt><trkpt lat="44.553609302731445" lon="2.6859207064123876"><ele>475.0</ele><time>2026-03-26T14:12:34.999Z</time></trkpt><trkpt lat="44.55359732885375" lon="2.6857537721437157"><ele>475.0</ele><time>2026-03-26T14:12:35.999Z</time></trkpt><trkpt lat="44.55358292071387" lon="2.6855949054486983"><ele>475.4</ele><time>2026-03-26T14:12:36.999Z</time></trkpt><trkpt lat="44.55357483545085" lon="2.6854448096869405"><ele>475.8</ele><time>2026-03-26T14:12:37.999Z</time></trkpt><trkpt lat="44.553568349770494" lon="2.6853020351035672"><ele>476.20000000000005</ele><time>2026-03-26T14:12:38.999Z</time></trkpt><trkpt lat="44.55357040688569" lon="2.6851839171234557"><ele>476.6</ele><time>2026-03-26T14:12:39.999Z</time></trkpt><trkpt lat="44.55357554546521" lon="2.685075338898876"><ele>477.0</ele><time>2026-03-26T14:12:40.999Z</time></trkpt><trkpt lat="44.55357293176475" lon="2.6849084135517947"><ele>476.3333333333333</ele><time>2026-03-26T14:12:42.999Z</time></trkpt><trkpt lat="44.55359016805507" lon="2.6848135495148675"><ele>475.66666666666663</ele><time>2026-03-26T14:12:43.999Z</time></trkpt><trkpt lat="44.553594754048" lon="2.6847094858366494"><ele>475.0</ele><time>2026-03-26T14:12:44.999Z</time></trkpt><trkpt lat="44.553595321649524" lon="2.6846051614224407"><ele>474.3333333333333</ele><time>2026-03-26T14:12:45.999Z</time></trkpt><trkpt lat="44.55359428250176" lon="2.6844970009332805"><ele>473.66666666666663</ele><time>2026-03-26T14:12:46.999Z</time></trkpt><trkpt lat="44.55358824714124" lon="2.6843771558860268"><ele>473.0</ele><time>2026-03-26T14:12:47.999Z</time></trkpt><trkpt lat="44.55357152796798" lon="2.684260215775819"><ele>471.99999999999994</ele><time>2026-03-26T14:12:48.999Z</time></trkpt><trkpt lat="44.553546561966826" lon="2.684132862438039"><ele>471.0</ele><time>2026-03-26T14:12:49.999Z</time></trkpt><trkpt lat="44.55352255727513" lon="2.6840128750014163"><ele>470.0</ele><time>2026-03-26T14:12:50.999Z</time></trkpt><trkpt lat="44.553491442181716" lon="2.683900134991787"><ele>469.0</ele><time>2026-03-26T14:12:51.999Z</time></trkpt><trkpt lat="44.55347065144727" lon="2.6837789062559425"><ele>467.99999999999994</ele><time>2026-03-26T14:12:52.999Z</time></trkpt><trkpt lat="44.55344621861474" lon="2.683678817434759"><ele>467.0</ele><time>2026-03-26T14:12:53.999Z</time></trkpt><trkpt lat="44.55343141092781" lon="2.683584542667689"><ele>465.16666666666663</ele><time>2026-03-26T14:12:54.999Z</time></trkpt><trkpt lat="44.55340405022397" lon="2.683444915728333"><ele>463.3333333333333</ele><time>2026-03-26T14:12:56.999Z</time></trkpt><trkpt lat="44.553410246997096" lon="2.683351830193875"><ele>461.5</ele><time>2026-03-26T14:13:23.999Z</time></trkpt><trkpt lat="44.553461254548225" lon="2.6832903256999434"><ele>459.66666666666663</ele><time>2026-03-26T14:13:26.999Z</time></trkpt><trkpt lat="44.553541723155" lon="2.683326884716373"><ele>457.8333333333333</ele><time>2026-03-26T14:13:29.999Z</time></trkpt><trkpt lat="44.55358543134398" lon="2.6833979026439443"><ele>456.0</ele><time>2026-03-26T14:13:31.999Z</time></trkpt><trkpt lat="44.55361665035313" lon="2.6834889349089326"><ele>456.0</ele><time>2026-03-26T14:13:33.999Z</time></trkpt><trkpt lat="44.55366586542243" lon="2.6835856775763323"><ele>456.0</ele><time>2026-03-26T14:13:37.999Z</time></trkpt><trkpt lat="44.55371686065986" lon="2.6837080767547326"><ele>456.0</ele><time>2026-03-26T14:13:39.999Z</time></trkpt><trkpt lat="44.55374828669584" lon="2.683802272608687"><ele>456.0</ele><time>2026-03-26T14:13:40.999Z</time></trkpt><trkpt lat="44.55378166059575" lon="2.6838783996162205"><ele>456.0</ele><time>2026-03-26T14:13:41.999Z</time></trkpt><trkpt lat="44.553844982427115" lon="2.6840070777765876"><ele>456.0</ele><time>2026-03-26T14:13:43.999Z</time></trkpt><trkpt lat="44.55385868604066" lon="2.684104583898179"><ele>456.1666666666667</ele><time>2026-03-26T14:13:44.999Z</time></trkpt><trkpt lat="44.5538893763025" lon="2.6841884253601624"><ele>456.33333333333337</ele><time>2026-03-26T14:13:45.999Z</time></trkpt><trkpt lat="44.553918116690745" lon="2.684282356003821"><ele>456.5</ele><time>2026-03-26T14:13:46.999Z</time></trkpt><trkpt lat="44.55397442118787" lon="2.684374589887953"><ele>456.6666666666667</ele><time>2026-03-26T14:13:47.999Z</time></trkpt><trkpt lat="44.55403350391186" lon="2.6844695257353663"><ele>456.83333333333337</ele><time>2026-03-26T14:13:48.999Z</time></trkpt><trkpt lat="44.55408271142093" lon="2.6845731598271683"><ele>457.0</ele><time>2026-03-26T14:13:49.999Z</time></trkpt><trkpt lat="44.55414105550161" lon="2.684678384738349"><ele>457.00000000000006</ele><time>2026-03-26T14:13:50.999Z</time></trkpt><trkpt lat="44.55418906618648" lon="2.684765297939309"><ele>457.0</ele><time>2026-03-26T14:13:51.999Z</time></trkpt><trkpt lat="44.554248379030376" lon="2.6848593290048037"><ele>457.0</ele><time>2026-03-26T14:13:52.999Z</time></trkpt><trkpt lat="44.554308130363154" lon="2.6849494141946906"><ele>457.0</ele><time>2026-03-26T14:13:53.999Z</time></trkpt><trkpt lat="44.55436212836735" lon="2.685037693231494"><ele>457.00000000000006</ele><time>2026-03-26T14:13:54.999Z</time></trkpt><trkpt lat="44.554414278152414" lon="2.6851155755814973"><ele>457.0</ele><time>2026-03-26T14:13:55.999Z</time></trkpt><trkpt lat="44.554477846174514" lon="2.6851970384028006"><ele>457.83333333333337</ele><time>2026-03-26T14:13:56.999Z</time></trkpt><trkpt lat="44.55453747773756" lon="2.685266631242207"><ele>458.6666666666667</ele><time>2026-03-26T14:13:57.999Z</time></trkpt><trkpt lat="44.55459435393988" lon="2.685330660056552"><ele>459.5</ele><time>2026-03-26T14:13:58.999Z</time></trkpt><trkpt lat="44.55464549712406" lon="2.6854088959397795"><ele>460.33333333333337</ele><time>2026-03-26T14:13:59.999Z</time></trkpt><trkpt lat="44.554694378344024" lon="2.685484360912472"><ele>461.1666666666667</ele><time>2026-03-26T14:14:00.999Z</time></trkpt><trkpt lat="44.5547524890863" lon="2.6855634164332343"><ele>462.0</ele><time>2026-03-26T14:14:01.999Z</time></trkpt><trkpt lat="44.55481566344927" lon="2.6856566554285015"><ele>459.1666666666667</ele><time>2026-03-26T14:14:02.999Z</time></trkpt><trkpt lat="44.55485923389209" lon="2.6857322035210855"><ele>456.33333333333337</ele><time>2026-03-26T14:14:03.999Z</time></trkpt><trkpt lat="44.55492154334911" lon="2.6858659591810197"><ele>453.5</ele><time>2026-03-26T14:14:05.999Z</time></trkpt><trkpt lat="44.55495442737782" lon="2.6859721335675113"><ele>450.6666666666667</ele><time>2026-03-26T14:14:06.999Z</time></trkpt><trkpt lat="44.5549899950958" lon="2.68606955223444"><ele>447.83333333333337</ele><time>2026-03-26T14:14:07.999Z</time></trkpt><trkpt lat="44.55505872441106" lon="2.686153750308984"><ele>445.0</ele><time>2026-03-26T14:14:09.998Z</time></trkpt><trkpt lat="44.555163486255076" lon="2.6861990555921964"><ele>445.0</ele><time>2026-03-26T14:14:11.998Z</time></trkpt><trkpt lat="44.555251274087276" lon="2.6862196588991067"><ele>445.0</ele><time>2026-03-26T14:14:12.998Z</time></trkpt><trkpt lat="44.555345811188744" lon="2.6862658034219735"><ele>445.0</ele><time>2026-03-26T14:14:13.998Z</time></trkpt><trkpt lat="44.55544965066262" lon="2.686338220178252"><ele>445.0</ele><time>2026-03-26T14:14:14.998Z</time></trkpt><trkpt lat="44.55554123634034" lon="2.6863938699607925"><ele>445.0</ele><time>2026-03-26T14:14:15.998Z</time></trkpt><trkpt lat="44.55561596803532" lon="2.6864625236356354"><ele>438.4</ele><time>2026-03-26T14:14:17.998Z</time></trkpt><trkpt lat="44.55568196681645" lon="2.6865102367652636"><ele>431.8</ele><time>2026-03-26T14:14:18.998Z</time></trkpt><trkpt lat="44.555730426047006" lon="2.686581560674293"><ele>425.20000000000005</ele><time>2026-03-26T14:14:19.998Z</time></trkpt><trkpt lat="44.5557720836965" lon="2.686657863190218"><ele>418.6</ele><time>2026-03-26T14:14:20.998Z</time></trkpt><trkpt lat="44.555810689835816" lon="2.6868099504064387"><ele>412.0</ele><time>2026-03-26T14:14:22.998Z</time></trkpt><trkpt lat="44.555778493081206" lon="2.687022871473008"><ele>412.00000000000006</ele><time>2026-03-26T14:14:25Z</time></trkpt><trkpt lat="44.555781340140435" lon="2.6871370395947354"><ele>412.0</ele><time>2026-03-26T14:14:26Z</time></trkpt><trkpt lat="44.55580122768862" lon="2.6872512322931437"><ele>412.0</ele><time>2026-03-26T14:14:27Z</time></trkpt><trkpt lat="44.55581176135241" lon="2.6873612727933147"><ele>412.0</ele><time>2026-03-26T14:14:28Z</time></trkpt><trkpt lat="44.555830306771206" lon="2.687484003231227"><ele>412.00000000000006</ele><time>2026-03-26T14:14:29Z</time></trkpt><trkpt lat="44.55584792167552" lon="2.6876118542766845"><ele>412.0</ele><time>2026-03-26T14:14:30Z</time></trkpt><trkpt lat="44.555869028859966" lon="2.6877379905671783"><ele>412.33333333333337</ele><time>2026-03-26T14:14:31Z</time></trkpt><trkpt lat="44.55589086592648" lon="2.6878630656883007"><ele>412.6666666666667</ele><time>2026-03-26T14:14:32Z</time></trkpt><trkpt lat="44.55591008328933" lon="2.687983544547205"><ele>413.0</ele><time>2026-03-26T14:14:33Z</time></trkpt><trkpt lat="44.55592378555017" lon="2.6881047628454464"><ele>413.33333333333337</ele><time>2026-03-26T14:14:34Z</time></trkpt><trkpt lat="44.55594063867741" lon="2.6882247253231224"><ele>413.6666666666667</ele><time>2026-03-26T14:14:35Z</time></trkpt><trkpt lat="44.55596056238574" lon="2.688346435463522"><ele>414.0</ele><time>2026-03-26T14:14:36Z</time></trkpt><trkpt lat="44.55598993095142" lon="2.6884735696974826"><ele>414.0</ele><time>2026-03-26T14:14:37Z</time></trkpt><trkpt lat="44.556012508790026" lon="2.6886068047163225"><ele>414.0</ele><time>2026-03-26T14:14:38Z</time></trkpt><trkpt lat="44.556034538151465" lon="2.6887145476979284"><ele>414.0</ele><time>2026-03-26T14:14:39Z</time></trkpt><trkpt lat="44.556045076849884" lon="2.6888039312145633"><ele>414.0</ele><time>2026-03-26T14:14:40Z</time></trkpt><trkpt lat="44.556047205121004" lon="2.688894337832604"><ele>414.0</ele><time>2026-03-26T14:14:41Z</time></trkpt><trkpt lat="44.55604470831562" lon="2.6890279831209867"><ele>414.0</ele><time>2026-03-26T14:14:42Z</time></trkpt><trkpt lat="44.5560319569133" lon="2.689139267815114"><ele>414.0</ele><time>2026-03-26T14:14:42.999Z</time></trkpt><trkpt lat="44.55603327554772" lon="2.6892277124368467"><ele>414.0</ele><time>2026-03-26T14:14:43.999Z</time></trkpt><trkpt lat="44.55599888351441" lon="2.689349720539393"><ele>414.0</ele><time>2026-03-26T14:14:45.999Z</time></trkpt><trkpt lat="44.55599732291699" lon="2.6894426771918485"><ele>414.0</ele><time>2026-03-26T14:14:47.999Z</time></trkpt><trkpt lat="44.556051992533156" lon="2.689512171991996"><ele>414.0</ele><time>2026-03-26T14:15:03.999Z</time></trkpt><trkpt lat="44.55612141606266" lon="2.6896104784577557"><ele>414.0</ele><time>2026-03-26T14:15:05.999Z</time></trkpt><trkpt lat="44.556271046835604" lon="2.689675762673814"><ele>410.79999999999995</ele><time>2026-03-26T14:15:07.999Z</time></trkpt><trkpt lat="44.55636651352429" lon="2.689687886221164"><ele>407.59999999999997</ele><time>2026-03-26T14:15:08.999Z</time></trkpt><trkpt lat="44.55646172970191" lon="2.689723298378259"><ele>404.4</ele><time>2026-03-26T14:15:09.999Z</time></trkpt><trkpt lat="44.55656459305427" lon="2.689809049868496"><ele>401.2</ele><time>2026-03-26T14:15:10.999Z</time></trkpt><trkpt lat="44.556651083219336" lon="2.689927076257484"><ele>398.0</ele><time>2026-03-26T14:15:11.999Z</time></trkpt><trkpt lat="44.55673883249252" lon="2.690072005554032"><ele>398.0</ele><time>2026-03-26T14:15:12.999Z</time></trkpt><trkpt lat="44.556815966936234" lon="2.6902146844547135"><ele>398.0</ele><time>2026-03-26T14:15:13.999Z</time></trkpt><trkpt lat="44.55689377879929" lon="2.6903441849249896"><ele>398.0</ele><time>2026-03-26T14:15:14.999Z</time></trkpt><trkpt lat="44.55699216515057" lon="2.6904560572699037"><ele>398.0</ele><time>2026-03-26T14:15:15.999Z</time></trkpt><trkpt lat="44.55711811358364" lon="2.690523049511921"><ele>399.0</ele><time>2026-03-26T14:15:16.999Z</time></trkpt><trkpt lat="44.5572569555762" lon="2.6905569746559013"><ele>400.0</ele><time>2026-03-26T14:15:17.999Z</time></trkpt><trkpt lat="44.5573527481895" lon="2.690614473902914"><ele>401.0</ele><time>2026-03-26T14:15:18.999Z</time></trkpt><trkpt lat="44.55742528319732" lon="2.6907117908542477"><ele>402.0</ele><time>2026-03-26T14:15:19.999Z</time></trkpt><trkpt lat="44.55745625868695" lon="2.6908729366615556"><ele>402.0</ele><time>2026-03-26T14:15:20.999Z</time></trkpt><trkpt lat="44.557511204976656" lon="2.6910397647025714"><ele>402.0</ele><time>2026-03-26T14:15:21.999Z</time></trkpt><trkpt lat="44.55758736073594" lon="2.691208796814554"><ele>402.0</ele><time>2026-03-26T14:15:22.999Z</time></trkpt><trkpt lat="44.55768925693965" lon="2.6913592254878105"><ele>402.0</ele><time>2026-03-26T14:15:23.999Z</time></trkpt><trkpt lat="44.55778651784905" lon="2.691525941698769"><ele>398.5</ele><time>2026-03-26T14:15:24.999Z</time></trkpt><trkpt lat="44.55787894882867" lon="2.6916585164265587"><ele>395.0</ele><time>2026-03-26T14:15:25.999Z</time></trkpt><trkpt lat="44.55794238097189" lon="2.691776117571595"><ele>391.5</ele><time>2026-03-26T14:15:26.999Z</time></trkpt><trkpt lat="44.558023750711904" lon="2.6919135769995126"><ele>388.0</ele><time>2026-03-26T14:15:27.999Z</time></trkpt><trkpt lat="44.55808929068033" lon="2.6920706349809085"><ele>395.0</ele><time>2026-03-26T14:15:28.999Z</time></trkpt><trkpt lat="44.55816170228023" lon="2.6922308313160457"><ele>402.0</ele><time>2026-03-26T14:15:29.999Z</time></trkpt><trkpt lat="44.55823073250102" lon="2.6924045854054808"><ele>409.0</ele><time>2026-03-26T14:15:30.999Z</time></trkpt><trkpt lat="44.55830229062775" lon="2.69257053603482"><ele>416.0</ele><time>2026-03-26T14:15:31.999Z</time></trkpt><trkpt lat="44.55835469390942" lon="2.6927299814214463"><ele>417.75</ele><time>2026-03-26T14:15:32.999Z</time></trkpt><trkpt lat="44.558425756060494" lon="2.6928494256372675"><ele>419.5</ele><time>2026-03-26T14:15:33.999Z</time></trkpt><trkpt lat="44.55852695198632" lon="2.6929454129247583"><ele>421.25</ele><time>2026-03-26T14:15:34.999Z</time></trkpt><trkpt lat="44.55864819900764" lon="2.6930264787648497"><ele>423.0</ele><time>2026-03-26T14:15:35.999Z</time></trkpt><trkpt lat="44.55878654187725" lon="2.6930953416731294"><ele>423.0</ele><time>2026-03-26T14:15:36.999Z</time></trkpt><trkpt lat="44.55894128018445" lon="2.693163779319751"><ele>423.0</ele><time>2026-03-26T14:15:37.999Z</time></trkpt><trkpt lat="44.55908850034517" lon="2.693234391122251"><ele>423.0</ele><time>2026-03-26T14:15:38.999Z</time></trkpt><trkpt lat="44.55923339719247" lon="2.693286542754519"><ele>423.0</ele><time>2026-03-26T14:15:39.999Z</time></trkpt><trkpt lat="44.55937941081093" lon="2.6933285563183644"><ele>423.0</ele><time>2026-03-26T14:15:40.999Z</time></trkpt><trkpt lat="44.55951467471119" lon="2.693360644135659"><ele>423.0</ele><time>2026-03-26T14:15:41.999Z</time></trkpt><trkpt lat="44.5596398405707" lon="2.6933921544001267"><ele>423.0</ele><time>2026-03-26T14:15:42.999Z</time></trkpt><trkpt lat="44.55974155819204" lon="2.69344117093925"><ele>421.0</ele><time>2026-03-26T14:15:43.999Z</time></trkpt><trkpt lat="44.559823580243595" lon="2.693524023460572"><ele>419.0</ele><time>2026-03-26T14:15:44.999Z</time></trkpt><trkpt lat="44.55985031492279" lon="2.6936487525041946"><ele>417.0</ele><time>2026-03-26T14:15:45.999Z</time></trkpt><trkpt lat="44.55985675297482" lon="2.6937845803223115"><ele>415.0</ele><time>2026-03-26T14:15:46.999Z</time></trkpt><trkpt lat="44.559812556127" lon="2.6939212729187827"><ele>413.0</ele><time>2026-03-26T14:15:47.999Z</time></trkpt><trkpt lat="44.55978369817031" lon="2.6940910856052924"><ele>413.0</ele><time>2026-03-26T14:15:48.999Z</time></trkpt><trkpt lat="44.5597525312283" lon="2.6942744854437772"><ele>413.0</ele><time>2026-03-26T14:15:49.999Z</time></trkpt><trkpt lat="44.55971920788419" lon="2.694470574467445"><ele>413.0</ele><time>2026-03-26T14:15:50.999Z</time></trkpt><trkpt lat="44.559683729967745" lon="2.694679522150207"><ele>413.0</ele><time>2026-03-26T14:15:51.999Z</time></trkpt><trkpt lat="44.559662752729636" lon="2.6949033404783376"><ele>413.3333333333333</ele><time>2026-03-26T14:15:52.999Z</time></trkpt><trkpt lat="44.5596087927358" lon="2.69511941627789"><ele>413.66666666666663</ele><time>2026-03-26T14:15:53.999Z</time></trkpt><trkpt lat="44.55957046927483" lon="2.69533660919286"><ele>414.0</ele><time>2026-03-26T14:15:54.999Z</time></trkpt><trkpt lat="44.559539136965554" lon="2.6955528491072345"><ele>412.0</ele><time>2026-03-26T14:15:55.999Z</time></trkpt><trkpt lat="44.559526304929086" lon="2.695771069703876"><ele>410.0</ele><time>2026-03-26T14:15:56.999Z</time></trkpt><trkpt lat="44.559538793889864" lon="2.695980050806187"><ele>408.0</ele><time>2026-03-26T14:15:57.999Z</time></trkpt><trkpt lat="44.55952108947822" lon="2.696183275515775"><ele>419.5</ele><time>2026-03-26T14:15:58.999Z</time></trkpt><trkpt lat="44.559513099681425" lon="2.696378932424499"><ele>431.0</ele><time>2026-03-26T14:15:59.999Z</time></trkpt><trkpt lat="44.55949025211057" lon="2.6965691871713315"><ele>442.5</ele><time>2026-03-26T14:16:00.999Z</time></trkpt><trkpt lat="44.55944471097859" lon="2.6967539657417805"><ele>454.0</ele><time>2026-03-26T14:16:01.999Z</time></trkpt><trkpt lat="44.55939240385601" lon="2.6969405253743632"><ele>454.0</ele><time>2026-03-26T14:16:02.999Z</time></trkpt><trkpt lat="44.55932495548698" lon="2.697112881606475"><ele>454.0</ele><time>2026-03-26T14:16:03.999Z</time></trkpt><trkpt lat="44.55925460262191" lon="2.697269800513062"><ele>454.0</ele><time>2026-03-26T14:16:04.999Z</time></trkpt><trkpt lat="44.55918956254387" lon="2.6973890984749946"><ele>454.0</ele><time>2026-03-26T14:16:05.999Z</time></trkpt><trkpt lat="44.559160249773136" lon="2.6975021518543474"><ele>454.00000000000006</ele><time>2026-03-26T14:16:06.999Z</time></trkpt><trkpt lat="44.55911977940793" lon="2.697580984828995"><ele>454.0</ele><time>2026-03-26T14:16:07.999Z</time></trkpt><trkpt lat="44.559120548548584" lon="2.6976793937151173"><ele>454.0</ele><time>2026-03-26T14:16:08.999Z</time></trkpt><trkpt lat="44.559166579933795" lon="2.697770164880591"><ele>454.0</ele><time>2026-03-26T14:16:09.999Z</time></trkpt><trkpt lat="44.55922982056352" lon="2.697812586237443"><ele>454.00000000000006</ele><time>2026-03-26T14:16:10.999Z</time></trkpt><trkpt lat="44.55932627998096" lon="2.697858772412994"><ele>454.0</ele><time>2026-03-26T14:16:12.998Z</time></trkpt><trkpt lat="44.55939676883393" lon="2.697916935084582"><ele>452.1666666666667</ele><time>2026-03-26T14:16:14.998Z</time></trkpt><trkpt lat="44.559469574071564" lon="2.6979777186735223"><ele>450.33333333333337</ele><time>2026-03-26T14:16:16.998Z</time></trkpt><trkpt lat="44.559564031268714" lon="2.6980360158777814"><ele>448.5</ele><time>2026-03-26T14:16:18.998Z</time></trkpt><trkpt lat="44.559645373734426" lon="2.698083477293731"><ele>446.66666666666663</ele><time>2026-03-26T14:16:20.998Z</time></trkpt><trkpt lat="44.55972450911286" lon="2.6981288543462627"><ele>444.8333333333333</ele><time>2026-03-26T14:16:34Z</time></trkpt><trkpt lat="44.559787760100456" lon="2.69816448260454"><ele>443.0</ele><time>2026-03-26T14:16:36Z</time></trkpt><trkpt lat="44.55984724699976" lon="2.698196567702565"><ele>443.0</ele><time>2026-03-26T14:16:38Z</time></trkpt><trkpt lat="44.55991974658852" lon="2.6982356711420357"><ele>442.99999999999994</ele><time>2026-03-26T14:16:40Z</time></trkpt><trkpt lat="44.560036532303826" lon="2.6980799067841104"><ele>442.99999999999994</ele><time>2026-03-26T14:16:42Z</time></trkpt><trkpt lat="44.56009909022664" lon="2.6981193054846586"><ele>443.0</ele><time>2026-03-26T14:16:44Z</time></trkpt><trkpt lat="44.56019864071309" lon="2.698165914088755"><ele>443.0</ele><time>2026-03-26T14:16:46Z</time></trkpt><trkpt lat="44.56028109360992" lon="2.6981949004801398"><ele>443.0</ele><time>2026-03-26T14:16:48Z</time></trkpt><trkpt lat="44.560341514428444" lon="2.6982214293891102"><ele>443.0</ele><time>2026-03-26T14:16:49.999Z</time></trkpt><trkpt lat="44.56038485546506" lon="2.6982939568272406"><ele>443.0</ele><time>2026-03-26T14:16:51.999Z</time></trkpt><trkpt lat="44.560441200674916" lon="2.6983522909518443"><ele>443.0</ele><time>2026-03-26T14:16:53.999Z</time></trkpt><trkpt lat="44.560509740565" lon="2.6984268027637635"><ele>443.0</ele><time>2026-03-26T14:16:55.999Z</time></trkpt><trkpt lat="44.56055145639243" lon="2.6985063458631977"><ele>443.0</ele><time>2026-03-26T14:16:57.999Z</time></trkpt><trkpt lat="44.56058323064051" lon="2.6986041951923494"><ele>443.0</ele><time>2026-03-26T14:16:59.999Z</time></trkpt><trkpt lat="44.56063182133087" lon="2.698688169410126"><ele>441.99999999999994</ele><time>2026-03-26T14:17:02.999Z</time></trkpt><trkpt lat="44.56071081894516" lon="2.698695500100091"><ele>441.0</ele><time>2026-03-26T14:17:04.999Z</time></trkpt><trkpt lat="44.560794652604486" lon="2.6986624201639375"><ele>440.0</ele><time>2026-03-26T14:17:06.999Z</time></trkpt><trkpt lat="44.560864564981316" lon="2.698614950779688"><ele>439.0</ele><time>2026-03-26T14:17:08.999Z</time></trkpt><trkpt lat="44.56093647659246" lon="2.698548222143424"><ele>437.99999999999994</ele><time>2026-03-26T14:17:11.999Z</time></trkpt><trkpt lat="44.56102130532794" lon="2.6984829222515208"><ele>437.0</ele><time>2026-03-26T14:17:13.999Z</time></trkpt><trkpt lat="44.561092461601625" lon="2.6985297014588356"><ele>436.99999999999994</ele><time>2026-03-26T14:17:15.999Z</time></trkpt><trkpt lat="44.56113847097997" lon="2.6986085649814417"><ele>437.0</ele><time>2026-03-26T14:17:18.999Z</time></trkpt><trkpt lat="44.561191508336876" lon="2.698695037534778"><ele>437.0</ele><time>2026-03-26T14:17:21.999Z</time></trkpt><trkpt lat="44.56124773390092" lon="2.6987710191663035"><ele>437.0</ele><time>2026-03-26T14:17:23.999Z</time></trkpt><trkpt lat="44.56129399855655" lon="2.69885040510271"><ele>436.99999999999994</ele><time>2026-03-26T14:17:25.999Z</time></trkpt><trkpt lat="44.561354902082044" lon="2.698942041850431"><ele>437.0</ele><time>2026-03-26T14:17:27.999Z</time></trkpt><trkpt lat="44.561425450860796" lon="2.6990393226259863"><ele>434.16666666666663</ele><time>2026-03-26T14:17:29.999Z</time></trkpt><trkpt lat="44.561469102200974" lon="2.6991098784540744"><ele>431.3333333333333</ele><time>2026-03-26T14:17:31.999Z</time></trkpt><trkpt lat="44.56152107163359" lon="2.699187128893846"><ele>428.5</ele><time>2026-03-26T14:17:33.999Z</time></trkpt><trkpt lat="44.5615839793275" lon="2.699272381203218"><ele>425.66666666666663</ele><time>2026-03-26T14:17:35.999Z</time></trkpt><trkpt lat="44.56165961420488" lon="2.699351054522038"><ele>422.8333333333333</ele><time>2026-03-26T14:17:37.999Z</time></trkpt><trkpt lat="44.56173172376323" lon="2.699465287468047"><ele>420.0</ele><time>2026-03-26T14:17:39.999Z</time></trkpt><trkpt lat="44.5617944967178" lon="2.6995683517793885"><ele>420.0</ele><time>2026-03-26T14:17:41.999Z</time></trkpt><trkpt lat="44.561844182464554" lon="2.699630767696698"><ele>420.0</ele><time>2026-03-26T14:17:43.999Z</time></trkpt><trkpt lat="44.56191385484587" lon="2.699665762906059"><ele>420.0</ele><time>2026-03-26T14:17:46.999Z</time></trkpt><trkpt lat="44.56194027546053" lon="2.699563399742381"><ele>420.0</ele><time>2026-03-26T14:17:51.999Z</time></trkpt><trkpt lat="44.56190237726887" lon="2.6994694703403277"><ele>420.0</ele><time>2026-03-26T14:17:54.999Z</time></trkpt><trkpt lat="44.56189780252339" lon="2.699363095288771"><ele>420.0</ele><time>2026-03-26T14:17:56.999Z</time></trkpt><trkpt lat="44.56190945495205" lon="2.6992192682277145"><ele>417.14285714285717</ele><time>2026-03-26T14:17:59.999Z</time></trkpt><trkpt lat="44.561872252237464" lon="2.6991080479027514"><ele>414.2857142857143</ele><time>2026-03-26T14:18:02.999Z</time></trkpt><trkpt lat="44.56182951274443" lon="2.699038495959394"><ele>411.42857142857144</ele><time>2026-03-26T14:18:05.999Z</time></trkpt><trkpt lat="44.56181488207049" lon="2.698949420924563"><ele>408.57142857142856</ele><time>2026-03-26T14:18:10.999Z</time></trkpt><trkpt lat="44.56179384013443" lon="2.6988613333957043"><ele>405.7142857142857</ele><time>2026-03-26T14:18:17.999Z</time></trkpt><trkpt lat="44.56185760204864" lon="2.6988611899489134"><ele>402.8571428571429</ele><time>2026-03-26T14:19:20Z</time></trkpt><trkpt lat="44.561896250315996" lon="2.6989378353473703"><ele>400.0</ele><time>2026-03-26T14:19:25Z</time></trkpt><trkpt lat="44.561962797528565" lon="2.6989962255753994"><ele>400.00000000000006</ele><time>2026-03-26T14:19:28Z</time></trkpt><trkpt lat="44.5620181705413" lon="2.6990616357136283"><ele>400.0</ele><time>2026-03-26T14:19:30Z</time></trkpt><trkpt lat="44.56208978332474" lon="2.699125972517312"><ele>400.0</ele><time>2026-03-26T14:19:32Z</time></trkpt><trkpt lat="44.56213281085034" lon="2.6992137733182364"><ele>400.0</ele><time>2026-03-26T14:19:34Z</time></trkpt><trkpt lat="44.56220849040587" lon="2.6992702178240195"><ele>400.00000000000006</ele><time>2026-03-26T14:19:36Z</time></trkpt><trkpt lat="44.56226487784333" lon="2.699322534717762"><ele>400.0</ele><time>2026-03-26T14:19:38Z</time></trkpt><trkpt lat="44.562315778977506" lon="2.699412869889107"><ele>396.14285714285717</ele><time>2026-03-26T14:19:41Z</time></trkpt><trkpt lat="44.56237118099053" lon="2.699465912749896"><ele>392.2857142857143</ele><time>2026-03-26T14:19:45Z</time></trkpt><trkpt lat="44.5624096431593" lon="2.6995448166612643"><ele>388.42857142857144</ele><time>2026-03-26T14:19:56Z</time></trkpt><trkpt lat="44.5624780895551" lon="2.699617663523555"><ele>384.57142857142856</ele><time>2026-03-26T14:19:59Z</time></trkpt><trkpt lat="44.56254311108219" lon="2.6997123125801656"><ele>380.7142857142857</ele><time>2026-03-26T14:20:01Z</time></trkpt><trkpt lat="44.56258328040257" lon="2.6997919968624937"><ele>376.8571428571429</ele><time>2026-03-26T14:20:02Z</time></trkpt><trkpt lat="44.56261598152349" lon="2.6998705068054227"><ele>373.0</ele><time>2026-03-26T14:20:03Z</time></trkpt><trkpt lat="44.562643847141096" lon="2.7000062532365003"><ele>373.0</ele><time>2026-03-26T14:20:05Z</time></trkpt><trkpt lat="44.5626688635907" lon="2.7001413048631027"><ele>373.0</ele><time>2026-03-26T14:20:07Z</time></trkpt><trkpt lat="44.562685004971044" lon="2.7002806724218624"><ele>373.0</ele><time>2026-03-26T14:20:09Z</time></trkpt><trkpt lat="44.56275458068063" lon="2.700364288960119"><ele>373.0</ele><time>2026-03-26T14:20:11Z</time></trkpt><trkpt lat="44.56283335619989" lon="2.7004204095117736"><ele>373.0</ele><time>2026-03-26T14:20:14Z</time></trkpt><trkpt lat="44.562949467409936" lon="2.7006462836404364"><ele>371.59999999999997</ele><time>2026-03-26T14:20:17Z</time></trkpt><trkpt lat="44.56307660846272" lon="2.700789527614181"><ele>370.2</ele><time>2026-03-26T14:20:18Z</time></trkpt><trkpt lat="44.56314802433407" lon="2.7008621456497375"><ele>368.8</ele><time>2026-03-26T14:20:19Z</time></trkpt><trkpt lat="44.563233883598066" lon="2.7009268373232462"><ele>367.4</ele><time>2026-03-26T14:20:20Z</time></trkpt><trkpt lat="44.56330475680432" lon="2.70098884054211"><ele>366.0</ele><time>2026-03-26T14:20:21Z</time></trkpt><trkpt lat="44.563360354340084" lon="2.7010579962983807"><ele>364.8333333333333</ele><time>2026-03-26T14:20:22Z</time></trkpt><trkpt lat="44.56340143769629" lon="2.7011276414223953"><ele>363.6666666666667</ele><time>2026-03-26T14:20:23Z</time></trkpt><trkpt lat="44.56343777246671" lon="2.7012072838372774"><ele>362.5</ele><time>2026-03-26T14:20:24Z</time></trkpt><trkpt lat="44.56347135966417" lon="2.701286262995514"><ele>361.33333333333337</ele><time>2026-03-26T14:20:25Z</time></trkpt><trkpt lat="44.56355531066212" lon="2.701422576526066"><ele>360.1666666666667</ele><time>2026-03-26T14:20:27Z</time></trkpt><trkpt lat="44.5636031556718" lon="2.701484538151197"><ele>359.0</ele><time>2026-03-26T14:20:27.999Z</time></trkpt><trkpt lat="44.563648841811684" lon="2.701551892789587"><ele>359.0</ele><time>2026-03-26T14:20:28.999Z</time></trkpt><trkpt lat="44.563696923560386" lon="2.701628739931791"><ele>359.0</ele><time>2026-03-26T14:20:29.999Z</time></trkpt><trkpt lat="44.56374173953232" lon="2.7017068263565425"><ele>359.0</ele><time>2026-03-26T14:20:30.999Z</time></trkpt><trkpt lat="44.56378721312758" lon="2.7017789364014977"><ele>359.0</ele><time>2026-03-26T14:20:31.999Z</time></trkpt><trkpt lat="44.56386184983002" lon="2.7019053643673057"><ele>359.0</ele><time>2026-03-26T14:20:33.999Z</time></trkpt><trkpt lat="44.56396186024327" lon="2.701999251041488"><ele>361.0</ele><time>2026-03-26T14:20:35.999Z</time></trkpt><trkpt lat="44.56415365301173" lon="2.702022211438234"><ele>363.0</ele><time>2026-03-26T14:20:37.999Z</time></trkpt><trkpt lat="44.56423815824526" lon="2.702021222429179"><ele>365.0</ele><time>2026-03-26T14:20:38.999Z</time></trkpt><trkpt lat="44.56432970348816" lon="2.70202837804052"><ele>367.0</ele><time>2026-03-26T14:20:39.999Z</time></trkpt><trkpt lat="44.5644211180464" lon="2.702057142232356"><ele>367.0</ele><time>2026-03-26T14:20:40.999Z</time></trkpt><trkpt lat="44.5645383200055" lon="2.702093348342772"><ele>367.0</ele><time>2026-03-26T14:20:42.001Z</time></trkpt><trkpt lat="44.56464002614042" lon="2.702134913734407"><ele>367.0</ele><time>2026-03-26T14:20:43.001Z</time></trkpt><trkpt lat="44.56470466174434" lon="2.7021627555340557"><ele>367.0</ele><time>2026-03-26T14:20:44.001Z</time></trkpt><trkpt lat="44.564767355770854" lon="2.7021952139885146"><ele>367.0</ele><time>2026-03-26T14:20:45.001Z</time></trkpt><trkpt lat="44.56484678768675" lon="2.702205721193779"><ele>367.0</ele><time>2026-03-26T14:20:46.001Z</time></trkpt><trkpt lat="44.56493454636243" lon="2.7022199213739784"><ele>367.0</ele><time>2026-03-26T14:20:47.001Z</time></trkpt><trkpt lat="44.56501261002452" lon="2.7022228382696425"><ele>367.0</ele><time>2026-03-26T14:20:48.001Z</time></trkpt><trkpt lat="44.565124087712455" lon="2.7022256873138417"><ele>367.0</ele><time>2026-03-26T14:20:50.001Z</time></trkpt><trkpt lat="44.565200383256204" lon="2.702185810913387"><ele>367.0</ele><time>2026-03-26T14:20:52.001Z</time></trkpt><trkpt lat="44.565274311632955" lon="2.702230034889343"><ele>367.0</ele><time>2026-03-26T14:21:05Z</time></trkpt><trkpt lat="44.56517306493712" lon="2.7022178078287498"><ele>367.0</ele><time>2026-03-26T14:21:12Z</time></trkpt><trkpt lat="44.565095794547055" lon="2.702230757636667"><ele>367.0</ele><time>2026-03-26T14:21:14Z</time></trkpt><trkpt lat="44.564987346729325" lon="2.7021947528734764"><ele>367.0</ele><time>2026-03-26T14:21:16Z</time></trkpt><trkpt lat="44.564896467596256" lon="2.702176063487211"><ele>367.0</ele><time>2026-03-26T14:21:18Z</time></trkpt><trkpt lat="44.56477161578542" lon="2.7021728062168053"><ele>367.0</ele><time>2026-03-26T14:21:20Z</time></trkpt><trkpt lat="44.56469321481432" lon="2.702155817746456"><ele>367.0</ele><time>2026-03-26T14:21:21Z</time></trkpt><trkpt lat="44.56461288278722" lon="2.702129354767916"><ele>367.0</ele><time>2026-03-26T14:21:22Z</time></trkpt><trkpt lat="44.56453784169996" lon="2.7021007782394886"><ele>367.0</ele><time>2026-03-26T14:21:23Z</time></trkpt><trkpt lat="44.56444700956863" lon="2.702078691234345"><ele>367.0</ele><time>2026-03-26T14:21:24Z</time></trkpt><trkpt lat="44.56436521676411" lon="2.70205899030478"><ele>367.0</ele><time>2026-03-26T14:21:25Z</time></trkpt><trkpt lat="44.56429531200799" lon="2.702048317304398"><ele>367.0</ele><time>2026-03-26T14:21:26Z</time></trkpt><trkpt lat="44.56418664343155" lon="2.7020012875733257"><ele>367.0</ele><time>2026-03-26T14:21:28Z</time></trkpt><trkpt lat="44.56405833956139" lon="2.7019542455902865"><ele>367.0</ele><time>2026-03-26T14:21:30Z</time></trkpt><trkpt lat="44.56394025088949" lon="2.7019080712833814"><ele>367.0</ele><time>2026-03-26T14:21:32Z</time></trkpt><trkpt lat="44.56386347974336" lon="2.701861298084022"><ele>367.0</ele><time>2026-03-26T14:21:33Z</time></trkpt><trkpt lat="44.56378570343191" lon="2.7017382361942737"><ele>368.16666666666663</ele><time>2026-03-26T14:21:35Z</time></trkpt><trkpt lat="44.56373848590445" lon="2.7016641907865515"><ele>369.3333333333333</ele><time>2026-03-26T14:21:36Z</time></trkpt><trkpt lat="44.56367882401975" lon="2.7015552490322357"><ele>370.5</ele><time>2026-03-26T14:21:38Z</time></trkpt><trkpt lat="44.563601274262226" lon="2.7014257274175875"><ele>371.6666666666667</ele><time>2026-03-26T14:21:40Z</time></trkpt><trkpt lat="44.563536949789615" lon="2.7013367170767317"><ele>372.83333333333337</ele><time>2026-03-26T14:21:42Z</time></trkpt><trkpt lat="44.56349463173309" lon="2.7012707528124076"><ele>374.0</ele><time>2026-03-26T14:21:45Z</time></trkpt><trkpt lat="44.56344848441526" lon="2.701206904302142"><ele>374.0</ele><time>2026-03-26T14:21:57Z</time></trkpt><trkpt lat="44.56352448872243" lon="2.701298468812523"><ele>374.0</ele><time>2026-03-26T14:22:08Z</time></trkpt><trkpt lat="44.56359584706162" lon="2.7013533291502574"><ele>374.0</ele><time>2026-03-26T14:22:10Z</time></trkpt><trkpt lat="44.56366674666459" lon="2.701457821648119"><ele>374.0</ele><time>2026-03-26T14:22:12Z</time></trkpt><trkpt lat="44.563738620370714" lon="2.7015270032982612"><ele>374.0</ele><time>2026-03-26T14:22:14Z</time></trkpt><trkpt lat="44.56379523871884" lon="2.701580841403682"><ele>374.0</ele><time>2026-03-26T14:24:13Z</time></trkpt><trkpt lat="44.563858223256396" lon="2.7016341915614164"><ele>374.0</ele><time>2026-03-26T14:24:15Z</time></trkpt><trkpt lat="44.56393944481609" lon="2.7016682248603865"><ele>374.0</ele><time>2026-03-26T14:24:18Z</time></trkpt><trkpt lat="44.5640116645699" lon="2.701698551846068"><ele>374.0</ele><time>2026-03-26T14:24:20Z</time></trkpt><trkpt lat="44.564088899529814" lon="2.701726634773941"><ele>374.0</ele><time>2026-03-26T14:24:22Z</time></trkpt><trkpt lat="44.5641602015598" lon="2.701739872574393"><ele>374.0</ele><time>2026-03-26T14:24:25Z</time></trkpt><trkpt lat="44.564263921447775" lon="2.7017442494954484"><ele>374.0</ele><time>2026-03-26T14:24:29Z</time></trkpt><trkpt lat="44.56433576227969" lon="2.701739502336926"><ele>374.0</ele><time>2026-03-26T14:24:30.999Z</time></trkpt><trkpt lat="44.56442932077425" lon="2.701705913936824"><ele>374.0</ele><time>2026-03-26T14:24:33.999Z</time></trkpt><trkpt lat="44.56450743065682" lon="2.7016761247739853"><ele>374.0</ele><time>2026-03-26T14:24:36.999Z</time></trkpt><trkpt lat="44.56444821161745" lon="2.70164534581283"><ele>374.0</ele><time>2026-03-26T14:25:25Z</time></trkpt><trkpt lat="44.56439216449796" lon="2.701592954443894"><ele>374.0</ele><time>2026-03-26T14:25:27Z</time></trkpt><trkpt lat="44.56432529442428" lon="2.7015637034077065"><ele>374.0</ele><time>2026-03-26T14:25:29Z</time></trkpt><trkpt lat="44.56426852174364" lon="2.701515205705159"><ele>374.0</ele><time>2026-03-26T14:25:31Z</time></trkpt><trkpt lat="44.564219904286915" lon="2.7014319212828903"><ele>374.0</ele><time>2026-03-26T14:25:33Z</time></trkpt><trkpt lat="44.564179094911196" lon="2.7013496186092114"><ele>374.0</ele><time>2026-03-26T14:25:35Z</time></trkpt><trkpt lat="44.56412581897635" lon="2.7012488795321605"><ele>374.0</ele><time>2026-03-26T14:25:37Z</time></trkpt><trkpt lat="44.5640867604579" lon="2.7011563415713984"><ele>374.0</ele><time>2026-03-26T14:25:39Z</time></trkpt><trkpt lat="44.56403707057552" lon="2.701065161991359"><ele>374.0</ele><time>2026-03-26T14:25:41Z</time></trkpt><trkpt lat="44.564023881131014" lon="2.7009595477543535"><ele>374.0</ele><time>2026-03-26T14:25:43Z</time></trkpt><trkpt lat="44.564021927954265" lon="2.7008166286583855"><ele>378.5</ele><time>2026-03-26T14:25:45Z</time></trkpt><trkpt lat="44.56400444092852" lon="2.700718084075646"><ele>383.0</ele><time>2026-03-26T14:25:47Z</time></trkpt><trkpt lat="44.56399553016225" lon="2.700624047653503"><ele>387.5</ele><time>2026-03-26T14:25:48Z</time></trkpt><trkpt lat="44.56400333043751" lon="2.700506025418481"><ele>392.0</ele><time>2026-03-26T14:25:50Z</time></trkpt><trkpt lat="44.563984079674114" lon="2.7003750116804732"><ele>396.49999999999994</ele><time>2026-03-26T14:25:52Z</time></trkpt><trkpt lat="44.5639766004126" lon="2.700249348904381"><ele>401.0</ele><time>2026-03-26T14:25:53Z</time></trkpt><trkpt lat="44.56399299807056" lon="2.700120217136734"><ele>404.6</ele><time>2026-03-26T14:25:55Z</time></trkpt><trkpt lat="44.563993715295304" lon="2.6999830800636695"><ele>408.20000000000005</ele><time>2026-03-26T14:25:57Z</time></trkpt><trkpt lat="44.5639774699209" lon="2.6998726955201167"><ele>411.79999999999995</ele><time>2026-03-26T14:26:04Z</time></trkpt><trkpt lat="44.563982769360685" lon="2.6997402862568127"><ele>415.4</ele><time>2026-03-26T14:26:06Z</time></trkpt><trkpt lat="44.56399103558675" lon="2.6995964529529726"><ele>419.0</ele><time>2026-03-26T14:26:08Z</time></trkpt><trkpt lat="44.563963757611674" lon="2.699459287526501"><ele>421.16666666666663</ele><time>2026-03-26T14:26:10Z</time></trkpt><trkpt lat="44.56389929459182" lon="2.6993111023757543"><ele>423.3333333333333</ele><time>2026-03-26T14:26:13Z</time></trkpt><trkpt lat="44.56387394787665" lon="2.6992154953468597"><ele>425.5</ele><time>2026-03-26T14:26:14Z</time></trkpt><trkpt lat="44.563836904477995" lon="2.699119902640518"><ele>427.66666666666663</ele><time>2026-03-26T14:26:15Z</time></trkpt><trkpt lat="44.56382646058045" lon="2.699022359896979"><ele>429.8333333333333</ele><time>2026-03-26T14:26:16Z</time></trkpt><trkpt lat="44.563797946693064" lon="2.6989067569829315"><ele>432.0</ele><time>2026-03-26T14:26:17Z</time></trkpt><trkpt lat="44.56378218300747" lon="2.698810028461098"><ele>432.0</ele><time>2026-03-26T14:26:18Z</time></trkpt><trkpt lat="44.563765270377196" lon="2.6987014704663315"><ele>432.0</ele><time>2026-03-26T14:26:21Z</time></trkpt><trkpt lat="44.56376463513179" lon="2.6986050819248457"><ele>432.0</ele><time>2026-03-26T14:26:23Z</time></trkpt><trkpt lat="44.56376351645438" lon="2.698493471315115"><ele>432.0</ele><time>2026-03-26T14:26:26Z</time></trkpt><trkpt lat="44.56377512659827" lon="2.698399333679913"><ele>432.0</ele><time>2026-03-26T14:26:28Z</time></trkpt><trkpt lat="44.5638213364595" lon="2.698464666565533"><ele>432.0</ele><time>2026-03-26T14:26:33Z</time></trkpt><trkpt lat="44.56384321801286" lon="2.6985479531422167"><ele>432.0</ele><time>2026-03-26T14:26:34Z</time></trkpt><trkpt lat="44.56386968865103" lon="2.698653058913011"><ele>432.0</ele><time>2026-03-26T14:26:34.999Z</time></trkpt><trkpt lat="44.56393725601448" lon="2.6987857833052926"><ele>432.00000000000006</ele><time>2026-03-26T14:26:36.999Z</time></trkpt><trkpt lat="44.56400827963658" lon="2.6988633082293823"><ele>432.00000000000006</ele><time>2026-03-26T14:26:37.999Z</time></trkpt><trkpt lat="44.564050811943815" lon="2.6989355937295816"><ele>432.0</ele><time>2026-03-26T14:26:38.999Z</time></trkpt><trkpt lat="44.56415678935143" lon="2.6990459416137185"><ele>432.0</ele><time>2026-03-26T14:26:40.999Z</time></trkpt><trkpt lat="44.56421635479152" lon="2.6991364264325965"><ele>432.0</ele><time>2026-03-26T14:26:41.999Z</time></trkpt><trkpt lat="44.56428253356876" lon="2.6992288174279992"><ele>432.00000000000006</ele><time>2026-03-26T14:26:42.999Z</time></trkpt><trkpt lat="44.564348496505346" lon="2.6993319010108805"><ele>432.00000000000006</ele><time>2026-03-26T14:26:43.999Z</time></trkpt><trkpt lat="44.56441278948037" lon="2.6994435800748176"><ele>432.0</ele><time>2026-03-26T14:26:44.999Z</time></trkpt><trkpt lat="44.56448387140515" lon="2.6995344635938423"><ele>432.0</ele><time>2026-03-26T14:26:45.999Z</time></trkpt><trkpt lat="44.564588369482436" lon="2.6996198816902495"><ele>435.6</ele><time>2026-03-26T14:26:46.999Z</time></trkpt><trkpt lat="44.56468554763929" lon="2.6997422609449204"><ele>439.20000000000005</ele><time>2026-03-26T14:26:47.999Z</time></trkpt><trkpt lat="44.56476052332919" lon="2.6998831960172835"><ele>442.8</ele><time>2026-03-26T14:26:48.999Z</time></trkpt><trkpt lat="44.56480828712797" lon="2.699978956860757"><ele>446.4</ele><time>2026-03-26T14:26:49.999Z</time></trkpt><trkpt lat="44.56486450937004" lon="2.7000583490421692"><ele>450.0</ele><time>2026-03-26T14:26:50.999Z</time></trkpt><trkpt lat="44.564978469189626" lon="2.7001112977203747"><ele>450.0</ele><time>2026-03-26T14:26:52.999Z</time></trkpt><trkpt lat="44.56505113019008" lon="2.7000938994057133"><ele>450.0</ele><time>2026-03-26T14:26:53.999Z</time></trkpt><trkpt lat="44.56512130184763" lon="2.7000463881468533"><ele>450.0</ele><time>2026-03-26T14:26:54.999Z</time></trkpt><trkpt lat="44.56515770282557" lon="2.6999670443827295"><ele>450.0</ele><time>2026-03-26T14:26:55.999Z</time></trkpt><trkpt lat="44.56517419140812" lon="2.6998682359650243"><ele>450.0</ele><time>2026-03-26T14:26:56.999Z</time></trkpt><trkpt lat="44.56513655423678" lon="2.6996972727213993"><ele>450.0</ele><time>2026-03-26T14:26:58.999Z</time></trkpt><trkpt lat="44.56511356669068" lon="2.699555940556881"><ele>455.25</ele><time>2026-03-26T14:27:00.001Z</time></trkpt><trkpt lat="44.56509226647536" lon="2.699414450865592"><ele>460.5</ele><time>2026-03-26T14:27:01.001Z</time></trkpt><trkpt lat="44.56506628107932" lon="2.6992502381126244"><ele>465.75</ele><time>2026-03-26T14:27:02.001Z</time></trkpt><trkpt lat="44.56502363229276" lon="2.699048268112763"><ele>471.0</ele><time>2026-03-26T14:27:03.001Z</time></trkpt><trkpt lat="44.56497013469958" lon="2.698839072275541"><ele>471.0</ele><time>2026-03-26T14:27:04.001Z</time></trkpt><trkpt lat="44.56491551735356" lon="2.698627802568223"><ele>471.0</ele><time>2026-03-26T14:27:05.001Z</time></trkpt><trkpt lat="44.56488023673509" lon="2.698450765756205"><ele>471.0</ele><time>2026-03-26T14:27:06.001Z</time></trkpt><trkpt lat="44.56482378431252" lon="2.6982771093081364"><ele>471.0</ele><time>2026-03-26T14:27:07.001Z</time></trkpt><trkpt lat="44.564775048810795" lon="2.6981019667019117"><ele>473.5</ele><time>2026-03-26T14:27:08.001Z</time></trkpt><trkpt lat="44.564753206337414" lon="2.6980088524511876"><ele>476.0</ele><time>2026-03-26T14:27:09.001Z</time></trkpt><trkpt lat="44.564738866775684" lon="2.6978778806849393"><ele>478.5</ele><time>2026-03-26T14:27:10.001Z</time></trkpt><trkpt lat="44.564746622737005" lon="2.697746858651011"><ele>481.0</ele><time>2026-03-26T14:27:11.001Z</time></trkpt><trkpt lat="44.56478793391921" lon="2.697624602277417"><ele>483.5</ele><time>2026-03-26T14:27:12.001Z</time></trkpt><trkpt lat="44.56482632801924" lon="2.697527197274364"><ele>486.0</ele><time>2026-03-26T14:27:13.001Z</time></trkpt><trkpt lat="44.56491340026306" lon="2.697371760572497"><ele>486.8</ele><time>2026-03-26T14:27:14.001Z</time></trkpt><trkpt lat="44.564990343802116" lon="2.6972380416739155"><ele>487.6</ele><time>2026-03-26T14:27:15.001Z</time></trkpt><trkpt lat="44.565044188472896" lon="2.697093951792993"><ele>488.4</ele><time>2026-03-26T14:27:16Z</time></trkpt><trkpt lat="44.565061534509404" lon="2.6969858878151713"><ele>489.2</ele><time>2026-03-26T14:27:17Z</time></trkpt><trkpt lat="44.56504650778312" lon="2.6968472410063526"><ele>490.0</ele><time>2026-03-26T14:27:18Z</time></trkpt><trkpt lat="44.565023061852784" lon="2.6966942874191973"><ele>491.25</ele><time>2026-03-26T14:27:19Z</time></trkpt><trkpt lat="44.56501025260305" lon="2.6965364725070193"><ele>492.5</ele><time>2026-03-26T14:27:20Z</time></trkpt><trkpt lat="44.56501712455723" lon="2.6963592440884447"><ele>493.75</ele><time>2026-03-26T14:27:21Z</time></trkpt><trkpt lat="44.56502821558402" lon="2.6961560866157046"><ele>495.0</ele><time>2026-03-26T14:27:22Z</time></trkpt><trkpt lat="44.56505862865932" lon="2.6959735574284225"><ele>495.25</ele><time>2026-03-26T14:27:23Z</time></trkpt><trkpt lat="44.565064758236915" lon="2.695828880980793"><ele>495.5</ele><time>2026-03-26T14:27:24Z</time></trkpt><trkpt lat="44.56507220657959" lon="2.6956967404096006"><ele>495.75</ele><time>2026-03-26T14:27:26Z</time></trkpt><trkpt lat="44.56516606472899" lon="2.6957273999903735"><ele>496.0</ele><time>2026-03-26T14:27:29Z</time></trkpt><trkpt lat="44.56522582515163" lon="2.6959575186946005"><ele>496.0</ele><time>2026-03-26T14:27:32Z</time></trkpt><trkpt lat="44.56530417428001" lon="2.696052373442064"><ele>496.0</ele><time>2026-03-26T14:27:33Z</time></trkpt><trkpt lat="44.565372917942554" lon="2.6961790189903496"><ele>496.0</ele><time>2026-03-26T14:27:34Z</time></trkpt><trkpt lat="44.565449275330884" lon="2.6963079085705304"><ele>496.0</ele><time>2026-03-26T14:27:35Z</time></trkpt><trkpt lat="44.565519331202246" lon="2.696427930417938"><ele>496.0</ele><time>2026-03-26T14:27:36Z</time></trkpt><trkpt lat="44.56559307120706" lon="2.696534204416605"><ele>500.0</ele><time>2026-03-26T14:27:37Z</time></trkpt><trkpt lat="44.56566584811371" lon="2.6966372776439504"><ele>504.0</ele><time>2026-03-26T14:27:38Z</time></trkpt><trkpt lat="44.565736824918" lon="2.696733848677115"><ele>508.0</ele><time>2026-03-26T14:27:39Z</time></trkpt><trkpt lat="44.56581156488087" lon="2.6968304008103874"><ele>512.0</ele><time>2026-03-26T14:27:40Z</time></trkpt><trkpt lat="44.565886846240424" lon="2.6969361681043704"><ele>516.0</ele><time>2026-03-26T14:27:41Z</time></trkpt><trkpt lat="44.565954340588476" lon="2.697062167217289"><ele>516.0</ele><time>2026-03-26T14:27:42Z</time></trkpt><trkpt lat="44.5660189558254" lon="2.6971874556014925"><ele>516.0</ele><time>2026-03-26T14:27:43Z</time></trkpt><trkpt lat="44.56608326174757" lon="2.697269805894192"><ele>516.0</ele><time>2026-03-26T14:27:44Z</time></trkpt><trkpt lat="44.56617327252558" lon="2.697271063955743"><ele>516.0</ele><time>2026-03-26T14:27:46Z</time></trkpt><trkpt lat="44.56629512069437" lon="2.6972443194677505"><ele>516.0</ele><time>2026-03-26T14:27:48Z</time></trkpt><trkpt lat="44.56637598172707" lon="2.6972118435949857"><ele>520.0</ele><time>2026-03-26T14:27:49Z</time></trkpt><trkpt lat="44.56648693931381" lon="2.69717035796935"><ele>524.0</ele><time>2026-03-26T14:27:50Z</time></trkpt><trkpt lat="44.566607932038224" lon="2.6971236422612543"><ele>528.0</ele><time>2026-03-26T14:27:51Z</time></trkpt><trkpt lat="44.566812174768884" lon="2.6970335394581233"><ele>528.0</ele><time>2026-03-26T14:27:52Z</time></trkpt><trkpt lat="44.566955900227136" lon="2.696948619308582"><ele>528.0</ele><time>2026-03-26T14:27:53Z</time></trkpt><trkpt lat="44.56709148004576" lon="2.6968639439331543"><ele>528.0</ele><time>2026-03-26T14:27:54Z</time></trkpt><trkpt lat="44.56720029900373" lon="2.696785547822093"><ele>528.0</ele><time>2026-03-26T14:27:55Z</time></trkpt><trkpt lat="44.56730039286568" lon="2.6966795021015892"><ele>530.0</ele><time>2026-03-26T14:27:56Z</time></trkpt><trkpt lat="44.567410252953565" lon="2.696576207102391"><ele>532.0</ele><time>2026-03-26T14:27:57Z</time></trkpt><trkpt lat="44.567529205267775" lon="2.6964836098677667"><ele>534.0</ele><time>2026-03-26T14:27:58Z</time></trkpt><trkpt lat="44.56765147354137" lon="2.696391841383193"><ele>536.0</ele><time>2026-03-26T14:27:59Z</time></trkpt><trkpt lat="44.56776719222741" lon="2.69629340271942"><ele>536.75</ele><time>2026-03-26T14:28:00Z</time></trkpt><trkpt lat="44.56788082932035" lon="2.69618773100812"><ele>537.5</ele><time>2026-03-26T14:28:01Z</time></trkpt><trkpt lat="44.56799096083723" lon="2.696096358955106"><ele>538.25</ele><time>2026-03-26T14:28:02Z</time></trkpt><trkpt lat="44.568100628784634" lon="2.6960236147595302"><ele>539.0</ele><time>2026-03-26T14:28:03Z</time></trkpt><trkpt lat="44.56819902912609" lon="2.695950114667173"><ele>540.25</ele><time>2026-03-26T14:28:04Z</time></trkpt><trkpt lat="44.568300938031115" lon="2.695865780486272"><ele>541.5</ele><time>2026-03-26T14:28:05Z</time></trkpt><trkpt lat="44.568396188778905" lon="2.695783575831144"><ele>542.75</ele><time>2026-03-26T14:28:06Z</time></trkpt><trkpt lat="44.568487275326945" lon="2.6957042496533328"><ele>544.0</ele><time>2026-03-26T14:28:07Z</time></trkpt><trkpt lat="44.568583303031126" lon="2.6956197865287317"><ele>544.0</ele><time>2026-03-26T14:28:08Z</time></trkpt><trkpt lat="44.568688438177496" lon="2.6955200296824313"><ele>544.0</ele><time>2026-03-26T14:28:09Z</time></trkpt><trkpt lat="44.56879424799765" lon="2.695416788772606"><ele>544.0</ele><time>2026-03-26T14:28:10Z</time></trkpt><trkpt lat="44.56890361036479" lon="2.6953245458298944"><ele>544.0</ele><time>2026-03-26T14:28:11Z</time></trkpt><trkpt lat="44.56900881790026" lon="2.6952283077839216"><ele>545.75</ele><time>2026-03-26T14:28:12Z</time></trkpt><trkpt lat="44.56911361743866" lon="2.6951308033479697"><ele>547.5</ele><time>2026-03-26T14:28:13Z</time></trkpt><trkpt lat="44.56921881671579" lon="2.6950367865177345"><ele>549.25</ele><time>2026-03-26T14:28:14Z</time></trkpt><trkpt lat="44.569334813909634" lon="2.6949543215352336"><ele>551.0</ele><time>2026-03-26T14:28:15Z</time></trkpt><trkpt lat="44.56945184352773" lon="2.6948906943156192"><ele>551.75</ele><time>2026-03-26T14:28:16Z</time></trkpt><trkpt lat="44.56958236943087" lon="2.6948430461701784"><ele>552.5</ele><time>2026-03-26T14:28:17Z</time></trkpt><trkpt lat="44.56970375749878" lon="2.694815561573495"><ele>553.25</ele><time>2026-03-26T14:28:18Z</time></trkpt><trkpt lat="44.56984434052468" lon="2.694800671205513"><ele>554.0</ele><time>2026-03-26T14:28:19Z</time></trkpt><trkpt lat="44.5699897418361" lon="2.6947754820263365"><ele>554.0</ele><time>2026-03-26T14:28:20Z</time></trkpt><trkpt lat="44.570134448674594" lon="2.6947407562147063"><ele>554.0</ele><time>2026-03-26T14:28:21Z</time></trkpt><trkpt lat="44.57026598656813" lon="2.6946982629899674"><ele>554.0</ele><time>2026-03-26T14:28:22Z</time></trkpt><trkpt lat="44.570385283873684" lon="2.6946667302218725"><ele>554.0</ele><time>2026-03-26T14:28:23Z</time></trkpt><trkpt lat="44.57048573598092" lon="2.694640530786692"><ele>555.0</ele><time>2026-03-26T14:28:24Z</time></trkpt><trkpt lat="44.57056473965136" lon="2.6946427415292273"><ele>556.0</ele><time>2026-03-26T14:28:25Z</time></trkpt><trkpt lat="44.570627087347354" lon="2.6946849534356474"><ele>557.0</ele><time>2026-03-26T14:28:26Z</time></trkpt><trkpt lat="44.57069587025673" lon="2.694756070284958"><ele>558.0</ele><time>2026-03-26T14:28:27Z</time></trkpt><trkpt lat="44.57075916168406" lon="2.694874491803694"><ele>559.0</ele><time>2026-03-26T14:28:28Z</time></trkpt><trkpt lat="44.57083190299881" lon="2.694944655371707"><ele>560.0</ele><time>2026-03-26T14:28:29Z</time></trkpt><trkpt lat="44.5709188762015" lon="2.694978188068734"><ele>560.0</ele><time>2026-03-26T14:28:30Z</time></trkpt><trkpt lat="44.57102446247038" lon="2.695010020364995"><ele>560.0</ele><time>2026-03-26T14:28:31Z</time></trkpt><trkpt lat="44.5711529699954" lon="2.6950371773885706"><ele>560.0</ele><time>2026-03-26T14:28:32Z</time></trkpt><trkpt lat="44.571301724867325" lon="2.695053828238111"><ele>560.0</ele><time>2026-03-26T14:28:33Z</time></trkpt><trkpt lat="44.5714632677385" lon="2.6950702892740774"><ele>562.3333333333333</ele><time>2026-03-26T14:28:34Z</time></trkpt><trkpt lat="44.57166172715549" lon="2.695090236121626"><ele>564.6666666666666</ele><time>2026-03-26T14:28:34.999Z</time></trkpt><trkpt lat="44.57183359043238" lon="2.6951075739532406"><ele>567.0</ele><time>2026-03-26T14:28:35.999Z</time></trkpt><trkpt lat="44.5719963802298" lon="2.695104183176199"><ele>569.3333333333334</ele><time>2026-03-26T14:28:36.999Z</time></trkpt><trkpt lat="44.572175517906516" lon="2.6950868163280948"><ele>571.6666666666667</ele><time>2026-03-26T14:28:37.999Z</time></trkpt><trkpt lat="44.57235456751253" lon="2.6950651636055127"><ele>574.0</ele><time>2026-03-26T14:28:38.999Z</time></trkpt><trkpt lat="44.572500627154994" lon="2.695046913919311"><ele>574.0</ele><time>2026-03-26T14:28:39.999Z</time></trkpt><trkpt lat="44.57263324547887" lon="2.695032413635551"><ele>574.0</ele><time>2026-03-26T14:28:40.999Z</time></trkpt><trkpt lat="44.57273774705176" lon="2.6950187469679268"><ele>574.0</ele><time>2026-03-26T14:28:41.999Z</time></trkpt><trkpt lat="44.57283130909319" lon="2.6950059651231646"><ele>574.0</ele><time>2026-03-26T14:28:42.999Z</time></trkpt><trkpt lat="44.57293638794457" lon="2.6949802005308543"><ele>574.0</ele><time>2026-03-26T14:28:43.999Z</time></trkpt><trkpt lat="44.57304880406157" lon="2.6949326206460653"><ele>575.75</ele><time>2026-03-26T14:28:44.999Z</time></trkpt><trkpt lat="44.5731618172924" lon="2.6948569593722325"><ele>577.5</ele><time>2026-03-26T14:28:45.999Z</time></trkpt><trkpt lat="44.57328460401022" lon="2.694779942261965"><ele>579.25</ele><time>2026-03-26T14:28:46.999Z</time></trkpt><trkpt lat="44.57342124316949" lon="2.694727191323142"><ele>581.0</ele><time>2026-03-26T14:28:47.999Z</time></trkpt><trkpt lat="44.573573620059086" lon="2.694694738283238"><ele>584.0</ele><time>2026-03-26T14:28:48.999Z</time></trkpt><trkpt lat="44.573744709509974" lon="2.6946585305570605"><ele>587.0</ele><time>2026-03-26T14:28:49.999Z</time></trkpt><trkpt lat="44.57390255721591" lon="2.6946181085463587"><ele>590.0</ele><time>2026-03-26T14:28:50.999Z</time></trkpt><trkpt lat="44.57404392251225" lon="2.6945806194263366"><ele>590.0</ele><time>2026-03-26T14:28:51.999Z</time></trkpt><trkpt lat="44.574170238006865" lon="2.6945471213583025"><ele>590.0</ele><time>2026-03-26T14:28:52.999Z</time></trkpt><trkpt lat="44.57427211440142" lon="2.6945118676357604"><ele>590.0</ele><time>2026-03-26T14:28:53.999Z</time></trkpt><trkpt lat="44.574366102329165" lon="2.6944561174299433"><ele>590.0</ele><time>2026-03-26T14:28:54.999Z</time></trkpt><trkpt lat="44.57445453621297" lon="2.694370060932414"><ele>590.0</ele><time>2026-03-26T14:28:55.999Z</time></trkpt><trkpt lat="44.57455532663646" lon="2.6942499220147265"><ele>592.5</ele><time>2026-03-26T14:28:56.999Z</time></trkpt><trkpt lat="44.574652394437784" lon="2.694127461272214"><ele>595.0</ele><time>2026-03-26T14:28:57.999Z</time></trkpt><trkpt lat="44.57474810721084" lon="2.6939933497878723"><ele>597.5</ele><time>2026-03-26T14:28:58.999Z</time></trkpt><trkpt lat="44.57483874775617" lon="2.693884545904707"><ele>600.0</ele><time>2026-03-26T14:28:59.999Z</time></trkpt><trkpt lat="44.574905116905164" lon="2.693806388084816"><ele>599.9999999999999</ele><time>2026-03-26T14:29:00.999Z</time></trkpt><trkpt lat="44.57495430774288" lon="2.693750235392591"><ele>600.0</ele><time>2026-03-26T14:29:01.999Z</time></trkpt><trkpt lat="44.57501110441381" lon="2.6936854029371866"><ele>600.0</ele><time>2026-03-26T14:29:03.999Z</time></trkpt><trkpt lat="44.5750705056488" lon="2.693716558335243"><ele>600.0</ele><time>2026-03-26T14:29:04.999Z</time></trkpt><trkpt lat="44.57513059843681" lon="2.693760351900223"><ele>600.0</ele><time>2026-03-26T14:29:06Z</time></trkpt><trkpt lat="44.57519996091366" lon="2.693803067873303"><ele>599.9999999999999</ele><time>2026-03-26T14:29:07Z</time></trkpt><trkpt lat="44.57528529278696" lon="2.6938278308527583"><ele>600.0</ele><time>2026-03-26T14:29:08Z</time></trkpt><trkpt lat="44.575370103917415" lon="2.693837943977727"><ele>600.8333333333334</ele><time>2026-03-26T14:29:09Z</time></trkpt><trkpt lat="44.57543678067811" lon="2.6939526336509854"><ele>601.6666666666666</ele><time>2026-03-26T14:29:10Z</time></trkpt><trkpt lat="44.575501443653856" lon="2.694004781335879"><ele>602.5</ele><time>2026-03-26T14:29:11Z</time></trkpt><trkpt lat="44.575561236740974" lon="2.6940354242498823"><ele>603.3333333333333</ele><time>2026-03-26T14:29:12Z</time></trkpt><trkpt lat="44.57563601273769" lon="2.694036914398586"><ele>604.1666666666666</ele><time>2026-03-26T14:29:13Z</time></trkpt><trkpt lat="44.57570899768882" lon="2.694028102073977"><ele>605.0</ele><time>2026-03-26T14:29:14Z</time></trkpt><trkpt lat="44.57576988532962" lon="2.6939916366188363"><ele>605.0</ele><time>2026-03-26T14:29:15Z</time></trkpt><trkpt lat="44.575801674924996" lon="2.6938898470783497"><ele>605.0</ele><time>2026-03-26T14:29:17Z</time></trkpt><trkpt lat="44.57579879477604" lon="2.6937650383784275"><ele>605.0</ele><time>2026-03-26T14:29:45Z</time></trkpt><trkpt lat="44.57580789137315" lon="2.6936658691057933"><ele>605.0</ele><time>2026-03-26T14:29:49Z</time></trkpt><trkpt lat="44.57583548543666" lon="2.6935582148642965"><ele>605.0</ele><time>2026-03-26T14:29:55Z</time></trkpt><trkpt lat="44.57587876772362" lon="2.693473467793554"><ele>605.0</ele><time>2026-03-26T14:29:57Z</time></trkpt><trkpt lat="44.57591518794006" lon="2.6933967651359594"><ele>605.0</ele><time>2026-03-26T14:29:59Z</time></trkpt><trkpt lat="44.575929110758" lon="2.6934831932969066"><ele>605.0</ele><time>2026-03-26T14:30:43.999Z</time></trkpt><trkpt lat="44.575965950766474" lon="2.6935568992795718"><ele>605.0</ele><time>2026-03-26T14:31:25Z</time></trkpt><trkpt lat="44.57597594256649" lon="2.693725930860969"><ele>605.0</ele><time>2026-03-26T14:31:27Z</time></trkpt><trkpt lat="44.575967511449754" lon="2.6938945807502317"><ele>605.0</ele><time>2026-03-26T14:31:29Z</time></trkpt><trkpt lat="44.575793085553585" lon="2.693900452237812"><ele>605.0</ele><time>2026-03-26T14:31:30Z</time></trkpt><trkpt lat="44.575773646625265" lon="2.694007468724771"><ele>605.0</ele><time>2026-03-26T14:31:33Z</time></trkpt><trkpt lat="44.575970337048204" lon="2.6938139400366903"><ele>605.0</ele><time>2026-03-26T14:31:58Z</time></trkpt><trkpt lat="44.57597001201483" lon="2.693696256903806"><ele>605.0</ele><time>2026-03-26T14:32:00Z</time></trkpt><trkpt lat="44.57597139614029" lon="2.6935721871179266"><ele>604.6666666666666</ele><time>2026-03-26T14:32:03Z</time></trkpt><trkpt lat="44.575967682656355" lon="2.6934419962118277"><ele>604.3333333333333</ele><time>2026-03-26T14:32:30Z</time></trkpt><trkpt lat="44.57594731867627" lon="2.69330074699039"><ele>604.0</ele><time>2026-03-26T14:32:32Z</time></trkpt><trkpt lat="44.57594071731581" lon="2.6932126220681956"><ele>603.6666666666666</ele><time>2026-03-26T14:32:33Z</time></trkpt><trkpt lat="44.575935728109314" lon="2.693114541860487"><ele>603.3333333333334</ele><time>2026-03-26T14:32:34Z</time></trkpt><trkpt lat="44.57593389022357" lon="2.6930143004084797"><ele>603.0</ele><time>2026-03-26T14:32:35Z</time></trkpt><trkpt lat="44.57593055109453" lon="2.6929015162346124"><ele>603.0</ele><time>2026-03-26T14:32:36Z</time></trkpt><trkpt lat="44.57593034613451" lon="2.6927864189619295"><ele>603.0</ele><time>2026-03-26T14:32:37Z</time></trkpt><trkpt lat="44.575935633933966" lon="2.692663346413915"><ele>603.0</ele><time>2026-03-26T14:32:38Z</time></trkpt><trkpt lat="44.57593274948951" lon="2.692541528044178"><ele>603.0</ele><time>2026-03-26T14:32:39Z</time></trkpt><trkpt lat="44.57593300854631" lon="2.6924306670458615"><ele>603.0</ele><time>2026-03-26T14:32:40Z</time></trkpt><trkpt lat="44.57593152197654" lon="2.6923371720163303"><ele>603.0</ele><time>2026-03-26T14:32:41Z</time></trkpt><trkpt lat="44.57592914580992" lon="2.692246433884597"><ele>602.6666666666666</ele><time>2026-03-26T14:32:41.999Z</time></trkpt><trkpt lat="44.57592300822712" lon="2.6921388366028696"><ele>602.3333333333334</ele><time>2026-03-26T14:32:42.999Z</time></trkpt><trkpt lat="44.5759115317541" lon="2.692031479061273"><ele>602.0</ele><time>2026-03-26T14:32:43.999Z</time></trkpt><trkpt lat="44.57589943456304" lon="2.6919214221697905"><ele>601.6666666666667</ele><time>2026-03-26T14:32:44.999Z</time></trkpt><trkpt lat="44.57589721764612" lon="2.6917946985890504"><ele>601.3333333333334</ele><time>2026-03-26T14:32:45.999Z</time></trkpt><trkpt lat="44.57589715354307" lon="2.6916510364499966"><ele>601.0</ele><time>2026-03-26T14:32:46.999Z</time></trkpt><trkpt lat="44.57588133333729" lon="2.691491907151807"><ele>600.2</ele><time>2026-03-26T14:32:47.999Z</time></trkpt><trkpt lat="44.575853979994235" lon="2.6913476277240944"><ele>599.4000000000001</ele><time>2026-03-26T14:32:48.999Z</time></trkpt><trkpt lat="44.57582573704911" lon="2.6912348484798145"><ele>598.6</ele><time>2026-03-26T14:32:49.999Z</time></trkpt><trkpt lat="44.57580256511471" lon="2.6910991344226844"><ele>597.8000000000001</ele><time>2026-03-26T14:32:51.999Z</time></trkpt><trkpt lat="44.57581123767311" lon="2.691010088001819"><ele>597.0</ele><time>2026-03-26T14:32:54.999Z</time></trkpt><trkpt lat="44.57591722463654" lon="2.691046148235698"><ele>597.0</ele><time>2026-03-26T14:32:55.999Z</time></trkpt><trkpt lat="44.57597694053045" lon="2.6911224404370424"><ele>597.0</ele><time>2026-03-26T14:32:58.999Z</time></trkpt><trkpt lat="44.5761006605365" lon="2.691204025272664"><ele>597.0</ele><time>2026-03-26T14:33:00.999Z</time></trkpt><trkpt lat="44.576170530596976" lon="2.6912654328552956"><ele>597.0</ele><time>2026-03-26T14:33:01.999Z</time></trkpt><trkpt lat="44.576242891068894" lon="2.6913545274887185"><ele>597.0</ele><time>2026-03-26T14:33:02.999Z</time></trkpt><trkpt lat="44.57631736546274" lon="2.6914594975135935"><ele>596.75</ele><time>2026-03-26T14:33:03.999Z</time></trkpt><trkpt lat="44.576395683778976" lon="2.691568746247968"><ele>596.5</ele><time>2026-03-26T14:33:04.999Z</time></trkpt><trkpt lat="44.57647169925747" lon="2.691699613568472"><ele>596.25</ele><time>2026-03-26T14:33:05.999Z</time></trkpt><trkpt lat="44.57653726176056" lon="2.69184381907031"><ele>596.0</ele><time>2026-03-26T14:33:06.999Z</time></trkpt><trkpt lat="44.57658487706243" lon="2.6920117656673237"><ele>596.0</ele><time>2026-03-26T14:33:07.999Z</time></trkpt><trkpt lat="44.57661857336066" lon="2.692186571411395"><ele>596.0</ele><time>2026-03-26T14:33:08.999Z</time></trkpt><trkpt lat="44.576650610435685" lon="2.6923737665763388"><ele>596.0</ele><time>2026-03-26T14:33:09.999Z</time></trkpt><trkpt lat="44.576693144623036" lon="2.6925480523162735"><ele>596.0</ele><time>2026-03-26T14:33:10.999Z</time></trkpt><trkpt lat="44.5767648262698" lon="2.692690046716582"><ele>596.0</ele><time>2026-03-26T14:33:11.999Z</time></trkpt><trkpt lat="44.576864476594295" lon="2.692801386644622"><ele>596.0</ele><time>2026-03-26T14:33:12.999Z</time></trkpt><trkpt lat="44.576978908321514" lon="2.692880466259562"><ele>596.0</ele><time>2026-03-26T14:33:13.999Z</time></trkpt><trkpt lat="44.57709931280316" lon="2.6929199707305056"><ele>596.0</ele><time>2026-03-26T14:33:14.999Z</time></trkpt><trkpt lat="44.577220745124954" lon="2.6929160719653833"><ele>596.0</ele><time>2026-03-26T14:33:15.999Z</time></trkpt><trkpt lat="44.57734419430545" lon="2.692880377576648"><ele>596.0</ele><time>2026-03-26T14:33:16.999Z</time></trkpt><trkpt lat="44.57746045797911" lon="2.6928686919818863"><ele>596.0</ele><time>2026-03-26T14:33:18Z</time></trkpt><trkpt lat="44.57756513553361" lon="2.692895302139714"><ele>596.0</ele><time>2026-03-26T14:33:19Z</time></trkpt><trkpt lat="44.57776294285747" lon="2.6930371766559733"><ele>593.75</ele><time>2026-03-26T14:33:21Z</time></trkpt><trkpt lat="44.57786180826133" lon="2.693135213467302"><ele>591.5</ele><time>2026-03-26T14:33:22Z</time></trkpt><trkpt lat="44.577959015394455" lon="2.693230750542432"><ele>589.25</ele><time>2026-03-26T14:33:23Z</time></trkpt><trkpt lat="44.57806421608411" lon="2.693334254076587"><ele>587.0</ele><time>2026-03-26T14:33:24Z</time></trkpt><trkpt lat="44.57815926971835" lon="2.6934511870570197"><ele>587.0</ele><time>2026-03-26T14:33:25Z</time></trkpt><trkpt lat="44.57824225403021" lon="2.693577594785597"><ele>587.0</ele><time>2026-03-26T14:33:26Z</time></trkpt><trkpt lat="44.57829150024709" lon="2.6937134894667794"><ele>587.0</ele><time>2026-03-26T14:33:27Z</time></trkpt><trkpt lat="44.578278865075305" lon="2.6938756813265425"><ele>587.0</ele><time>2026-03-26T14:33:28Z</time></trkpt><trkpt lat="44.578284418998756" lon="2.694043210662706"><ele>588.6</ele><time>2026-03-26T14:33:29Z</time></trkpt><trkpt lat="44.57828663127047" lon="2.69419231721602"><ele>590.2</ele><time>2026-03-26T14:33:30Z</time></trkpt><trkpt lat="44.57829581593834" lon="2.6943033757920354"><ele>591.8</ele><time>2026-03-26T14:33:31Z</time></trkpt><trkpt lat="44.57832901255902" lon="2.6944418460883157"><ele>593.4</ele><time>2026-03-26T14:33:33Z</time></trkpt><trkpt lat="44.57840426416087" lon="2.694562479203486"><ele>595.0</ele><time>2026-03-26T14:33:35Z</time></trkpt><trkpt lat="44.578459420894376" lon="2.6946357649003922"><ele>595.6</ele><time>2026-03-26T14:33:36Z</time></trkpt><trkpt lat="44.57852809191173" lon="2.6947089057819458"><ele>596.2</ele><time>2026-03-26T14:33:37Z</time></trkpt><trkpt lat="44.578590685908566" lon="2.6947852114552515"><ele>596.8</ele><time>2026-03-26T14:33:38Z</time></trkpt><trkpt lat="44.57866201697318" lon="2.694866131978574"><ele>597.4</ele><time>2026-03-26T14:33:39Z</time></trkpt><trkpt lat="44.57874173506729" lon="2.694938941828107"><ele>598.0</ele><time>2026-03-26T14:33:40Z</time></trkpt><trkpt lat="44.57883033724195" lon="2.6950123625349898"><ele>596.1999999999999</ele><time>2026-03-26T14:33:41Z</time></trkpt><trkpt lat="44.57891429092288" lon="2.6950723309399116"><ele>594.4</ele><time>2026-03-26T14:33:42Z</time></trkpt><trkpt lat="44.579007545819785" lon="2.6951284982221693"><ele>592.5999999999999</ele><time>2026-03-26T14:33:43Z</time></trkpt><trkpt lat="44.57910619751054" lon="2.695165793771429"><ele>590.8</ele><time>2026-03-26T14:33:44Z</time></trkpt><trkpt lat="44.57919656491494" lon="2.6951959899917757"><ele>589.0</ele><time>2026-03-26T14:33:45Z</time></trkpt><trkpt lat="44.579279961977925" lon="2.6952178625339243"><ele>589.0</ele><time>2026-03-26T14:33:46Z</time></trkpt><trkpt lat="44.57936360780238" lon="2.695248742279375"><ele>589.0</ele><time>2026-03-26T14:33:47Z</time></trkpt><trkpt lat="44.57944054331128" lon="2.6952724066065654"><ele>589.0</ele><time>2026-03-26T14:33:48Z</time></trkpt><trkpt lat="44.57951857119165" lon="2.6952927128136905"><ele>589.0</ele><time>2026-03-26T14:33:49Z</time></trkpt><trkpt lat="44.57959529521674" lon="2.695296880430829"><ele>589.0</ele><time>2026-03-26T14:33:50Z</time></trkpt><trkpt lat="44.579678573395604" lon="2.6953013011590246"><ele>589.0</ele><time>2026-03-26T14:33:51Z</time></trkpt><trkpt lat="44.57976540666207" lon="2.695301024168897"><ele>588.4</ele><time>2026-03-26T14:33:52Z</time></trkpt><trkpt lat="44.579858057400656" lon="2.695288776584931"><ele>587.8</ele><time>2026-03-26T14:33:53Z</time></trkpt><trkpt lat="44.57995588558047" lon="2.69526905280249"><ele>587.2</ele><time>2026-03-26T14:33:54Z</time></trkpt><trkpt lat="44.58004609682946" lon="2.6952371247459457"><ele>586.6</ele><time>2026-03-26T14:33:55Z</time></trkpt><trkpt lat="44.580133387437634" lon="2.6952009213200965"><ele>586.0</ele><time>2026-03-26T14:33:56Z</time></trkpt><trkpt lat="44.58022503171787" lon="2.6951564164157538"><ele>586.0</ele><time>2026-03-26T14:33:57Z</time></trkpt><trkpt lat="44.58033020490186" lon="2.6951082846954786"><ele>586.0</ele><time>2026-03-26T14:33:58Z</time></trkpt><trkpt lat="44.58043387302971" lon="2.695048583027006"><ele>586.0</ele><time>2026-03-26T14:33:59Z</time></trkpt><trkpt lat="44.580538152839786" lon="2.6949776488439854"><ele>586.0</ele><time>2026-03-26T14:34:00Z</time></trkpt><trkpt lat="44.580646461548454" lon="2.694911201112611"><ele>584.75</ele><time>2026-03-26T14:34:01Z</time></trkpt><trkpt lat="44.58076088358397" lon="2.6948422194378256"><ele>583.5</ele><time>2026-03-26T14:34:02Z</time></trkpt><trkpt lat="44.58087909028044" lon="2.6947836672505527"><ele>582.25</ele><time>2026-03-26T14:34:03Z</time></trkpt><trkpt lat="44.5809911250383" lon="2.694719131272318"><ele>581.0</ele><time>2026-03-26T14:34:04Z</time></trkpt><trkpt lat="44.58110140718274" lon="2.6946514461823"><ele>580.25</ele><time>2026-03-26T14:34:05Z</time></trkpt><trkpt lat="44.58120664453249" lon="2.6945597196886264"><ele>579.5</ele><time>2026-03-26T14:34:06Z</time></trkpt><trkpt lat="44.58130485348128" lon="2.694435551577283"><ele>578.75</ele><time>2026-03-26T14:34:07Z</time></trkpt><trkpt lat="44.58138948771631" lon="2.6942881866591266"><ele>578.0</ele><time>2026-03-26T14:34:08Z</time></trkpt><trkpt lat="44.581479222862605" lon="2.694135593360776"><ele>578.0</ele><time>2026-03-26T14:34:09Z</time></trkpt><trkpt lat="44.58157442378324" lon="2.6939880035431205"><ele>578.0</ele><time>2026-03-26T14:34:10Z</time></trkpt><trkpt lat="44.58167265969616" lon="2.693843525036507"><ele>578.0</ele><time>2026-03-26T14:34:11Z</time></trkpt><trkpt lat="44.58177526117529" lon="2.6937007337086154"><ele>578.0</ele><time>2026-03-26T14:34:12Z</time></trkpt><trkpt lat="44.58188785992399" lon="2.693561239271342"><ele>576.5</ele><time>2026-03-26T14:34:13Z</time></trkpt><trkpt lat="44.581989899923606" lon="2.6934331522637778"><ele>575.0</ele><time>2026-03-26T14:34:14Z</time></trkpt><trkpt lat="44.58210331710244" lon="2.6933130530904057"><ele>573.5</ele><time>2026-03-26T14:34:15Z</time></trkpt><trkpt lat="44.58221823150085" lon="2.693187779941296"><ele>572.0</ele><time>2026-03-26T14:34:16Z</time></trkpt><trkpt lat="44.582329489670194" lon="2.6930590406070074"><ele>572.0</ele><time>2026-03-26T14:34:17Z</time></trkpt><trkpt lat="44.58244501421923" lon="2.6929334020028497"><ele>572.0</ele><time>2026-03-26T14:34:18Z</time></trkpt><trkpt lat="44.582563891214306" lon="2.692808974520032"><ele>572.0</ele><time>2026-03-26T14:34:19Z</time></trkpt><trkpt lat="44.58268016276979" lon="2.6926929457252045"><ele>572.0</ele><time>2026-03-26T14:34:20Z</time></trkpt><trkpt lat="44.582802313651044" lon="2.6925954302135033"><ele>574.5</ele><time>2026-03-26T14:34:21Z</time></trkpt><trkpt lat="44.582929725179795" lon="2.692518475938145"><ele>577.0</ele><time>2026-03-26T14:34:22Z</time></trkpt><trkpt lat="44.58305656980737" lon="2.692458061695136"><ele>579.5</ele><time>2026-03-26T14:34:23Z</time></trkpt><trkpt lat="44.58317824398764" lon="2.6923946895434705"><ele>582.0</ele><time>2026-03-26T14:34:24Z</time></trkpt><trkpt lat="44.58330199518874" lon="2.6923305420498957"><ele>582.0</ele><time>2026-03-26T14:34:25Z</time></trkpt><trkpt lat="44.58342486651508" lon="2.692269545483603"><ele>582.0</ele><time>2026-03-26T14:34:26Z</time></trkpt><trkpt lat="44.58355315045444" lon="2.692240326268135"><ele>582.0</ele><time>2026-03-26T14:34:27Z</time></trkpt><trkpt lat="44.58368496100167" lon="2.6922498342288685"><ele>582.0</ele><time>2026-03-26T14:34:28Z</time></trkpt><trkpt lat="44.58381368979681" lon="2.692291924185658"><ele>583.5</ele><time>2026-03-26T14:34:29Z</time></trkpt><trkpt lat="44.58394024520572" lon="2.6923521250836733"><ele>585.0</ele><time>2026-03-26T14:34:30Z</time></trkpt><trkpt lat="44.584056263531856" lon="2.6924062216384743"><ele>586.5</ele><time>2026-03-26T14:34:31Z</time></trkpt><trkpt lat="44.584159064957426" lon="2.6924448518261825"><ele>588.0</ele><time>2026-03-26T14:34:32Z</time></trkpt><trkpt lat="44.584273319326" lon="2.6924358494225062"><ele>588.0</ele><time>2026-03-26T14:34:33Z</time></trkpt><trkpt lat="44.58438145247368" lon="2.692344667424451"><ele>588.0</ele><time>2026-03-26T14:34:34Z</time></trkpt><trkpt lat="44.58449456226094" lon="2.692264416087054"><ele>588.0</ele><time>2026-03-26T14:34:35Z</time></trkpt><trkpt lat="44.58461680680112" lon="2.6921867253898037"><ele>588.0</ele><time>2026-03-26T14:34:36Z</time></trkpt><trkpt lat="44.58473595379734" lon="2.692097740012852"><ele>587.5</ele><time>2026-03-26T14:34:37Z</time></trkpt><trkpt lat="44.584856019426454" lon="2.692010045512547"><ele>587.0</ele><time>2026-03-26T14:34:38Z</time></trkpt><trkpt lat="44.58497143990349" lon="2.691922981980953"><ele>586.5</ele><time>2026-03-26T14:34:39Z</time></trkpt><trkpt lat="44.58508305677519" lon="2.6918400794110346"><ele>586.0</ele><time>2026-03-26T14:34:40Z</time></trkpt><trkpt lat="44.585189506686106" lon="2.691763534441565"><ele>587.75</ele><time>2026-03-26T14:34:41Z</time></trkpt><trkpt lat="44.58531040262931" lon="2.6916862463514866"><ele>589.5</ele><time>2026-03-26T14:34:42Z</time></trkpt><trkpt lat="44.58543074000959" lon="2.691591151012269"><ele>591.25</ele><time>2026-03-26T14:34:43Z</time></trkpt><trkpt lat="44.58555368317474" lon="2.6915051194516137"><ele>593.0</ele><time>2026-03-26T14:34:44Z</time></trkpt><trkpt lat="44.58567413188416" lon="2.6914303351600815"><ele>594.0</ele><time>2026-03-26T14:34:45Z</time></trkpt><trkpt lat="44.585787451130535" lon="2.6913555371022637"><ele>595.0</ele><time>2026-03-26T14:34:46Z</time></trkpt><trkpt lat="44.5858881144713" lon="2.6913047273332054"><ele>596.0</ele><time>2026-03-26T14:34:46.999Z</time></trkpt><trkpt lat="44.585983730448376" lon="2.691288157271714"><ele>597.0</ele><time>2026-03-26T14:34:47.999Z</time></trkpt><trkpt lat="44.58608061035143" lon="2.691307187509358"><ele>598.0</ele><time>2026-03-26T14:34:48.999Z</time></trkpt><trkpt lat="44.58616725451989" lon="2.691361162136922"><ele>597.4</ele><time>2026-03-26T14:34:49.999Z</time></trkpt><trkpt lat="44.58625194490048" lon="2.691442912331653"><ele>596.8</ele><time>2026-03-26T14:34:50.999Z</time></trkpt><trkpt lat="44.58632546576455" lon="2.6915410617948226"><ele>596.2</ele><time>2026-03-26T14:34:51.999Z</time></trkpt><trkpt lat="44.58639720296807" lon="2.69166487679968"><ele>595.6</ele><time>2026-03-26T14:34:52.999Z</time></trkpt><trkpt lat="44.586484327034924" lon="2.6917690141611272"><ele>595.0</ele><time>2026-03-26T14:34:53.999Z</time></trkpt><trkpt lat="44.58656885556134" lon="2.6918815929452284"><ele>597.0</ele><time>2026-03-26T14:34:54.999Z</time></trkpt><trkpt lat="44.58665780470874" lon="2.692005474399649"><ele>599.0</ele><time>2026-03-26T14:34:55.999Z</time></trkpt><trkpt lat="44.586745675139234" lon="2.6921382674683376"><ele>601.0</ele><time>2026-03-26T14:34:56.999Z</time></trkpt><trkpt lat="44.586830728331584" lon="2.6922751357370465"><ele>603.0</ele><time>2026-03-26T14:34:57.999Z</time></trkpt><trkpt lat="44.58690892127316" lon="2.6924204375178804"><ele>603.0</ele><time>2026-03-26T14:34:58.999Z</time></trkpt><trkpt lat="44.586991035771725" lon="2.6925548418875955"><ele>603.0</ele><time>2026-03-26T14:34:59.999Z</time></trkpt><trkpt lat="44.58708146474742" lon="2.6926816980461505"><ele>603.0</ele><time>2026-03-26T14:35:00.999Z</time></trkpt><trkpt lat="44.5871755473995" lon="2.6927979090731027"><ele>603.0</ele><time>2026-03-26T14:35:01.999Z</time></trkpt><trkpt lat="44.587269817112315" lon="2.6929156466015023"><ele>601.5</ele><time>2026-03-26T14:35:02.999Z</time></trkpt><trkpt lat="44.58736321720513" lon="2.693017898087914"><ele>600.0</ele><time>2026-03-26T14:35:03.999Z</time></trkpt><trkpt lat="44.58746203553923" lon="2.6931183928816256"><ele>598.5</ele><time>2026-03-26T14:35:04.999Z</time></trkpt><trkpt lat="44.587559853275046" lon="2.6932282808873507"><ele>597.0</ele><time>2026-03-26T14:35:05.999Z</time></trkpt><trkpt lat="44.58766221284845" lon="2.6933405646399535"><ele>597.0</ele><time>2026-03-26T14:35:06.999Z</time></trkpt><trkpt lat="44.587768066589874" lon="2.6934485649931172"><ele>597.0</ele><time>2026-03-26T14:35:07.999Z</time></trkpt><trkpt lat="44.58787494787906" lon="2.693554158142427"><ele>597.0</ele><time>2026-03-26T14:35:08.999Z</time></trkpt><trkpt lat="44.587989207414736" lon="2.6936556212257816"><ele>597.0</ele><time>2026-03-26T14:35:09.999Z</time></trkpt><trkpt lat="44.58810788954267" lon="2.6937421056452435"><ele>595.5</ele><time>2026-03-26T14:35:10.999Z</time></trkpt><trkpt lat="44.58823170780333" lon="2.693804602440282"><ele>594.0</ele><time>2026-03-26T14:35:11.999Z</time></trkpt><trkpt lat="44.58835455100098" lon="2.693846733095181"><ele>592.5</ele><time>2026-03-26T14:35:12.999Z</time></trkpt><trkpt lat="44.588480695691516" lon="2.693869453977891"><ele>591.0</ele><time>2026-03-26T14:35:13.999Z</time></trkpt><trkpt lat="44.58860515832748" lon="2.6938807100131217"><ele>592.0</ele><time>2026-03-26T14:35:14.999Z</time></trkpt><trkpt lat="44.588727033060344" lon="2.693890190781142"><ele>593.0</ele><time>2026-03-26T14:35:15.999Z</time></trkpt><trkpt lat="44.58884738390805" lon="2.693923048579066"><ele>594.0</ele><time>2026-03-26T14:35:16.999Z</time></trkpt><trkpt lat="44.58895424515921" lon="2.693972610222575"><ele>595.0</ele><time>2026-03-26T14:35:17.999Z</time></trkpt><trkpt lat="44.58905814466956" lon="2.6940211060399255"><ele>595.0</ele><time>2026-03-26T14:35:18.999Z</time></trkpt><trkpt lat="44.589160871347545" lon="2.694080124941224"><ele>595.0</ele><time>2026-03-26T14:35:19.999Z</time></trkpt><trkpt lat="44.589251744695446" lon="2.6941462896385673"><ele>595.0</ele><time>2026-03-26T14:35:20.999Z</time></trkpt><trkpt lat="44.58933833883595" lon="2.694201784785688"><ele>595.0</ele><time>2026-03-26T14:35:21.999Z</time></trkpt><trkpt lat="44.58941775681404" lon="2.6942579015989487"><ele>595.0</ele><time>2026-03-26T14:35:22.999Z</time></trkpt><trkpt lat="44.58949751990289" lon="2.6943245835794545"><ele>594.2</ele><time>2026-03-26T14:35:24Z</time></trkpt><trkpt lat="44.58957851726659" lon="2.694400061063365"><ele>593.4</ele><time>2026-03-26T14:35:25Z</time></trkpt><trkpt lat="44.58965673272466" lon="2.694469883568278"><ele>592.6</ele><time>2026-03-26T14:35:26Z</time></trkpt><trkpt lat="44.589742610599764" lon="2.69453480729615"><ele>591.8</ele><time>2026-03-26T14:35:27Z</time></trkpt><trkpt lat="44.589831404232314" lon="2.694580839154764"><ele>591.0</ele><time>2026-03-26T14:35:28Z</time></trkpt><trkpt lat="44.589927061662515" lon="2.694611467161709"><ele>591.0</ele><time>2026-03-26T14:35:29Z</time></trkpt><trkpt lat="44.59002416127936" lon="2.694622138928921"><ele>591.0</ele><time>2026-03-26T14:35:30Z</time></trkpt><trkpt lat="44.590130218689396" lon="2.6945982132974"><ele>591.0</ele><time>2026-03-26T14:35:31Z</time></trkpt><trkpt lat="44.590243382236146" lon="2.694565441814449"><ele>591.0</ele><time>2026-03-26T14:35:32Z</time></trkpt><trkpt lat="44.59035609528264" lon="2.694546868203573"><ele>591.0</ele><time>2026-03-26T14:35:33Z</time></trkpt><trkpt lat="44.59046357860095" lon="2.6945523580699575"><ele>594.6</ele><time>2026-03-26T14:35:34Z</time></trkpt><trkpt lat="44.59055019400678" lon="2.6945671049416697"><ele>598.2</ele><time>2026-03-26T14:35:35Z</time></trkpt><trkpt lat="44.5906142783795" lon="2.694611441885393"><ele>601.8</ele><time>2026-03-26T14:35:36Z</time></trkpt><trkpt lat="44.59065307606422" lon="2.694727031021493"><ele>605.4</ele><time>2026-03-26T14:35:37Z</time></trkpt><trkpt lat="44.59065990748801" lon="2.6948749901855202"><ele>609.0</ele><time>2026-03-26T14:35:38Z</time></trkpt><trkpt lat="44.59069931826119" lon="2.695007798739164"><ele>609.0</ele><time>2026-03-26T14:35:39Z</time></trkpt><trkpt lat="44.5907534408989" lon="2.6951338926513486"><ele>609.0</ele><time>2026-03-26T14:35:40Z</time></trkpt><trkpt lat="44.5908003205891" lon="2.695257421636545"><ele>609.0</ele><time>2026-03-26T14:35:41Z</time></trkpt><trkpt lat="44.590858904546245" lon="2.695361298962751"><ele>609.0</ele><time>2026-03-26T14:35:42Z</time></trkpt><trkpt lat="44.59092715354179" lon="2.69544666481294"><ele>609.0</ele><time>2026-03-26T14:35:43Z</time></trkpt><trkpt lat="44.59100183962149" lon="2.695513430037123"><ele>608.1666666666666</ele><time>2026-03-26T14:35:44Z</time></trkpt><trkpt lat="44.591081410974304" lon="2.6955553101426526"><ele>607.3333333333334</ele><time>2026-03-26T14:35:45Z</time></trkpt><trkpt lat="44.591160382090344" lon="2.695570087854052"><ele>606.5</ele><time>2026-03-26T14:35:46Z</time></trkpt><trkpt lat="44.59124061142381" lon="2.695548167504058"><ele>605.6666666666667</ele><time>2026-03-26T14:35:47Z</time></trkpt><trkpt lat="44.59130958996412" lon="2.6954899376676815"><ele>604.8333333333334</ele><time>2026-03-26T14:35:48Z</time></trkpt><trkpt lat="44.591353891411806" lon="2.695382162343555"><ele>604.0</ele><time>2026-03-26T14:35:49Z</time></trkpt><trkpt lat="44.59142056688672" lon="2.695294808067959"><ele>605.6</ele><time>2026-03-26T14:35:50Z</time></trkpt><trkpt lat="44.59147716785482" lon="2.6951894950621127"><ele>607.2</ele><time>2026-03-26T14:35:51Z</time></trkpt><trkpt lat="44.591548837120314" lon="2.695099756193486"><ele>608.8000000000001</ele><time>2026-03-26T14:35:52Z</time></trkpt><trkpt lat="44.59163247206847" lon="2.695027914776939"><ele>610.4</ele><time>2026-03-26T14:35:53Z</time></trkpt><trkpt lat="44.5917038151786" lon="2.6949348558780355"><ele>612.0</ele><time>2026-03-26T14:35:54Z</time></trkpt><trkpt lat="44.59175714632681" lon="2.6948199856478308"><ele>612.0</ele><time>2026-03-26T14:35:55Z</time></trkpt><trkpt lat="44.59180160647921" lon="2.6946874210918215"><ele>612.0</ele><time>2026-03-26T14:35:56Z</time></trkpt><trkpt lat="44.5918320247847" lon="2.6945497256078017"><ele>612.0</ele><time>2026-03-26T14:35:57Z</time></trkpt><trkpt lat="44.591876653201226" lon="2.6944093483407645"><ele>612.0</ele><time>2026-03-26T14:35:58Z</time></trkpt><trkpt lat="44.591936609789855" lon="2.69428490284008"><ele>612.0</ele><time>2026-03-26T14:35:59Z</time></trkpt><trkpt lat="44.59201426546368" lon="2.694178724533816"><ele>613.0</ele><time>2026-03-26T14:36:00Z</time></trkpt><trkpt lat="44.59209898074534" lon="2.6941025718779703"><ele>614.0</ele><time>2026-03-26T14:36:01Z</time></trkpt><trkpt lat="44.59218810897252" lon="2.694036887372463"><ele>615.0</ele><time>2026-03-26T14:36:02Z</time></trkpt><trkpt lat="44.59228308478584" lon="2.693976109511055"><ele>616.0</ele><time>2026-03-26T14:36:03Z</time></trkpt><trkpt lat="44.592370017111236" lon="2.6938919256262785"><ele>617.0</ele><time>2026-03-26T14:36:04Z</time></trkpt><trkpt lat="44.59245554469177" lon="2.6937906516600374"><ele>617.0</ele><time>2026-03-26T14:36:05Z</time></trkpt><trkpt lat="44.592541047106785" lon="2.6936883626178783"><ele>617.0</ele><time>2026-03-26T14:36:06Z</time></trkpt><trkpt lat="44.59260794853336" lon="2.6935954298679117"><ele>617.0</ele><time>2026-03-26T14:36:07Z</time></trkpt><trkpt lat="44.59270690167442" lon="2.6935737124469994"><ele>617.0</ele><time>2026-03-26T14:36:08Z</time></trkpt><trkpt lat="44.59279385755847" lon="2.6935527223523406"><ele>617.0</ele><time>2026-03-26T14:36:09Z</time></trkpt><trkpt lat="44.59288411144176" lon="2.6935588343922556"><ele>615.4</ele><time>2026-03-26T14:36:10Z</time></trkpt><trkpt lat="44.59298653342288" lon="2.693602713109839"><ele>613.8000000000001</ele><time>2026-03-26T14:36:11Z</time></trkpt><trkpt lat="44.59308518361012" lon="2.693601590939238"><ele>612.2</ele><time>2026-03-26T14:36:12Z</time></trkpt><trkpt lat="44.593161719494304" lon="2.6935983857570283"><ele>610.6</ele><time>2026-03-26T14:36:13Z</time></trkpt><trkpt lat="44.593233512830174" lon="2.693550238019409"><ele>609.0</ele><time>2026-03-26T14:36:14Z</time></trkpt><trkpt lat="44.59331026406127" lon="2.693486080284531"><ele>610.2</ele><time>2026-03-26T14:36:15Z</time></trkpt><trkpt lat="44.5934008914748" lon="2.6934271872537807"><ele>611.4</ele><time>2026-03-26T14:36:16Z</time></trkpt><trkpt lat="44.59348577046758" lon="2.693326347881613"><ele>612.6</ele><time>2026-03-26T14:36:17Z</time></trkpt><trkpt lat="44.59356316577652" lon="2.6932199928726765"><ele>613.8</ele><time>2026-03-26T14:36:18Z</time></trkpt><trkpt lat="44.593653167272706" lon="2.6931294413643685"><ele>615.0</ele><time>2026-03-26T14:36:19Z</time></trkpt><trkpt lat="44.59375051820944" lon="2.693069716888471"><ele>615.0</ele><time>2026-03-26T14:36:20Z</time></trkpt><trkpt lat="44.593858107472876" lon="2.6930264739150287"><ele>615.0</ele><time>2026-03-26T14:36:21Z</time></trkpt><trkpt lat="44.593957549870716" lon="2.6929601552914098"><ele>615.0</ele><time>2026-03-26T14:36:22Z</time></trkpt><trkpt lat="44.59404596739772" lon="2.692867941907798"><ele>615.0</ele><time>2026-03-26T14:36:23Z</time></trkpt><trkpt lat="44.5941275036955" lon="2.6927555747183334"><ele>615.0</ele><time>2026-03-26T14:36:24Z</time></trkpt><trkpt lat="44.59419899657203" lon="2.692620404821908"><ele>617.8</ele><time>2026-03-26T14:36:25Z</time></trkpt><trkpt lat="44.59426074181136" lon="2.692476367744142"><ele>620.6</ele><time>2026-03-26T14:36:26Z</time></trkpt><trkpt lat="44.5943184101489" lon="2.6923443470601227"><ele>623.4</ele><time>2026-03-26T14:36:27Z</time></trkpt><trkpt lat="44.59438219678259" lon="2.692239949235674"><ele>626.2</ele><time>2026-03-26T14:36:28Z</time></trkpt><trkpt lat="44.59445674039383" lon="2.692157361272817"><ele>629.0</ele><time>2026-03-26T14:36:29Z</time></trkpt><trkpt lat="44.59453044714774" lon="2.6920846180918483"><ele>629.0</ele><time>2026-03-26T14:36:30Z</time></trkpt><trkpt lat="44.59460083878087" lon="2.692025370044694"><ele>629.0</ele><time>2026-03-26T14:36:31Z</time></trkpt><trkpt lat="44.59468464752186" lon="2.691983538630956"><ele>629.0</ele><time>2026-03-26T14:36:32Z</time></trkpt><trkpt lat="44.59477468176527" lon="2.6919560298427077"><ele>629.0</ele><time>2026-03-26T14:36:33Z</time></trkpt><trkpt lat="44.594858856107024" lon="2.69194367006454"><ele>629.0</ele><time>2026-03-26T14:36:34Z</time></trkpt><trkpt lat="44.594945750176734" lon="2.6919712822412123"><ele>629.0</ele><time>2026-03-26T14:36:35Z</time></trkpt><trkpt lat="44.59502781655959" lon="2.6920040501320064"><ele>629.0</ele><time>2026-03-26T14:36:36Z</time></trkpt><trkpt lat="44.595107572276625" lon="2.6920426144032144"><ele>629.0</ele><time>2026-03-26T14:36:37Z</time></trkpt><trkpt lat="44.59518822930294" lon="2.6920843397274763"><ele>629.0</ele><time>2026-03-26T14:36:38Z</time></trkpt><trkpt lat="44.59527208530324" lon="2.692115026392475"><ele>629.0</ele><time>2026-03-26T14:36:39Z</time></trkpt><trkpt lat="44.59536367244288" lon="2.692139429985248"><ele>629.0</ele><time>2026-03-26T14:36:40Z</time></trkpt><trkpt lat="44.59545307554161" lon="2.692134815193735"><ele>629.0</ele><time>2026-03-26T14:36:41Z</time></trkpt><trkpt lat="44.59554748682131" lon="2.6921204660128044"><ele>630.3333333333333</ele><time>2026-03-26T14:36:42Z</time></trkpt><trkpt lat="44.59563857375045" lon="2.692117223415753"><ele>631.6666666666666</ele><time>2026-03-26T14:36:43Z</time></trkpt><trkpt lat="44.595718816146444" lon="2.6921435237083466"><ele>633.0</ele><time>2026-03-26T14:36:44Z</time></trkpt><trkpt lat="44.595784594580245" lon="2.6921972756423282"><ele>634.3333333333334</ele><time>2026-03-26T14:36:45Z</time></trkpt><trkpt lat="44.59585740960802" lon="2.6922626433327896"><ele>635.6666666666667</ele><time>2026-03-26T14:36:46Z</time></trkpt><trkpt lat="44.59591386534487" lon="2.6923554671592984"><ele>637.0</ele><time>2026-03-26T14:36:46.999Z</time></trkpt><trkpt lat="44.595971081279885" lon="2.6924474935345355"><ele>637.0</ele><time>2026-03-26T14:36:47.999Z</time></trkpt><trkpt lat="44.59601108068536" lon="2.6925504052762324"><ele>637.0</ele><time>2026-03-26T14:36:48.999Z</time></trkpt><trkpt lat="44.596047195191524" lon="2.692658294667234"><ele>637.0</ele><time>2026-03-26T14:36:49.999Z</time></trkpt><trkpt lat="44.59606104475893" lon="2.6927786725418765"><ele>637.0</ele><time>2026-03-26T14:36:50.999Z</time></trkpt><trkpt lat="44.596081002150754" lon="2.692897354779113"><ele>637.0</ele><time>2026-03-26T14:36:51.999Z</time></trkpt><trkpt lat="44.596095245541974" lon="2.6930219454843476"><ele>637.0</ele><time>2026-03-26T14:36:52.999Z</time></trkpt><trkpt lat="44.596101246967976" lon="2.693154814542922"><ele>636.4</ele><time>2026-03-26T14:36:53.999Z</time></trkpt><trkpt lat="44.59609718839294" lon="2.693286723378374"><ele>635.8000000000001</ele><time>2026-03-26T14:36:54.999Z</time></trkpt><trkpt lat="44.59610630723367" lon="2.6934315671071873"><ele>635.2</ele><time>2026-03-26T14:36:55.999Z</time></trkpt><trkpt lat="44.59609777367402" lon="2.6935658817811476"><ele>634.6</ele><time>2026-03-26T14:36:56.999Z</time></trkpt><trkpt lat="44.59607450645793" lon="2.693697304215523"><ele>634.0</ele><time>2026-03-26T14:36:57.999Z</time></trkpt><trkpt lat="44.596054399740005" lon="2.6938334008966347"><ele>635.6</ele><time>2026-03-26T14:36:58.999Z</time></trkpt><trkpt lat="44.59602801572607" lon="2.693966996904272"><ele>637.2</ele><time>2026-03-26T14:36:59.999Z</time></trkpt><trkpt lat="44.595998354016984" lon="2.6940995427323804"><ele>638.8000000000001</ele><time>2026-03-26T14:37:00.999Z</time></trkpt><trkpt lat="44.59596245488075" lon="2.6942330057715362"><ele>640.4</ele><time>2026-03-26T14:37:01.999Z</time></trkpt><trkpt lat="44.59592204428409" lon="2.6943660506115874"><ele>642.0</ele><time>2026-03-26T14:37:02.999Z</time></trkpt><trkpt lat="44.59588201965463" lon="2.6944951542953994"><ele>642.8333333333334</ele><time>2026-03-26T14:37:03.999Z</time></trkpt><trkpt lat="44.59585765272942" lon="2.6946293067020703"><ele>643.6666666666666</ele><time>2026-03-26T14:37:04.999Z</time></trkpt><trkpt lat="44.595824932245975" lon="2.694745330803704"><ele>644.5</ele><time>2026-03-26T14:37:05.999Z</time></trkpt><trkpt lat="44.59581351069034" lon="2.694853882270936"><ele>645.3333333333333</ele><time>2026-03-26T14:37:06.999Z</time></trkpt><trkpt lat="44.59581786257315" lon="2.6949644539320694"><ele>646.1666666666666</ele><time>2026-03-26T14:37:07.999Z</time></trkpt><trkpt lat="44.595842971489844" lon="2.6950789673648203"><ele>647.0</ele><time>2026-03-26T14:37:08.999Z</time></trkpt><trkpt lat="44.595879885756204" lon="2.6951935533308564"><ele>646.4000000000001</ele><time>2026-03-26T14:37:09.999Z</time></trkpt><trkpt lat="44.59591078332635" lon="2.6953153670998597"><ele>645.8000000000001</ele><time>2026-03-26T14:37:10.999Z</time></trkpt><trkpt lat="44.59593799227847" lon="2.695436012668221"><ele>645.2</ele><time>2026-03-26T14:37:11.999Z</time></trkpt><trkpt lat="44.595965955253654" lon="2.695561384542874"><ele>644.6</ele><time>2026-03-26T14:37:12.999Z</time></trkpt><trkpt lat="44.59599800882548" lon="2.695682729859714"><ele>644.0</ele><time>2026-03-26T14:37:13.999Z</time></trkpt><trkpt lat="44.59603461405345" lon="2.695806193208091"><ele>644.0</ele><time>2026-03-26T14:37:14.999Z</time></trkpt><trkpt lat="44.59606865734477" lon="2.695923014119273"><ele>644.0</ele><time>2026-03-26T14:37:15.999Z</time></trkpt><trkpt lat="44.59610081922098" lon="2.696032812208881"><ele>644.0</ele><time>2026-03-26T14:37:16.999Z</time></trkpt><trkpt lat="44.59613262342441" lon="2.6961435002743825"><ele>644.0</ele><time>2026-03-26T14:37:17.999Z</time></trkpt><trkpt lat="44.59616663066788" lon="2.696253272122989"><ele>644.0</ele><time>2026-03-26T14:37:18.999Z</time></trkpt><trkpt lat="44.59622040562654" lon="2.6963400326064235"><ele>644.0</ele><time>2026-03-26T14:37:19.999Z</time></trkpt><trkpt lat="44.59627214465277" lon="2.696400312513392"><ele>645.6666666666666</ele><time>2026-03-26T14:37:20.999Z</time></trkpt><trkpt lat="44.59633498215763" lon="2.696435024749854"><ele>647.3333333333333</ele><time>2026-03-26T14:37:40Z</time></trkpt><trkpt lat="44.59628942485785" lon="2.6963376552666287"><ele>649.0</ele><time>2026-03-26T14:37:43Z</time></trkpt><trkpt lat="44.596231394631445" lon="2.6962795270498834"><ele>650.6666666666666</ele><time>2026-03-26T14:37:44Z</time></trkpt><trkpt lat="44.596216579299075" lon="2.6961314250885082"><ele>652.3333333333334</ele><time>2026-03-26T14:37:46Z</time></trkpt><trkpt lat="44.596194053003025" lon="2.696039866027959"><ele>654.0</ele><time>2026-03-26T14:37:47Z</time></trkpt><trkpt lat="44.59617139353589" lon="2.695933461349492"><ele>652.0</ele><time>2026-03-26T14:37:48Z</time></trkpt><trkpt lat="44.59614315529105" lon="2.6958030674157487"><ele>650.0</ele><time>2026-03-26T14:37:49Z</time></trkpt><trkpt lat="44.596108609318364" lon="2.6956676300368883"><ele>648.0</ele><time>2026-03-26T14:37:50Z</time></trkpt><trkpt lat="44.596084817827425" lon="2.695543897455162"><ele>646.0</ele><time>2026-03-26T14:37:51Z</time></trkpt><trkpt lat="44.5960706449297" lon="2.695412352439813"><ele>644.0</ele><time>2026-03-26T14:37:52Z</time></trkpt><trkpt lat="44.596076054880676" lon="2.695288243638525"><ele>644.6</ele><time>2026-03-26T14:37:53Z</time></trkpt><trkpt lat="44.59608364638712" lon="2.6951583757260873"><ele>645.2</ele><time>2026-03-26T14:37:54Z</time></trkpt><trkpt lat="44.59610189586281" lon="2.6950307982137742"><ele>645.8000000000001</ele><time>2026-03-26T14:37:55Z</time></trkpt><trkpt lat="44.59613428364" lon="2.694896654123134"><ele>646.4000000000001</ele><time>2026-03-26T14:37:56Z</time></trkpt><trkpt lat="44.59616668328506" lon="2.694766048315162"><ele>647.0</ele><time>2026-03-26T14:37:57Z</time></trkpt><trkpt lat="44.59620525043374" lon="2.6946664253596424"><ele>649.7142857142857</ele><time>2026-03-26T14:37:58Z</time></trkpt><trkpt lat="44.59626540574563" lon="2.6945971651493466"><ele>652.4285714285714</ele><time>2026-03-26T14:37:59Z</time></trkpt><trkpt lat="44.59630610690938" lon="2.6945136868228228"><ele>655.1428571428571</ele><time>2026-03-26T14:38:00Z</time></trkpt><trkpt lat="44.59636867180388" lon="2.694467994823456"><ele>657.8571428571429</ele><time>2026-03-26T14:38:01Z</time></trkpt><trkpt lat="44.59642378736901" lon="2.694405904365265"><ele>660.5714285714286</ele><time>2026-03-26T14:38:02Z</time></trkpt><trkpt lat="44.59647360194284" lon="2.694322945385324"><ele>663.2857142857143</ele><time>2026-03-26T14:38:03Z</time></trkpt><trkpt lat="44.5965337655362" lon="2.694270970864838"><ele>666.0</ele><time>2026-03-26T14:38:04Z</time></trkpt><trkpt lat="44.59662347871522" lon="2.694180893861046"><ele>666.0</ele><time>2026-03-26T14:38:06Z</time></trkpt><trkpt lat="44.59668514949697" lon="2.6941245874165687"><ele>666.0</ele><time>2026-03-26T14:38:08Z</time></trkpt><trkpt lat="44.59653759779484" lon="2.6942625084134066"><ele>666.0</ele><time>2026-03-26T14:38:28Z</time></trkpt><trkpt lat="44.596474284247854" lon="2.6943304204918275"><ele>666.0</ele><time>2026-03-26T14:38:29Z</time></trkpt><trkpt lat="44.59641814486664" lon="2.694386087718492"><ele>666.0</ele><time>2026-03-26T14:38:30Z</time></trkpt><trkpt lat="44.59633416785455" lon="2.6944738898200797"><ele>667.5999999999999</ele><time>2026-03-26T14:38:32Z</time></trkpt><trkpt lat="44.59623992273555" lon="2.6945609192650886"><ele>669.2</ele><time>2026-03-26T14:38:34Z</time></trkpt><trkpt lat="44.5961724752796" lon="2.694682231724086"><ele>670.8</ele><time>2026-03-26T14:38:36Z</time></trkpt><trkpt lat="44.59612498063584" lon="2.694808822124154"><ele>672.4000000000001</ele><time>2026-03-26T14:38:38Z</time></trkpt><trkpt lat="44.596093718226655" lon="2.69489726527414"><ele>674.0</ele><time>2026-03-26T14:38:39Z</time></trkpt><trkpt lat="44.596431502066466" lon="2.6949920993707286"><ele>674.0</ele><time>2026-03-26T14:38:42Z</time></trkpt><trkpt lat="44.59647413861397" lon="2.6948691888329455"><ele>674.0</ele><time>2026-03-26T14:38:44Z</time></trkpt><trkpt lat="44.59647413750545" lon="2.6947226125658847"><ele>674.0</ele><time>2026-03-26T14:38:46Z</time></trkpt><trkpt lat="44.59654133395777" lon="2.694693387837561"><ele>674.0</ele><time>2026-03-26T14:38:48Z</time></trkpt><trkpt lat="44.59658702155562" lon="2.694808887747654"><ele>674.0</ele><time>2026-03-26T14:38:50Z</time></trkpt><trkpt lat="44.59665584856898" lon="2.6948628869107596"><ele>674.0</ele><time>2026-03-26T14:38:52.999Z</time></trkpt><trkpt lat="44.596709887638575" lon="2.6947450289523633"><ele>674.0</ele><time>2026-03-26T14:38:54.999Z</time></trkpt><trkpt lat="44.59678892485643" lon="2.6946916962660907"><ele>674.0</ele><time>2026-03-26T14:38:56.999Z</time></trkpt><trkpt lat="44.59685842817185" lon="2.6947191689672874"><ele>674.0</ele><time>2026-03-26T14:38:58.999Z</time></trkpt><trkpt lat="44.596902301019014" lon="2.6947974268650703"><ele>674.0</ele><time>2026-03-26T14:39:00.999Z</time></trkpt><trkpt lat="44.59690950016097" lon="2.6949582980008313"><ele>674.0</ele><time>2026-03-26T14:39:02.999Z</time></trkpt><trkpt lat="44.59682660141541" lon="2.695037689601149"><ele>674.0</ele><time>2026-03-26T14:39:05.999Z</time></trkpt><trkpt lat="44.59674402508442" lon="2.6950260310577008"><ele>674.0</ele><time>2026-03-26T14:39:07.999Z</time></trkpt><trkpt lat="44.59665719611352" lon="2.69496554523915"><ele>674.0</ele><time>2026-03-26T14:39:09.999Z</time></trkpt><trkpt lat="44.59660191556721" lon="2.69489833687234"><ele>674.0</ele><time>2026-03-26T14:39:11.999Z</time></trkpt><trkpt lat="44.5965502727097" lon="2.694772676277078"><ele>674.0</ele><time>2026-03-26T14:39:13.999Z</time></trkpt><trkpt lat="44.596526504375284" lon="2.694671959598829"><ele>674.0</ele><time>2026-03-26T14:39:15.999Z</time></trkpt><trkpt lat="44.5964420150129" lon="2.6947188245226195"><ele>674.0</ele><time>2026-03-26T14:39:18.999Z</time></trkpt><trkpt lat="44.59644930951664" lon="2.694841381818143"><ele>674.0</ele><time>2026-03-26T14:39:21.999Z</time></trkpt><trkpt lat="44.59643564878128" lon="2.6949280751048494"><ele>674.0</ele><time>2026-03-26T14:39:24.999Z</time></trkpt><trkpt lat="44.5963578376057" lon="2.6949864890634294"><ele>674.0</ele><time>2026-03-26T14:39:28.999Z</time></trkpt><trkpt lat="44.596290531691295" lon="2.69489649805884"><ele>674.0</ele><time>2026-03-26T14:39:30.999Z</time></trkpt><trkpt lat="44.59627745455775" lon="2.6947482466147936"><ele>674.0</ele><time>2026-03-26T14:39:32.999Z</time></trkpt><trkpt lat="44.59629717074173" lon="2.6946443137915996"><ele>674.0</ele><time>2026-03-26T14:39:34.999Z</time></trkpt><trkpt lat="44.596300535098734" lon="2.6945497067253363"><ele>674.0</ele><time>2026-03-26T14:39:38Z</time></trkpt><trkpt lat="44.596236837497415" lon="2.6945542234207593"><ele>674.0</ele><time>2026-03-26T14:39:41Z</time></trkpt><trkpt lat="44.59618241413302" lon="2.694659730478066"><ele>674.0</ele><time>2026-03-26T14:39:43Z</time></trkpt><trkpt lat="44.59613728717997" lon="2.6948000314880423"><ele>674.0</ele><time>2026-03-26T14:39:45Z</time></trkpt><trkpt lat="44.59610341346854" lon="2.694970841613548"><ele>674.0</ele><time>2026-03-26T14:39:47Z</time></trkpt><trkpt lat="44.59608998402796" lon="2.695067067753413"><ele>669.5</ele><time>2026-03-26T14:39:48Z</time></trkpt><trkpt lat="44.59607524646294" lon="2.69515628797579"><ele>665.0</ele><time>2026-03-26T14:39:49Z</time></trkpt><trkpt lat="44.59607022412471" lon="2.6952496756465156"><ele>660.5</ele><time>2026-03-26T14:39:50Z</time></trkpt><trkpt lat="44.59607264542892" lon="2.6953460232339315"><ele>656.0</ele><time>2026-03-26T14:39:51Z</time></trkpt><trkpt lat="44.596078499711695" lon="2.695442707442495"><ele>651.5</ele><time>2026-03-26T14:39:52Z</time></trkpt><trkpt lat="44.59608754446113" lon="2.6955412566829495"><ele>647.0</ele><time>2026-03-26T14:39:53Z</time></trkpt><trkpt lat="44.59611873908881" lon="2.6957138073476883"><ele>646.5</ele><time>2026-03-26T14:39:55Z</time></trkpt><trkpt lat="44.59613660519029" lon="2.6958038663306785"><ele>646.0</ele><time>2026-03-26T14:39:56Z</time></trkpt><trkpt lat="44.59615392895681" lon="2.6958953490532247"><ele>645.5</ele><time>2026-03-26T14:39:57Z</time></trkpt><trkpt lat="44.59617607853568" lon="2.6959841274499454"><ele>645.0</ele><time>2026-03-26T14:39:58Z</time></trkpt><trkpt lat="44.59620710986991" lon="2.696114249793705"><ele>644.5</ele><time>2026-03-26T14:40:00Z</time></trkpt><trkpt lat="44.59621406069432" lon="2.6962124439293533"><ele>644.0</ele><time>2026-03-26T14:40:03Z</time></trkpt><trkpt lat="44.59628810681897" lon="2.6961159167779125"><ele>645.6666666666666</ele><time>2026-03-26T14:40:07Z</time></trkpt><trkpt lat="44.59625734662755" lon="2.6962084461750035"><ele>647.3333333333333</ele><time>2026-03-26T14:40:19Z</time></trkpt><trkpt lat="44.596256065864736" lon="2.6963228536884722"><ele>649.0</ele><time>2026-03-26T14:40:21Z</time></trkpt><trkpt lat="44.59633389411059" lon="2.6964226896160937"><ele>650.6666666666666</ele><time>2026-03-26T14:40:23Z</time></trkpt><trkpt lat="44.59640596687721" lon="2.69645453085399"><ele>652.3333333333334</ele><time>2026-03-26T14:40:24Z</time></trkpt><trkpt lat="44.596484868633134" lon="2.696457299733183"><ele>654.0</ele><time>2026-03-26T14:40:25Z</time></trkpt><trkpt lat="44.59658151901299" lon="2.6964837573400255"><ele>654.0</ele><time>2026-03-26T14:40:26Z</time></trkpt><trkpt lat="44.596674233905354" lon="2.696503351399515"><ele>654.0</ele><time>2026-03-26T14:40:27Z</time></trkpt><trkpt lat="44.596768313237234" lon="2.6964965073385656"><ele>654.0</ele><time>2026-03-26T14:40:28Z</time></trkpt><trkpt lat="44.59686717409774" lon="2.696450499280366"><ele>654.0</ele><time>2026-03-26T14:40:29Z</time></trkpt><trkpt lat="44.59695687727583" lon="2.6963958716272027"><ele>654.0</ele><time>2026-03-26T14:40:30Z</time></trkpt><trkpt lat="44.59703275724119" lon="2.6963323268116097"><ele>655.3333333333334</ele><time>2026-03-26T14:40:31Z</time></trkpt><trkpt lat="44.59710797390392" lon="2.696295225736218"><ele>656.6666666666666</ele><time>2026-03-26T14:40:32Z</time></trkpt><trkpt lat="44.597179801962895" lon="2.6962478627021693"><ele>658.0</ele><time>2026-03-26T14:40:33Z</time></trkpt><trkpt lat="44.597247466533666" lon="2.6962048071548788"><ele>659.3333333333333</ele><time>2026-03-26T14:40:34Z</time></trkpt><trkpt lat="44.597320421026254" lon="2.696196028916245"><ele>660.6666666666666</ele><time>2026-03-26T14:40:35Z</time></trkpt><trkpt lat="44.59739941713174" lon="2.696222637868331"><ele>662.0</ele><time>2026-03-26T14:40:36Z</time></trkpt><trkpt lat="44.59747468016513" lon="2.6962826044023527"><ele>662.0</ele><time>2026-03-26T14:40:37Z</time></trkpt><trkpt lat="44.59754048414951" lon="2.6963811424144755"><ele>662.0</ele><time>2026-03-26T14:40:38Z</time></trkpt><trkpt lat="44.59756717870944" lon="2.696514893633346"><ele>662.0</ele><time>2026-03-26T14:40:39Z</time></trkpt><trkpt lat="44.59759104339435" lon="2.696642046114506"><ele>662.0</ele><time>2026-03-26T14:40:40Z</time></trkpt><trkpt lat="44.59757347682944" lon="2.696765166038896"><ele>662.0</ele><time>2026-03-26T14:40:41Z</time></trkpt><trkpt lat="44.597513629146746" lon="2.6968682049689083"><ele>663.25</ele><time>2026-03-26T14:40:42Z</time></trkpt><trkpt lat="44.59744991831252" lon="2.697010380114777"><ele>664.5</ele><time>2026-03-26T14:40:43Z</time></trkpt><trkpt lat="44.59740530045874" lon="2.6971663220475444"><ele>665.75</ele><time>2026-03-26T14:40:44Z</time></trkpt><trkpt lat="44.597434888181006" lon="2.697336797175093"><ele>667.0</ele><time>2026-03-26T14:40:45Z</time></trkpt><trkpt lat="44.59745651734091" lon="2.697494315715375"><ele>667.0</ele><time>2026-03-26T14:40:46Z</time></trkpt><trkpt lat="44.59749483561669" lon="2.6976227616965702"><ele>667.0</ele><time>2026-03-26T14:40:47Z</time></trkpt><trkpt lat="44.59749875577608" lon="2.6977412599028767"><ele>667.0</ele><time>2026-03-26T14:40:48Z</time></trkpt><trkpt lat="44.59748817388644" lon="2.697870076252857"><ele>667.0</ele><time>2026-03-26T14:40:49Z</time></trkpt><trkpt lat="44.59740135018152" lon="2.697958953220499"><ele>667.0</ele><time>2026-03-26T14:40:50Z</time></trkpt><trkpt lat="44.59731968152733" lon="2.6980561270697145"><ele>669.75</ele><time>2026-03-26T14:40:51Z</time></trkpt><trkpt lat="44.59724295309213" lon="2.698173071548985"><ele>672.5</ele><time>2026-03-26T14:40:52Z</time></trkpt><trkpt lat="44.59714440954126" lon="2.6982538947188375"><ele>675.25</ele><time>2026-03-26T14:40:53Z</time></trkpt><trkpt lat="44.59705007335401" lon="2.698349900091349"><ele>678.0</ele><time>2026-03-26T14:40:54Z</time></trkpt><trkpt lat="44.59695613202021" lon="2.6984583754877693"><ele>675.75</ele><time>2026-03-26T14:40:55Z</time></trkpt><trkpt lat="44.596873015255866" lon="2.698578426053574"><ele>673.5</ele><time>2026-03-26T14:40:55.999Z</time></trkpt><trkpt lat="44.59677836958847" lon="2.698699725694225"><ele>671.25</ele><time>2026-03-26T14:40:56.999Z</time></trkpt><trkpt lat="44.596714570748965" lon="2.6988669491369137"><ele>669.0</ele><time>2026-03-26T14:40:57.999Z</time></trkpt><trkpt lat="44.59666631965484" lon="2.699035389138127"><ele>669.0</ele><time>2026-03-26T14:40:58.999Z</time></trkpt><trkpt lat="44.59662375122574" lon="2.6992089181100867"><ele>669.0</ele><time>2026-03-26T14:40:59.999Z</time></trkpt><trkpt lat="44.59659365966399" lon="2.699391293997309"><ele>669.0</ele><time>2026-03-26T14:41:00.999Z</time></trkpt><trkpt lat="44.596581059274484" lon="2.6995762870211295"><ele>669.0</ele><time>2026-03-26T14:41:01.999Z</time></trkpt><trkpt lat="44.59659220708584" lon="2.6997472326054024"><ele>669.8000000000001</ele><time>2026-03-26T14:41:02.999Z</time></trkpt><trkpt lat="44.59660023210214" lon="2.6998889983494174"><ele>670.6</ele><time>2026-03-26T14:41:03.999Z</time></trkpt><trkpt lat="44.596602529257616" lon="2.700022759408147"><ele>671.4</ele><time>2026-03-26T14:41:04.999Z</time></trkpt><trkpt lat="44.59663593490573" lon="2.7001452157069035"><ele>672.2</ele><time>2026-03-26T14:41:05.999Z</time></trkpt><trkpt lat="44.59674098028196" lon="2.7002193734813105"><ele>673.0</ele><time>2026-03-26T14:41:06.999Z</time></trkpt><trkpt lat="44.596837567285206" lon="2.7002781639075666"><ele>671.4</ele><time>2026-03-26T14:41:07.999Z</time></trkpt><trkpt lat="44.596950184562274" lon="2.700296873497447"><ele>669.8</ele><time>2026-03-26T14:41:08.999Z</time></trkpt><trkpt lat="44.59706136282587" lon="2.700280682286394"><ele>668.2</ele><time>2026-03-26T14:41:09.999Z</time></trkpt><trkpt lat="44.5971585720972" lon="2.700270064751835"><ele>666.6</ele><time>2026-03-26T14:41:10.999Z</time></trkpt><trkpt lat="44.59725372854171" lon="2.7002754989906723"><ele>665.0</ele><time>2026-03-26T14:41:11.999Z</time></trkpt><trkpt lat="44.597347369874186" lon="2.70033285069057"><ele>665.0</ele><time>2026-03-26T14:41:12.999Z</time></trkpt><trkpt lat="44.59743897285528" lon="2.7004012963690602"><ele>665.0</ele><time>2026-03-26T14:41:13.999Z</time></trkpt><trkpt lat="44.597551647321744" lon="2.7004458107582794"><ele>665.0</ele><time>2026-03-26T14:41:14.999Z</time></trkpt><trkpt lat="44.597656140534376" lon="2.7005012985835943"><ele>665.0</ele><time>2026-03-26T14:41:15.999Z</time></trkpt><trkpt lat="44.59777373340653" lon="2.7005118336995033"><ele>665.5</ele><time>2026-03-26T14:41:16.999Z</time></trkpt><trkpt lat="44.59789594980144" lon="2.7004681237277746"><ele>666.0</ele><time>2026-03-26T14:41:17.999Z</time></trkpt><trkpt lat="44.59802089213234" lon="2.700406040965631"><ele>666.5</ele><time>2026-03-26T14:41:18.999Z</time></trkpt><trkpt lat="44.598147104271234" lon="2.7003285681616367"><ele>667.0</ele><time>2026-03-26T14:41:19.999Z</time></trkpt><trkpt lat="44.598280390717015" lon="2.7002372826917664"><ele>672.75</ele><time>2026-03-26T14:41:20.999Z</time></trkpt><trkpt lat="44.59842371896347" lon="2.7001910639959656"><ele>678.5</ele><time>2026-03-26T14:41:21.999Z</time></trkpt><trkpt lat="44.59856546746655" lon="2.700181862879518"><ele>684.25</ele><time>2026-03-26T14:41:22.999Z</time></trkpt><trkpt lat="44.598713501289794" lon="2.7001758182793187"><ele>690.0</ele><time>2026-03-26T14:41:23.999Z</time></trkpt><trkpt lat="44.598869280637565" lon="2.700149012630429"><ele>690.0</ele><time>2026-03-26T14:41:24.999Z</time></trkpt><trkpt lat="44.59901774983264" lon="2.700077357739854"><ele>690.0</ele><time>2026-03-26T14:41:25.999Z</time></trkpt><trkpt lat="44.599164281604324" lon="2.7000124339262364"><ele>690.0</ele><time>2026-03-26T14:41:26.999Z</time></trkpt><trkpt lat="44.59930756677866" lon="2.699936362767057"><ele>690.0</ele><time>2026-03-26T14:41:27.999Z</time></trkpt><trkpt lat="44.59944913530044" lon="2.6998587941487453"><ele>690.0</ele><time>2026-03-26T14:41:28.999Z</time></trkpt><trkpt lat="44.59957911118525" lon="2.6998379631236182"><ele>690.0</ele><time>2026-03-26T14:41:29.999Z</time></trkpt><trkpt lat="44.599694001165965" lon="2.6998473169070483"><ele>690.0</ele><time>2026-03-26T14:41:30.999Z</time></trkpt><trkpt lat="44.59980131982649" lon="2.6998933379816217"><ele>689.75</ele><time>2026-03-26T14:41:31.999Z</time></trkpt><trkpt lat="44.599913678998476" lon="2.699971060004744"><ele>689.5</ele><time>2026-03-26T14:41:32.999Z</time></trkpt><trkpt lat="44.60004148572264" lon="2.6999930577561466"><ele>689.25</ele><time>2026-03-26T14:41:33.999Z</time></trkpt><trkpt lat="44.600181980111834" lon="2.699917687868754"><ele>689.0</ele><time>2026-03-26T14:41:34.999Z</time></trkpt><trkpt lat="44.60032578276705" lon="2.6998545343506546"><ele>689.25</ele><time>2026-03-26T14:41:35.999Z</time></trkpt><trkpt lat="44.60047326624503" lon="2.6997961845573126"><ele>689.5</ele><time>2026-03-26T14:41:36.999Z</time></trkpt><trkpt lat="44.60061468416613" lon="2.6997498324880707"><ele>689.75</ele><time>2026-03-26T14:41:37.999Z</time></trkpt><trkpt lat="44.60074425089874" lon="2.6997282886282794"><ele>690.0</ele><time>2026-03-26T14:41:38.999Z</time></trkpt><trkpt lat="44.60087410011487" lon="2.6997465245131886"><ele>690.0</ele><time>2026-03-26T14:41:39.999Z</time></trkpt><trkpt lat="44.60100490360726" lon="2.6997948108675045"><ele>690.0</ele><time>2026-03-26T14:41:41Z</time></trkpt><trkpt lat="44.60113679361298" lon="2.699869403023498"><ele>690.0</ele><time>2026-03-26T14:41:42Z</time></trkpt><trkpt lat="44.601272682174866" lon="2.6999348970834594"><ele>690.0</ele><time>2026-03-26T14:41:43Z</time></trkpt><trkpt lat="44.60141347960997" lon="2.699981538570611"><ele>692.6666666666666</ele><time>2026-03-26T14:41:44Z</time></trkpt><trkpt lat="44.60155879803477" lon="2.7000232177047567"><ele>695.3333333333333</ele><time>2026-03-26T14:41:45Z</time></trkpt><trkpt lat="44.601705319858254" lon="2.7000729383293685"><ele>698.0</ele><time>2026-03-26T14:41:46Z</time></trkpt><trkpt lat="44.601846856997156" lon="2.700152667278357"><ele>696.25</ele><time>2026-03-26T14:41:47Z</time></trkpt><trkpt lat="44.60197657414238" lon="2.7002580348988943"><ele>694.5</ele><time>2026-03-26T14:41:48Z</time></trkpt><trkpt lat="44.602091500662766" lon="2.7003763799250007"><ele>692.75</ele><time>2026-03-26T14:41:49Z</time></trkpt><trkpt lat="44.6021968433126" lon="2.7005301160029958"><ele>691.0</ele><time>2026-03-26T14:41:50Z</time></trkpt><trkpt lat="44.60228643520284" lon="2.700677103558498"><ele>694.5</ele><time>2026-03-26T14:41:51Z</time></trkpt><trkpt lat="44.602381399989895" lon="2.700806053550928"><ele>698.0</ele><time>2026-03-26T14:41:52Z</time></trkpt><trkpt lat="44.60250029793056" lon="2.7008925866247173"><ele>701.5</ele><time>2026-03-26T14:41:53Z</time></trkpt><trkpt lat="44.60261480035733" lon="2.7009454021555492"><ele>705.0</ele><time>2026-03-26T14:41:54Z</time></trkpt><trkpt lat="44.60268555179618" lon="2.700965460498848"><ele>705.0</ele><time>2026-03-26T14:41:55Z</time></trkpt><trkpt lat="44.60260159290862" lon="2.7009329276832457"><ele>705.0</ele><time>2026-03-26T14:42:13Z</time></trkpt><trkpt lat="44.60256266128399" lon="2.7007804632296297"><ele>705.0</ele><time>2026-03-26T14:42:14Z</time></trkpt><trkpt lat="44.60249664793117" lon="2.70069413926281"><ele>705.0</ele><time>2026-03-26T14:42:15Z</time></trkpt><trkpt lat="44.60242539326185" lon="2.7005880419536314"><ele>705.0</ele><time>2026-03-26T14:42:16Z</time></trkpt><trkpt lat="44.60227826728818" lon="2.700590377652059"><ele>705.0</ele><time>2026-03-26T14:42:17Z</time></trkpt><trkpt lat="44.602210645853965" lon="2.7005011460963013"><ele>705.0</ele><time>2026-03-26T14:42:18Z</time></trkpt><trkpt lat="44.60217732750624" lon="2.70041134708719"><ele>705.0</ele><time>2026-03-26T14:42:20Z</time></trkpt><trkpt lat="44.60237335303692" lon="2.7001154368526015"><ele>705.5</ele><time>2026-03-26T14:42:21Z</time></trkpt><trkpt lat="44.60244559504682" lon="2.7000638948165863"><ele>706.0</ele><time>2026-03-26T14:42:22Z</time></trkpt><trkpt lat="44.60253710156244" lon="2.700011111495766"><ele>706.5</ele><time>2026-03-26T14:42:23Z</time></trkpt><trkpt lat="44.60267220302409" lon="2.6999521720044766"><ele>707.0</ele><time>2026-03-26T14:42:24Z</time></trkpt><trkpt lat="44.602818348955246" lon="2.6998857134667285"><ele>710.0</ele><time>2026-03-26T14:42:25Z</time></trkpt><trkpt lat="44.60297130103129" lon="2.699808432035191"><ele>713.0</ele><time>2026-03-26T14:42:26Z</time></trkpt><trkpt lat="44.60313828961327" lon="2.699720246202133"><ele>716.0</ele><time>2026-03-26T14:42:27Z</time></trkpt><trkpt lat="44.603297713880174" lon="2.6996380895620717"><ele>716.0</ele><time>2026-03-26T14:42:28Z</time></trkpt><trkpt lat="44.60343832616163" lon="2.6995572327915447"><ele>716.0</ele><time>2026-03-26T14:42:29Z</time></trkpt><trkpt lat="44.60357071749865" lon="2.699477792366905"><ele>716.0</ele><time>2026-03-26T14:42:30Z</time></trkpt><trkpt lat="44.60368790156967" lon="2.699429807574527"><ele>716.0</ele><time>2026-03-26T14:42:31Z</time></trkpt><trkpt lat="44.60378450119606" lon="2.699410101105828"><ele>716.0</ele><time>2026-03-26T14:42:32Z</time></trkpt><trkpt lat="44.60387588931581" lon="2.6994043387143494"><ele>716.0</ele><time>2026-03-26T14:42:33Z</time></trkpt><trkpt lat="44.603960342423626" lon="2.699420932264856"><ele>716.0</ele><time>2026-03-26T14:42:34Z</time></trkpt><trkpt lat="44.60403465473678" lon="2.6994614208553243"><ele>716.0</ele><time>2026-03-26T14:42:35Z</time></trkpt><trkpt lat="44.604131213612746" lon="2.6995126634639437"><ele>716.0</ele><time>2026-03-26T14:42:36Z</time></trkpt><trkpt lat="44.6042353286806" lon="2.6995761289885394"><ele>715.8</ele><time>2026-03-26T14:42:37Z</time></trkpt><trkpt lat="44.604327666567016" lon="2.6996271864659764"><ele>715.5999999999999</ele><time>2026-03-26T14:42:38Z</time></trkpt><trkpt lat="44.60440233506949" lon="2.699692403538854"><ele>715.4</ele><time>2026-03-26T14:42:39Z</time></trkpt><trkpt lat="44.60445739680601" lon="2.6997869192724"><ele>715.2</ele><time>2026-03-26T14:42:40Z</time></trkpt><trkpt lat="44.604495106555454" lon="2.6999102290126866"><ele>715.0</ele><time>2026-03-26T14:42:41Z</time></trkpt><trkpt lat="44.604549262449396" lon="2.700034583308349"><ele>715.0</ele><time>2026-03-26T14:42:42Z</time></trkpt><trkpt lat="44.604594565366995" lon="2.7001350412593124"><ele>715.0</ele><time>2026-03-26T14:42:43Z</time></trkpt><trkpt lat="44.60465017475408" lon="2.7002035067066767"><ele>715.0</ele><time>2026-03-26T14:42:44Z</time></trkpt><trkpt lat="44.60474329470331" lon="2.7002579614153666"><ele>715.0</ele><time>2026-03-26T14:42:46Z</time></trkpt><trkpt lat="44.60481228234717" lon="2.7002805526739544"><ele>715.0</ele><time>2026-03-26T14:42:48Z</time></trkpt><trkpt lat="44.60489057050251" lon="2.70024712851098"><ele>715.0</ele><time>2026-03-26T14:42:50Z</time></trkpt><trkpt lat="44.60493211102752" lon="2.7001607547628845"><ele>715.0</ele><time>2026-03-26T14:42:52Z</time></trkpt><trkpt lat="44.6049981817297" lon="2.70004164923"><ele>715.0</ele><time>2026-03-26T14:42:55Z</time></trkpt><trkpt lat="44.60508467622885" lon="2.6999867909330715"><ele>715.0</ele><time>2026-03-26T14:42:57Z</time></trkpt><trkpt lat="44.60515783366505" lon="2.699978969909512"><ele>715.0</ele><time>2026-03-26T14:42:57.999Z</time></trkpt><trkpt lat="44.60523000125675" lon="2.699961182645031"><ele>715.0</ele><time>2026-03-26T14:42:58.999Z</time></trkpt><trkpt lat="44.605297999246616" lon="2.699931991414032"><ele>715.0</ele><time>2026-03-26T14:42:59.999Z</time></trkpt><trkpt lat="44.605358913631456" lon="2.699874203881219"><ele>715.8333333333334</ele><time>2026-03-26T14:43:00.999Z</time></trkpt><trkpt lat="44.60541218606646" lon="2.699818549955113"><ele>716.6666666666667</ele><time>2026-03-26T14:43:01.999Z</time></trkpt><trkpt lat="44.605475480027344" lon="2.6997793640228105"><ele>717.5</ele><time>2026-03-26T14:43:02.999Z</time></trkpt><trkpt lat="44.60554715385722" lon="2.6997432699608876"><ele>718.3333333333334</ele><time>2026-03-26T14:43:03.999Z</time></trkpt><trkpt lat="44.605608451857876" lon="2.699713039865517"><ele>719.1666666666666</ele><time>2026-03-26T14:43:04.999Z</time></trkpt><trkpt lat="44.60570932749972" lon="2.6996212563833373"><ele>720.0</ele><time>2026-03-26T14:43:06.999Z</time></trkpt><trkpt lat="44.60579464948706" lon="2.6995626372328467"><ele>720.0</ele><time>2026-03-26T14:43:07.999Z</time></trkpt><trkpt lat="44.60589261449035" lon="2.6994904554143244"><ele>720.0</ele><time>2026-03-26T14:43:08.999Z</time></trkpt><trkpt lat="44.60597294189822" lon="2.6994076394464566"><ele>720.0</ele><time>2026-03-26T14:43:09.999Z</time></trkpt><trkpt lat="44.606029083310624" lon="2.6993611142883758"><ele>720.0</ele><time>2026-03-26T14:43:10.999Z</time></trkpt><trkpt lat="44.60613980595357" lon="2.699294030053448"><ele>720.0</ele><time>2026-03-26T14:43:12.999Z</time></trkpt><trkpt lat="44.60618924770482" lon="2.699158087874272"><ele>723.8</ele><time>2026-03-26T14:43:14.999Z</time></trkpt><trkpt lat="44.60624542186407" lon="2.6990929421349774"><ele>727.6</ele><time>2026-03-26T14:43:15.999Z</time></trkpt><trkpt lat="44.60632542079139" lon="2.698950034758393"><ele>731.4000000000001</ele><time>2026-03-26T14:43:17.999Z</time></trkpt><trkpt lat="44.6063972757862" lon="2.6988710655784347"><ele>735.2</ele><time>2026-03-26T14:43:18.999Z</time></trkpt><trkpt lat="44.60644415153" lon="2.6988079248485497"><ele>739.0</ele><time>2026-03-26T14:43:19.999Z</time></trkpt><trkpt lat="44.60653852015222" lon="2.6987895511348636"><ele>739.0</ele><time>2026-03-26T14:43:21.999Z</time></trkpt><trkpt lat="44.606637426240304" lon="2.6988510228426574"><ele>739.0</ele><time>2026-03-26T14:43:23.999Z</time></trkpt><trkpt lat="44.60667493492772" lon="2.69894485250786"><ele>739.0</ele><time>2026-03-26T14:43:24.999Z</time></trkpt><trkpt lat="44.606730938071536" lon="2.699019168497928"><ele>739.0</ele><time>2026-03-26T14:43:25.999Z</time></trkpt><trkpt lat="44.60683984297742" lon="2.699001518588984"><ele>739.0</ele><time>2026-03-26T14:43:27.999Z</time></trkpt><trkpt lat="44.6068886552034" lon="2.698930932250439"><ele>739.0</ele><time>2026-03-26T14:43:30.999Z</time></trkpt><trkpt lat="44.60692314402229" lon="2.6988495384411144"><ele>739.0</ele><time>2026-03-26T14:43:32.999Z</time></trkpt><trkpt lat="44.60698465115116" lon="2.698719861983328"><ele>739.0</ele><time>2026-03-26T14:43:34.999Z</time></trkpt><trkpt lat="44.607038733053535" lon="2.6986056794415503"><ele>739.0</ele><time>2026-03-26T14:43:36.999Z</time></trkpt><trkpt lat="44.607313758871435" lon="2.6982639163183126"><ele>739.8333333333334</ele><time>2026-03-26T14:43:39.999Z</time></trkpt><trkpt lat="44.60735640661528" lon="2.6981551954912035"><ele>740.6666666666667</ele><time>2026-03-26T14:43:40.999Z</time></trkpt><trkpt lat="44.60738537272665" lon="2.698030202796791"><ele>741.5</ele><time>2026-03-26T14:43:41.999Z</time></trkpt><trkpt lat="44.60741540403787" lon="2.6979101765880116"><ele>742.3333333333334</ele><time>2026-03-26T14:43:42.999Z</time></trkpt><trkpt lat="44.60744806178811" lon="2.697792577888251"><ele>743.1666666666666</ele><time>2026-03-26T14:43:43.999Z</time></trkpt><trkpt lat="44.607480941949035" lon="2.697680844816022"><ele>744.0</ele><time>2026-03-26T14:43:44.999Z</time></trkpt><trkpt lat="44.60751046831168" lon="2.697585109060656"><ele>745.3333333333334</ele><time>2026-03-26T14:43:45.999Z</time></trkpt><trkpt lat="44.607537330048046" lon="2.697492987852838"><ele>746.6666666666666</ele><time>2026-03-26T14:43:47Z</time></trkpt><trkpt lat="44.60754558846968" lon="2.6973241998552853"><ele>748.0</ele><time>2026-03-26T14:43:49Z</time></trkpt><trkpt lat="44.607527911662466" lon="2.6972229543145883"><ele>749.3333333333333</ele><time>2026-03-26T14:43:51Z</time></trkpt><trkpt lat="44.60757121145839" lon="2.697151372358527"><ele>750.6666666666666</ele><time>2026-03-26T14:43:54Z</time></trkpt><trkpt lat="44.60761271253346" lon="2.6972285769692554"><ele>752.0</ele><time>2026-03-26T14:43:56Z</time></trkpt><trkpt lat="44.607684795559905" lon="2.6972489427355413"><ele>752.0</ele><time>2026-03-26T14:43:58Z</time></trkpt><trkpt lat="44.607739841056905" lon="2.6971518731840187"><ele>752.0</ele><time>2026-03-26T14:44:00Z</time></trkpt><trkpt lat="44.60783760995289" lon="2.6970766144274148"><ele>752.0</ele><time>2026-03-26T14:44:02Z</time></trkpt><trkpt lat="44.607932770507496" lon="2.6969539188383083"><ele>752.0</ele><time>2026-03-26T14:44:04Z</time></trkpt><trkpt lat="44.60797184852039" lon="2.6968569585875732"><ele>752.0</ele><time>2026-03-26T14:44:05Z</time></trkpt><trkpt lat="44.608026197500905" lon="2.696778468170698"><ele>753.1666666666666</ele><time>2026-03-26T14:44:06Z</time></trkpt><trkpt lat="44.608090242284916" lon="2.6967070133696804"><ele>754.3333333333333</ele><time>2026-03-26T14:44:07Z</time></trkpt><trkpt lat="44.60814511884961" lon="2.696632726349196"><ele>755.5</ele><time>2026-03-26T14:44:08Z</time></trkpt><trkpt lat="44.60819721550983" lon="2.6965544412327853"><ele>756.6666666666666</ele><time>2026-03-26T14:44:09Z</time></trkpt><trkpt lat="44.60826250760638" lon="2.696454053158494"><ele>757.8333333333334</ele><time>2026-03-26T14:44:10Z</time></trkpt><trkpt lat="44.6082984521163" lon="2.696352135582297"><ele>759.0</ele><time>2026-03-26T14:44:11Z</time></trkpt><trkpt lat="44.608336382570776" lon="2.6962307051468994"><ele>759.0</ele><time>2026-03-26T14:44:12Z</time></trkpt><trkpt lat="44.60836437857945" lon="2.696134785080073"><ele>759.0</ele><time>2026-03-26T14:44:13Z</time></trkpt><trkpt lat="44.60839938487615" lon="2.6959896099772136"><ele>759.0</ele><time>2026-03-26T14:44:15Z</time></trkpt><trkpt lat="44.60836836770657" lon="2.695847745700216"><ele>759.0</ele><time>2026-03-26T14:44:17Z</time></trkpt><trkpt lat="44.60834773555246" lon="2.6956918414808215"><ele>759.0</ele><time>2026-03-26T14:44:19Z</time></trkpt><trkpt lat="44.608293243050525" lon="2.695604955464005"><ele>759.1666666666666</ele><time>2026-03-26T14:44:45Z</time></trkpt><trkpt lat="44.60822990966912" lon="2.6955715576419155"><ele>759.3333333333334</ele><time>2026-03-26T14:44:46Z</time></trkpt><trkpt lat="44.60821048118049" lon="2.695418844747891"><ele>759.5</ele><time>2026-03-26T14:44:49Z</time></trkpt><trkpt lat="44.60823269122637" lon="2.6953254068394465"><ele>759.6666666666667</ele><time>2026-03-26T14:44:50Z</time></trkpt><trkpt lat="44.6082552681191" lon="2.6952190358865775"><ele>759.8333333333334</ele><time>2026-03-26T14:44:51Z</time></trkpt><trkpt lat="44.608280551660684" lon="2.6951163234720603"><ele>760.0</ele><time>2026-03-26T14:44:52Z</time></trkpt><trkpt lat="44.60830284983285" lon="2.6950021236444197"><ele>760.8</ele><time>2026-03-26T14:44:53Z</time></trkpt><trkpt lat="44.60832629365285" lon="2.694894059084271"><ele>761.6</ele><time>2026-03-26T14:44:54Z</time></trkpt><trkpt lat="44.608367329140584" lon="2.6947831531142534"><ele>762.4000000000001</ele><time>2026-03-26T14:44:55Z</time></trkpt><trkpt lat="44.60842537792391" lon="2.6946774006691765"><ele>763.2</ele><time>2026-03-26T14:44:56Z</time></trkpt><trkpt lat="44.60848752609525" lon="2.69457884488767"><ele>764.0</ele><time>2026-03-26T14:44:57Z</time></trkpt><trkpt lat="44.60855601984627" lon="2.6944777792507053"><ele>764.25</ele><time>2026-03-26T14:44:58Z</time></trkpt><trkpt lat="44.608632481149506" lon="2.6943698763163897"><ele>764.5</ele><time>2026-03-26T14:44:59Z</time></trkpt><trkpt lat="44.60870016651944" lon="2.6942645885414986"><ele>764.75</ele><time>2026-03-26T14:45:00Z</time></trkpt><trkpt lat="44.60877772959783" lon="2.6941595956044537"><ele>765.0</ele><time>2026-03-26T14:45:01Z</time></trkpt><trkpt lat="44.60896373171254" lon="2.6940000543880083"><ele>766.4</ele><time>2026-03-26T14:45:02.999Z</time></trkpt><trkpt lat="44.60905020617844" lon="2.693960820352197"><ele>767.8</ele><time>2026-03-26T14:45:03.999Z</time></trkpt><trkpt lat="44.609136215777426" lon="2.693966332028767"><ele>769.2</ele><time>2026-03-26T14:45:04.999Z</time></trkpt><trkpt lat="44.609227313193614" lon="2.693984608013628"><ele>770.6</ele><time>2026-03-26T14:45:05.999Z</time></trkpt><trkpt lat="44.60932912064209" lon="2.6939771761437825"><ele>772.0</ele><time>2026-03-26T14:45:06.999Z</time></trkpt><trkpt lat="44.60944111686179" lon="2.6939328454260063"><ele>772.0</ele><time>2026-03-26T14:45:07.999Z</time></trkpt><trkpt lat="44.60956434973289" lon="2.6938808135574126"><ele>772.0</ele><time>2026-03-26T14:45:08.999Z</time></trkpt><trkpt lat="44.60969569919545" lon="2.6938196993061796"><ele>772.0</ele><time>2026-03-26T14:45:09.999Z</time></trkpt><trkpt lat="44.60983266605315" lon="2.6937402210200148"><ele>772.0</ele><time>2026-03-26T14:45:10.999Z</time></trkpt><trkpt lat="44.609959934950204" lon="2.6936579406561747"><ele>772.75</ele><time>2026-03-26T14:45:11.999Z</time></trkpt><trkpt lat="44.61007409950584" lon="2.6935626492787157"><ele>773.5</ele><time>2026-03-26T14:45:12.999Z</time></trkpt><trkpt lat="44.61018207776668" lon="2.6934481979320815"><ele>774.25</ele><time>2026-03-26T14:45:13.999Z</time></trkpt><trkpt lat="44.61026498823027" lon="2.6933019933359943"><ele>775.0</ele><time>2026-03-26T14:45:14.999Z</time></trkpt><trkpt lat="44.61035358812957" lon="2.6931471090481685"><ele>773.6666666666666</ele><time>2026-03-26T14:45:15.999Z</time></trkpt><trkpt lat="44.61044866813855" lon="2.692985355194677"><ele>772.3333333333333</ele><time>2026-03-26T14:45:16.999Z</time></trkpt><trkpt lat="44.61054605791415" lon="2.692837783951873"><ele>771.0</ele><time>2026-03-26T14:45:17.999Z</time></trkpt><trkpt lat="44.61065950283943" lon="2.6926848304562037"><ele>771.0</ele><time>2026-03-26T14:45:18.999Z</time></trkpt><trkpt lat="44.61077611112219" lon="2.6925316153424714"><ele>771.0</ele><time>2026-03-26T14:45:19.999Z</time></trkpt><trkpt lat="44.61091094889825" lon="2.6923961221907917"><ele>771.0</ele><time>2026-03-26T14:45:20.999Z</time></trkpt><trkpt lat="44.611053666237865" lon="2.692260954992519"><ele>770.6666666666667</ele><time>2026-03-26T14:45:21.999Z</time></trkpt><trkpt lat="44.611198754759315" lon="2.6921479895335256"><ele>770.3333333333334</ele><time>2026-03-26T14:45:22.999Z</time></trkpt><trkpt lat="44.611326250107766" lon="2.692021745402068"><ele>770.0</ele><time>2026-03-26T14:45:23.999Z</time></trkpt><trkpt lat="44.61144175900083" lon="2.691911343452269"><ele>769.6666666666667</ele><time>2026-03-26T14:45:24.999Z</time></trkpt><trkpt lat="44.61154631714257" lon="2.6918221084439176"><ele>769.3333333333334</ele><time>2026-03-26T14:45:25.999Z</time></trkpt><trkpt lat="44.61163551206793" lon="2.691751213029531"><ele>769.0</ele><time>2026-03-26T14:45:26.999Z</time></trkpt><trkpt lat="44.611705292547" lon="2.691693948764683"><ele>768.6666666666667</ele><time>2026-03-26T14:45:27.999Z</time></trkpt><trkpt lat="44.61176468344333" lon="2.691643808575325"><ele>768.3333333333334</ele><time>2026-03-26T14:45:28.999Z</time></trkpt><trkpt lat="44.611823846100805" lon="2.691585188099509"><ele>768.0</ele><time>2026-03-26T14:45:30.999Z</time></trkpt><trkpt lat="44.611844284054335" lon="2.6914789148142098"><ele>768.0</ele><time>2026-03-26T14:45:32.999Z</time></trkpt><trkpt lat="44.6119295925045" lon="2.6913515358919344"><ele>768.0</ele><time>2026-03-26T14:45:34.999Z</time></trkpt><trkpt lat="44.61200788799172" lon="2.691246677339539"><ele>768.0</ele><time>2026-03-26T14:45:36.999Z</time></trkpt><trkpt lat="44.61205804880866" lon="2.6911828174858754"><ele>768.0</ele><time>2026-03-26T14:45:38.999Z</time></trkpt><trkpt lat="44.61200370501462" lon="2.6912441156566986"><ele>768.0</ele><time>2026-03-26T14:45:49.999Z</time></trkpt><trkpt lat="44.611942067928155" lon="2.6913217588852008"><ele>768.0</ele><time>2026-03-26T14:45:50.999Z</time></trkpt><trkpt lat="44.61188701176022" lon="2.691395499245418"><ele>768.0</ele><time>2026-03-26T14:45:51.999Z</time></trkpt><trkpt lat="44.611832087366246" lon="2.691497915833213"><ele>768.0</ele><time>2026-03-26T14:45:54Z</time></trkpt><trkpt lat="44.611885176527004" lon="2.6915595376592383"><ele>768.0</ele><time>2026-03-26T14:45:59Z</time></trkpt><trkpt lat="44.61201097218835" lon="2.6915848031517053"><ele>768.0</ele><time>2026-03-26T14:46:01Z</time></trkpt><trkpt lat="44.61223218008898" lon="2.691779461640013"><ele>768.4</ele><time>2026-03-26T14:46:02Z</time></trkpt><trkpt lat="44.61231269145517" lon="2.691832297490726"><ele>768.8</ele><time>2026-03-26T14:46:03Z</time></trkpt><trkpt lat="44.61240323497393" lon="2.691879664435378"><ele>769.2</ele><time>2026-03-26T14:46:04Z</time></trkpt><trkpt lat="44.61249913123735" lon="2.69193372524305"><ele>769.6</ele><time>2026-03-26T14:46:05Z</time></trkpt><trkpt lat="44.61259624573145" lon="2.6920022191399626"><ele>770.0</ele><time>2026-03-26T14:46:06Z</time></trkpt><trkpt lat="44.61268856763411" lon="2.69206733561462"><ele>771.0</ele><time>2026-03-26T14:46:07Z</time></trkpt><trkpt lat="44.61278392136606" lon="2.6921343477523143"><ele>772.0</ele><time>2026-03-26T14:46:08Z</time></trkpt><trkpt lat="44.612875593812305" lon="2.6922024915950917"><ele>773.0</ele><time>2026-03-26T14:46:09Z</time></trkpt><trkpt lat="44.61298376073143" lon="2.692285238855705"><ele>774.0</ele><time>2026-03-26T14:46:10Z</time></trkpt><trkpt lat="44.613110121635565" lon="2.6923802122979725"><ele>774.3333333333333</ele><time>2026-03-26T14:46:11Z</time></trkpt><trkpt lat="44.61323538619952" lon="2.6924829802507295"><ele>774.6666666666666</ele><time>2026-03-26T14:46:12Z</time></trkpt><trkpt lat="44.613363977006195" lon="2.692605471266549"><ele>775.0</ele><time>2026-03-26T14:46:13Z</time></trkpt><trkpt lat="44.61350909293656" lon="2.692723533613076"><ele>776.6666666666666</ele><time>2026-03-26T14:46:14Z</time></trkpt><trkpt lat="44.61366374632353" lon="2.6928457884878276"><ele>778.3333333333333</ele><time>2026-03-26T14:46:15Z</time></trkpt><trkpt lat="44.613815377848404" lon="2.6929629738695637"><ele>780.0</ele><time>2026-03-26T14:46:16Z</time></trkpt><trkpt lat="44.61396892642124" lon="2.6930785657247736"><ele>780.0</ele><time>2026-03-26T14:46:17Z</time></trkpt><trkpt lat="44.614127120811766" lon="2.6931925455900605"><ele>780.0</ele><time>2026-03-26T14:46:18Z</time></trkpt><trkpt lat="44.614281070951456" lon="2.6933113520493657"><ele>780.0</ele><time>2026-03-26T14:46:19Z</time></trkpt><trkpt lat="44.6144298293969" lon="2.693425192936246"><ele>781.0</ele><time>2026-03-26T14:46:20Z</time></trkpt><trkpt lat="44.61457042597402" lon="2.693537263721989"><ele>782.0</ele><time>2026-03-26T14:46:21Z</time></trkpt><trkpt lat="44.614710102094904" lon="2.6936432972523074"><ele>783.0</ele><time>2026-03-26T14:46:22Z</time></trkpt><trkpt lat="44.61485177114366" lon="2.693706709582378"><ele>784.25</ele><time>2026-03-26T14:46:23Z</time></trkpt><trkpt lat="44.61498821466399" lon="2.693757857782687"><ele>785.5</ele><time>2026-03-26T14:46:24Z</time></trkpt><trkpt lat="44.615143522453664" lon="2.69376405437073"><ele>786.75</ele><time>2026-03-26T14:46:25Z</time></trkpt><trkpt lat="44.61528187872797" lon="2.693761769491606"><ele>788.0</ele><time>2026-03-26T14:46:26Z</time></trkpt><trkpt lat="44.615382251791964" lon="2.693799452500117"><ele>787.8</ele><time>2026-03-26T14:46:27Z</time></trkpt><trkpt lat="44.61545203485497" lon="2.69384422232279"><ele>787.5999999999999</ele><time>2026-03-26T14:46:28Z</time></trkpt><trkpt lat="44.615537656674896" lon="2.6938839729363697"><ele>787.4000000000001</ele><time>2026-03-26T14:46:30Z</time></trkpt><trkpt lat="44.61557541992025" lon="2.6938074066418256"><ele>787.2</ele><time>2026-03-26T14:46:33Z</time></trkpt><trkpt lat="44.61558311686855" lon="2.6935836805209785"><ele>787.0</ele><time>2026-03-26T14:46:35Z</time></trkpt><trkpt lat="44.61557627490384" lon="2.6934494738645425"><ele>787.0</ele><time>2026-03-26T14:46:36Z</time></trkpt><trkpt lat="44.61559158070235" lon="2.693299023667541"><ele>787.0</ele><time>2026-03-26T14:46:37Z</time></trkpt><trkpt lat="44.61561870527878" lon="2.6931386830954858"><ele>787.0</ele><time>2026-03-26T14:46:38Z</time></trkpt><trkpt lat="44.61566459927274" lon="2.692984503471514"><ele>787.0</ele><time>2026-03-26T14:46:39Z</time></trkpt><trkpt lat="44.61571555409403" lon="2.692817841555067"><ele>785.0</ele><time>2026-03-26T14:46:40Z</time></trkpt><trkpt lat="44.615777569703226" lon="2.6926331756871114"><ele>783.0</ele><time>2026-03-26T14:46:41Z</time></trkpt><trkpt lat="44.615837881313055" lon="2.6924356422889733"><ele>781.0</ele><time>2026-03-26T14:46:42Z</time></trkpt><trkpt lat="44.61589652788661" lon="2.6922365943715443"><ele>781.0</ele><time>2026-03-26T14:46:43Z</time></trkpt><trkpt lat="44.61594817596446" lon="2.6920404452866866"><ele>781.0</ele><time>2026-03-26T14:46:44Z</time></trkpt><trkpt lat="44.6160064113117" lon="2.691837501816777"><ele>781.0</ele><time>2026-03-26T14:46:45Z</time></trkpt><trkpt lat="44.61606916237355" lon="2.691630294418518"><ele>780.0</ele><time>2026-03-26T14:46:46Z</time></trkpt><trkpt lat="44.61612401668122" lon="2.6914106446526422"><ele>779.0</ele><time>2026-03-26T14:46:47Z</time></trkpt><trkpt lat="44.61618802243819" lon="2.691201417800539"><ele>778.0</ele><time>2026-03-26T14:46:48Z</time></trkpt><trkpt lat="44.61626416279341" lon="2.6910140064403536"><ele>776.3333333333333</ele><time>2026-03-26T14:46:49Z</time></trkpt><trkpt lat="44.61635108254947" lon="2.69083751872968"><ele>774.6666666666667</ele><time>2026-03-26T14:46:50Z</time></trkpt><trkpt lat="44.61645275243302" lon="2.6906715861161663"><ele>773.0</ele><time>2026-03-26T14:46:51Z</time></trkpt><trkpt lat="44.616577881372066" lon="2.690538395879362"><ele>773.0</ele><time>2026-03-26T14:46:52Z</time></trkpt><trkpt lat="44.61670139363562" lon="2.690394099512802"><ele>773.0</ele><time>2026-03-26T14:46:53Z</time></trkpt><trkpt lat="44.61683151610709" lon="2.690225244076605"><ele>773.0</ele><time>2026-03-26T14:46:54Z</time></trkpt><trkpt lat="44.61696114237562" lon="2.6900635053173216"><ele>772.3333333333334</ele><time>2026-03-26T14:46:55Z</time></trkpt><trkpt lat="44.6170953974129" lon="2.6898922167845876"><ele>771.6666666666667</ele><time>2026-03-26T14:46:56Z</time></trkpt><trkpt lat="44.61723615578356" lon="2.6897065679644943"><ele>771.0</ele><time>2026-03-26T14:46:57Z</time></trkpt><trkpt lat="44.61737941763205" lon="2.6895169481057057"><ele>770.3333333333333</ele><time>2026-03-26T14:46:58Z</time></trkpt><trkpt lat="44.617517897933425" lon="2.689335776533744"><ele>769.6666666666666</ele><time>2026-03-26T14:46:59Z</time></trkpt><trkpt lat="44.6176510688575" lon="2.689159566990801"><ele>769.0</ele><time>2026-03-26T14:47:00Z</time></trkpt><trkpt lat="44.61777659245431" lon="2.688981607654618"><ele>769.0</ele><time>2026-03-26T14:47:01Z</time></trkpt><trkpt lat="44.61788708082963" lon="2.688802850714071"><ele>769.0</ele><time>2026-03-26T14:47:02Z</time></trkpt><trkpt lat="44.617991973242006" lon="2.688621357151683"><ele>769.0</ele><time>2026-03-26T14:47:03Z</time></trkpt><trkpt lat="44.61808532129569" lon="2.688452268484085"><ele>770.0</ele><time>2026-03-26T14:47:03.999Z</time></trkpt><trkpt lat="44.61817969335303" lon="2.6882816212392027"><ele>771.0</ele><time>2026-03-26T14:47:04.999Z</time></trkpt><trkpt lat="44.61825117554499" lon="2.6881127902386366"><ele>772.0</ele><time>2026-03-26T14:47:05.999Z</time></trkpt><trkpt lat="44.61831469281985" lon="2.6879382487607946"><ele>773.0</ele><time>2026-03-26T14:47:06.999Z</time></trkpt><trkpt lat="44.61837186129676" lon="2.6877704911630707"><ele>773.8</ele><time>2026-03-26T14:47:07.999Z</time></trkpt><trkpt lat="44.61842188123984" lon="2.6876125755444136"><ele>774.5999999999999</ele><time>2026-03-26T14:47:08.999Z</time></trkpt><trkpt lat="44.618471101490655" lon="2.687471482866616"><ele>775.4000000000001</ele><time>2026-03-26T14:47:09.999Z</time></trkpt><trkpt lat="44.61851384766015" lon="2.6873495395408105"><ele>776.2</ele><time>2026-03-26T14:47:10.999Z</time></trkpt><trkpt lat="44.618553456042896" lon="2.6872358146684783"><ele>777.0</ele><time>2026-03-26T14:47:11.999Z</time></trkpt><trkpt lat="44.61859259032159" lon="2.687121157630403"><ele>777.0</ele><time>2026-03-26T14:47:12.999Z</time></trkpt><trkpt lat="44.61861879361753" lon="2.68700948325285"><ele>777.0</ele><time>2026-03-26T14:47:13.999Z</time></trkpt><trkpt lat="44.61863914369438" lon="2.6868878047765796"><ele>777.0</ele><time>2026-03-26T14:47:14.999Z</time></trkpt><trkpt lat="44.618658956963365" lon="2.6867416983542025"><ele>777.0</ele><time>2026-03-26T14:47:15.999Z</time></trkpt><trkpt lat="44.61869150450424" lon="2.6865747424956203"><ele>777.0</ele><time>2026-03-26T14:47:16.999Z</time></trkpt><trkpt lat="44.6187183279299" lon="2.686404083841822"><ele>776.25</ele><time>2026-03-26T14:47:17.999Z</time></trkpt><trkpt lat="44.618727561327304" lon="2.6862131334957273"><ele>775.5</ele><time>2026-03-26T14:47:18.999Z</time></trkpt><trkpt lat="44.618739221060686" lon="2.6860391121617258"><ele>774.75</ele><time>2026-03-26T14:47:19.999Z</time></trkpt><trkpt lat="44.61877176155268" lon="2.685888247476491"><ele>774.0</ele><time>2026-03-26T14:47:20.999Z</time></trkpt><trkpt lat="44.61878447957075" lon="2.6857419887005847"><ele>773.3333333333334</ele><time>2026-03-26T14:47:21.999Z</time></trkpt><trkpt lat="44.61879688633796" lon="2.6856150825147003"><ele>772.6666666666667</ele><time>2026-03-26T14:47:22.999Z</time></trkpt><trkpt lat="44.61881002150622" lon="2.68552154905722"><ele>772.0</ele><time>2026-03-26T14:47:23.999Z</time></trkpt><trkpt lat="44.61878284443051" lon="2.685621513651045"><ele>771.3333333333334</ele><time>2026-03-26T14:47:31.999Z</time></trkpt><trkpt lat="44.61878775827512" lon="2.6857165181875575"><ele>770.6666666666667</ele><time>2026-03-26T14:47:32.999Z</time></trkpt><trkpt lat="44.618821717823984" lon="2.685822118698677"><ele>770.0</ele><time>2026-03-26T14:47:34.999Z</time></trkpt><trkpt lat="44.6189322643922" lon="2.6858051035395545"><ele>770.0</ele><time>2026-03-26T14:47:36.999Z</time></trkpt><trkpt lat="44.61901302465175" lon="2.6857893357298583"><ele>770.0</ele><time>2026-03-26T14:47:37.999Z</time></trkpt><trkpt lat="44.61909969939834" lon="2.6857685222460264"><ele>770.0</ele><time>2026-03-26T14:47:38.999Z</time></trkpt><trkpt lat="44.61920064779992" lon="2.6857498827531763"><ele>770.0</ele><time>2026-03-26T14:47:39.999Z</time></trkpt><trkpt lat="44.61943302190787" lon="2.6857029802063357"><ele>769.8</ele><time>2026-03-26T14:47:41.999Z</time></trkpt><trkpt lat="44.619552691004664" lon="2.6856958158835003"><ele>769.6</ele><time>2026-03-26T14:47:42.999Z</time></trkpt><trkpt lat="44.619646037860385" lon="2.6856726595630387"><ele>769.4000000000001</ele><time>2026-03-26T14:47:43.999Z</time></trkpt><trkpt lat="44.6197315559118" lon="2.6856500041711096"><ele>769.2</ele><time>2026-03-26T14:47:44.999Z</time></trkpt><trkpt lat="44.619809975312236" lon="2.685632440237859"><ele>769.0</ele><time>2026-03-26T14:47:45.999Z</time></trkpt><trkpt lat="44.619904530768856" lon="2.6856058825060725"><ele>768.9999999999999</ele><time>2026-03-26T14:47:47.999Z</time></trkpt><trkpt lat="44.61992419843637" lon="2.6857006692057763"><ele>769.0</ele><time>2026-03-26T14:47:50.999Z</time></trkpt><trkpt lat="44.61992923171574" lon="2.685800737046346"><ele>769.0</ele><time>2026-03-26T14:47:51.999Z</time></trkpt><trkpt lat="44.61994404840195" lon="2.6859281512568964"><ele>769.0</ele><time>2026-03-26T14:47:52.999Z</time></trkpt><trkpt lat="44.61995431181005" lon="2.6860522803937728"><ele>768.9999999999999</ele><time>2026-03-26T14:47:53.999Z</time></trkpt><trkpt lat="44.61995818248135" lon="2.6861730122017744"><ele>769.0</ele><time>2026-03-26T14:47:54.999Z</time></trkpt><trkpt lat="44.61996381964162" lon="2.6862946429664314"><ele>769.6666666666666</ele><time>2026-03-26T14:47:55.999Z</time></trkpt><trkpt lat="44.61996751140059" lon="2.686389308765412"><ele>770.3333333333333</ele><time>2026-03-26T14:47:56.999Z</time></trkpt><trkpt lat="44.61999660035076" lon="2.6865363786138703"><ele>771.0</ele><time>2026-03-26T14:47:59Z</time></trkpt><trkpt lat="44.619978831647764" lon="2.686643763419039"><ele>771.6666666666667</ele><time>2026-03-26T14:48:01Z</time></trkpt><trkpt lat="44.62000994794984" lon="2.6865396934740704"><ele>772.3333333333334</ele><time>2026-03-26T14:48:18Z</time></trkpt><trkpt lat="44.61999259537617" lon="2.686430096071052"><ele>773.0</ele><time>2026-03-26T14:48:19Z</time></trkpt><trkpt lat="44.6199743625491" lon="2.6863198240825734"><ele>773.0</ele><time>2026-03-26T14:48:20Z</time></trkpt><trkpt lat="44.61996046148749" lon="2.6861838983051896"><ele>773.0</ele><time>2026-03-26T14:48:21Z</time></trkpt><trkpt lat="44.61995987678092" lon="2.6860125450287335"><ele>773.0</ele><time>2026-03-26T14:48:22Z</time></trkpt><trkpt lat="44.619951279049666" lon="2.685869831751352"><ele>773.0</ele><time>2026-03-26T14:48:23Z</time></trkpt><trkpt lat="44.61993997178444" lon="2.685750229220841"><ele>773.0</ele><time>2026-03-26T14:48:24Z</time></trkpt><trkpt lat="44.61992895757345" lon="2.685621023503608"><ele>772.3333333333334</ele><time>2026-03-26T14:48:26Z</time></trkpt><trkpt lat="44.620007459973586" lon="2.685596405598068"><ele>771.6666666666667</ele><time>2026-03-26T14:48:29Z</time></trkpt><trkpt lat="44.62010548737538" lon="2.68559287664528"><ele>771.0</ele><time>2026-03-26T14:48:31Z</time></trkpt><trkpt lat="44.62017737018761" lon="2.685531268054441"><ele>770.3333333333333</ele><time>2026-03-26T14:48:33Z</time></trkpt><trkpt lat="44.62024149994016" lon="2.6854897656097183"><ele>769.6666666666666</ele><time>2026-03-26T14:48:37Z</time></trkpt><trkpt lat="44.62030635312051" lon="2.68545571278036"><ele>769.0</ele><time>2026-03-26T14:48:40Z</time></trkpt><trkpt lat="44.62038678003508" lon="2.6854201989400988"><ele>767.4285714285714</ele><time>2026-03-26T14:48:43Z</time></trkpt><trkpt lat="44.62044226405443" lon="2.6853681008968158"><ele>765.8571428571429</ele><time>2026-03-26T14:48:46Z</time></trkpt><trkpt lat="44.62050545973478" lon="2.6853131833212016"><ele>764.2857142857143</ele><time>2026-03-26T14:48:48Z</time></trkpt><trkpt lat="44.6205508975298" lon="2.685250548250619"><ele>762.7142857142858</ele><time>2026-03-26T14:48:50Z</time></trkpt><trkpt lat="44.62061325735135" lon="2.685175789725823"><ele>761.1428571428571</ele><time>2026-03-26T14:48:52Z</time></trkpt><trkpt lat="44.62066623289865" lon="2.6851131894162563"><ele>759.5714285714287</ele><time>2026-03-26T14:48:54Z</time></trkpt><trkpt lat="44.62071879979864" lon="2.6850368229498116"><ele>758.0</ele><time>2026-03-26T14:48:56Z</time></trkpt><trkpt lat="44.620779883960395" lon="2.6849371156704707"><ele>757.6666666666666</ele><time>2026-03-26T14:48:58Z</time></trkpt><trkpt lat="44.62084373483973" lon="2.684834083111975"><ele>757.3333333333333</ele><time>2026-03-26T14:49:00Z</time></trkpt><trkpt lat="44.62092297501525" lon="2.6848287486517"><ele>757.0</ele><time>2026-03-26T14:49:02Z</time></trkpt><trkpt lat="44.620986483191516" lon="2.6849102633555364"><ele>756.6666666666666</ele><time>2026-03-26T14:49:04Z</time></trkpt><trkpt lat="44.62102748473021" lon="2.6850045654103987"><ele>756.3333333333334</ele><time>2026-03-26T14:49:05Z</time></trkpt><trkpt lat="44.62108078891963" lon="2.6851139343894714"><ele>756.0</ele><time>2026-03-26T14:49:06Z</time></trkpt><trkpt lat="44.62114306428348" lon="2.6852227929411123"><ele>754.0</ele><time>2026-03-26T14:49:07Z</time></trkpt><trkpt lat="44.6212066488483" lon="2.6853422901581734"><ele>752.0</ele><time>2026-03-26T14:49:08Z</time></trkpt><trkpt lat="44.62127687640179" lon="2.685439788569289"><ele>750.0</ele><time>2026-03-26T14:49:09Z</time></trkpt><trkpt lat="44.62135752921295" lon="2.6855203675838775"><ele>748.0</ele><time>2026-03-26T14:49:10Z</time></trkpt><trkpt lat="44.62145017062682" lon="2.6855652824189407"><ele>746.0</ele><time>2026-03-26T14:49:10.999Z</time></trkpt><trkpt lat="44.62156269920997" lon="2.685580377202685"><ele>746.0</ele><time>2026-03-26T14:49:11.999Z</time></trkpt><trkpt lat="44.62168657644859" lon="2.685570760183998"><ele>746.0</ele><time>2026-03-26T14:49:12.999Z</time></trkpt><trkpt lat="44.62182613039278" lon="2.685544066267897"><ele>746.0</ele><time>2026-03-26T14:49:13.999Z</time></trkpt><trkpt lat="44.62200086126652" lon="2.6855037555374714"><ele>746.0</ele><time>2026-03-26T14:49:14.999Z</time></trkpt><trkpt lat="44.62218635261738" lon="2.6854658058151966"><ele>747.25</ele><time>2026-03-26T14:49:15.999Z</time></trkpt><trkpt lat="44.62234069157295" lon="2.6854466150426717"><ele>748.5</ele><time>2026-03-26T14:49:16.999Z</time></trkpt><trkpt lat="44.622486779555956" lon="2.6854578233417725"><ele>749.75</ele><time>2026-03-26T14:49:17.999Z</time></trkpt><trkpt lat="44.62261581656394" lon="2.685464622602983"><ele>751.0</ele><time>2026-03-26T14:49:18.999Z</time></trkpt><trkpt lat="44.62272576666094" lon="2.6854629458928105"><ele>752.0</ele><time>2026-03-26T14:49:19.999Z</time></trkpt><trkpt lat="44.622822425835565" lon="2.685451884201733"><ele>753.0</ele><time>2026-03-26T14:49:20.999Z</time></trkpt><trkpt lat="44.6229103510097" lon="2.6854393823762344"><ele>754.0</ele><time>2026-03-26T14:49:21.999Z</time></trkpt><trkpt lat="44.62300304897175" lon="2.685428564634599"><ele>755.0</ele><time>2026-03-26T14:49:22.999Z</time></trkpt><trkpt lat="44.62310758109229" lon="2.685406635887072"><ele>756.0</ele><time>2026-03-26T14:49:23.999Z</time></trkpt><trkpt lat="44.62321622821907" lon="2.68537243579445"><ele>756.0</ele><time>2026-03-26T14:49:24.999Z</time></trkpt><trkpt lat="44.6233113070573" lon="2.685339506414084"><ele>756.0</ele><time>2026-03-26T14:49:25.999Z</time></trkpt><trkpt lat="44.623400052275876" lon="2.6853090828652584"><ele>756.0</ele><time>2026-03-26T14:49:26.999Z</time></trkpt><trkpt lat="44.62348423631167" lon="2.685291492500912"><ele>756.0</ele><time>2026-03-26T14:49:27.999Z</time></trkpt><trkpt lat="44.623582931565196" lon="2.68527683823313"><ele>756.0</ele><time>2026-03-26T14:49:28.999Z</time></trkpt><trkpt lat="44.6236729186183" lon="2.685286132463442"><ele>755.5</ele><time>2026-03-26T14:49:29.999Z</time></trkpt><trkpt lat="44.62373778847107" lon="2.685298947513398"><ele>755.0</ele><time>2026-03-26T14:49:30.999Z</time></trkpt><trkpt lat="44.623821496692734" lon="2.6852479038230457"><ele>754.5</ele><time>2026-03-26T14:49:32.999Z</time></trkpt><trkpt lat="44.623883985911846" lon="2.6851775574807077"><ele>754.0</ele><time>2026-03-26T14:49:33.999Z</time></trkpt><trkpt lat="44.623951962436934" lon="2.685083906966172"><ele>753.5</ele><time>2026-03-26T14:49:34.999Z</time></trkpt><trkpt lat="44.62401968991288" lon="2.6849731245744044"><ele>753.0</ele><time>2026-03-26T14:49:35.999Z</time></trkpt><trkpt lat="44.62409580414374" lon="2.684849516833329"><ele>752.75</ele><time>2026-03-26T14:49:36.999Z</time></trkpt><trkpt lat="44.624184477806395" lon="2.6847268585142703"><ele>752.5</ele><time>2026-03-26T14:49:37.999Z</time></trkpt><trkpt lat="44.624280248554555" lon="2.684596796580369"><ele>752.25</ele><time>2026-03-26T14:49:38.999Z</time></trkpt><trkpt lat="44.62438083201947" lon="2.6844621020776382"><ele>752.0</ele><time>2026-03-26T14:49:39.999Z</time></trkpt><trkpt lat="44.62447109058385" lon="2.684343917314662"><ele>751.2</ele><time>2026-03-26T14:49:40.999Z</time></trkpt><trkpt lat="44.62455563964067" lon="2.6842396776603046"><ele>750.4000000000001</ele><time>2026-03-26T14:49:41.999Z</time></trkpt><trkpt lat="44.624636001505266" lon="2.684155888658481"><ele>749.5999999999999</ele><time>2026-03-26T14:49:42.999Z</time></trkpt><trkpt lat="44.62472389291711" lon="2.68408915087208"><ele>748.8</ele><time>2026-03-26T14:49:43.999Z</time></trkpt><trkpt lat="44.624817140044115" lon="2.6840295573907915"><ele>748.0</ele><time>2026-03-26T14:49:44.999Z</time></trkpt><trkpt lat="44.62491130404027" lon="2.6839776967549573"><ele>748.0</ele><time>2026-03-26T14:49:45.999Z</time></trkpt><trkpt lat="44.62501059510402" lon="2.6839320282919377"><ele>748.0</ele><time>2026-03-26T14:49:46.999Z</time></trkpt><trkpt lat="44.62510227933907" lon="2.683893300318999"><ele>748.0</ele><time>2026-03-26T14:49:47.999Z</time></trkpt><trkpt lat="44.62518794201226" lon="2.6838656957252334"><ele>748.0</ele><time>2026-03-26T14:49:48.999Z</time></trkpt><trkpt lat="44.6252582579021" lon="2.6838370800165876"><ele>748.0</ele><time>2026-03-26T14:49:49.999Z</time></trkpt><trkpt lat="44.62532622447205" lon="2.6838134343226105"><ele>748.0</ele><time>2026-03-26T14:49:50.999Z</time></trkpt><trkpt lat="44.625389510736326" lon="2.6838099007077805"><ele>747.0</ele><time>2026-03-26T14:49:51.999Z</time></trkpt><trkpt lat="44.62545341939915" lon="2.6838254535863997"><ele>746.0</ele><time>2026-03-26T14:49:52.999Z</time></trkpt><trkpt lat="44.625511817422996" lon="2.683866015250415"><ele>745.0</ele><time>2026-03-26T14:49:53.999Z</time></trkpt><trkpt lat="44.62556055057772" lon="2.68393284062751"><ele>744.0</ele><time>2026-03-26T14:49:54.999Z</time></trkpt><trkpt lat="44.625601086610885" lon="2.6840050518825143"><ele>743.0</ele><time>2026-03-26T14:49:55.999Z</time></trkpt><trkpt lat="44.62562966246858" lon="2.6840976707045345"><ele>742.0</ele><time>2026-03-26T14:49:56.999Z</time></trkpt><trkpt lat="44.62564960331215" lon="2.684201029677551"><ele>741.0</ele><time>2026-03-26T14:49:57.999Z</time></trkpt><trkpt lat="44.6256495426998" lon="2.6843148437637874"><ele>741.0</ele><time>2026-03-26T14:49:58.999Z</time></trkpt><trkpt lat="44.62564438045136" lon="2.6844329324789302"><ele>741.0</ele><time>2026-03-26T14:49:59.999Z</time></trkpt><trkpt lat="44.62563889932012" lon="2.6845508120533146"><ele>741.0</ele><time>2026-03-26T14:50:00.999Z</time></trkpt><trkpt lat="44.625644763309204" lon="2.6846722105731926"><ele>741.0</ele><time>2026-03-26T14:50:01.999Z</time></trkpt><trkpt lat="44.62566121972573" lon="2.6848002199798082"><ele>741.0</ele><time>2026-03-26T14:50:02.999Z</time></trkpt><trkpt lat="44.62567290859964" lon="2.684924931588534"><ele>741.0</ele><time>2026-03-26T14:50:04Z</time></trkpt><trkpt lat="44.625698574944856" lon="2.6850287505310235"><ele>741.0</ele><time>2026-03-26T14:50:05Z</time></trkpt><trkpt lat="44.625739506941805" lon="2.685121284203845"><ele>741.0</ele><time>2026-03-26T14:50:06Z</time></trkpt><trkpt lat="44.6257903894748" lon="2.6852017906191077"><ele>741.0</ele><time>2026-03-26T14:50:07Z</time></trkpt><trkpt lat="44.6258463575925" lon="2.68528048044459"><ele>741.0</ele><time>2026-03-26T14:50:08Z</time></trkpt><trkpt lat="44.625909279719565" lon="2.685344560574585"><ele>741.0</ele><time>2026-03-26T14:50:09Z</time></trkpt><trkpt lat="44.62598075164" lon="2.6854027615205713"><ele>741.0</ele><time>2026-03-26T14:50:10Z</time></trkpt><trkpt lat="44.62606180759426" lon="2.6854563241588094"><ele>740.8333333333334</ele><time>2026-03-26T14:50:11Z</time></trkpt><trkpt lat="44.626135437926415" lon="2.6855172938918934"><ele>740.6666666666666</ele><time>2026-03-26T14:50:12Z</time></trkpt><trkpt lat="44.62618874183488" lon="2.6856017974420725"><ele>740.5</ele><time>2026-03-26T14:50:13Z</time></trkpt><trkpt lat="44.626223828717485" lon="2.6856966808257043"><ele>740.3333333333333</ele><time>2026-03-26T14:50:14Z</time></trkpt><trkpt lat="44.62622740475632" lon="2.6858112532019978"><ele>740.1666666666666</ele><time>2026-03-26T14:50:15Z</time></trkpt><trkpt lat="44.62621059975875" lon="2.6859362431757936"><ele>740.0</ele><time>2026-03-26T14:50:16Z</time></trkpt><trkpt lat="44.62616411306669" lon="2.686069055194417"><ele>738.75</ele><time>2026-03-26T14:50:17Z</time></trkpt><trkpt lat="44.6261033517738" lon="2.6862095034363977"><ele>737.5</ele><time>2026-03-26T14:50:18Z</time></trkpt><trkpt lat="44.626053632375" lon="2.686362114907561"><ele>736.25</ele><time>2026-03-26T14:50:19Z</time></trkpt><trkpt lat="44.62602255318569" lon="2.6865268792660264"><ele>735.0</ele><time>2026-03-26T14:50:20Z</time></trkpt><trkpt lat="44.62601456401404" lon="2.686701652112913"><ele>735.0</ele><time>2026-03-26T14:50:21Z</time></trkpt><trkpt lat="44.626025234234014" lon="2.6868715984158804"><ele>735.0</ele><time>2026-03-26T14:50:22Z</time></trkpt><trkpt lat="44.62604368611729" lon="2.687028535188555"><ele>735.0</ele><time>2026-03-26T14:50:23Z</time></trkpt><trkpt lat="44.626074610806306" lon="2.6871745197076033"><ele>735.0</ele><time>2026-03-26T14:50:24Z</time></trkpt><trkpt lat="44.62613269175462" lon="2.6872946873432464"><ele>735.0</ele><time>2026-03-26T14:50:25Z</time></trkpt><trkpt lat="44.62621487448476" lon="2.6873812763438574"><ele>734.5</ele><time>2026-03-26T14:50:26Z</time></trkpt><trkpt lat="44.62631881459612" lon="2.6874218439012"><ele>734.0</ele><time>2026-03-26T14:50:27Z</time></trkpt><trkpt lat="44.62643368401323" lon="2.6874262767982064"><ele>733.5</ele><time>2026-03-26T14:50:28Z</time></trkpt><trkpt lat="44.62655591899368" lon="2.6874121912641127"><ele>733.0</ele><time>2026-03-26T14:50:29Z</time></trkpt><trkpt lat="44.62667777402217" lon="2.6874115335796027"><ele>733.0</ele><time>2026-03-26T14:50:30Z</time></trkpt><trkpt lat="44.62680616586407" lon="2.6874329954742606"><ele>733.0</ele><time>2026-03-26T14:50:31Z</time></trkpt><trkpt lat="44.62693184609905" lon="2.6874639168983423"><ele>733.0</ele><time>2026-03-26T14:50:32Z</time></trkpt><trkpt lat="44.627067476266845" lon="2.6875026876631254"><ele>733.0</ele><time>2026-03-26T14:50:33Z</time></trkpt><trkpt lat="44.62721166324825" lon="2.6875275281850004"><ele>732.0</ele><time>2026-03-26T14:50:34Z</time></trkpt><trkpt lat="44.62737295006282" lon="2.6875349761737906"><ele>731.0</ele><time>2026-03-26T14:50:35Z</time></trkpt><trkpt lat="44.62753739590629" lon="2.687519935640426"><ele>730.0</ele><time>2026-03-26T14:50:36Z</time></trkpt><trkpt lat="44.62768424773829" lon="2.687487173806427"><ele>729.0</ele><time>2026-03-26T14:50:37Z</time></trkpt><trkpt lat="44.627818906946686" lon="2.6874391311100907"><ele>728.0</ele><time>2026-03-26T14:50:38Z</time></trkpt><trkpt lat="44.627940132031846" lon="2.6873702534867907"><ele>727.0</ele><time>2026-03-26T14:50:39Z</time></trkpt><trkpt lat="44.62804483118564" lon="2.687289322237124"><ele>726.0</ele><time>2026-03-26T14:50:40Z</time></trkpt><trkpt lat="44.628147470743" lon="2.687222156046554"><ele>726.0</ele><time>2026-03-26T14:50:41Z</time></trkpt><trkpt lat="44.62824411838442" lon="2.6871851340935304"><ele>726.0</ele><time>2026-03-26T14:50:42Z</time></trkpt><trkpt lat="44.628345748653224" lon="2.687192977066674"><ele>726.0</ele><time>2026-03-26T14:50:43Z</time></trkpt><trkpt lat="44.62845005017145" lon="2.6872354930993843"><ele>726.0</ele><time>2026-03-26T14:50:44Z</time></trkpt><trkpt lat="44.628551051727904" lon="2.687320852326494"><ele>726.0</ele><time>2026-03-26T14:50:45Z</time></trkpt><trkpt lat="44.62864108567786" lon="2.687446156137132"><ele>723.5</ele><time>2026-03-26T14:50:46Z</time></trkpt><trkpt lat="44.628737536814754" lon="2.6875878741429187"><ele>721.0</ele><time>2026-03-26T14:50:47Z</time></trkpt><trkpt lat="44.62884179304954" lon="2.6877103703090457"><ele>718.5</ele><time>2026-03-26T14:50:48Z</time></trkpt><trkpt lat="44.62895672611847" lon="2.687803411286241"><ele>716.0</ele><time>2026-03-26T14:50:49Z</time></trkpt><trkpt lat="44.62907956545069" lon="2.6878725520619846"><ele>715.75</ele><time>2026-03-26T14:50:50Z</time></trkpt><trkpt lat="44.629209915131085" lon="2.687905249626841"><ele>715.5</ele><time>2026-03-26T14:50:51Z</time></trkpt><trkpt lat="44.62934863246228" lon="2.6878995594104858"><ele>715.25</ele><time>2026-03-26T14:50:52Z</time></trkpt><trkpt lat="44.62948721994149" lon="2.687887107279006"><ele>715.0</ele><time>2026-03-26T14:50:53Z</time></trkpt><trkpt lat="44.62962916030275" lon="2.6879106233412577"><ele>715.0</ele><time>2026-03-26T14:50:54Z</time></trkpt><trkpt lat="44.62975673625154" lon="2.687987746204821"><ele>715.0</ele><time>2026-03-26T14:50:55Z</time></trkpt><trkpt lat="44.62986847439446" lon="2.6880829684072256"><ele>715.0</ele><time>2026-03-26T14:50:56Z</time></trkpt><trkpt lat="44.62997248840398" lon="2.688155309016227"><ele>715.0</ele><time>2026-03-26T14:50:57Z</time></trkpt><trkpt lat="44.63009557219579" lon="2.688184292505337"><ele>715.0</ele><time>2026-03-26T14:50:58Z</time></trkpt><trkpt lat="44.63023051563141" lon="2.6881831318739193"><ele>715.0</ele><time>2026-03-26T14:50:59Z</time></trkpt><trkpt lat="44.63034376170524" lon="2.6881985543403406"><ele>715.0</ele><time>2026-03-26T14:51:00Z</time></trkpt><trkpt lat="44.63042574341337" lon="2.6882144562252615"><ele>715.0</ele><time>2026-03-26T14:51:01Z</time></trkpt><trkpt lat="44.63048924036403" lon="2.6882053097463507"><ele>715.0</ele><time>2026-03-26T14:51:02Z</time></trkpt><trkpt lat="44.630579557284534" lon="2.6881264512728813"><ele>714.8</ele><time>2026-03-26T14:51:04Z</time></trkpt><trkpt lat="44.63062963921705" lon="2.6880357375930175"><ele>714.6</ele><time>2026-03-26T14:51:05Z</time></trkpt><trkpt lat="44.6306914015408" lon="2.6879325885885894"><ele>714.4000000000001</ele><time>2026-03-26T14:51:06Z</time></trkpt><trkpt lat="44.63076434161108" lon="2.6878281870306235"><ele>714.2</ele><time>2026-03-26T14:51:07Z</time></trkpt><trkpt lat="44.63083085123127" lon="2.6876796836448746"><ele>714.0</ele><time>2026-03-26T14:51:08Z</time></trkpt><trkpt lat="44.630897962632915" lon="2.687467722757962"><ele>716.0</ele><time>2026-03-26T14:51:09Z</time></trkpt><trkpt lat="44.6309607975362" lon="2.687236529688455"><ele>718.0</ele><time>2026-03-26T14:51:10Z</time></trkpt><trkpt lat="44.6310145418774" lon="2.6870034044885087"><ele>720.0</ele><time>2026-03-26T14:51:11Z</time></trkpt><trkpt lat="44.631078273464965" lon="2.686758092226313"><ele>720.0</ele><time>2026-03-26T14:51:12Z</time></trkpt><trkpt lat="44.63113378587483" lon="2.68651464793383"><ele>720.0</ele><time>2026-03-26T14:51:13Z</time></trkpt><trkpt lat="44.631168667702546" lon="2.6862952163521308"><ele>720.0</ele><time>2026-03-26T14:51:14Z</time></trkpt><trkpt lat="44.63120648181663" lon="2.6861043412900703"><ele>722.0</ele><time>2026-03-26T14:51:14.999Z</time></trkpt><trkpt lat="44.631240316426926" lon="2.685915893583902"><ele>724.0</ele><time>2026-03-26T14:51:15.999Z</time></trkpt><trkpt lat="44.63126522411757" lon="2.6857413958349716"><ele>726.0</ele><time>2026-03-26T14:51:16.999Z</time></trkpt><trkpt lat="44.63127192638548" lon="2.685575656431887"><ele>728.0</ele><time>2026-03-26T14:51:17.999Z</time></trkpt><trkpt lat="44.63125270895803" lon="2.6853985204262383"><ele>728.25</ele><time>2026-03-26T14:51:18.999Z</time></trkpt><trkpt lat="44.63121901500721" lon="2.685208370069246"><ele>728.5</ele><time>2026-03-26T14:51:19.999Z</time></trkpt><trkpt lat="44.63117741462748" lon="2.685024331175041"><ele>728.75</ele><time>2026-03-26T14:51:20.999Z</time></trkpt><trkpt lat="44.63113339856743" lon="2.684862810313891"><ele>729.0</ele><time>2026-03-26T14:51:21.999Z</time></trkpt><trkpt lat="44.63108550785294" lon="2.684717086882085"><ele>728.8000000000001</ele><time>2026-03-26T14:51:22.999Z</time></trkpt><trkpt lat="44.631051702091774" lon="2.684569030455717"><ele>728.6</ele><time>2026-03-26T14:51:23.999Z</time></trkpt><trkpt lat="44.631033024110586" lon="2.684420682363672"><ele>728.4</ele><time>2026-03-26T14:51:24.999Z</time></trkpt><trkpt lat="44.63102220558026" lon="2.6842751469681887"><ele>728.2</ele><time>2026-03-26T14:51:25.999Z</time></trkpt><trkpt lat="44.631010315156715" lon="2.684127837858262"><ele>728.0</ele><time>2026-03-26T14:51:26.999Z</time></trkpt><trkpt lat="44.630987314327314" lon="2.6840081619372937"><ele>728.0</ele><time>2026-03-26T14:51:27.999Z</time></trkpt><trkpt lat="44.630961888257346" lon="2.683900274892284"><ele>728.0</ele><time>2026-03-26T14:51:28.999Z</time></trkpt><trkpt lat="44.63094479280358" lon="2.683810318308377"><ele>728.0</ele><time>2026-03-26T14:51:29.999Z</time></trkpt><trkpt lat="44.63097409816697" lon="2.6837015052149886"><ele>728.0</ele><time>2026-03-26T14:51:31.999Z</time></trkpt><trkpt lat="44.63106656045105" lon="2.6836750747970113"><ele>728.0</ele><time>2026-03-26T14:51:33.999Z</time></trkpt><trkpt lat="44.63113537087488" lon="2.683691518057193"><ele>728.0</ele><time>2026-03-26T14:51:34.999Z</time></trkpt><trkpt lat="44.63121684595847" lon="2.683706627277867"><ele>729.2</ele><time>2026-03-26T14:51:35.999Z</time></trkpt><trkpt lat="44.63131437368648" lon="2.6837064131510564"><ele>730.4</ele><time>2026-03-26T14:51:36.999Z</time></trkpt><trkpt lat="44.63142132109963" lon="2.6837144433871094"><ele>731.6</ele><time>2026-03-26T14:51:37.999Z</time></trkpt><trkpt lat="44.631530090576106" lon="2.683734220377582"><ele>732.8000000000001</ele><time>2026-03-26T14:51:38.999Z</time></trkpt><trkpt lat="44.63164858557685" lon="2.6837445408084823"><ele>734.0</ele><time>2026-03-26T14:51:39.999Z</time></trkpt><trkpt lat="44.63176513954941" lon="2.683764404480135"><ele>734.0</ele><time>2026-03-26T14:51:40.999Z</time></trkpt><trkpt lat="44.631888085306436" lon="2.68379607005066"><ele>734.0</ele><time>2026-03-26T14:51:41.999Z</time></trkpt><trkpt lat="44.63200622246935" lon="2.6838208810328044"><ele>734.0</ele><time>2026-03-26T14:51:42.999Z</time></trkpt><trkpt lat="44.63212714456491" lon="2.683857222459548"><ele>734.0</ele><time>2026-03-26T14:51:43.999Z</time></trkpt><trkpt lat="44.63225503377428" lon="2.6838992230383822"><ele>735.0</ele><time>2026-03-26T14:51:44.999Z</time></trkpt><trkpt lat="44.6323835935948" lon="2.683944268453842"><ele>736.0</ele><time>2026-03-26T14:51:45.999Z</time></trkpt><trkpt lat="44.63252210986668" lon="2.683992052631527"><ele>737.0</ele><time>2026-03-26T14:51:46.999Z</time></trkpt><trkpt lat="44.63265910279563" lon="2.684037266904375"><ele>738.0</ele><time>2026-03-26T14:51:47.999Z</time></trkpt><trkpt lat="44.632802879460804" lon="2.684087907181593"><ele>740.0</ele><time>2026-03-26T14:51:48.999Z</time></trkpt><trkpt lat="44.63292472042155" lon="2.684134704264653"><ele>742.0</ele><time>2026-03-26T14:51:49.999Z</time></trkpt><trkpt lat="44.633029609184675" lon="2.6842166921638464"><ele>744.0</ele><time>2026-03-26T14:51:50.999Z</time></trkpt><trkpt lat="44.633128369217076" lon="2.6843163249140574"><ele>746.0</ele><time>2026-03-26T14:51:51.999Z</time></trkpt><trkpt lat="44.633228481817376" lon="2.684420441894241"><ele>746.25</ele><time>2026-03-26T14:51:52.999Z</time></trkpt><trkpt lat="44.633332654839414" lon="2.6845295787298378"><ele>746.5</ele><time>2026-03-26T14:51:53.999Z</time></trkpt><trkpt lat="44.63343653392567" lon="2.6846271737146465"><ele>746.75</ele><time>2026-03-26T14:51:54.999Z</time></trkpt><trkpt lat="44.63353538931384" lon="2.684699037160282"><ele>747.0</ele><time>2026-03-26T14:51:55.999Z</time></trkpt><trkpt lat="44.63364266795825" lon="2.6847636018633083"><ele>747.0</ele><time>2026-03-26T14:51:56.999Z</time></trkpt><trkpt lat="44.63376146708857" lon="2.684805841085043"><ele>747.0</ele><time>2026-03-26T14:51:57.999Z</time></trkpt><trkpt lat="44.63388890523609" lon="2.6848367864081992"><ele>747.0</ele><time>2026-03-26T14:51:58.999Z</time></trkpt><trkpt lat="44.634023466108474" lon="2.6848633016414687"><ele>747.0</ele><time>2026-03-26T14:51:59.999Z</time></trkpt><trkpt lat="44.63416317850012" lon="2.684889143954691"><ele>747.0</ele><time>2026-03-26T14:52:00.999Z</time></trkpt><trkpt lat="44.63429808033494" lon="2.684919362015458"><ele>747.0</ele><time>2026-03-26T14:52:01.999Z</time></trkpt><trkpt lat="44.634428204871" lon="2.68494801966637"><ele>747.0</ele><time>2026-03-26T14:52:02.999Z</time></trkpt><trkpt lat="44.63455558361322" lon="2.6849761499391134"><ele>747.0</ele><time>2026-03-26T14:52:03.999Z</time></trkpt><trkpt lat="44.63468260380021" lon="2.685007207816958"><ele>747.25</ele><time>2026-03-26T14:52:04.999Z</time></trkpt><trkpt lat="44.63481907430558" lon="2.6850386479943475"><ele>747.5</ele><time>2026-03-26T14:52:05.999Z</time></trkpt><trkpt lat="44.63495694075952" lon="2.6850563055342076"><ele>747.75</ele><time>2026-03-26T14:52:06.999Z</time></trkpt><trkpt lat="44.635108443544055" lon="2.6850897900414568"><ele>748.0</ele><time>2026-03-26T14:52:07.999Z</time></trkpt><trkpt lat="44.6352588497829" lon="2.6851326553212425"><ele>747.5</ele><time>2026-03-26T14:52:08.999Z</time></trkpt><trkpt lat="44.635407789165484" lon="2.6851722683256054"><ele>747.0</ele><time>2026-03-26T14:52:10Z</time></trkpt><trkpt lat="44.635553014943" lon="2.6852029500490344"><ele>746.5</ele><time>2026-03-26T14:52:11Z</time></trkpt><trkpt lat="44.63569107173694" lon="2.6852302586054684"><ele>746.0</ele><time>2026-03-26T14:52:12Z</time></trkpt><trkpt lat="44.63583355779288" lon="2.685249864830735"><ele>745.6666666666666</ele><time>2026-03-26T14:52:13Z</time></trkpt><trkpt lat="44.635980588331456" lon="2.6852646220550365"><ele>745.3333333333334</ele><time>2026-03-26T14:52:14Z</time></trkpt><trkpt lat="44.636129307700486" lon="2.6852807274249257"><ele>745.0</ele><time>2026-03-26T14:52:15Z</time></trkpt><trkpt lat="44.636283702126086" lon="2.685303162787283"><ele>745.0</ele><time>2026-03-26T14:52:16Z</time></trkpt><trkpt lat="44.636442586498525" lon="2.6853268524794185"><ele>745.0</ele><time>2026-03-26T14:52:17Z</time></trkpt><trkpt lat="44.636598838756456" lon="2.6853541342691534"><ele>745.0</ele><time>2026-03-26T14:52:18Z</time></trkpt><trkpt lat="44.63674862881928" lon="2.6853946822152013"><ele>745.0</ele><time>2026-03-26T14:52:19Z</time></trkpt><trkpt lat="44.63689098954706" lon="2.685440313005496"><ele>745.0</ele><time>2026-03-26T14:52:20Z</time></trkpt><trkpt lat="44.637034124759296" lon="2.6854810177456456"><ele>745.0</ele><time>2026-03-26T14:52:21Z</time></trkpt><trkpt lat="44.63717998908143" lon="2.6855260957519946"><ele>745.0</ele><time>2026-03-26T14:52:22Z</time></trkpt><trkpt lat="44.637325977960195" lon="2.6855718833697804"><ele>745.5</ele><time>2026-03-26T14:52:23Z</time></trkpt><trkpt lat="44.637482481286284" lon="2.68561132730836"><ele>746.0</ele><time>2026-03-26T14:52:24Z</time></trkpt><trkpt lat="44.63762946549605" lon="2.6856453973029843"><ele>746.5</ele><time>2026-03-26T14:52:25Z</time></trkpt><trkpt lat="44.63775958036248" lon="2.6856763097854803"><ele>747.0</ele><time>2026-03-26T14:52:26Z</time></trkpt><trkpt lat="44.63787599156673" lon="2.6856925287582105"><ele>747.0</ele><time>2026-03-26T14:52:27Z</time></trkpt><trkpt lat="44.637974946325095" lon="2.685678466405657"><ele>747.0</ele><time>2026-03-26T14:52:28Z</time></trkpt><trkpt lat="44.63806329398044" lon="2.685674742663848"><ele>747.0</ele><time>2026-03-26T14:52:29Z</time></trkpt><trkpt lat="44.63813968042063" lon="2.6856999892822886"><ele>747.0</ele><time>2026-03-26T14:52:30Z</time></trkpt><trkpt lat="44.638239357359964" lon="2.685739585114219"><ele>747.0</ele><time>2026-03-26T14:52:32Z</time></trkpt><trkpt lat="44.63831598379204" lon="2.6857014434448865"><ele>747.0</ele><time>2026-03-26T14:52:34Z</time></trkpt><trkpt lat="44.63839471545251" lon="2.6855832093474237"><ele>747.0</ele><time>2026-03-26T14:52:36Z</time></trkpt><trkpt lat="44.63842741579812" lon="2.6854718390100514"><ele>747.0</ele><time>2026-03-26T14:52:37Z</time></trkpt><trkpt lat="44.63845405738075" lon="2.685357155965542"><ele>747.0</ele><time>2026-03-26T14:52:38Z</time></trkpt><trkpt lat="44.63848455545317" lon="2.6852319131634594"><ele>747.0</ele><time>2026-03-26T14:52:39Z</time></trkpt><trkpt lat="44.638529055245016" lon="2.6851128606672687"><ele>746.25</ele><time>2026-03-26T14:52:40Z</time></trkpt><trkpt lat="44.63858262197954" lon="2.6849919426783146"><ele>745.5</ele><time>2026-03-26T14:52:41Z</time></trkpt><trkpt lat="44.63864797607214" lon="2.6848581300403103"><ele>744.75</ele><time>2026-03-26T14:52:42Z</time></trkpt><trkpt lat="44.638721782750785" lon="2.68470808773437"><ele>744.0</ele><time>2026-03-26T14:52:43Z</time></trkpt><trkpt lat="44.63879343308226" lon="2.6845677020022296"><ele>744.0</ele><time>2026-03-26T14:52:44Z</time></trkpt><trkpt lat="44.63885981850579" lon="2.6844329293543763"><ele>744.0</ele><time>2026-03-26T14:52:45Z</time></trkpt><trkpt lat="44.63891886698129" lon="2.6842932019061267"><ele>744.0</ele><time>2026-03-26T14:52:46Z</time></trkpt><trkpt lat="44.638966207495685" lon="2.6841534874325004"><ele>744.0</ele><time>2026-03-26T14:52:47Z</time></trkpt><trkpt lat="44.638999809964695" lon="2.684003220445565"><ele>745.25</ele><time>2026-03-26T14:52:48Z</time></trkpt><trkpt lat="44.63902782201239" lon="2.6838494533741226"><ele>746.5</ele><time>2026-03-26T14:52:49Z</time></trkpt><trkpt lat="44.63904694952411" lon="2.683693312885136"><ele>747.75</ele><time>2026-03-26T14:52:50Z</time></trkpt><trkpt lat="44.63904690258052" lon="2.6835324725552097"><ele>749.0</ele><time>2026-03-26T14:52:51Z</time></trkpt><trkpt lat="44.6390454488922" lon="2.6833579681993007"><ele>749.0</ele><time>2026-03-26T14:52:52Z</time></trkpt><trkpt lat="44.63904798528813" lon="2.6831587872447242"><ele>749.0</ele><time>2026-03-26T14:52:53Z</time></trkpt><trkpt lat="44.639047462092755" lon="2.682946246973764"><ele>749.0</ele><time>2026-03-26T14:52:54Z</time></trkpt><trkpt lat="44.63904621257422" lon="2.682752322037837"><ele>749.0</ele><time>2026-03-26T14:52:55Z</time></trkpt><trkpt lat="44.63904742303033" lon="2.6825624797045875"><ele>749.5</ele><time>2026-03-26T14:52:56Z</time></trkpt><trkpt lat="44.63904916431958" lon="2.682373819023373"><ele>750.0</ele><time>2026-03-26T14:52:57Z</time></trkpt><trkpt lat="44.63905251516067" lon="2.6821840546418123"><ele>750.5</ele><time>2026-03-26T14:52:58Z</time></trkpt><trkpt lat="44.63905842805521" lon="2.682001420720634"><ele>751.0</ele><time>2026-03-26T14:52:59Z</time></trkpt><trkpt lat="44.63906875823134" lon="2.6818160423790953"><ele>751.0</ele><time>2026-03-26T14:53:00Z</time></trkpt><trkpt lat="44.63908242738454" lon="2.681630660366912"><ele>751.0</ele><time>2026-03-26T14:53:01Z</time></trkpt><trkpt lat="44.63909798974968" lon="2.6814463394842285"><ele>751.0</ele><time>2026-03-26T14:53:02Z</time></trkpt><trkpt lat="44.639123562036566" lon="2.681258781608323"><ele>751.0</ele><time>2026-03-26T14:53:03Z</time></trkpt><trkpt lat="44.63914981926489" lon="2.6810771139965617"><ele>749.0</ele><time>2026-03-26T14:53:04Z</time></trkpt><trkpt lat="44.639172502845916" lon="2.6809130069932126"><ele>747.0</ele><time>2026-03-26T14:53:05Z</time></trkpt><trkpt lat="44.63919028640903" lon="2.6807545647117994"><ele>745.0</ele><time>2026-03-26T14:53:06Z</time></trkpt><trkpt lat="44.63919917537395" lon="2.680600602966433"><ele>743.0</ele><time>2026-03-26T14:53:07Z</time></trkpt><trkpt lat="44.639199638102404" lon="2.6804360083058065"><ele>743.0</ele><time>2026-03-26T14:53:08Z</time></trkpt><trkpt lat="44.63918867030867" lon="2.680267260984406"><ele>743.0</ele><time>2026-03-26T14:53:09Z</time></trkpt><trkpt lat="44.639168895228515" lon="2.6800853454800446"><ele>743.0</ele><time>2026-03-26T14:53:10Z</time></trkpt><trkpt lat="44.639142513702865" lon="2.6798945554561326"><ele>743.0</ele><time>2026-03-26T14:53:11Z</time></trkpt><trkpt lat="44.63911681199991" lon="2.67970231879912"><ele>741.0</ele><time>2026-03-26T14:53:12Z</time></trkpt><trkpt lat="44.63909203890307" lon="2.679506260444915"><ele>739.0</ele><time>2026-03-26T14:53:13Z</time></trkpt><trkpt lat="44.63906874928896" lon="2.6793045884638094"><ele>737.0</ele><time>2026-03-26T14:53:14Z</time></trkpt><trkpt lat="44.63904572632394" lon="2.6790904330061793"><ele>735.0</ele><time>2026-03-26T14:53:15Z</time></trkpt><trkpt lat="44.639020734608046" lon="2.6788764668366105"><ele>734.0</ele><time>2026-03-26T14:53:16Z</time></trkpt><trkpt lat="44.63899959700276" lon="2.678665312501226"><ele>733.0</ele><time>2026-03-26T14:53:16.999Z</time></trkpt><trkpt lat="44.63898086001691" lon="2.6784692072442184"><ele>732.0</ele><time>2026-03-26T14:53:17.999Z</time></trkpt><trkpt lat="44.63897297502655" lon="2.678280715361479"><ele>731.0</ele><time>2026-03-26T14:53:18.999Z</time></trkpt><trkpt lat="44.638973650875016" lon="2.6780953007181187"><ele>730.25</ele><time>2026-03-26T14:53:19.999Z</time></trkpt><trkpt lat="44.63898052358105" lon="2.677906586279077"><ele>729.5</ele><time>2026-03-26T14:53:20.999Z</time></trkpt><trkpt lat="44.638997240634076" lon="2.677719218506802"><ele>728.75</ele><time>2026-03-26T14:53:21.999Z</time></trkpt><trkpt lat="44.63901062395722" lon="2.6775326776080073"><ele>728.0</ele><time>2026-03-26T14:53:22.999Z</time></trkpt><trkpt lat="44.639022852094875" lon="2.6773892576435974"><ele>728.0</ele><time>2026-03-26T14:53:23.999Z</time></trkpt><trkpt lat="44.63901896839247" lon="2.677235072940827"><ele>728.0</ele><time>2026-03-26T14:53:24.999Z</time></trkpt><trkpt lat="44.639039950497754" lon="2.677012798563784"><ele>728.0</ele><time>2026-03-26T14:53:25.999Z</time></trkpt><trkpt lat="44.63904997905698" lon="2.6768217394015976"><ele>728.0</ele><time>2026-03-26T14:53:26.999Z</time></trkpt><trkpt lat="44.639073622301794" lon="2.6766187258146945"><ele>729.0</ele><time>2026-03-26T14:53:27.999Z</time></trkpt><trkpt lat="44.639092436619855" lon="2.6763970218289876"><ele>730.0</ele><time>2026-03-26T14:53:28.999Z</time></trkpt><trkpt lat="44.639101242944044" lon="2.676178439625163"><ele>731.0</ele><time>2026-03-26T14:53:29.999Z</time></trkpt><trkpt lat="44.63912276319337" lon="2.6759804754629632"><ele>731.75</ele><time>2026-03-26T14:53:30.999Z</time></trkpt><trkpt lat="44.63913920952122" lon="2.6757726314269914"><ele>732.5</ele><time>2026-03-26T14:53:31.999Z</time></trkpt><trkpt lat="44.63917085862771" lon="2.6755978135422915"><ele>733.25</ele><time>2026-03-26T14:53:32.999Z</time></trkpt><trkpt lat="44.63920900246161" lon="2.675424517496501"><ele>734.0</ele><time>2026-03-26T14:53:33.999Z</time></trkpt><trkpt lat="44.639278295058055" lon="2.6752641021554187"><ele>734.25</ele><time>2026-03-26T14:53:34.999Z</time></trkpt><trkpt lat="44.63935262432405" lon="2.675111212503135"><ele>734.5</ele><time>2026-03-26T14:53:35.999Z</time></trkpt><trkpt lat="44.639439681701994" lon="2.6749694985533523"><ele>734.75</ele><time>2026-03-26T14:53:36.999Z</time></trkpt><trkpt lat="44.63953752614619" lon="2.674843666029141"><ele>735.0</ele><time>2026-03-26T14:53:37.999Z</time></trkpt><trkpt lat="44.639649970479134" lon="2.674734976766852"><ele>735.0</ele><time>2026-03-26T14:53:38.999Z</time></trkpt><trkpt lat="44.63977088152683" lon="2.674647326105602"><ele>735.0</ele><time>2026-03-26T14:53:39.999Z</time></trkpt><trkpt lat="44.63989834121379" lon="2.6745713929699537"><ele>735.0</ele><time>2026-03-26T14:53:40.999Z</time></trkpt><trkpt lat="44.64003387773975" lon="2.6745145854802677"><ele>735.0</ele><time>2026-03-26T14:53:41.999Z</time></trkpt><trkpt lat="44.64017231637956" lon="2.6744738594356776"><ele>735.0</ele><time>2026-03-26T14:53:42.999Z</time></trkpt><trkpt lat="44.640306443773575" lon="2.674437524755375"><ele>735.0</ele><time>2026-03-26T14:53:43.999Z</time></trkpt><trkpt lat="44.64041587484913" lon="2.674406264158924"><ele>735.0</ele><time>2026-03-26T14:53:44.999Z</time></trkpt><trkpt lat="44.64051742653251" lon="2.674349221473163"><ele>735.0</ele><time>2026-03-26T14:53:45.999Z</time></trkpt><trkpt lat="44.640613753877474" lon="2.674265360419006"><ele>735.0</ele><time>2026-03-26T14:53:46.999Z</time></trkpt><trkpt lat="44.64070263851618" lon="2.6741601021162467"><ele>735.0</ele><time>2026-03-26T14:53:47.999Z</time></trkpt><trkpt lat="44.64078848926648" lon="2.674048259749148"><ele>735.0</ele><time>2026-03-26T14:53:48.999Z</time></trkpt><trkpt lat="44.64087139083583" lon="2.6739222951805077"><ele>735.0</ele><time>2026-03-26T14:53:49.999Z</time></trkpt><trkpt lat="44.64095536888958" lon="2.6737977966327398"><ele>735.0</ele><time>2026-03-26T14:53:50.999Z</time></trkpt><trkpt lat="44.64103684892382" lon="2.6736660711141575"><ele>735.0</ele><time>2026-03-26T14:53:51.999Z</time></trkpt><trkpt lat="44.64110622990293" lon="2.6735300188454394"><ele>735.0</ele><time>2026-03-26T14:53:52.999Z</time></trkpt><trkpt lat="44.641165453526995" lon="2.673394606344875"><ele>735.0</ele><time>2026-03-26T14:53:53.999Z</time></trkpt><trkpt lat="44.64120436394454" lon="2.6732565587092667"><ele>734.25</ele><time>2026-03-26T14:53:54.999Z</time></trkpt><trkpt lat="44.64123376518734" lon="2.673112924686808"><ele>733.5</ele><time>2026-03-26T14:53:55.999Z</time></trkpt><trkpt lat="44.64126283860146" lon="2.6729531191423184"><ele>732.75</ele><time>2026-03-26T14:53:56.999Z</time></trkpt><trkpt lat="44.64130088145464" lon="2.6727724424976347"><ele>732.0</ele><time>2026-03-26T14:53:57.999Z</time></trkpt><trkpt lat="44.64134100391694" lon="2.672589094318282"><ele>732.0</ele><time>2026-03-26T14:53:58.999Z</time></trkpt><trkpt lat="44.64137824477893" lon="2.672422837539076"><ele>732.0</ele><time>2026-03-26T14:53:59.999Z</time></trkpt><trkpt lat="44.64140464903386" lon="2.67227427832984"><ele>732.0</ele><time>2026-03-26T14:54:00.999Z</time></trkpt><trkpt lat="44.64143257177547" lon="2.6721261180137303"><ele>732.0</ele><time>2026-03-26T14:54:01.999Z</time></trkpt><trkpt lat="44.64146110421159" lon="2.6719687785680644"><ele>732.25</ele><time>2026-03-26T14:54:02.999Z</time></trkpt><trkpt lat="44.6414655653036" lon="2.6718127983179225"><ele>732.5</ele><time>2026-03-26T14:54:03.999Z</time></trkpt><trkpt lat="44.64144442037991" lon="2.6716501035959093"><ele>732.75</ele><time>2026-03-26T14:54:04.999Z</time></trkpt><trkpt lat="44.641409584514726" lon="2.671492981535537"><ele>733.0</ele><time>2026-03-26T14:54:05.999Z</time></trkpt><trkpt lat="44.64136164896941" lon="2.671337346139414"><ele>733.0</ele><time>2026-03-26T14:54:06.999Z</time></trkpt><trkpt lat="44.64130479176391" lon="2.671179850474524"><ele>733.0</ele><time>2026-03-26T14:54:07.999Z</time></trkpt><trkpt lat="44.64124747748138" lon="2.671029264914032"><ele>733.0</ele><time>2026-03-26T14:54:08.999Z</time></trkpt><trkpt lat="44.64119819888303" lon="2.670887259746124"><ele>733.0</ele><time>2026-03-26T14:54:09.999Z</time></trkpt><trkpt lat="44.64116143981742" lon="2.6707499480263484"><ele>733.4</ele><time>2026-03-26T14:54:10.999Z</time></trkpt><trkpt lat="44.6411377589851" lon="2.670614175748709"><ele>733.8</ele><time>2026-03-26T14:54:11.999Z</time></trkpt><trkpt lat="44.6411341323735" lon="2.6704766423944064"><ele>734.2</ele><time>2026-03-26T14:54:12.999Z</time></trkpt><trkpt lat="44.64116051451393" lon="2.670337813123055"><ele>734.6</ele><time>2026-03-26T14:54:13.999Z</time></trkpt><trkpt lat="44.64122312293458" lon="2.670196507390345"><ele>735.0</ele><time>2026-03-26T14:54:14.999Z</time></trkpt><trkpt lat="44.64131276961318" lon="2.6700924693708044"><ele>733.5</ele><time>2026-03-26T14:54:16Z</time></trkpt><trkpt lat="44.64141892976026" lon="2.6700156092742855"><ele>732.0</ele><time>2026-03-26T14:54:17Z</time></trkpt><trkpt lat="44.64153949006482" lon="2.6699765105622633"><ele>730.5</ele><time>2026-03-26T14:54:18Z</time></trkpt><trkpt lat="44.6416641417923" lon="2.6699677030434668"><ele>729.0</ele><time>2026-03-26T14:54:19Z</time></trkpt><trkpt lat="44.641792155800616" lon="2.669968967668951"><ele>729.0</ele><time>2026-03-26T14:54:20Z</time></trkpt><trkpt lat="44.641926808229655" lon="2.6699607920987316"><ele>729.0</ele><time>2026-03-26T14:54:21Z</time></trkpt><trkpt lat="44.64206077849475" lon="2.669920642756117"><ele>729.0</ele><time>2026-03-26T14:54:22Z</time></trkpt><trkpt lat="44.642186623155304" lon="2.6698459352549135"><ele>729.0</ele><time>2026-03-26T14:54:23Z</time></trkpt><trkpt lat="44.64228825573004" lon="2.669736884559716"><ele>727.6</ele><time>2026-03-26T14:54:24Z</time></trkpt><trkpt lat="44.64236506357184" lon="2.6696159932681898"><ele>726.2</ele><time>2026-03-26T14:54:25Z</time></trkpt><trkpt lat="44.64243318863248" lon="2.669505455545723"><ele>724.8000000000001</ele><time>2026-03-26T14:54:26Z</time></trkpt><trkpt lat="44.64250884701644" lon="2.669421212150986"><ele>723.4000000000001</ele><time>2026-03-26T14:54:27Z</time></trkpt><trkpt lat="44.642587330945055" lon="2.669374283957685"><ele>722.0</ele><time>2026-03-26T14:54:28Z</time></trkpt><trkpt lat="44.642671323690706" lon="2.669328720199894"><ele>722.0</ele><time>2026-03-26T14:54:30Z</time></trkpt><trkpt lat="44.6427192764447" lon="2.6691655039043725"><ele>722.0</ele><time>2026-03-26T14:54:32Z</time></trkpt><trkpt lat="44.64272466221632" lon="2.669052800474481"><ele>722.0</ele><time>2026-03-26T14:54:33Z</time></trkpt><trkpt lat="44.642728221279384" lon="2.668938479808248"><ele>722.0</ele><time>2026-03-26T14:54:34Z</time></trkpt><trkpt lat="44.64273860880845" lon="2.6688278945474435"><ele>722.0</ele><time>2026-03-26T14:54:35Z</time></trkpt><trkpt lat="44.64275917439168" lon="2.6687175393223415"><ele>722.0</ele><time>2026-03-26T14:54:36Z</time></trkpt><trkpt lat="44.64278553968342" lon="2.668602467014979"><ele>722.6666666666666</ele><time>2026-03-26T14:54:37Z</time></trkpt><trkpt lat="44.64280998551307" lon="2.6684915923551884"><ele>723.3333333333333</ele><time>2026-03-26T14:54:38Z</time></trkpt><trkpt lat="44.64283049225003" lon="2.6683823047754855"><ele>724.0</ele><time>2026-03-26T14:54:39Z</time></trkpt><trkpt lat="44.64285505038792" lon="2.668282075693304"><ele>724.6666666666666</ele><time>2026-03-26T14:54:40Z</time></trkpt><trkpt lat="44.64288388152923" lon="2.668191599982509"><ele>725.3333333333334</ele><time>2026-03-26T14:54:41Z</time></trkpt><trkpt lat="44.64290488109448" lon="2.668103409527247"><ele>726.0</ele><time>2026-03-26T14:54:42Z</time></trkpt><trkpt lat="44.64294167448129" lon="2.667945029822234"><ele>726.0</ele><time>2026-03-26T14:54:44Z</time></trkpt><trkpt lat="44.64299850061895" lon="2.6678289690132293"><ele>726.0</ele><time>2026-03-26T14:54:46Z</time></trkpt><trkpt lat="44.64304757766691" lon="2.667770178086663"><ele>726.0</ele><time>2026-03-26T14:54:47Z</time></trkpt><trkpt lat="44.643106154016806" lon="2.6677005636558464"><ele>726.0</ele><time>2026-03-26T14:54:48Z</time></trkpt><trkpt lat="44.64317960708916" lon="2.6676345418723675"><ele>726.0</ele><time>2026-03-26T14:54:49Z</time></trkpt><trkpt lat="44.64325501223932" lon="2.667564931945547"><ele>726.0</ele><time>2026-03-26T14:54:50Z</time></trkpt><trkpt lat="44.64333181121105" lon="2.667485468294981"><ele>725.8</ele><time>2026-03-26T14:54:51Z</time></trkpt><trkpt lat="44.64340963295836" lon="2.6674036610471537"><ele>725.5999999999999</ele><time>2026-03-26T14:54:52Z</time></trkpt><trkpt lat="44.64348796166156" lon="2.66731676401333"><ele>725.4</ele><time>2026-03-26T14:54:53Z</time></trkpt><trkpt lat="44.64355928957216" lon="2.6672334406301657"><ele>725.2</ele><time>2026-03-26T14:54:54Z</time></trkpt><trkpt lat="44.64364106244288" lon="2.667137381231231"><ele>725.0</ele><time>2026-03-26T14:54:55Z</time></trkpt><trkpt lat="44.6437242464587" lon="2.667035238122864"><ele>724.4</ele><time>2026-03-26T14:54:56Z</time></trkpt><trkpt lat="44.643805315408045" lon="2.666936424369916"><ele>723.8</ele><time>2026-03-26T14:54:57Z</time></trkpt><trkpt lat="44.64388827755963" lon="2.666839111378235"><ele>723.2</ele><time>2026-03-26T14:54:58Z</time></trkpt><trkpt lat="44.64396644738979" lon="2.6667538041169223"><ele>722.6</ele><time>2026-03-26T14:54:59Z</time></trkpt><trkpt lat="44.64404441039477" lon="2.666668323293411"><ele>722.0</ele><time>2026-03-26T14:55:00Z</time></trkpt><trkpt lat="44.64412355081009" lon="2.666578446530673"><ele>722.0</ele><time>2026-03-26T14:55:01Z</time></trkpt><trkpt lat="44.644195339777774" lon="2.666488421636047"><ele>722.0</ele><time>2026-03-26T14:55:02Z</time></trkpt><trkpt lat="44.64427293762384" lon="2.66639738972031"><ele>722.0</ele><time>2026-03-26T14:55:03Z</time></trkpt><trkpt lat="44.64435935257288" lon="2.666306767146679"><ele>722.0</ele><time>2026-03-26T14:55:04Z</time></trkpt><trkpt lat="44.644450914934026" lon="2.666210035584464"><ele>722.0</ele><time>2026-03-26T14:55:05Z</time></trkpt><trkpt lat="44.644547998692595" lon="2.6661096733094314"><ele>721.75</ele><time>2026-03-26T14:55:06Z</time></trkpt><trkpt lat="44.64464875035841" lon="2.6660065894547764"><ele>721.5</ele><time>2026-03-26T14:55:07Z</time></trkpt><trkpt lat="44.64474654522018" lon="2.6659114465771974"><ele>721.25</ele><time>2026-03-26T14:55:08Z</time></trkpt><trkpt lat="44.64484252336321" lon="2.6658078352777115"><ele>721.0</ele><time>2026-03-26T14:55:09Z</time></trkpt><trkpt lat="44.64493959493886" lon="2.6657035095203727"><ele>721.0</ele><time>2026-03-26T14:55:10Z</time></trkpt><trkpt lat="44.64502772028502" lon="2.665605434411329"><ele>721.0</ele><time>2026-03-26T14:55:11Z</time></trkpt><trkpt lat="44.64510556536551" lon="2.66551783252699"><ele>721.0</ele><time>2026-03-26T14:55:12Z</time></trkpt><trkpt lat="44.64519093644094" lon="2.6654436815030165"><ele>721.0</ele><time>2026-03-26T14:55:13Z</time></trkpt><trkpt lat="44.64528813470698" lon="2.6653845349978282"><ele>721.0</ele><time>2026-03-26T14:55:14Z</time></trkpt><trkpt lat="44.645384184900706" lon="2.6653106636236874"><ele>721.4</ele><time>2026-03-26T14:55:15Z</time></trkpt><trkpt lat="44.64548066707862" lon="2.6652433721829545"><ele>721.8</ele><time>2026-03-26T14:55:16Z</time></trkpt><trkpt lat="44.645576808228505" lon="2.665177969245395"><ele>722.1999999999999</ele><time>2026-03-26T14:55:17Z</time></trkpt><trkpt lat="44.645671873190956" lon="2.665124761336387"><ele>722.5999999999999</ele><time>2026-03-26T14:55:18Z</time></trkpt><trkpt lat="44.64577813245857" lon="2.6650832661659303"><ele>723.0</ele><time>2026-03-26T14:55:19Z</time></trkpt><trkpt lat="44.6458818568978" lon="2.6650411907235125"><ele>723.0</ele><time>2026-03-26T14:55:19.999Z</time></trkpt><trkpt lat="44.64599027129012" lon="2.6650130463894657"><ele>723.0</ele><time>2026-03-26T14:55:20.999Z</time></trkpt><trkpt lat="44.6460999409417" lon="2.6649814653203423"><ele>723.0</ele><time>2026-03-26T14:55:21.999Z</time></trkpt><trkpt lat="44.646213981700534" lon="2.664950528950363"><ele>723.0</ele><time>2026-03-26T14:55:22.999Z</time></trkpt><trkpt lat="44.64632991171266" lon="2.6649230683857033"><ele>723.5999999999999</ele><time>2026-03-26T14:55:23.999Z</time></trkpt><trkpt lat="44.646443281748525" lon="2.6648992601584744"><ele>724.1999999999999</ele><time>2026-03-26T14:55:24.999Z</time></trkpt><trkpt lat="44.64655159089509" lon="2.6648759757176084"><ele>724.8</ele><time>2026-03-26T14:55:25.999Z</time></trkpt><trkpt lat="44.64665587177631" lon="2.6648639910635006"><ele>725.4</ele><time>2026-03-26T14:55:26.999Z</time></trkpt><trkpt lat="44.64675460516295" lon="2.664879127977574"><ele>726.0</ele><time>2026-03-26T14:55:27.999Z</time></trkpt><trkpt lat="44.64685305999994" lon="2.664916608814712"><ele>726.0</ele><time>2026-03-26T14:55:28.999Z</time></trkpt><trkpt lat="44.64694841741818" lon="2.66496436873146"><ele>726.0</ele><time>2026-03-26T14:55:29.999Z</time></trkpt><trkpt lat="44.64704505564966" lon="2.6649798641553524"><ele>726.0</ele><time>2026-03-26T14:55:30.999Z</time></trkpt><trkpt lat="44.64714772823559" lon="2.6649769915314567"><ele>726.0</ele><time>2026-03-26T14:55:31.999Z</time></trkpt><trkpt lat="44.64725574222031" lon="2.6649770130170407"><ele>726.0</ele><time>2026-03-26T14:55:32.999Z</time></trkpt><trkpt lat="44.647364997301956" lon="2.664973339987088"><ele>726.5999999999999</ele><time>2026-03-26T14:55:33.999Z</time></trkpt><trkpt lat="44.647476010365395" lon="2.6649565237656914"><ele>727.2</ele><time>2026-03-26T14:55:34.999Z</time></trkpt><trkpt lat="44.647580465003216" lon="2.6649257276079745"><ele>727.8</ele><time>2026-03-26T14:55:35.999Z</time></trkpt><trkpt lat="44.64768307877602" lon="2.6648735463264326"><ele>728.4000000000001</ele><time>2026-03-26T14:55:36.999Z</time></trkpt><trkpt lat="44.647781373500706" lon="2.6648107558305645"><ele>729.0</ele><time>2026-03-26T14:55:37.999Z</time></trkpt><trkpt lat="44.64787673140838" lon="2.6647312165773216"><ele>729.4000000000001</ele><time>2026-03-26T14:55:38.999Z</time></trkpt><trkpt lat="44.64797073602126" lon="2.664654226805378"><ele>729.8</ele><time>2026-03-26T14:55:39.999Z</time></trkpt><trkpt lat="44.64806171114023" lon="2.6645699860595395"><ele>730.2</ele><time>2026-03-26T14:55:40.999Z</time></trkpt><trkpt lat="44.648144992604834" lon="2.6644873703411425"><ele>730.5999999999999</ele><time>2026-03-26T14:55:41.999Z</time></trkpt><trkpt lat="44.64822988840143" lon="2.6644027523442357"><ele>731.0</ele><time>2026-03-26T14:55:42.999Z</time></trkpt><trkpt lat="44.64831454581428" lon="2.664317748786206"><ele>731.4</ele><time>2026-03-26T14:55:43.999Z</time></trkpt><trkpt lat="44.64839834632973" lon="2.664216059229104"><ele>731.8</ele><time>2026-03-26T14:55:44.999Z</time></trkpt><trkpt lat="44.6484850180775" lon="2.664114111050145"><ele>732.1999999999999</ele><time>2026-03-26T14:55:45.999Z</time></trkpt><trkpt lat="44.64857364330092" lon="2.6640152471726037"><ele>732.5999999999999</ele><time>2026-03-26T14:55:46.999Z</time></trkpt><trkpt lat="44.64866062564406" lon="2.6639177641140304"><ele>733.0</ele><time>2026-03-26T14:55:47.999Z</time></trkpt><trkpt lat="44.64874641141396" lon="2.6638185382309123"><ele>733.0</ele><time>2026-03-26T14:55:48.999Z</time></trkpt><trkpt lat="44.64882984127173" lon="2.6637269236321774"><ele>733.0</ele><time>2026-03-26T14:55:49.999Z</time></trkpt><trkpt lat="44.64891025470321" lon="2.663652662775556"><ele>733.0</ele><time>2026-03-26T14:55:50.999Z</time></trkpt><trkpt lat="44.648996383740176" lon="2.6635720512642873"><ele>733.0</ele><time>2026-03-26T14:55:51.999Z</time></trkpt><trkpt lat="44.64907830923133" lon="2.6635236120556205"><ele>733.0</ele><time>2026-03-26T14:55:52.999Z</time></trkpt><trkpt lat="44.6491642415613" lon="2.6635083320892097"><ele>732.2</ele><time>2026-03-26T14:55:53.999Z</time></trkpt><trkpt lat="44.6492689033303" lon="2.6635211093663065"><ele>731.4</ele><time>2026-03-26T14:55:54.999Z</time></trkpt><trkpt lat="44.64937720750161" lon="2.6635376193403912"><ele>730.6</ele><time>2026-03-26T14:55:55.999Z</time></trkpt><trkpt lat="44.64948793380699" lon="2.6635473898620248"><ele>729.8000000000001</ele><time>2026-03-26T14:55:56.999Z</time></trkpt><trkpt lat="44.64960282649061" lon="2.6635604787733893"><ele>729.0</ele><time>2026-03-26T14:55:57.999Z</time></trkpt><trkpt lat="44.64970975003401" lon="2.6635723742894983"><ele>728.0</ele><time>2026-03-26T14:55:58.999Z</time></trkpt><trkpt lat="44.649812344644225" lon="2.6635845744300157"><ele>727.0</ele><time>2026-03-26T14:55:59.999Z</time></trkpt><trkpt lat="44.64991374044298" lon="2.663589069324207"><ele>726.0</ele><time>2026-03-26T14:56:00.999Z</time></trkpt><trkpt lat="44.650012023481274" lon="2.6635941647594352"><ele>725.0</ele><time>2026-03-26T14:56:01.999Z</time></trkpt><trkpt lat="44.65010151546888" lon="2.6636082841619175"><ele>724.0</ele><time>2026-03-26T14:56:02.999Z</time></trkpt><trkpt lat="44.65019096157062" lon="2.6636150966753953"><ele>723.8333333333334</ele><time>2026-03-26T14:56:03.999Z</time></trkpt><trkpt lat="44.65027893175136" lon="2.6636152713773322"><ele>723.6666666666667</ele><time>2026-03-26T14:56:04.999Z</time></trkpt><trkpt lat="44.650369745714364" lon="2.6636089939250653"><ele>723.5</ele><time>2026-03-26T14:56:05.999Z</time></trkpt><trkpt lat="44.65045872869371" lon="2.6635872029181904"><ele>723.3333333333334</ele><time>2026-03-26T14:56:06.999Z</time></trkpt><trkpt lat="44.65053804760737" lon="2.6635557986128657"><ele>723.1666666666666</ele><time>2026-03-26T14:56:07.999Z</time></trkpt><trkpt lat="44.650610694974446" lon="2.663520756456441"><ele>723.0</ele><time>2026-03-26T14:56:08.999Z</time></trkpt><trkpt lat="44.65067536017353" lon="2.6634990268964"><ele>722.8333333333334</ele><time>2026-03-26T14:56:09.999Z</time></trkpt><trkpt lat="44.65075076022414" lon="2.6634754653366954"><ele>722.6666666666666</ele><time>2026-03-26T14:56:10.999Z</time></trkpt><trkpt lat="44.65083027349516" lon="2.6634370632180953"><ele>722.5</ele><time>2026-03-26T14:56:11.999Z</time></trkpt><trkpt lat="44.65091617225752" lon="2.6634003725539044"><ele>722.3333333333333</ele><time>2026-03-26T14:56:12.999Z</time></trkpt><trkpt lat="44.65099124116014" lon="2.6633734394702686"><ele>722.1666666666666</ele><time>2026-03-26T14:56:13.999Z</time></trkpt><trkpt lat="44.6510537987007" lon="2.663347145473635"><ele>722.0</ele><time>2026-03-26T14:56:14.999Z</time></trkpt><trkpt lat="44.65111189985487" lon="2.6632669701246896"><ele>722.0</ele><time>2026-03-26T14:56:16.999Z</time></trkpt><trkpt lat="44.65109666091746" lon="2.6630985640223783"><ele>722.0</ele><time>2026-03-26T14:56:18.999Z</time></trkpt><trkpt lat="44.65105762545029" lon="2.662990961132339"><ele>722.0</ele><time>2026-03-26T14:56:19.999Z</time></trkpt><trkpt lat="44.651020981583095" lon="2.6628663586974346"><ele>722.0</ele><time>2026-03-26T14:56:21Z</time></trkpt><trkpt lat="44.65100319476812" lon="2.6627185957723194"><ele>722.0</ele><time>2026-03-26T14:56:22Z</time></trkpt><trkpt lat="44.65099758097436" lon="2.6625617850604426"><ele>721.6666666666666</ele><time>2026-03-26T14:56:23Z</time></trkpt><trkpt lat="44.65100367917787" lon="2.662419337675985"><ele>721.3333333333333</ele><time>2026-03-26T14:56:24Z</time></trkpt><trkpt lat="44.651000662668125" lon="2.6622942409352204"><ele>721.0</ele><time>2026-03-26T14:56:25Z</time></trkpt><trkpt lat="44.65101325417925" lon="2.6621753488235527"><ele>720.6666666666666</ele><time>2026-03-26T14:56:26Z</time></trkpt><trkpt lat="44.65102865090656" lon="2.6620613415884145"><ele>720.3333333333334</ele><time>2026-03-26T14:56:27Z</time></trkpt><trkpt lat="44.65102738445842" lon="2.661945864788294"><ele>720.0</ele><time>2026-03-26T14:56:28Z</time></trkpt><trkpt lat="44.65101681771177" lon="2.6618368308093343"><ele>719.5</ele><time>2026-03-26T14:56:29Z</time></trkpt><trkpt lat="44.65099565078254" lon="2.661734774455686"><ele>719.0</ele><time>2026-03-26T14:56:30Z</time></trkpt><trkpt lat="44.650954667525085" lon="2.66164051896616"><ele>718.5</ele><time>2026-03-26T14:56:31Z</time></trkpt><trkpt lat="44.6508975396792" lon="2.6615562094577894"><ele>718.0</ele><time>2026-03-26T14:56:32Z</time></trkpt><trkpt lat="44.65082838368721" lon="2.6614875618063016"><ele>717.5</ele><time>2026-03-26T14:56:33Z</time></trkpt><trkpt lat="44.65075541935623" lon="2.6614305840926704"><ele>717.0</ele><time>2026-03-26T14:56:34Z</time></trkpt><trkpt lat="44.65068426628439" lon="2.6613868035967663"><ele>717.0</ele><time>2026-03-26T14:56:35Z</time></trkpt><trkpt lat="44.65061209779184" lon="2.6613513281889345"><ele>717.0</ele><time>2026-03-26T14:56:36Z</time></trkpt><trkpt lat="44.65054604428757" lon="2.661312624424292"><ele>717.0</ele><time>2026-03-26T14:56:37Z</time></trkpt><trkpt lat="44.650494603345784" lon="2.6612477225856166"><ele>717.0</ele><time>2026-03-26T14:56:38Z</time></trkpt><trkpt lat="44.650463644926866" lon="2.6611546226226017"><ele>717.0</ele><time>2026-03-26T14:56:39Z</time></trkpt><trkpt lat="44.6504549570987" lon="2.661042727170048"><ele>717.0</ele><time>2026-03-26T14:56:40Z</time></trkpt><trkpt lat="44.6504743253728" lon="2.66091127327044"><ele>715.4000000000001</ele><time>2026-03-26T14:56:41Z</time></trkpt><trkpt lat="44.65050098336699" lon="2.660779964790088"><ele>713.8000000000001</ele><time>2026-03-26T14:56:42Z</time></trkpt><trkpt lat="44.65052764832535" lon="2.66065479839043"><ele>712.2</ele><time>2026-03-26T14:56:43Z</time></trkpt><trkpt lat="44.65055861231238" lon="2.6605302214876083"><ele>710.6</ele><time>2026-03-26T14:56:44Z</time></trkpt><trkpt lat="44.650598039236144" lon="2.6604184468571592"><ele>709.0</ele><time>2026-03-26T14:56:45Z</time></trkpt><trkpt lat="44.65065259712907" lon="2.6603175843030282"><ele>707.6666666666667</ele><time>2026-03-26T14:56:46Z</time></trkpt><trkpt lat="44.65072236931747" lon="2.660235965849268"><ele>706.3333333333334</ele><time>2026-03-26T14:56:47Z</time></trkpt><trkpt lat="44.65080778314727" lon="2.6601806851228287"><ele>705.0</ele><time>2026-03-26T14:56:48Z</time></trkpt><trkpt lat="44.65090199500657" lon="2.660159320239266"><ele>703.6666666666666</ele><time>2026-03-26T14:56:49Z</time></trkpt><trkpt lat="44.65098658072039" lon="2.660149297274004"><ele>702.3333333333333</ele><time>2026-03-26T14:56:50Z</time></trkpt><trkpt lat="44.651066922181066" lon="2.6601308402713415"><ele>701.0</ele><time>2026-03-26T14:56:51Z</time></trkpt><trkpt lat="44.65113198188524" lon="2.660100808877134"><ele>700.3333333333333</ele><time>2026-03-26T14:56:52Z</time></trkpt><trkpt lat="44.651183259663206" lon="2.6600452296516788"><ele>699.6666666666666</ele><time>2026-03-26T14:56:53Z</time></trkpt><trkpt lat="44.651211777480846" lon="2.6599487689986376"><ele>699.0</ele><time>2026-03-26T14:56:54Z</time></trkpt><trkpt lat="44.651208884848316" lon="2.6598340556960247"><ele>698.3333333333334</ele><time>2026-03-26T14:56:55Z</time></trkpt><trkpt lat="44.65117658677821" lon="2.6597041154476893"><ele>697.6666666666667</ele><time>2026-03-26T14:56:56Z</time></trkpt><trkpt lat="44.65112498876857" lon="2.6595627405023783"><ele>697.0</ele><time>2026-03-26T14:56:57Z</time></trkpt><trkpt lat="44.65107518649503" lon="2.6594092943965255"><ele>696.2</ele><time>2026-03-26T14:56:58Z</time></trkpt><trkpt lat="44.651031358803486" lon="2.6592644100476215"><ele>695.4000000000001</ele><time>2026-03-26T14:56:59Z</time></trkpt><trkpt lat="44.65099332080494" lon="2.6591307750897077"><ele>694.5999999999999</ele><time>2026-03-26T14:57:00Z</time></trkpt><trkpt lat="44.65096240709124" lon="2.6589996732376453"><ele>693.8</ele><time>2026-03-26T14:57:01Z</time></trkpt><trkpt lat="44.65094794004474" lon="2.6588631592532646"><ele>693.0</ele><time>2026-03-26T14:57:02Z</time></trkpt><trkpt lat="44.65095773274679" lon="2.658724802808797"><ele>692.1666666666666</ele><time>2026-03-26T14:57:03Z</time></trkpt><trkpt lat="44.650982253931474" lon="2.658593861208949"><ele>691.3333333333334</ele><time>2026-03-26T14:57:04Z</time></trkpt><trkpt lat="44.65101147467628" lon="2.658485863032212"><ele>690.5</ele><time>2026-03-26T14:57:05Z</time></trkpt><trkpt lat="44.65104901948368" lon="2.6583751402068865"><ele>689.6666666666667</ele><time>2026-03-26T14:57:06Z</time></trkpt><trkpt lat="44.65109280818648" lon="2.6582709299188467"><ele>688.8333333333334</ele><time>2026-03-26T14:57:07Z</time></trkpt><trkpt lat="44.6511476289253" lon="2.6581672996338788"><ele>688.0</ele><time>2026-03-26T14:57:08Z</time></trkpt><trkpt lat="44.651202297939484" lon="2.6580657975089244"><ele>687.8</ele><time>2026-03-26T14:57:09Z</time></trkpt><trkpt lat="44.65126357909412" lon="2.6579556963946405"><ele>687.5999999999999</ele><time>2026-03-26T14:57:10Z</time></trkpt><trkpt lat="44.651327521930384" lon="2.6578521736531946"><ele>687.4000000000001</ele><time>2026-03-26T14:57:11Z</time></trkpt><trkpt lat="44.65139843796111" lon="2.6577479176052434"><ele>687.2</ele><time>2026-03-26T14:57:12Z</time></trkpt><trkpt lat="44.651475157267726" lon="2.6576508235896137"><ele>687.0</ele><time>2026-03-26T14:57:13Z</time></trkpt><trkpt lat="44.65155448061221" lon="2.6575584882296117"><ele>687.0</ele><time>2026-03-26T14:57:14Z</time></trkpt><trkpt lat="44.65163157733087" lon="2.6574639653227012"><ele>687.0</ele><time>2026-03-26T14:57:15Z</time></trkpt><trkpt lat="44.65170808279401" lon="2.657365121409339"><ele>687.0</ele><time>2026-03-26T14:57:16Z</time></trkpt><trkpt lat="44.651784473168" lon="2.6572609581380955"><ele>687.0</ele><time>2026-03-26T14:57:17Z</time></trkpt><trkpt lat="44.65185474944504" lon="2.65716377157132"><ele>687.0</ele><time>2026-03-26T14:57:18Z</time></trkpt><trkpt lat="44.65191912545401" lon="2.657069062658689"><ele>686.4000000000001</ele><time>2026-03-26T14:57:19Z</time></trkpt><trkpt lat="44.65197989554661" lon="2.6569690151479883"><ele>685.8000000000001</ele><time>2026-03-26T14:57:20Z</time></trkpt><trkpt lat="44.65203908112441" lon="2.656877756428547"><ele>685.2</ele><time>2026-03-26T14:57:21Z</time></trkpt><trkpt lat="44.65206582953613" lon="2.656764118411919"><ele>684.6</ele><time>2026-03-26T14:57:22Z</time></trkpt><trkpt lat="44.65208748628534" lon="2.6566445343724907"><ele>684.0</ele><time>2026-03-26T14:57:23Z</time></trkpt><trkpt lat="44.65209970279705" lon="2.6565113285899598"><ele>685.6</ele><time>2026-03-26T14:57:24Z</time></trkpt><trkpt lat="44.6521042388196" lon="2.656361278671819"><ele>687.2</ele><time>2026-03-26T14:57:24.999Z</time></trkpt><trkpt lat="44.652120421250665" lon="2.6562030960400516"><ele>688.8000000000001</ele><time>2026-03-26T14:57:25.999Z</time></trkpt><trkpt lat="44.65213404668361" lon="2.6560517801609933"><ele>690.4000000000001</ele><time>2026-03-26T14:57:26.999Z</time></trkpt><trkpt lat="44.65214087094292" lon="2.655908123143697"><ele>692.0</ele><time>2026-03-26T14:57:27.999Z</time></trkpt><trkpt lat="44.65214636650799" lon="2.6557674816535726"><ele>692.0</ele><time>2026-03-26T14:57:28.999Z</time></trkpt><trkpt lat="44.652152992160154" lon="2.65561392368875"><ele>692.0</ele><time>2026-03-26T14:57:29.999Z</time></trkpt><trkpt lat="44.652152103710705" lon="2.6554672314506242"><ele>692.0</ele><time>2026-03-26T14:57:30.999Z</time></trkpt><trkpt lat="44.65214853323028" lon="2.6553368915439193"><ele>692.0</ele><time>2026-03-26T14:57:31.999Z</time></trkpt><trkpt lat="44.65214952975201" lon="2.6552261083570654"><ele>692.0</ele><time>2026-03-26T14:57:32.999Z</time></trkpt><trkpt lat="44.65215724787381" lon="2.6551139199116234"><ele>691.3333333333333</ele><time>2026-03-26T14:57:33.999Z</time></trkpt><trkpt lat="44.65218996349266" lon="2.654995175039252"><ele>690.6666666666666</ele><time>2026-03-26T14:57:34.999Z</time></trkpt><trkpt lat="44.652256700992375" lon="2.654903291351875"><ele>690.0</ele><time>2026-03-26T14:57:35.999Z</time></trkpt><trkpt lat="44.65234387227409" lon="2.654869087037869"><ele>689.3333333333334</ele><time>2026-03-26T14:57:36.999Z</time></trkpt><trkpt lat="44.65240585247688" lon="2.6548450714468292"><ele>688.6666666666667</ele><time>2026-03-26T14:58:14.999Z</time></trkpt><trkpt lat="44.652319000477775" lon="2.6548862788695238"><ele>688.0</ele><time>2026-03-26T14:58:19.999Z</time></trkpt><trkpt lat="44.65223219500535" lon="2.6549573854637902"><ele>688.0</ele><time>2026-03-26T14:58:21.999Z</time></trkpt><trkpt lat="44.652174925688236" lon="2.6550329040871365"><ele>688.0</ele><time>2026-03-26T14:58:22.999Z</time></trkpt><trkpt lat="44.65214474748827" lon="2.655126278062065"><ele>688.0</ele><time>2026-03-26T14:58:23.999Z</time></trkpt><trkpt lat="44.65214619743137" lon="2.6552321179598146"><ele>688.0</ele><time>2026-03-26T14:58:24.999Z</time></trkpt><trkpt lat="44.652159338627136" lon="2.6553438078734435"><ele>688.0</ele><time>2026-03-26T14:58:26Z</time></trkpt><trkpt lat="44.65215993815148" lon="2.655456681497017"><ele>688.0</ele><time>2026-03-26T14:58:27Z</time></trkpt><trkpt lat="44.65215551731582" lon="2.6555693029120686"><ele>688.6666666666667</ele><time>2026-03-26T14:58:28Z</time></trkpt><trkpt lat="44.65215235329306" lon="2.655684431679945"><ele>689.3333333333334</ele><time>2026-03-26T14:58:29Z</time></trkpt><trkpt lat="44.65215245023574" lon="2.655798609340113"><ele>690.0</ele><time>2026-03-26T14:58:30Z</time></trkpt><trkpt lat="44.652146720056024" lon="2.65591723806604"><ele>690.6666666666666</ele><time>2026-03-26T14:58:31Z</time></trkpt><trkpt lat="44.65213610872342" lon="2.6560361564161803"><ele>691.3333333333333</ele><time>2026-03-26T14:58:32Z</time></trkpt><trkpt lat="44.652121015544616" lon="2.656156074789889"><ele>692.0</ele><time>2026-03-26T14:58:33Z</time></trkpt><trkpt lat="44.65210937605878" lon="2.6562737245495636"><ele>692.0</ele><time>2026-03-26T14:58:34Z</time></trkpt><trkpt lat="44.65210017584808" lon="2.6563926652329384"><ele>692.0</ele><time>2026-03-26T14:58:35Z</time></trkpt><trkpt lat="44.65208443351914" lon="2.6564977826610527"><ele>692.0</ele><time>2026-03-26T14:58:36Z</time></trkpt><trkpt lat="44.65207385085411" lon="2.656658685581088"><ele>692.0</ele><time>2026-03-26T14:58:38Z</time></trkpt><trkpt lat="44.652050468790385" lon="2.656783974323524"><ele>692.0</ele><time>2026-03-26T14:58:40Z</time></trkpt><trkpt lat="44.65202124596454" lon="2.6568846931772048"><ele>692.0</ele><time>2026-03-26T14:58:42Z</time></trkpt><trkpt lat="44.65195131783446" lon="2.656868934508706"><ele>691.8333333333333</ele><time>2026-03-26T14:58:44Z</time></trkpt><trkpt lat="44.65187780562727" lon="2.656745724189123"><ele>691.6666666666666</ele><time>2026-03-26T14:58:46Z</time></trkpt><trkpt lat="44.65185799359175" lon="2.656649359632085"><ele>691.5</ele><time>2026-03-26T14:58:47Z</time></trkpt><trkpt lat="44.651829157503656" lon="2.6565359710558365"><ele>691.3333333333334</ele><time>2026-03-26T14:58:48Z</time></trkpt><trkpt lat="44.65178435912359" lon="2.656452575690097"><ele>691.1666666666667</ele><time>2026-03-26T14:58:49Z</time></trkpt><trkpt lat="44.651738582109644" lon="2.65638896601174"><ele>691.0</ele><time>2026-03-26T14:58:50Z</time></trkpt><trkpt lat="44.651692282713995" lon="2.6563218552705954"><ele>691.0</ele><time>2026-03-26T14:58:51Z</time></trkpt><trkpt lat="44.651573142472486" lon="2.6562099702890234"><ele>691.0</ele><time>2026-03-26T14:58:53Z</time></trkpt><trkpt lat="44.651485764298336" lon="2.656187546616042"><ele>691.0</ele><time>2026-03-26T14:58:54Z</time></trkpt><trkpt lat="44.6513898481799" lon="2.656175168934554"><ele>691.0</ele><time>2026-03-26T14:58:55Z</time></trkpt><trkpt lat="44.65129688053598" lon="2.6561727857644457"><ele>691.0</ele><time>2026-03-26T14:58:56Z</time></trkpt><trkpt lat="44.65120769903056" lon="2.6561643299492754"><ele>690.5999999999999</ele><time>2026-03-26T14:58:57Z</time></trkpt><trkpt lat="44.65110942789634" lon="2.6561487782322954"><ele>690.2</ele><time>2026-03-26T14:58:58Z</time></trkpt><trkpt lat="44.65102191873833" lon="2.6561343400915307"><ele>689.8</ele><time>2026-03-26T14:58:59Z</time></trkpt><trkpt lat="44.65092471517764" lon="2.656148202116512"><ele>689.4000000000001</ele><time>2026-03-26T14:59:00Z</time></trkpt><trkpt lat="44.65083655919482" lon="2.6561610944602907"><ele>689.0</ele><time>2026-03-26T14:59:01Z</time></trkpt><trkpt lat="44.650742450005964" lon="2.6562003798497096"><ele>689.0</ele><time>2026-03-26T14:59:02Z</time></trkpt><trkpt lat="44.65065798528491" lon="2.656256871362326"><ele>689.0</ele><time>2026-03-26T14:59:03Z</time></trkpt><trkpt lat="44.6505768055058" lon="2.6562824027917626"><ele>689.0</ele><time>2026-03-26T14:59:04Z</time></trkpt><trkpt lat="44.65047925892915" lon="2.656252539177438"><ele>689.0</ele><time>2026-03-26T14:59:05Z</time></trkpt><trkpt lat="44.65037351020975" lon="2.656223118934179"><ele>689.0</ele><time>2026-03-26T14:59:06Z</time></trkpt><trkpt lat="44.65027829394633" lon="2.656202263320644"><ele>689.2</ele><time>2026-03-26T14:59:07Z</time></trkpt><trkpt lat="44.650182976505086" lon="2.6562049673227306"><ele>689.4000000000001</ele><time>2026-03-26T14:59:08Z</time></trkpt><trkpt lat="44.65008160586642" lon="2.656205029729626"><ele>689.6</ele><time>2026-03-26T14:59:09Z</time></trkpt><trkpt lat="44.64997870944077" lon="2.6562057215114088"><ele>689.8</ele><time>2026-03-26T14:59:10Z</time></trkpt><trkpt lat="44.64987938008929" lon="2.656224229803478"><ele>690.0</ele><time>2026-03-26T14:59:11Z</time></trkpt><trkpt lat="44.649774811475126" lon="2.656252563237648"><ele>690.0</ele><time>2026-03-26T14:59:12Z</time></trkpt><trkpt lat="44.64966767174199" lon="2.656270524104682"><ele>690.0</ele><time>2026-03-26T14:59:13Z</time></trkpt><trkpt lat="44.649555246620274" lon="2.6562886540052313"><ele>690.0</ele><time>2026-03-26T14:59:14Z</time></trkpt><trkpt lat="44.64944042391844" lon="2.656303191745384"><ele>690.0</ele><time>2026-03-26T14:59:15Z</time></trkpt><trkpt lat="44.64932115730331" lon="2.6563176274080234"><ele>690.4</ele><time>2026-03-26T14:59:16Z</time></trkpt><trkpt lat="44.6492131181388" lon="2.656337120712535"><ele>690.8</ele><time>2026-03-26T14:59:17Z</time></trkpt><trkpt lat="44.64911968617828" lon="2.65636655549436"><ele>691.2</ele><time>2026-03-26T14:59:18Z</time></trkpt><trkpt lat="44.649032344754886" lon="2.6563849950305505"><ele>691.6</ele><time>2026-03-26T14:59:19Z</time></trkpt><trkpt lat="44.64894040147985" lon="2.6563904903913897"><ele>692.0</ele><time>2026-03-26T14:59:20Z</time></trkpt><trkpt lat="44.64886532482969" lon="2.6564141104200822"><ele>692.0</ele><time>2026-03-26T14:59:21Z</time></trkpt><trkpt lat="44.64879651100028" lon="2.6564255952056786"><ele>692.0</ele><time>2026-03-26T14:59:22Z</time></trkpt><trkpt lat="44.648725428707515" lon="2.6564312071407397"><ele>692.0</ele><time>2026-03-26T14:59:23Z</time></trkpt><trkpt lat="44.64864049200208" lon="2.656408400134029"><ele>692.0</ele><time>2026-03-26T14:59:24Z</time></trkpt><trkpt lat="44.6485551773905" lon="2.6563794953897517"><ele>692.0</ele><time>2026-03-26T14:59:25Z</time></trkpt><trkpt lat="44.64846362709501" lon="2.6563426837167734"><ele>692.0</ele><time>2026-03-26T14:59:25.999Z</time></trkpt><trkpt lat="44.64836788870936" lon="2.656300686245164"><ele>691.4000000000001</ele><time>2026-03-26T14:59:26.999Z</time></trkpt><trkpt lat="44.64828278942152" lon="2.6562409835545253"><ele>690.8000000000001</ele><time>2026-03-26T14:59:27.999Z</time></trkpt><trkpt lat="44.6481964504179" lon="2.6561927407742196"><ele>690.2</ele><time>2026-03-26T14:59:28.999Z</time></trkpt><trkpt lat="44.64810440788436" lon="2.6561461245447693"><ele>689.6</ele><time>2026-03-26T14:59:29.999Z</time></trkpt><trkpt lat="44.6480200455287" lon="2.656109203223102"><ele>689.0</ele><time>2026-03-26T14:59:30.999Z</time></trkpt><trkpt lat="44.64794795199732" lon="2.656078364014327"><ele>688.8000000000001</ele><time>2026-03-26T14:59:31.999Z</time></trkpt><trkpt lat="44.64787582113759" lon="2.6560351263902158"><ele>688.6</ele><time>2026-03-26T14:59:32.999Z</time></trkpt><trkpt lat="44.647797787711" lon="2.655981822363205"><ele>688.4</ele><time>2026-03-26T14:59:33.999Z</time></trkpt><trkpt lat="44.647714611617864" lon="2.6559100365592405"><ele>688.2</ele><time>2026-03-26T14:59:34.999Z</time></trkpt><trkpt lat="44.647634312558004" lon="2.6558378790061674"><ele>688.0</ele><time>2026-03-26T14:59:35.999Z</time></trkpt><trkpt lat="44.6475444937049" lon="2.655748330675543"><ele>688.0</ele><time>2026-03-26T14:59:36.999Z</time></trkpt><trkpt lat="44.64746828110959" lon="2.655669773142163"><ele>688.0</ele><time>2026-03-26T14:59:37.999Z</time></trkpt><trkpt lat="44.64740548611475" lon="2.6555999038715394"><ele>688.0</ele><time>2026-03-26T14:59:38.999Z</time></trkpt><trkpt lat="44.64734597322951" lon="2.6555137611988044"><ele>688.0</ele><time>2026-03-26T14:59:39.999Z</time></trkpt><trkpt lat="44.64727040478358" lon="2.6554398725137425"><ele>688.0</ele><time>2026-03-26T14:59:40.999Z</time></trkpt><trkpt lat="44.64719282535187" lon="2.655352948153892"><ele>688.5</ele><time>2026-03-26T14:59:41.999Z</time></trkpt><trkpt lat="44.64713454993442" lon="2.655259136196481"><ele>689.0</ele><time>2026-03-26T14:59:42.999Z</time></trkpt><trkpt lat="44.647091952823104" lon="2.655137605154515"><ele>689.5</ele><time>2026-03-26T14:59:43.999Z</time></trkpt><trkpt lat="44.64705818798762" lon="2.65503009889344"><ele>690.0</ele><time>2026-03-26T14:59:44.999Z</time></trkpt><trkpt lat="44.64703018129627" lon="2.65491563341906"><ele>690.5</ele><time>2026-03-26T14:59:45.999Z</time></trkpt><trkpt lat="44.64699990042529" lon="2.654802079766541"><ele>691.0</ele><time>2026-03-26T14:59:46.999Z</time></trkpt><trkpt lat="44.64697234672161" lon="2.654685185904709"><ele>691.0</ele><time>2026-03-26T14:59:47.999Z</time></trkpt><trkpt lat="44.64697298611425" lon="2.654586258573695"><ele>691.0</ele><time>2026-03-26T14:59:48.999Z</time></trkpt><trkpt lat="44.6469942938263" lon="2.654473893253851"><ele>691.0</ele><time>2026-03-26T14:59:49.999Z</time></trkpt><trkpt lat="44.64703324416707" lon="2.6543027023062504"><ele>691.0</ele><time>2026-03-26T14:59:50.999Z</time></trkpt><trkpt lat="44.647074759274446" lon="2.6541431989832107"><ele>691.0</ele><time>2026-03-26T14:59:51.999Z</time></trkpt><trkpt lat="44.64711312278454" lon="2.653972479603764"><ele>689.8</ele><time>2026-03-26T14:59:52.999Z</time></trkpt><trkpt lat="44.647158597673894" lon="2.653837481535376"><ele>688.5999999999999</ele><time>2026-03-26T14:59:53.999Z</time></trkpt><trkpt lat="44.64719854347876" lon="2.653716754437445"><ele>687.4</ele><time>2026-03-26T14:59:54.999Z</time></trkpt><trkpt lat="44.64723977623195" lon="2.6536008158392796"><ele>686.2</ele><time>2026-03-26T14:59:55.999Z</time></trkpt><trkpt lat="44.647277518167705" lon="2.6534874883453434"><ele>685.0</ele><time>2026-03-26T14:59:56.999Z</time></trkpt><trkpt lat="44.64731646197513" lon="2.65337987305968"><ele>685.0</ele><time>2026-03-26T14:59:57.999Z</time></trkpt><trkpt lat="44.64735183229603" lon="2.653260814100214"><ele>685.0</ele><time>2026-03-26T14:59:58.999Z</time></trkpt><trkpt lat="44.647415469785685" lon="2.6531027487945473"><ele>685.0</ele><time>2026-03-26T15:00:00.999Z</time></trkpt><trkpt lat="44.647447424674446" lon="2.6530159136394227"><ele>685.0</ele><time>2026-03-26T15:00:01.999Z</time></trkpt><trkpt lat="44.64747716416924" lon="2.652926759946595"><ele>685.0</ele><time>2026-03-26T15:00:02.999Z</time></trkpt><trkpt lat="44.64750423996627" lon="2.6528237084334894"><ele>685.0</ele><time>2026-03-26T15:00:03.999Z</time></trkpt><trkpt lat="44.6475043992122" lon="2.6527200254172327"><ele>685.0</ele><time>2026-03-26T15:00:04.999Z</time></trkpt><trkpt lat="44.647497103071885" lon="2.6525839735013204"><ele>685.0</ele><time>2026-03-26T15:00:06.999Z</time></trkpt><trkpt lat="44.647365382273584" lon="2.652500093826199"><ele>685.0</ele><time>2026-03-26T15:00:08.999Z</time></trkpt><trkpt lat="44.64729308679924" lon="2.652458644543079"><ele>685.0</ele><time>2026-03-26T15:00:09.999Z</time></trkpt><trkpt lat="44.64720925648965" lon="2.652418300364186"><ele>685.0</ele><time>2026-03-26T15:00:10.999Z</time></trkpt><trkpt lat="44.64711164402978" lon="2.652377035921608"><ele>685.0</ele><time>2026-03-26T15:00:11.999Z</time></trkpt><trkpt lat="44.6470052659525" lon="2.652333876479154"><ele>685.0</ele><time>2026-03-26T15:00:12.999Z</time></trkpt><trkpt lat="44.64689144290424" lon="2.652285473458789"><ele>685.0</ele><time>2026-03-26T15:00:13.999Z</time></trkpt><trkpt lat="44.64677663157931" lon="2.6522325201808226"><ele>685.0</ele><time>2026-03-26T15:00:14.999Z</time></trkpt><trkpt lat="44.64665374590236" lon="2.652177174623788"><ele>684.5</ele><time>2026-03-26T15:00:15.999Z</time></trkpt><trkpt lat="44.64652677815894" lon="2.652104564129852"><ele>684.0</ele><time>2026-03-26T15:00:16.999Z</time></trkpt><trkpt lat="44.64639971457256" lon="2.6520160983028034"><ele>683.5</ele><time>2026-03-26T15:00:17.999Z</time></trkpt><trkpt lat="44.64626803315797" lon="2.651900681717316"><ele>683.0</ele><time>2026-03-26T15:00:18.999Z</time></trkpt><trkpt lat="44.64614084636367" lon="2.6517961881486936"><ele>686.25</ele><time>2026-03-26T15:00:19.999Z</time></trkpt><trkpt lat="44.64601315832994" lon="2.6517078940423886"><ele>689.5</ele><time>2026-03-26T15:00:20.999Z</time></trkpt><trkpt lat="44.64588852937864" lon="2.651618946516125"><ele>692.75</ele><time>2026-03-26T15:00:21.999Z</time></trkpt><trkpt lat="44.645764739116636" lon="2.651554490637775"><ele>696.0</ele><time>2026-03-26T15:00:22.999Z</time></trkpt><trkpt lat="44.64564479398394" lon="2.6514966973421763"><ele>696.0</ele><time>2026-03-26T15:00:23.999Z</time></trkpt><trkpt lat="44.645535540882996" lon="2.651449853189821"><ele>696.0</ele><time>2026-03-26T15:00:24.999Z</time></trkpt><trkpt lat="44.64542962179196" lon="2.6514314545163287"><ele>696.0</ele><time>2026-03-26T15:00:25.999Z</time></trkpt><trkpt lat="44.64531479742933" lon="2.651429561778426"><ele>696.0</ele><time>2026-03-26T15:00:26.999Z</time></trkpt><trkpt lat="44.64520694718786" lon="2.6514573479648784"><ele>696.0</ele><time>2026-03-26T15:00:27.999Z</time></trkpt><trkpt lat="44.645099744435555" lon="2.6515228986503585"><ele>697.0</ele><time>2026-03-26T15:00:28.999Z</time></trkpt><trkpt lat="44.64499754660142" lon="2.6516090544508937"><ele>698.0</ele><time>2026-03-26T15:00:29.999Z</time></trkpt><trkpt lat="44.64490236751907" lon="2.6516893778147543"><ele>699.0</ele><time>2026-03-26T15:00:30.999Z</time></trkpt><trkpt lat="44.64481885976327" lon="2.6517313662130153"><ele>700.0</ele><time>2026-03-26T15:00:32Z</time></trkpt><trkpt lat="44.64472853313819" lon="2.6517315319040695"><ele>701.0</ele><time>2026-03-26T15:00:33Z</time></trkpt><trkpt lat="44.64464550156134" lon="2.6516673960011348"><ele>701.0</ele><time>2026-03-26T15:00:34Z</time></trkpt><trkpt lat="44.6445783958702" lon="2.6515595691504723"><ele>701.0</ele><time>2026-03-26T15:00:35Z</time></trkpt><trkpt lat="44.64451808175626" lon="2.6514306878842984"><ele>701.0</ele><time>2026-03-26T15:00:36Z</time></trkpt><trkpt lat="44.6444366330212" lon="2.6513274045759285"><ele>701.0</ele><time>2026-03-26T15:00:37Z</time></trkpt><trkpt lat="44.64433909186314" lon="2.6512560528454867"><ele>701.0</ele><time>2026-03-26T15:00:38Z</time></trkpt><trkpt lat="44.64423152047044" lon="2.6512123741602824"><ele>700.0</ele><time>2026-03-26T15:00:39Z</time></trkpt><trkpt lat="44.64411620145429" lon="2.6511824362587326"><ele>699.0</ele><time>2026-03-26T15:00:40Z</time></trkpt><trkpt lat="44.643996276596006" lon="2.651157316752213"><ele>698.0</ele><time>2026-03-26T15:00:41Z</time></trkpt><trkpt lat="44.6438797750147" lon="2.6511317591845667"><ele>697.0</ele><time>2026-03-26T15:00:42Z</time></trkpt><trkpt lat="44.643762035695616" lon="2.6510814236855826"><ele>697.0</ele><time>2026-03-26T15:00:43Z</time></trkpt><trkpt lat="44.64365690624474" lon="2.650993020588924"><ele>697.0</ele><time>2026-03-26T15:00:44Z</time></trkpt><trkpt lat="44.64356995153665" lon="2.650905098458275"><ele>697.0</ele><time>2026-03-26T15:00:45Z</time></trkpt><trkpt lat="44.64349081341065" lon="2.6508374514047865"><ele>697.0</ele><time>2026-03-26T15:00:46Z</time></trkpt><trkpt lat="44.643399130161626" lon="2.650795575713611"><ele>697.0</ele><time>2026-03-26T15:00:47Z</time></trkpt><trkpt lat="44.64329567867905" lon="2.6507760765130755"><ele>698.8</ele><time>2026-03-26T15:00:48Z</time></trkpt><trkpt lat="44.6431880261115" lon="2.65075498856035"><ele>700.6</ele><time>2026-03-26T15:00:49Z</time></trkpt><trkpt lat="44.64308608092394" lon="2.6507250427455813"><ele>702.4</ele><time>2026-03-26T15:00:50Z</time></trkpt><trkpt lat="44.64298388816877" lon="2.650687896148815"><ele>704.1999999999999</ele><time>2026-03-26T15:00:51Z</time></trkpt><trkpt lat="44.64288415404268" lon="2.6506465972883326"><ele>706.0</ele><time>2026-03-26T15:00:52Z</time></trkpt><trkpt lat="44.64278886598209" lon="2.650587011692433"><ele>705.6666666666667</ele><time>2026-03-26T15:00:53Z</time></trkpt><trkpt lat="44.64270309372734" lon="2.650511650042032"><ele>705.3333333333334</ele><time>2026-03-26T15:00:54Z</time></trkpt><trkpt lat="44.642632731853475" lon="2.6504181934025577"><ele>705.0</ele><time>2026-03-26T15:00:55Z</time></trkpt><trkpt lat="44.64257242920126" lon="2.6503556727377324"><ele>704.6666666666666</ele><time>2026-03-26T15:00:56Z</time></trkpt><trkpt lat="44.64250427706262" lon="2.650321947458312"><ele>704.3333333333333</ele><time>2026-03-26T15:00:57Z</time></trkpt><trkpt lat="44.64241745947493" lon="2.650305971475331"><ele>704.0</ele><time>2026-03-26T15:00:58Z</time></trkpt><trkpt lat="44.64232048588102" lon="2.6502876891071625"><ele>704.0</ele><time>2026-03-26T15:00:59Z</time></trkpt><trkpt lat="44.64222363303118" lon="2.6502548081473782"><ele>704.0</ele><time>2026-03-26T15:01:00Z</time></trkpt><trkpt lat="44.64212480377067" lon="2.650204389301471"><ele>704.0</ele><time>2026-03-26T15:01:01Z</time></trkpt><trkpt lat="44.642027090939386" lon="2.650151005454099"><ele>704.0</ele><time>2026-03-26T15:01:02Z</time></trkpt><trkpt lat="44.64192207224055" lon="2.6501237643979434"><ele>704.0</ele><time>2026-03-26T15:01:03Z</time></trkpt><trkpt lat="44.64181324838399" lon="2.6501019864015167"><ele>705.0</ele><time>2026-03-26T15:01:04Z</time></trkpt><trkpt lat="44.64170440110029" lon="2.650074299336491"><ele>706.0</ele><time>2026-03-26T15:01:05Z</time></trkpt><trkpt lat="44.6415989282265" lon="2.6500544388009803"><ele>707.0</ele><time>2026-03-26T15:01:06Z</time></trkpt><trkpt lat="44.64150799400353" lon="2.6500392660237484"><ele>708.0</ele><time>2026-03-26T15:01:07Z</time></trkpt><trkpt lat="44.641440529251845" lon="2.6500414349322745"><ele>709.0</ele><time>2026-03-26T15:01:08Z</time></trkpt><trkpt lat="44.641390682394515" lon="2.6501023466488105"><ele>710.0</ele><time>2026-03-26T15:01:10Z</time></trkpt><trkpt lat="44.64134660733018" lon="2.650217507783761"><ele>710.0</ele><time>2026-03-26T15:01:12Z</time></trkpt><trkpt lat="44.641326900198344" lon="2.650305526007968"><ele>710.0</ele><time>2026-03-26T15:01:13Z</time></trkpt><trkpt lat="44.64127752167227" lon="2.650443911881565"><ele>710.0</ele><time>2026-03-26T15:01:15Z</time></trkpt><trkpt lat="44.64120845820433" lon="2.6504732924426406"><ele>710.0</ele><time>2026-03-26T15:01:17Z</time></trkpt><trkpt lat="44.641121382358364" lon="2.6504087291450595"><ele>710.0</ele><time>2026-03-26T15:01:19Z</time></trkpt><trkpt lat="44.64107030297307" lon="2.650328665162555"><ele>710.0</ele><time>2026-03-26T15:01:20Z</time></trkpt><trkpt lat="44.641019322443945" lon="2.6502243325106734"><ele>710.4</ele><time>2026-03-26T15:01:21Z</time></trkpt><trkpt lat="44.640966514882564" lon="2.6501240889417383"><ele>710.8</ele><time>2026-03-26T15:01:22Z</time></trkpt><trkpt lat="44.64089558291965" lon="2.6500193855344594"><ele>711.2</ele><time>2026-03-26T15:01:23Z</time></trkpt><trkpt lat="44.64081674075511" lon="2.649918101649606"><ele>711.6</ele><time>2026-03-26T15:01:24Z</time></trkpt><trkpt lat="44.64072470798861" lon="2.6498116840010746"><ele>712.0</ele><time>2026-03-26T15:01:25Z</time></trkpt><trkpt lat="44.64064800072988" lon="2.6497005673320055"><ele>712.0</ele><time>2026-03-26T15:01:26Z</time></trkpt><trkpt lat="44.640574492708225" lon="2.6496037302255484"><ele>712.0</ele><time>2026-03-26T15:01:27Z</time></trkpt><trkpt lat="44.64050547221113" lon="2.6494911193943165"><ele>712.0</ele><time>2026-03-26T15:01:28Z</time></trkpt><trkpt lat="44.640428545417244" lon="2.6493846376169734"><ele>712.0</ele><time>2026-03-26T15:01:29Z</time></trkpt><trkpt lat="44.64033995396804" lon="2.649272689964411"><ele>712.0</ele><time>2026-03-26T15:01:30Z</time></trkpt><trkpt lat="44.640249728001486" lon="2.649154524048586"><ele>711.25</ele><time>2026-03-26T15:01:31Z</time></trkpt><trkpt lat="44.64016277991966" lon="2.6490426838373566"><ele>710.5</ele><time>2026-03-26T15:01:31.999Z</time></trkpt><trkpt lat="44.6400764293566" lon="2.6489310112902573"><ele>709.75</ele><time>2026-03-26T15:01:32.999Z</time></trkpt><trkpt lat="44.63999250158523" lon="2.6488193769610544"><ele>709.0</ele><time>2026-03-26T15:01:33.999Z</time></trkpt><trkpt lat="44.63991592210367" lon="2.648702406282586"><ele>709.0</ele><time>2026-03-26T15:01:34.999Z</time></trkpt><trkpt lat="44.63985263668902" lon="2.6485836143176065"><ele>709.0</ele><time>2026-03-26T15:01:35.999Z</time></trkpt><trkpt lat="44.63979750285894" lon="2.6484577624318932"><ele>709.0</ele><time>2026-03-26T15:01:36.999Z</time></trkpt><trkpt lat="44.63975517169902" lon="2.6483257166977117"><ele>709.0</ele><time>2026-03-26T15:01:37.999Z</time></trkpt><trkpt lat="44.639726601602725" lon="2.648193745519223"><ele>709.0</ele><time>2026-03-26T15:01:38.999Z</time></trkpt><trkpt lat="44.63969821498205" lon="2.6479454551515533"><ele>709.0</ele><time>2026-03-26T15:01:40.999Z</time></trkpt><trkpt lat="44.63970554767385" lon="2.647816402390637"><ele>709.0</ele><time>2026-03-26T15:01:41.999Z</time></trkpt><trkpt lat="44.63972691645302" lon="2.64767934917786"><ele>709.0</ele><time>2026-03-26T15:01:42.999Z</time></trkpt><trkpt lat="44.63975301632815" lon="2.64753766833237"><ele>709.0</ele><time>2026-03-26T15:01:43.999Z</time></trkpt><trkpt lat="44.63977233455628" lon="2.647393503351094"><ele>709.0</ele><time>2026-03-26T15:01:44.999Z</time></trkpt><trkpt lat="44.63978362910846" lon="2.6472508210056915"><ele>709.75</ele><time>2026-03-26T15:01:45.999Z</time></trkpt><trkpt lat="44.639779062381365" lon="2.647094108124771"><ele>710.5</ele><time>2026-03-26T15:01:46.999Z</time></trkpt><trkpt lat="44.63976619017889" lon="2.646918453935386"><ele>711.25</ele><time>2026-03-26T15:01:47.999Z</time></trkpt><trkpt lat="44.63974643093525" lon="2.646730320080529"><ele>712.0</ele><time>2026-03-26T15:01:48.999Z</time></trkpt><trkpt lat="44.63972069206027" lon="2.6465203588964736"><ele>712.0</ele><time>2026-03-26T15:01:49.999Z</time></trkpt><trkpt lat="44.63969304861143" lon="2.6463039930315087"><ele>712.0</ele><time>2026-03-26T15:01:50.999Z</time></trkpt><trkpt lat="44.639669923294626" lon="2.6460964974905363"><ele>712.0</ele><time>2026-03-26T15:01:51.999Z</time></trkpt><trkpt lat="44.639658865268295" lon="2.645912169290637"><ele>712.0</ele><time>2026-03-26T15:01:52.999Z</time></trkpt><trkpt lat="44.63964685876438" lon="2.6457391634533436"><ele>712.5</ele><time>2026-03-26T15:01:53.999Z</time></trkpt><trkpt lat="44.63965136593006" lon="2.645560553891982"><ele>713.0</ele><time>2026-03-26T15:01:54.999Z</time></trkpt><trkpt lat="44.63966244380335" lon="2.645385991504127"><ele>713.5</ele><time>2026-03-26T15:01:55.999Z</time></trkpt><trkpt lat="44.63967638399286" lon="2.6452153711502238"><ele>714.0</ele><time>2026-03-26T15:01:56.999Z</time></trkpt><trkpt lat="44.63968891532343" lon="2.6450533242558634"><ele>714.25</ele><time>2026-03-26T15:01:57.999Z</time></trkpt><trkpt lat="44.63968448998099" lon="2.644903446130628"><ele>714.5</ele><time>2026-03-26T15:01:58.999Z</time></trkpt><trkpt lat="44.63966238759242" lon="2.6447484717617002"><ele>714.75</ele><time>2026-03-26T15:01:59.999Z</time></trkpt><trkpt lat="44.639620087444065" lon="2.6445895820390812"><ele>715.0</ele><time>2026-03-26T15:02:00.999Z</time></trkpt><trkpt lat="44.63955881937726" lon="2.6444312067589015"><ele>715.0</ele><time>2026-03-26T15:02:01.999Z</time></trkpt><trkpt lat="44.63949675849152" lon="2.6442675753588487"><ele>715.0</ele><time>2026-03-26T15:02:02.999Z</time></trkpt><trkpt lat="44.63943429199644" lon="2.6441055079799245"><ele>715.0</ele><time>2026-03-26T15:02:03.999Z</time></trkpt><trkpt lat="44.63937254773194" lon="2.643948513464547"><ele>715.0</ele><time>2026-03-26T15:02:04.999Z</time></trkpt><trkpt lat="44.63931852187997" lon="2.643791440656709"><ele>715.25</ele><time>2026-03-26T15:02:05.999Z</time></trkpt><trkpt lat="44.639259821720344" lon="2.643630750329509"><ele>715.5</ele><time>2026-03-26T15:02:06.999Z</time></trkpt><trkpt lat="44.63919640884093" lon="2.643463611753368"><ele>715.75</ele><time>2026-03-26T15:02:07.999Z</time></trkpt><trkpt lat="44.639133597156246" lon="2.643287415507036"><ele>716.0</ele><time>2026-03-26T15:02:08.999Z</time></trkpt><trkpt lat="44.63907219842112" lon="2.643109461615639"><ele>716.0</ele><time>2026-03-26T15:02:09.999Z</time></trkpt><trkpt lat="44.639007864929034" lon="2.642935228295995"><ele>716.0</ele><time>2026-03-26T15:02:10.999Z</time></trkpt><trkpt lat="44.63894026070433" lon="2.6427605266024656"><ele>716.0</ele><time>2026-03-26T15:02:11.999Z</time></trkpt><trkpt lat="44.6388753751269" lon="2.6425870843915726"><ele>716.0</ele><time>2026-03-26T15:02:12.999Z</time></trkpt><trkpt lat="44.63881429901874" lon="2.6424138575167024"><ele>715.5</ele><time>2026-03-26T15:02:13.999Z</time></trkpt><trkpt lat="44.638754471472765" lon="2.6422431970763482"><ele>715.0</ele><time>2026-03-26T15:02:14.999Z</time></trkpt><trkpt lat="44.638693801720294" lon="2.6420762767449912"><ele>714.5</ele><time>2026-03-26T15:02:15.999Z</time></trkpt><trkpt lat="44.63862948875403" lon="2.641911045987755"><ele>714.0</ele><time>2026-03-26T15:02:16.999Z</time></trkpt><trkpt lat="44.638568396506464" lon="2.6417437657980134"><ele>714.0</ele><time>2026-03-26T15:02:17.999Z</time></trkpt><trkpt lat="44.6385097289547" lon="2.6415785020202205"><ele>714.0</ele><time>2026-03-26T15:02:18.999Z</time></trkpt><trkpt lat="44.63845275219613" lon="2.6414184607429543"><ele>714.0</ele><time>2026-03-26T15:02:19.999Z</time></trkpt><trkpt lat="44.63839986063116" lon="2.641276836919561"><ele>714.0</ele><time>2026-03-26T15:02:20.999Z</time></trkpt><trkpt lat="44.63834702324825" lon="2.641152011098552"><ele>714.1666666666666</ele><time>2026-03-26T15:02:21.999Z</time></trkpt><trkpt lat="44.63829460909162" lon="2.6410525251700623"><ele>714.3333333333334</ele><time>2026-03-26T15:02:22.999Z</time></trkpt><trkpt lat="44.63825582482766" lon="2.6409803233420877"><ele>714.5</ele><time>2026-03-26T15:02:23.999Z</time></trkpt><trkpt lat="44.638248985510224" lon="2.640865320321628"><ele>714.6666666666667</ele><time>2026-03-26T15:02:25.999Z</time></trkpt><trkpt lat="44.63834142307118" lon="2.640773715297498"><ele>714.8333333333334</ele><time>2026-03-26T15:02:27.999Z</time></trkpt><trkpt lat="44.63841464756907" lon="2.6407526671719848"><ele>715.0</ele><time>2026-03-26T15:02:28.999Z</time></trkpt><trkpt lat="44.638502013043265" lon="2.640730898358169"><ele>715.0</ele><time>2026-03-26T15:02:29.999Z</time></trkpt><trkpt lat="44.63859185416637" lon="2.6406960614843067"><ele>715.0</ele><time>2026-03-26T15:02:30.999Z</time></trkpt><trkpt lat="44.63867986860469" lon="2.640654874056873"><ele>715.0</ele><time>2026-03-26T15:02:31.999Z</time></trkpt><trkpt lat="44.63877219789554" lon="2.6406109100663233"><ele>715.0</ele><time>2026-03-26T15:02:32.999Z</time></trkpt><trkpt lat="44.63886520787496" lon="2.640562958703963"><ele>715.0</ele><time>2026-03-26T15:02:33.999Z</time></trkpt><trkpt lat="44.63895615868102" lon="2.6405128708197094"><ele>715.0</ele><time>2026-03-26T15:02:34.999Z</time></trkpt><trkpt lat="44.63905089397102" lon="2.6404626223661762"><ele>715.0</ele><time>2026-03-26T15:02:35.999Z</time></trkpt><trkpt lat="44.639149002876756" lon="2.640402241387516"><ele>715.0</ele><time>2026-03-26T15:02:36.999Z</time></trkpt><trkpt lat="44.63924930768086" lon="2.6403345645944154"><ele>715.0</ele><time>2026-03-26T15:02:38Z</time></trkpt><trkpt lat="44.63935376880011" lon="2.640265823626091"><ele>715.0</ele><time>2026-03-26T15:02:39Z</time></trkpt><trkpt lat="44.63946040269939" lon="2.6401959095828587"><ele>716.25</ele><time>2026-03-26T15:02:40Z</time></trkpt><trkpt lat="44.639568526108484" lon="2.640124440039141"><ele>717.5</ele><time>2026-03-26T15:02:41Z</time></trkpt><trkpt lat="44.63967820944932" lon="2.6400557625422363"><ele>718.75</ele><time>2026-03-26T15:02:42Z</time></trkpt><trkpt lat="44.63979573186907" lon="2.639981303007904"><ele>720.0</ele><time>2026-03-26T15:02:43Z</time></trkpt><trkpt lat="44.639924174713364" lon="2.639896215176307"><ele>720.0</ele><time>2026-03-26T15:02:44Z</time></trkpt><trkpt lat="44.64004470217536" lon="2.639817752328057"><ele>720.0</ele><time>2026-03-26T15:02:45Z</time></trkpt><trkpt lat="44.64016051073233" lon="2.6397450782631777"><ele>720.0</ele><time>2026-03-26T15:02:46Z</time></trkpt><trkpt lat="44.64027230225161" lon="2.639671185204973"><ele>720.0</ele><time>2026-03-26T15:02:47Z</time></trkpt><trkpt lat="44.64038348378213" lon="2.639595639143324"><ele>719.75</ele><time>2026-03-26T15:02:48Z</time></trkpt><trkpt lat="44.64049518217911" lon="2.6395177192388397"><ele>719.5</ele><time>2026-03-26T15:02:49Z</time></trkpt><trkpt lat="44.640606384307006" lon="2.639442188399456"><ele>719.25</ele><time>2026-03-26T15:02:50Z</time></trkpt><trkpt lat="44.64071857082966" lon="2.6393553117771775"><ele>719.0</ele><time>2026-03-26T15:02:51Z</time></trkpt><trkpt lat="44.64082988813062" lon="2.6392690781947965"><ele>719.0</ele><time>2026-03-26T15:02:52Z</time></trkpt><trkpt lat="44.640940510348784" lon="2.6391829425340667"><ele>719.0</ele><time>2026-03-26T15:02:53Z</time></trkpt><trkpt lat="44.64105153851841" lon="2.6390983431803337"><ele>719.0</ele><time>2026-03-26T15:02:54Z</time></trkpt><trkpt lat="44.64116134486073" lon="2.6390092430145264"><ele>719.0</ele><time>2026-03-26T15:02:55Z</time></trkpt><trkpt lat="44.64127356308074" lon="2.63891641367026"><ele>718.5</ele><time>2026-03-26T15:02:56Z</time></trkpt><trkpt lat="44.64137666013226" lon="2.6388261845017156"><ele>718.0</ele><time>2026-03-26T15:02:57Z</time></trkpt><trkpt lat="44.641477910130156" lon="2.638733874250559"><ele>717.5</ele><time>2026-03-26T15:02:58Z</time></trkpt><trkpt lat="44.641575357825374" lon="2.638646183557706"><ele>717.0</ele><time>2026-03-26T15:02:59Z</time></trkpt><trkpt lat="44.64166992627369" lon="2.6385490871445847"><ele>717.0</ele><time>2026-03-26T15:03:00Z</time></trkpt><trkpt lat="44.64176771454163" lon="2.638453551084087"><ele>717.0</ele><time>2026-03-26T15:03:01Z</time></trkpt><trkpt lat="44.641865238425275" lon="2.638369514808658"><ele>717.0</ele><time>2026-03-26T15:03:02Z</time></trkpt><trkpt lat="44.641963529014006" lon="2.6382789535954383"><ele>717.0</ele><time>2026-03-26T15:03:03Z</time></trkpt><trkpt lat="44.642056175505516" lon="2.638177919850964"><ele>718.0</ele><time>2026-03-26T15:03:04Z</time></trkpt><trkpt lat="44.64214545857415" lon="2.6380741036444872"><ele>719.0</ele><time>2026-03-26T15:03:05Z</time></trkpt><trkpt lat="44.642234979302565" lon="2.6379681880176507"><ele>720.0</ele><time>2026-03-26T15:03:06Z</time></trkpt><trkpt lat="44.64232763222043" lon="2.637865636258062"><ele>721.0</ele><time>2026-03-26T15:03:07Z</time></trkpt><trkpt lat="44.64242615385219" lon="2.6377641178599225"><ele>721.0</ele><time>2026-03-26T15:03:08Z</time></trkpt><trkpt lat="44.64253036863846" lon="2.6376633674263634"><ele>721.0</ele><time>2026-03-26T15:03:09Z</time></trkpt><trkpt lat="44.64263673247167" lon="2.6375591117932236"><ele>721.0</ele><time>2026-03-26T15:03:10Z</time></trkpt><trkpt lat="44.642746036309" lon="2.6374486037879312"><ele>721.0</ele><time>2026-03-26T15:03:11Z</time></trkpt><trkpt lat="44.64285707147622" lon="2.6373372585126362"><ele>722.0</ele><time>2026-03-26T15:03:12Z</time></trkpt><trkpt lat="44.642966969182574" lon="2.637229331337099"><ele>723.0</ele><time>2026-03-26T15:03:13Z</time></trkpt><trkpt lat="44.64307411736711" lon="2.6371266918399736"><ele>724.0</ele><time>2026-03-26T15:03:14Z</time></trkpt><trkpt lat="44.64317944432668" lon="2.63701347671756"><ele>725.0</ele><time>2026-03-26T15:03:15Z</time></trkpt><trkpt lat="44.64328085995304" lon="2.6369066288066088"><ele>725.0</ele><time>2026-03-26T15:03:16Z</time></trkpt><trkpt lat="44.6433722949852" lon="2.636802200214168"><ele>725.0</ele><time>2026-03-26T15:03:17Z</time></trkpt><trkpt lat="44.64346287018019" lon="2.6367107843122013"><ele>725.0</ele><time>2026-03-26T15:03:18Z</time></trkpt><trkpt lat="44.64354644546115" lon="2.636620752561416"><ele>725.0</ele><time>2026-03-26T15:03:19Z</time></trkpt><trkpt lat="44.64361569682307" lon="2.636540578490303"><ele>725.0</ele><time>2026-03-26T15:03:20Z</time></trkpt><trkpt lat="44.64367211370946" lon="2.636477467986075"><ele>725.5</ele><time>2026-03-26T15:03:21Z</time></trkpt><trkpt lat="44.64373754493863" lon="2.636402477276887"><ele>726.0</ele><time>2026-03-26T15:03:23Z</time></trkpt><trkpt lat="44.64377818704349" lon="2.6363139245599907"><ele>726.5</ele><time>2026-03-26T15:03:26Z</time></trkpt><trkpt lat="44.64374719533" lon="2.63619517093237"><ele>727.0</ele><time>2026-03-26T15:03:28Z</time></trkpt><trkpt lat="44.643703584960896" lon="2.6361280767016866"><ele>727.5</ele><time>2026-03-26T15:03:29Z</time></trkpt><trkpt lat="44.64365375078099" lon="2.636049678696586"><ele>728.0</ele><time>2026-03-26T15:03:30Z</time></trkpt><trkpt lat="44.643598344558285" lon="2.6359586262689905"><ele>728.0</ele><time>2026-03-26T15:03:31Z</time></trkpt><trkpt lat="44.64352744706865" lon="2.6358475112901276"><ele>728.0</ele><time>2026-03-26T15:03:32Z</time></trkpt><trkpt lat="44.643454004963985" lon="2.635729547663892"><ele>728.0</ele><time>2026-03-26T15:03:33Z</time></trkpt><trkpt lat="44.64337666095309" lon="2.635606227052007"><ele>728.0</ele><time>2026-03-26T15:03:33.999Z</time></trkpt><trkpt lat="44.64329426822552" lon="2.635487185631834"><ele>728.0</ele><time>2026-03-26T15:03:34.999Z</time></trkpt><trkpt lat="44.64320393775038" lon="2.6353719129176842"><ele>728.0</ele><time>2026-03-26T15:03:35.999Z</time></trkpt><trkpt lat="44.643120172405446" lon="2.635259169420991"><ele>728.0</ele><time>2026-03-26T15:03:36.999Z</time></trkpt><trkpt lat="44.64304093054701" lon="2.6351449314026985"><ele>728.0</ele><time>2026-03-26T15:03:37.999Z</time></trkpt><trkpt lat="44.64288664531216" lon="2.634933275606248"><ele>728.5999999999999</ele><time>2026-03-26T15:03:39.999Z</time></trkpt><trkpt lat="44.64282190336425" lon="2.634826083355129"><ele>729.1999999999999</ele><time>2026-03-26T15:03:40.999Z</time></trkpt><trkpt lat="44.642774267489855" lon="2.6347116891076983"><ele>729.8</ele><time>2026-03-26T15:03:41.999Z</time></trkpt><trkpt lat="44.64273493926427" lon="2.6345642775268705"><ele>730.4</ele><time>2026-03-26T15:03:42.999Z</time></trkpt><trkpt lat="44.64271058500359" lon="2.634398487317651"><ele>731.0</ele><time>2026-03-26T15:03:43.999Z</time></trkpt><trkpt lat="44.642694509666896" lon="2.6342203309483168"><ele>731.0</ele><time>2026-03-26T15:03:44.999Z</time></trkpt><trkpt lat="44.64268432797384" lon="2.634035255161159"><ele>731.0</ele><time>2026-03-26T15:03:45.999Z</time></trkpt><trkpt lat="44.642670674472186" lon="2.633843418983358"><ele>731.0</ele><time>2026-03-26T15:03:46.999Z</time></trkpt><trkpt lat="44.642651612898966" lon="2.633658275277261"><ele>731.0</ele><time>2026-03-26T15:03:47.999Z</time></trkpt><trkpt lat="44.64262167832471" lon="2.6334719266810684"><ele>731.0</ele><time>2026-03-26T15:03:48.999Z</time></trkpt><trkpt lat="44.642604330162776" lon="2.6332838329273613"><ele>731.0</ele><time>2026-03-26T15:03:49.999Z</time></trkpt><trkpt lat="44.64258773600762" lon="2.6330902699977434"><ele>731.0</ele><time>2026-03-26T15:03:50.999Z</time></trkpt><trkpt lat="44.64256536787869" lon="2.6328981513694307"><ele>731.0</ele><time>2026-03-26T15:03:51.999Z</time></trkpt><trkpt lat="44.642533382154674" lon="2.6327081328130246"><ele>731.6666666666666</ele><time>2026-03-26T15:03:52.999Z</time></trkpt><trkpt lat="44.642472580771795" lon="2.632519951440079"><ele>732.3333333333334</ele><time>2026-03-26T15:03:53.999Z</time></trkpt><trkpt lat="44.64239542680456" lon="2.6323385837127797"><ele>733.0</ele><time>2026-03-26T15:03:54.999Z</time></trkpt><trkpt lat="44.642300183123595" lon="2.6321649497069033"><ele>733.0</ele><time>2026-03-26T15:03:55.999Z</time></trkpt><trkpt lat="44.642202050093665" lon="2.6320028688795487"><ele>733.0</ele><time>2026-03-26T15:03:56.999Z</time></trkpt><trkpt lat="44.64209923231943" lon="2.631857420058446"><ele>733.0</ele><time>2026-03-26T15:03:57.999Z</time></trkpt><trkpt lat="44.64198924652177" lon="2.631716610565147"><ele>733.0</ele><time>2026-03-26T15:03:58.999Z</time></trkpt><trkpt lat="44.64186537694089" lon="2.6315853232488053"><ele>732.0</ele><time>2026-03-26T15:03:59.999Z</time></trkpt><trkpt lat="44.64172548065089" lon="2.631458129660239"><ele>731.0</ele><time>2026-03-26T15:04:00.999Z</time></trkpt><trkpt lat="44.641589031320784" lon="2.6313289588106055"><ele>730.0</ele><time>2026-03-26T15:04:01.999Z</time></trkpt><trkpt lat="44.641448942823196" lon="2.6312019801735573"><ele>730.3333333333334</ele><time>2026-03-26T15:04:02.999Z</time></trkpt><trkpt lat="44.64131699684885" lon="2.631077850344953"><ele>730.6666666666666</ele><time>2026-03-26T15:04:03.999Z</time></trkpt><trkpt lat="44.64118131631334" lon="2.6309482941510978"><ele>731.0</ele><time>2026-03-26T15:04:04.999Z</time></trkpt><trkpt lat="44.641045986047914" lon="2.6308387323397784"><ele>729.75</ele><time>2026-03-26T15:04:05.999Z</time></trkpt><trkpt lat="44.64093514933362" lon="2.6307109166863922"><ele>728.5</ele><time>2026-03-26T15:04:06.999Z</time></trkpt><trkpt lat="44.64082989638683" lon="2.6306006577354215"><ele>727.25</ele><time>2026-03-26T15:04:07.999Z</time></trkpt><trkpt lat="44.640750474042946" lon="2.630507592998811"><ele>726.0</ele><time>2026-03-26T15:04:08.999Z</time></trkpt><trkpt lat="44.64069868693364" lon="2.630401321615008"><ele>725.5999999999999</ele><time>2026-03-26T15:04:09.999Z</time></trkpt><trkpt lat="44.64067550817824" lon="2.6302808444645045"><ele>725.2</ele><time>2026-03-26T15:04:10.999Z</time></trkpt><trkpt lat="44.64069845412017" lon="2.6301446535993795"><ele>724.8</ele><time>2026-03-26T15:04:11.999Z</time></trkpt><trkpt lat="44.64075543817641" lon="2.6300101526221"><ele>724.4000000000001</ele><time>2026-03-26T15:04:12.999Z</time></trkpt><trkpt lat="44.640830783539016" lon="2.629890204319635"><ele>724.0</ele><time>2026-03-26T15:04:13.999Z</time></trkpt><trkpt lat="44.640922794868374" lon="2.6297747500287767"><ele>724.0</ele><time>2026-03-26T15:04:14.999Z</time></trkpt><trkpt lat="44.640992312597" lon="2.6296540009450085"><ele>724.0</ele><time>2026-03-26T15:04:15.999Z</time></trkpt><trkpt lat="44.64103255001857" lon="2.6295260912093465"><ele>724.0</ele><time>2026-03-26T15:04:16.999Z</time></trkpt><trkpt lat="44.64103556389669" lon="2.6293872306396233"><ele>724.0</ele><time>2026-03-26T15:04:17.999Z</time></trkpt><trkpt lat="44.6410130579158" lon="2.6292356752542783"><ele>724.0</ele><time>2026-03-26T15:04:18.999Z</time></trkpt><trkpt lat="44.64097221490546" lon="2.629069030021547"><ele>724.5</ele><time>2026-03-26T15:04:19.999Z</time></trkpt><trkpt lat="44.64093262016874" lon="2.6288832087869496"><ele>725.0</ele><time>2026-03-26T15:04:20.999Z</time></trkpt><trkpt lat="44.64090071179699" lon="2.6286873207909065"><ele>725.5</ele><time>2026-03-26T15:04:21.999Z</time></trkpt><trkpt lat="44.64088109293118" lon="2.628494500378074"><ele>726.0</ele><time>2026-03-26T15:04:22.999Z</time></trkpt><trkpt lat="44.64087901800232" lon="2.628309867924693"><ele>726.25</ele><time>2026-03-26T15:04:23.999Z</time></trkpt><trkpt lat="44.64089759790484" lon="2.628125362619007"><ele>726.5</ele><time>2026-03-26T15:04:24.999Z</time></trkpt><trkpt lat="44.64093846296939" lon="2.6279521959525445"><ele>726.75</ele><time>2026-03-26T15:04:25.999Z</time></trkpt><trkpt lat="44.64100559024285" lon="2.6277923255935183"><ele>727.0</ele><time>2026-03-26T15:04:26.999Z</time></trkpt><trkpt lat="44.64108392785818" lon="2.6276496066661776"><ele>724.5</ele><time>2026-03-26T15:04:27.999Z</time></trkpt><trkpt lat="44.641171870538585" lon="2.6275060673667054"><ele>722.0</ele><time>2026-03-26T15:04:28.999Z</time></trkpt><trkpt lat="44.64125396595762" lon="2.6273650671005195"><ele>719.5</ele><time>2026-03-26T15:04:29.999Z</time></trkpt><trkpt lat="44.64131975639789" lon="2.627228653587247"><ele>717.0</ele><time>2026-03-26T15:04:30.999Z</time></trkpt><trkpt lat="44.6413728719613" lon="2.6270838469592466"><ele>717.75</ele><time>2026-03-26T15:04:31.999Z</time></trkpt><trkpt lat="44.64141425120338" lon="2.626929002983587"><ele>718.5</ele><time>2026-03-26T15:04:32.999Z</time></trkpt><trkpt lat="44.641446297813935" lon="2.626762601645373"><ele>719.25</ele><time>2026-03-26T15:04:33.999Z</time></trkpt><trkpt lat="44.641466212250585" lon="2.6265976673758393"><ele>720.0</ele><time>2026-03-26T15:04:34.999Z</time></trkpt><trkpt lat="44.64147140922157" lon="2.626423051306117"><ele>720.0</ele><time>2026-03-26T15:04:35.999Z</time></trkpt><trkpt lat="44.64145766071324" lon="2.6262526689069876"><ele>720.0</ele><time>2026-03-26T15:04:36.999Z</time></trkpt><trkpt lat="44.641433596331275" lon="2.6260693507822963"><ele>720.0</ele><time>2026-03-26T15:04:37.999Z</time></trkpt><trkpt lat="44.641399976964465" lon="2.625889753406152"><ele>720.0</ele><time>2026-03-26T15:04:38.999Z</time></trkpt><trkpt lat="44.64136628187389" lon="2.625703020627037"><ele>718.0</ele><time>2026-03-26T15:04:39.999Z</time></trkpt><trkpt lat="44.64133823500897" lon="2.6255139059959887"><ele>716.0</ele><time>2026-03-26T15:04:40.999Z</time></trkpt><trkpt lat="44.64129932797239" lon="2.6253433194834774"><ele>714.0</ele><time>2026-03-26T15:04:41.999Z</time></trkpt><trkpt lat="44.64126060174481" lon="2.625187928937562"><ele>712.0</ele><time>2026-03-26T15:04:42.999Z</time></trkpt><trkpt lat="44.641217922062964" lon="2.625055711881214"><ele>712.3333333333334</ele><time>2026-03-26T15:04:44Z</time></trkpt><trkpt lat="44.64118065764614" lon="2.624945937573059"><ele>712.6666666666667</ele><time>2026-03-26T15:04:45Z</time></trkpt><trkpt lat="44.641144989816496" lon="2.6248496815516362"><ele>713.0</ele><time>2026-03-26T15:04:46Z</time></trkpt><trkpt lat="44.64111680805443" lon="2.6247571232711904"><ele>713.3333333333334</ele><time>2026-03-26T15:04:47Z</time></trkpt><trkpt lat="44.64109107578558" lon="2.624673846042071"><ele>713.6666666666666</ele><time>2026-03-26T15:04:48Z</time></trkpt><trkpt lat="44.641061813792945" lon="2.624543725674378"><ele>714.0</ele><time>2026-03-26T15:04:50Z</time></trkpt><trkpt lat="44.6410854948787" lon="2.624429426274296"><ele>712.2</ele><time>2026-03-26T15:04:52Z</time></trkpt><trkpt lat="44.641184557863426" lon="2.624308539868783"><ele>710.4000000000001</ele><time>2026-03-26T15:04:54Z</time></trkpt><trkpt lat="44.641252874794176" lon="2.624245883286357"><ele>708.6</ele><time>2026-03-26T15:04:55Z</time></trkpt><trkpt lat="44.641319924224064" lon="2.6241692650647943"><ele>706.8</ele><time>2026-03-26T15:04:56Z</time></trkpt><trkpt lat="44.641398648280905" lon="2.624087027531815"><ele>705.0</ele><time>2026-03-26T15:04:57Z</time></trkpt><trkpt lat="44.64147628365307" lon="2.6239985266603"><ele>705.0</ele><time>2026-03-26T15:04:58Z</time></trkpt><trkpt lat="44.64155184053362" lon="2.6239136630921363"><ele>705.0</ele><time>2026-03-26T15:04:59Z</time></trkpt><trkpt lat="44.641630241327654" lon="2.623848076536286"><ele>705.0</ele><time>2026-03-26T15:05:00Z</time></trkpt><trkpt lat="44.64170687530814" lon="2.6238121891891746"><ele>705.0</ele><time>2026-03-26T15:05:01Z</time></trkpt><trkpt lat="44.64178339687006" lon="2.6238086070200612"><ele>705.0</ele><time>2026-03-26T15:05:02Z</time></trkpt><trkpt lat="44.64186631491227" lon="2.623822253075684"><ele>705.0</ele><time>2026-03-26T15:05:03Z</time></trkpt><trkpt lat="44.64196920570157" lon="2.6238466946880794"><ele>703.6</ele><time>2026-03-26T15:05:04Z</time></trkpt><trkpt lat="44.64208289273863" lon="2.623874421596199"><ele>702.2</ele><time>2026-03-26T15:05:05Z</time></trkpt><trkpt lat="44.64219776409879" lon="2.6238957801173926"><ele>700.8</ele><time>2026-03-26T15:05:06Z</time></trkpt><trkpt lat="44.64229744888513" lon="2.623935894750095"><ele>699.4</ele><time>2026-03-26T15:05:07Z</time></trkpt><trkpt lat="44.64237301488079" lon="2.6239724470654866"><ele>698.0</ele><time>2026-03-26T15:05:08Z</time></trkpt><trkpt lat="44.642427222004095" lon="2.6240359892384877"><ele>698.0</ele><time>2026-03-26T15:05:09Z</time></trkpt><trkpt lat="44.64247100039085" lon="2.6241253424028232"><ele>698.0</ele><time>2026-03-26T15:05:10Z</time></trkpt><trkpt lat="44.642512838928816" lon="2.6242232144716198"><ele>698.0</ele><time>2026-03-26T15:05:11Z</time></trkpt><trkpt lat="44.642564144890514" lon="2.6243304464133996"><ele>698.0</ele><time>2026-03-26T15:05:12Z</time></trkpt><trkpt lat="44.6426173465073" lon="2.624423642455118"><ele>698.0</ele><time>2026-03-26T15:05:13Z</time></trkpt><trkpt lat="44.642690994025735" lon="2.6244753684166127"><ele>698.0</ele><time>2026-03-26T15:05:14Z</time></trkpt><trkpt lat="44.64276669331902" lon="2.6245095462621095"><ele>696.6666666666666</ele><time>2026-03-26T15:05:15Z</time></trkpt><trkpt lat="44.642840458693925" lon="2.624558334153848"><ele>695.3333333333333</ele><time>2026-03-26T15:05:16Z</time></trkpt><trkpt lat="44.642908978580365" lon="2.6246157253233426"><ele>694.0</ele><time>2026-03-26T15:05:17Z</time></trkpt><trkpt lat="44.64298173997431" lon="2.624675067485918"><ele>692.6666666666666</ele><time>2026-03-26T15:05:18Z</time></trkpt><trkpt lat="44.64303763710984" lon="2.624733206167894"><ele>691.3333333333334</ele><time>2026-03-26T15:05:19Z</time></trkpt><trkpt lat="44.64311289000268" lon="2.6248264611658767"><ele>690.0</ele><time>2026-03-26T15:05:21Z</time></trkpt><trkpt lat="44.64319611756899" lon="2.624801921144676"><ele>690.0</ele><time>2026-03-26T15:05:24Z</time></trkpt><trkpt lat="44.64319190073886" lon="2.624690283653775"><ele>690.0</ele><time>2026-03-26T15:05:26Z</time></trkpt><trkpt lat="44.64313824122441" lon="2.6245266629598465"><ele>690.0</ele><time>2026-03-26T15:05:28Z</time></trkpt><trkpt lat="44.643104237193214" lon="2.6244490324969574"><ele>690.0</ele><time>2026-03-26T15:05:29Z</time></trkpt><trkpt lat="44.64306364174509" lon="2.6243610078588593"><ele>690.0</ele><time>2026-03-26T15:05:30Z</time></trkpt><trkpt lat="44.643021764974435" lon="2.624287972381493"><ele>690.0</ele><time>2026-03-26T15:05:31Z</time></trkpt><trkpt lat="44.642969108790325" lon="2.6242262934189635"><ele>691.3333333333334</ele><time>2026-03-26T15:05:32Z</time></trkpt><trkpt lat="44.64290765405554" lon="2.624153085077058"><ele>692.6666666666666</ele><time>2026-03-26T15:05:33Z</time></trkpt><trkpt lat="44.64284974146327" lon="2.6240713665824473"><ele>694.0</ele><time>2026-03-26T15:05:34Z</time></trkpt><trkpt lat="44.64277139485529" lon="2.6239797125040383"><ele>695.3333333333333</ele><time>2026-03-26T15:05:36Z</time></trkpt><trkpt lat="44.64273315481655" lon="2.6238634236556178"><ele>696.6666666666666</ele><time>2026-03-26T15:05:38.999Z</time></trkpt><trkpt lat="44.64276344487019" lon="2.6237552040521774"><ele>698.0</ele><time>2026-03-26T15:07:57.999Z</time></trkpt><trkpt lat="44.642844554231026" lon="2.6238056430732044"><ele>694.5999999999999</ele><time>2026-03-26T15:08:00.999Z</time></trkpt><trkpt lat="44.64291069080734" lon="2.6238729676330457"><ele>691.1999999999999</ele><time>2026-03-26T15:08:01.999Z</time></trkpt><trkpt lat="44.642990163980805" lon="2.623934279592057"><ele>687.8</ele><time>2026-03-26T15:08:02.999Z</time></trkpt><trkpt lat="44.643072424885084" lon="2.6239827048851634"><ele>684.4</ele><time>2026-03-26T15:08:03.999Z</time></trkpt><trkpt lat="44.64315651699012" lon="2.6240091319643364"><ele>681.0</ele><time>2026-03-26T15:08:04.999Z</time></trkpt><trkpt lat="44.64326165601689" lon="2.6240330526386177"><ele>681.0</ele><time>2026-03-26T15:08:05.999Z</time></trkpt><trkpt lat="44.643352230687285" lon="2.624078737647173"><ele>681.0</ele><time>2026-03-26T15:08:06.999Z</time></trkpt><trkpt lat="44.64343557607313" lon="2.6241202186944137"><ele>681.0</ele><time>2026-03-26T15:08:07.999Z</time></trkpt><trkpt lat="44.64350712438447" lon="2.6241653935084965"><ele>681.0</ele><time>2026-03-26T15:08:08.999Z</time></trkpt><trkpt lat="44.643586381690874" lon="2.624187184110463"><ele>681.0</ele><time>2026-03-26T15:08:09.999Z</time></trkpt><trkpt lat="44.643669225592184" lon="2.624177386977887"><ele>681.0</ele><time>2026-03-26T15:08:10.999Z</time></trkpt><trkpt lat="44.643740040735814" lon="2.6241300457938905"><ele>680.8333333333334</ele><time>2026-03-26T15:08:11.999Z</time></trkpt><trkpt lat="44.64379572602434" lon="2.6240624022228145"><ele>680.6666666666666</ele><time>2026-03-26T15:08:12.999Z</time></trkpt><trkpt lat="44.64382256684994" lon="2.6239751544951133"><ele>680.5</ele><time>2026-03-26T15:08:13.999Z</time></trkpt><trkpt lat="44.643822119864986" lon="2.6238662272082203"><ele>680.3333333333333</ele><time>2026-03-26T15:08:14.999Z</time></trkpt><trkpt lat="44.643811710364425" lon="2.623754798414104"><ele>680.1666666666666</ele><time>2026-03-26T15:08:15.999Z</time></trkpt><trkpt lat="44.64380199659623" lon="2.6236319156268295"><ele>680.0</ele><time>2026-03-26T15:08:16.999Z</time></trkpt><trkpt lat="44.64379682314419" lon="2.623506145612103"><ele>680.0</ele><time>2026-03-26T15:08:17.999Z</time></trkpt><trkpt lat="44.64380846557587" lon="2.623402897394934"><ele>680.0</ele><time>2026-03-26T15:08:18.999Z</time></trkpt><trkpt lat="44.643854022387096" lon="2.6232736461982116"><ele>680.0</ele><time>2026-03-26T15:08:20.999Z</time></trkpt><trkpt lat="44.64393805454638" lon="2.623182469161563"><ele>680.0</ele><time>2026-03-26T15:08:22.999Z</time></trkpt><trkpt lat="44.64402223889825" lon="2.6230854752466004"><ele>680.0</ele><time>2026-03-26T15:08:24.999Z</time></trkpt><trkpt lat="44.64410217270326" lon="2.622994736089339"><ele>680.0</ele><time>2026-03-26T15:08:26.999Z</time></trkpt><trkpt lat="44.644194265964515" lon="2.622895765745495"><ele>680.0</ele><time>2026-03-26T15:08:28.999Z</time></trkpt><trkpt lat="44.64427302364046" lon="2.622771439361551"><ele>680.0</ele><time>2026-03-26T15:08:30.999Z</time></trkpt><trkpt lat="44.64431947737624" lon="2.622678922358412"><ele>680.0</ele><time>2026-03-26T15:08:32.999Z</time></trkpt><trkpt lat="44.64431799525105" lon="2.622573504936142"><ele>680.0</ele><time>2026-03-26T15:08:41.999Z</time></trkpt><trkpt lat="44.644266592587904" lon="2.6225013657687946"><ele>680.0</ele><time>2026-03-26T15:08:44.999Z</time></trkpt><trkpt lat="44.64424647340673" lon="2.622403723736847"><ele>680.0</ele><time>2026-03-26T15:08:48.999Z</time></trkpt><trkpt lat="44.6442876543379" lon="2.6224799087175312"><ele>680.0</ele><time>2026-03-26T15:08:58Z</time></trkpt><trkpt lat="44.64433623055871" lon="2.622583039754871"><ele>680.0</ele><time>2026-03-26T15:09:00Z</time></trkpt><trkpt lat="44.64442664238912" lon="2.6226460232809767"><ele>680.0</ele><time>2026-03-26T15:09:02Z</time></trkpt><trkpt lat="44.6445124320556" lon="2.6227021813828624"><ele>680.0</ele><time>2026-03-26T15:09:04Z</time></trkpt><trkpt lat="44.644611170771455" lon="2.6227726041627464"><ele>681.1428571428572</ele><time>2026-03-26T15:09:06Z</time></trkpt><trkpt lat="44.644670449012594" lon="2.622808249306149"><ele>682.2857142857142</ele><time>2026-03-26T15:09:07Z</time></trkpt><trkpt lat="44.64472874016755" lon="2.6228458287550867"><ele>683.4285714285714</ele><time>2026-03-26T15:09:08Z</time></trkpt><trkpt lat="44.64479230201315" lon="2.6228797247777966"><ele>684.5714285714287</ele><time>2026-03-26T15:09:09Z</time></trkpt><trkpt lat="44.64485014802727" lon="2.62292734745953"><ele>685.7142857142858</ele><time>2026-03-26T15:09:10Z</time></trkpt><trkpt lat="44.64491062778824" lon="2.622973659623424"><ele>686.8571428571429</ele><time>2026-03-26T15:09:11Z</time></trkpt><trkpt lat="44.644973207892015" lon="2.6230141407356267"><ele>688.0</ele><time>2026-03-26T15:09:12Z</time></trkpt><trkpt lat="44.64503826046666" lon="2.6230588289239534"><ele>688.0</ele><time>2026-03-26T15:09:13Z</time></trkpt><trkpt lat="44.64510397089276" lon="2.623099509696799"><ele>688.0</ele><time>2026-03-26T15:09:14Z</time></trkpt><trkpt lat="44.64517182695976" lon="2.623139279486856"><ele>688.0</ele><time>2026-03-26T15:09:15Z</time></trkpt><trkpt lat="44.64523908476675" lon="2.623179726540248"><ele>688.0</ele><time>2026-03-26T15:09:16Z</time></trkpt><trkpt lat="44.645307289729224" lon="2.6232241801001015"><ele>688.0</ele><time>2026-03-26T15:09:17Z</time></trkpt><trkpt lat="44.645448861891545" lon="2.6233186150817414"><ele>688.8571428571429</ele><time>2026-03-26T15:09:19Z</time></trkpt><trkpt lat="44.6455154744211" lon="2.623363404316938"><ele>689.7142857142858</ele><time>2026-03-26T15:09:20Z</time></trkpt><trkpt lat="44.64557630430692" lon="2.6234087190031414"><ele>690.5714285714287</ele><time>2026-03-26T15:09:21Z</time></trkpt><trkpt lat="44.645633035792024" lon="2.6234472901307684"><ele>691.4285714285714</ele><time>2026-03-26T15:09:22Z</time></trkpt><trkpt lat="44.645692798838006" lon="2.6234796029222345"><ele>692.2857142857142</ele><time>2026-03-26T15:09:23Z</time></trkpt><trkpt lat="44.64575378683542" lon="2.62352021020059"><ele>693.1428571428572</ele><time>2026-03-26T15:09:24Z</time></trkpt><trkpt lat="44.645815515556315" lon="2.623575198786836"><ele>694.0</ele><time>2026-03-26T15:09:25Z</time></trkpt><trkpt lat="44.645880236230575" lon="2.623644469790783"><ele>694.4000000000001</ele><time>2026-03-26T15:09:26Z</time></trkpt><trkpt lat="44.64595476185717" lon="2.623706118764302"><ele>694.8</ele><time>2026-03-26T15:09:27Z</time></trkpt><trkpt lat="44.64602538889415" lon="2.62376938647565"><ele>695.2</ele><time>2026-03-26T15:09:28Z</time></trkpt><trkpt lat="44.646107924058256" lon="2.623833309066198"><ele>695.5999999999999</ele><time>2026-03-26T15:09:29Z</time></trkpt><trkpt lat="44.646186313822646" lon="2.6239095764519647"><ele>696.0</ele><time>2026-03-26T15:09:30Z</time></trkpt><trkpt lat="44.64625613687235" lon="2.6239903678569014"><ele>696.5999999999999</ele><time>2026-03-26T15:09:31Z</time></trkpt><trkpt lat="44.64631889843239" lon="2.6240758903988"><ele>697.2</ele><time>2026-03-26T15:09:32Z</time></trkpt><trkpt lat="44.64637939211138" lon="2.6241685637868666"><ele>697.8</ele><time>2026-03-26T15:09:33Z</time></trkpt><trkpt lat="44.646445120029355" lon="2.62425836753649"><ele>698.4000000000001</ele><time>2026-03-26T15:09:34Z</time></trkpt><trkpt lat="44.64651646978372" lon="2.624351254510113"><ele>699.0</ele><time>2026-03-26T15:09:35Z</time></trkpt><trkpt lat="44.64658149225448" lon="2.6244560283283946"><ele>700.6</ele><time>2026-03-26T15:09:36Z</time></trkpt><trkpt lat="44.646641207773335" lon="2.6245651550197415"><ele>702.2</ele><time>2026-03-26T15:09:37Z</time></trkpt><trkpt lat="44.64670025605585" lon="2.624677223439082"><ele>703.8000000000001</ele><time>2026-03-26T15:09:38Z</time></trkpt><trkpt lat="44.64675617955181" lon="2.6247905709859416"><ele>705.4000000000001</ele><time>2026-03-26T15:09:39Z</time></trkpt><trkpt lat="44.64681037146963" lon="2.6249016368136084"><ele>707.0</ele><time>2026-03-26T15:09:40Z</time></trkpt><trkpt lat="44.64685865853014" lon="2.6249928010948835"><ele>707.0</ele><time>2026-03-26T15:09:41Z</time></trkpt><trkpt lat="44.646912336580414" lon="2.6250742228266652"><ele>707.0</ele><time>2026-03-26T15:09:42Z</time></trkpt><trkpt lat="44.64697609502578" lon="2.6251539743204697"><ele>707.0</ele><time>2026-03-26T15:09:43Z</time></trkpt><trkpt lat="44.64703304136127" lon="2.625244383679941"><ele>707.0</ele><time>2026-03-26T15:09:44Z</time></trkpt><trkpt lat="44.64709515062122" lon="2.6253414865251177"><ele>707.0</ele><time>2026-03-26T15:09:44.999Z</time></trkpt><trkpt lat="44.64716171087171" lon="2.625440576752487"><ele>707.0</ele><time>2026-03-26T15:09:45.999Z</time></trkpt><trkpt lat="44.64721619708422" lon="2.6255220337251797"><ele>710.0</ele><time>2026-03-26T15:09:46.999Z</time></trkpt><trkpt lat="44.64726532465506" lon="2.6255865187956293"><ele>710.0</ele><time>2026-03-26T15:09:47.999Z</time></trkpt><trkpt lat="44.64734801934933" lon="2.625656461429331"><ele>710.0</ele><time>2026-03-26T15:09:49.999Z</time></trkpt></trkseg></trk></gpx>